<?xml version="1.0" encoding="UTF-8"?>
<gpx xmlns="http://www.topografix.com/GPX/1/1" xmlns:gpsies="https://www.gpsies.com/GPX/1/0" creator="GPSies https://www.gpsies.com - &amp;#1044;&amp;#1077;&amp;#1088;&amp;#1077;&amp;#1093; &amp;#1052;&amp;#1080;&amp;#1096;&amp;#1083;&amp;#1072;&amp;#1090;&amp;#1080;&amp;#1084; - &amp;#1050;&amp;#1080;&amp;#1089;&amp;#1072;&amp;#1083;&amp;#1086;&amp;#1085; - &amp;#1056;&amp;#1072;&amp;#1084;&amp;#1072;&amp;#1090; &amp;#1056;&amp;#1072;&amp;#1079;&amp;#1080;&amp;#1077;&amp;#1083;&amp;#1100;. &amp;#1050;&amp;#1086;&amp;#1088;&amp;#1086;&amp;#1090;&amp;#1082;&amp;#1080;&amp;#1081; &amp;#1074;&amp;#1072;&amp;#1088;&amp;#1080;&amp;#1072;&amp;#1085;&amp;#1090;. New!" version="1.1" xmlns:xsi="http://www.w3.org/2001/XMLSchema-instance" xsi:schemaLocation="http://www.topografix.com/GPX/1/1 http://www.topografix.com/GPX/1/1/gpx.xsd https://www.gpsies.com/GPX/1/0 https://www.gpsies.com/gpsies.xsd">
  <metadata>
    <name>Дерех Мишлатим - Кисалон - Рамат Разиель. Короткий вариант. New!</name>
    <author>
      <name>igorsk</name>
      <link href="https://www.gpsies.com/mapUser.do?username=igorsk">
        <text>igorsk on GPSies.com</text>
        <type>GPSiesUserOnWeb</type>
      </link>
    </author>
    <link href="https://www.gpsies.com/map.do?fileId=gpoxdmjhgsllibco">
      <text>Дерех Мишлатим - Кисалон - Рамат Разиель. Короткий вариант. New! on GPSies.com</text>
      <type>trackOnWeb</type>
    </link>
    <time>2018-08-26T16:29:37Z</time>
    <extensions>
      <gpsies:property>round trip</gpsies:property>
      <gpsies:trackLengthMeter>33060.80398463015</gpsies:trackLengthMeter>
      <gpsies:totalAscentMeter>811.0</gpsies:totalAscentMeter>
      <gpsies:totalDescentMeter>812.0</gpsies:totalDescentMeter>
      <gpsies:minHeightMeter>265.0</gpsies:minHeightMeter>
      <gpsies:maxHeightMeter>668.0</gpsies:maxHeightMeter>
    </extensions>
  </metadata>
  <trk>
    <name>Дерех Мишлатим - Кисалон - Рамат Разиель. Короткий вариант. New! on GPSies.com</name>
    <link href="https://www.gpsies.com/map.do?fileId=gpoxdmjhgsllibco">
      <type>trackOnWeb</type>
    </link>
    <link href="https://www.gpsies.com/charts/gp/map/gpoxdmjhgsllibco_map.png">
      <type>elevationChartUrlMap</type>
    </link>
    <link href="https://www.gpsies.com/charts/gp/mapThumb/gpoxdmjhgsllibco_mapThumb.png">
      <type>elevationChartUrlMapThumb</type>
    </link>
    <link href="https://www.gpsies.com/charts/gp/tab/gpoxdmjhgsllibco_tab.png">
      <type>elevationChartUrlTab</type>
    </link>
    <trkseg>
      <trkpt lat="31.81002830" lon="35.02054050">
        <ele>314.00000</ele>
        <time>2010-01-01T00:00:00Z</time>
      </trkpt>
      <trkpt lat="31.80954060" lon="35.02019670">
        <ele>313.00000</ele>
        <time>2010-01-01T00:00:22Z</time>
      </trkpt>
      <trkpt lat="31.80951630" lon="35.02006630">
        <ele>312.00000</ele>
        <time>2010-01-01T00:00:27Z</time>
      </trkpt>
      <trkpt lat="31.80949020" lon="35.01995480">
        <ele>312.00000</ele>
        <time>2010-01-01T00:00:31Z</time>
      </trkpt>
      <trkpt lat="31.80943090" lon="35.01985150">
        <ele>312.00000</ele>
        <time>2010-01-01T00:00:35Z</time>
      </trkpt>
      <trkpt lat="31.80932670" lon="35.01979300">
        <ele>312.00000</ele>
        <time>2010-01-01T00:00:40Z</time>
      </trkpt>
      <trkpt lat="31.80920910" lon="35.01973000">
        <ele>313.00000</ele>
        <time>2010-01-01T00:00:45Z</time>
      </trkpt>
      <trkpt lat="31.80912140" lon="35.01967290">
        <ele>314.00000</ele>
        <time>2010-01-01T00:00:49Z</time>
      </trkpt>
      <trkpt lat="31.80906690" lon="35.01958460">
        <ele>314.00000</ele>
        <time>2010-01-01T00:00:52Z</time>
      </trkpt>
      <trkpt lat="31.80907110" lon="35.01947610">
        <ele>314.00000</ele>
        <time>2010-01-01T00:00:56Z</time>
      </trkpt>
      <trkpt lat="31.80910910" lon="35.01935940">
        <ele>313.00000</ele>
        <time>2010-01-01T00:01:00Z</time>
      </trkpt>
      <trkpt lat="31.80916300" lon="35.01922480">
        <ele>311.00000</ele>
        <time>2010-01-01T00:01:06Z</time>
      </trkpt>
      <trkpt lat="31.80921760" lon="35.01907570">
        <ele>308.00000</ele>
        <time>2010-01-01T00:01:11Z</time>
      </trkpt>
      <trkpt lat="31.80927610" lon="35.01892440">
        <ele>305.00000</ele>
        <time>2010-01-01T00:01:17Z</time>
      </trkpt>
      <trkpt lat="31.80933350" lon="35.01878110">
        <ele>303.00000</ele>
        <time>2010-01-01T00:01:22Z</time>
      </trkpt>
      <trkpt lat="31.80938150" lon="35.01863850">
        <ele>301.00000</ele>
        <time>2010-01-01T00:01:27Z</time>
      </trkpt>
      <trkpt lat="31.80943110" lon="35.01850380">
        <ele>301.00000</ele>
        <time>2010-01-01T00:01:32Z</time>
      </trkpt>
      <trkpt lat="31.80947790" lon="35.01838020">
        <ele>300.00000</ele>
        <time>2010-01-01T00:01:37Z</time>
      </trkpt>
      <trkpt lat="31.80955770" lon="35.01830360">
        <ele>300.00000</ele>
        <time>2010-01-01T00:01:41Z</time>
      </trkpt>
      <trkpt lat="31.80966220" lon="35.01829850">
        <ele>300.00000</ele>
        <time>2010-01-01T00:01:45Z</time>
      </trkpt>
      <trkpt lat="31.80976350" lon="35.01833500">
        <ele>300.00000</ele>
        <time>2010-01-01T00:01:49Z</time>
      </trkpt>
      <trkpt lat="31.80985880" lon="35.01837200">
        <ele>301.00000</ele>
        <time>2010-01-01T00:01:53Z</time>
      </trkpt>
      <trkpt lat="31.80997770" lon="35.01842460">
        <ele>302.00000</ele>
        <time>2010-01-01T00:01:59Z</time>
      </trkpt>
      <trkpt lat="31.81006810" lon="35.01848110">
        <ele>302.00000</ele>
        <time>2010-01-01T00:02:03Z</time>
      </trkpt>
      <trkpt lat="31.81014010" lon="35.01854690">
        <ele>303.00000</ele>
        <time>2010-01-01T00:02:06Z</time>
      </trkpt>
      <trkpt lat="31.81021780" lon="35.01864450">
        <ele>304.00000</ele>
        <time>2010-01-01T00:02:11Z</time>
      </trkpt>
      <trkpt lat="31.81027690" lon="35.01876220">
        <ele>305.00000</ele>
        <time>2010-01-01T00:02:15Z</time>
      </trkpt>
      <trkpt lat="31.81031890" lon="35.01885570">
        <ele>305.00000</ele>
        <time>2010-01-01T00:02:19Z</time>
      </trkpt>
      <trkpt lat="31.81035530" lon="35.01895310">
        <ele>306.00000</ele>
        <time>2010-01-01T00:02:23Z</time>
      </trkpt>
      <trkpt lat="31.81039310" lon="35.01905050">
        <ele>307.00000</ele>
        <time>2010-01-01T00:02:26Z</time>
      </trkpt>
      <trkpt lat="31.81043590" lon="35.01915090">
        <ele>308.00000</ele>
        <time>2010-01-01T00:02:30Z</time>
      </trkpt>
      <trkpt lat="31.81048390" lon="35.01924850">
        <ele>309.00000</ele>
        <time>2010-01-01T00:02:34Z</time>
      </trkpt>
      <trkpt lat="31.81053890" lon="35.01933950">
        <ele>309.00000</ele>
        <time>2010-01-01T00:02:38Z</time>
      </trkpt>
      <trkpt lat="31.81060840" lon="35.01942130">
        <ele>309.00000</ele>
        <time>2010-01-01T00:02:42Z</time>
      </trkpt>
      <trkpt lat="31.81068810" lon="35.01949160">
        <ele>310.00000</ele>
        <time>2010-01-01T00:02:46Z</time>
      </trkpt>
      <trkpt lat="31.81077460" lon="35.01955550">
        <ele>310.00000</ele>
        <time>2010-01-01T00:02:50Z</time>
      </trkpt>
      <trkpt lat="31.81085740" lon="35.01960610">
        <ele>310.00000</ele>
        <time>2010-01-01T00:02:54Z</time>
      </trkpt>
      <trkpt lat="31.81094880" lon="35.01966470">
        <ele>310.00000</ele>
        <time>2010-01-01T00:02:58Z</time>
      </trkpt>
      <trkpt lat="31.81103140" lon="35.01971280">
        <ele>310.00000</ele>
        <time>2010-01-01T00:03:01Z</time>
      </trkpt>
      <trkpt lat="31.81112510" lon="35.01976660">
        <ele>310.00000</ele>
        <time>2010-01-01T00:03:06Z</time>
      </trkpt>
      <trkpt lat="31.81121170" lon="35.01981390">
        <ele>311.00000</ele>
        <time>2010-01-01T00:03:09Z</time>
      </trkpt>
      <trkpt lat="31.81129820" lon="35.01986880">
        <ele>311.00000</ele>
        <time>2010-01-01T00:03:13Z</time>
      </trkpt>
      <trkpt lat="31.81137920" lon="35.01992210">
        <ele>312.00000</ele>
        <time>2010-01-01T00:03:17Z</time>
      </trkpt>
      <trkpt lat="31.81146260" lon="35.01997000">
        <ele>313.00000</ele>
        <time>2010-01-01T00:03:21Z</time>
      </trkpt>
      <trkpt lat="31.81154230" lon="35.02002260">
        <ele>314.00000</ele>
        <time>2010-01-01T00:03:24Z</time>
      </trkpt>
      <trkpt lat="31.81163000" lon="35.02008700">
        <ele>315.00000</ele>
        <time>2010-01-01T00:03:29Z</time>
      </trkpt>
      <trkpt lat="31.81171930" lon="35.02013770">
        <ele>316.00000</ele>
        <time>2010-01-01T00:03:33Z</time>
      </trkpt>
      <trkpt lat="31.81181280" lon="35.02008830">
        <ele>318.00000</ele>
        <time>2010-01-01T00:03:37Z</time>
      </trkpt>
      <trkpt lat="31.81184950" lon="35.01998870">
        <ele>319.00000</ele>
        <time>2010-01-01T00:03:40Z</time>
      </trkpt>
      <trkpt lat="31.81187420" lon="35.01987860">
        <ele>319.00000</ele>
        <time>2010-01-01T00:03:44Z</time>
      </trkpt>
      <trkpt lat="31.81188810" lon="35.01976270">
        <ele>320.00000</ele>
        <time>2010-01-01T00:03:48Z</time>
      </trkpt>
      <trkpt lat="31.81191750" lon="35.01965550">
        <ele>320.00000</ele>
        <time>2010-01-01T00:03:52Z</time>
      </trkpt>
      <trkpt lat="31.81196280" lon="35.01954410">
        <ele>321.00000</ele>
        <time>2010-01-01T00:03:56Z</time>
      </trkpt>
      <trkpt lat="31.81198940" lon="35.01942590">
        <ele>322.00000</ele>
        <time>2010-01-01T00:04:00Z</time>
      </trkpt>
      <trkpt lat="31.81202140" lon="35.01930990">
        <ele>323.00000</ele>
        <time>2010-01-01T00:04:05Z</time>
      </trkpt>
      <trkpt lat="31.81205510" lon="35.01920110">
        <ele>324.00000</ele>
        <time>2010-01-01T00:04:08Z</time>
      </trkpt>
      <trkpt lat="31.81208260" lon="35.01909480">
        <ele>324.00000</ele>
        <time>2010-01-01T00:04:12Z</time>
      </trkpt>
      <trkpt lat="31.81212730" lon="35.01898240">
        <ele>324.00000</ele>
        <time>2010-01-01T00:04:16Z</time>
      </trkpt>
      <trkpt lat="31.81215260" lon="35.01887460">
        <ele>324.00000</ele>
        <time>2010-01-01T00:04:20Z</time>
      </trkpt>
      <trkpt lat="31.81219700" lon="35.01875160">
        <ele>324.00000</ele>
        <time>2010-01-01T00:04:25Z</time>
      </trkpt>
      <trkpt lat="31.81228770" lon="35.01874010">
        <ele>325.00000</ele>
        <time>2010-01-01T00:04:28Z</time>
      </trkpt>
      <trkpt lat="31.81237320" lon="35.01878510">
        <ele>326.00000</ele>
        <time>2010-01-01T00:04:32Z</time>
      </trkpt>
      <trkpt lat="31.81245660" lon="35.01885330">
        <ele>326.00000</ele>
        <time>2010-01-01T00:04:36Z</time>
      </trkpt>
      <trkpt lat="31.81254050" lon="35.01891260">
        <ele>327.00000</ele>
        <time>2010-01-01T00:04:40Z</time>
      </trkpt>
      <trkpt lat="31.81263170" lon="35.01895770">
        <ele>328.00000</ele>
        <time>2010-01-01T00:04:44Z</time>
      </trkpt>
      <trkpt lat="31.81272970" lon="35.01900930">
        <ele>329.00000</ele>
        <time>2010-01-01T00:04:48Z</time>
      </trkpt>
      <trkpt lat="31.81282530" lon="35.01906630">
        <ele>329.00000</ele>
        <time>2010-01-01T00:04:53Z</time>
      </trkpt>
      <trkpt lat="31.81291400" lon="35.01911460">
        <ele>330.00000</ele>
        <time>2010-01-01T00:04:57Z</time>
      </trkpt>
      <trkpt lat="31.81299120" lon="35.01919290">
        <ele>331.00000</ele>
        <time>2010-01-01T00:05:01Z</time>
      </trkpt>
      <trkpt lat="31.81308500" lon="35.01925560">
        <ele>331.00000</ele>
        <time>2010-01-01T00:05:05Z</time>
      </trkpt>
      <trkpt lat="31.81316670" lon="35.01930850">
        <ele>330.00000</ele>
        <time>2010-01-01T00:05:09Z</time>
      </trkpt>
      <trkpt lat="31.81325750" lon="35.01935160">
        <ele>330.00000</ele>
        <time>2010-01-01T00:05:13Z</time>
      </trkpt>
      <trkpt lat="31.81334760" lon="35.01938660">
        <ele>330.00000</ele>
        <time>2010-01-01T00:05:17Z</time>
      </trkpt>
      <trkpt lat="31.81344620" lon="35.01943680">
        <ele>329.00000</ele>
        <time>2010-01-01T00:05:21Z</time>
      </trkpt>
      <trkpt lat="31.81356250" lon="35.01948180">
        <ele>330.00000</ele>
        <time>2010-01-01T00:05:26Z</time>
      </trkpt>
      <trkpt lat="31.81365190" lon="35.01951720">
        <ele>330.00000</ele>
        <time>2010-01-01T00:05:29Z</time>
      </trkpt>
      <trkpt lat="31.81376730" lon="35.01959680">
        <ele>330.00000</ele>
        <time>2010-01-01T00:05:35Z</time>
      </trkpt>
      <trkpt lat="31.81386280" lon="35.01967520">
        <ele>329.00000</ele>
        <time>2010-01-01T00:05:39Z</time>
      </trkpt>
      <trkpt lat="31.81398590" lon="35.01972100">
        <ele>329.00000</ele>
        <time>2010-01-01T00:05:45Z</time>
      </trkpt>
      <trkpt lat="31.81412380" lon="35.01972270">
        <ele>329.00000</ele>
        <time>2010-01-01T00:05:50Z</time>
      </trkpt>
      <trkpt lat="31.81426920" lon="35.01970460">
        <ele>328.00000</ele>
        <time>2010-01-01T00:05:56Z</time>
      </trkpt>
      <trkpt lat="31.81441730" lon="35.01966730">
        <ele>328.00000</ele>
        <time>2010-01-01T00:06:02Z</time>
      </trkpt>
      <trkpt lat="31.81456440" lon="35.01960320">
        <ele>328.00000</ele>
        <time>2010-01-01T00:06:08Z</time>
      </trkpt>
      <trkpt lat="31.81470500" lon="35.01952840">
        <ele>328.00000</ele>
        <time>2010-01-01T00:06:15Z</time>
      </trkpt>
      <trkpt lat="31.81483300" lon="35.01945550">
        <ele>328.00000</ele>
        <time>2010-01-01T00:06:20Z</time>
      </trkpt>
      <trkpt lat="31.81493930" lon="35.01940960">
        <ele>328.00000</ele>
        <time>2010-01-01T00:06:25Z</time>
      </trkpt>
      <trkpt lat="31.81503730" lon="35.01939590">
        <ele>328.00000</ele>
        <time>2010-01-01T00:06:29Z</time>
      </trkpt>
      <trkpt lat="31.81513060" lon="35.01938590">
        <ele>327.00000</ele>
        <time>2010-01-01T00:06:32Z</time>
      </trkpt>
      <trkpt lat="31.81523420" lon="35.01936440">
        <ele>327.00000</ele>
        <time>2010-01-01T00:06:37Z</time>
      </trkpt>
      <trkpt lat="31.81533980" lon="35.01933980">
        <ele>326.00000</ele>
        <time>2010-01-01T00:06:41Z</time>
      </trkpt>
      <trkpt lat="31.81545890" lon="35.01931360">
        <ele>325.00000</ele>
        <time>2010-01-01T00:06:46Z</time>
      </trkpt>
      <trkpt lat="31.81558950" lon="35.01928220">
        <ele>323.00000</ele>
        <time>2010-01-01T00:06:51Z</time>
      </trkpt>
      <trkpt lat="31.81572660" lon="35.01924100">
        <ele>320.00000</ele>
        <time>2010-01-01T00:06:57Z</time>
      </trkpt>
      <trkpt lat="31.81586240" lon="35.01920210">
        <ele>318.00000</ele>
        <time>2010-01-01T00:07:02Z</time>
      </trkpt>
      <trkpt lat="31.81600290" lon="35.01916640">
        <ele>316.00000</ele>
        <time>2010-01-01T00:07:08Z</time>
      </trkpt>
      <trkpt lat="31.81614600" lon="35.01915240">
        <ele>314.00000</ele>
        <time>2010-01-01T00:07:14Z</time>
      </trkpt>
      <trkpt lat="31.81629420" lon="35.01914100">
        <ele>312.00000</ele>
        <time>2010-01-01T00:07:20Z</time>
      </trkpt>
      <trkpt lat="31.81643180" lon="35.01912760">
        <ele>311.00000</ele>
        <time>2010-01-01T00:07:25Z</time>
      </trkpt>
      <trkpt lat="31.81655950" lon="35.01912100">
        <ele>309.00000</ele>
        <time>2010-01-01T00:07:31Z</time>
      </trkpt>
      <trkpt lat="31.81667630" lon="35.01910550">
        <ele>308.00000</ele>
        <time>2010-01-01T00:07:35Z</time>
      </trkpt>
      <trkpt lat="31.81678400" lon="35.01905760">
        <ele>307.00000</ele>
        <time>2010-01-01T00:07:40Z</time>
      </trkpt>
      <trkpt lat="31.81688210" lon="35.01898050">
        <ele>307.00000</ele>
        <time>2010-01-01T00:07:45Z</time>
      </trkpt>
      <trkpt lat="31.81698760" lon="35.01889410">
        <ele>306.00000</ele>
        <time>2010-01-01T00:07:50Z</time>
      </trkpt>
      <trkpt lat="31.81710040" lon="35.01881760">
        <ele>305.00000</ele>
        <time>2010-01-01T00:07:55Z</time>
      </trkpt>
      <trkpt lat="31.81721200" lon="35.01873650">
        <ele>304.00000</ele>
        <time>2010-01-01T00:08:00Z</time>
      </trkpt>
      <trkpt lat="31.81733080" lon="35.01866540">
        <ele>303.00000</ele>
        <time>2010-01-01T00:08:06Z</time>
      </trkpt>
      <trkpt lat="31.81744840" lon="35.01861990">
        <ele>302.00000</ele>
        <time>2010-01-01T00:08:10Z</time>
      </trkpt>
      <trkpt lat="31.81755640" lon="35.01856800">
        <ele>302.00000</ele>
        <time>2010-01-01T00:08:15Z</time>
      </trkpt>
      <trkpt lat="31.81767170" lon="35.01850360">
        <ele>303.00000</ele>
        <time>2010-01-01T00:08:20Z</time>
      </trkpt>
      <trkpt lat="31.81779010" lon="35.01842590">
        <ele>304.00000</ele>
        <time>2010-01-01T00:08:26Z</time>
      </trkpt>
      <trkpt lat="31.81792520" lon="35.01834990">
        <ele>302.00000</ele>
        <time>2010-01-01T00:08:32Z</time>
      </trkpt>
      <trkpt lat="31.81807380" lon="35.01829850">
        <ele>299.00000</ele>
        <time>2010-01-01T00:08:38Z</time>
      </trkpt>
      <trkpt lat="31.81821510" lon="35.01827200">
        <ele>298.00000</ele>
        <time>2010-01-01T00:08:44Z</time>
      </trkpt>
      <trkpt lat="31.81834790" lon="35.01825270">
        <ele>296.00000</ele>
        <time>2010-01-01T00:08:49Z</time>
      </trkpt>
      <trkpt lat="31.81847900" lon="35.01823540">
        <ele>295.00000</ele>
        <time>2010-01-01T00:08:54Z</time>
      </trkpt>
      <trkpt lat="31.81860640" lon="35.01822440">
        <ele>293.00000</ele>
        <time>2010-01-01T00:08:59Z</time>
      </trkpt>
      <trkpt lat="31.81870770" lon="35.01822820">
        <ele>292.00000</ele>
        <time>2010-01-01T00:09:03Z</time>
      </trkpt>
      <trkpt lat="31.81884400" lon="35.01821760">
        <ele>291.00000</ele>
        <time>2010-01-01T00:09:09Z</time>
      </trkpt>
      <trkpt lat="31.81893500" lon="35.01819410">
        <ele>291.00000</ele>
        <time>2010-01-01T00:09:13Z</time>
      </trkpt>
      <trkpt lat="31.81903220" lon="35.01814590">
        <ele>290.00000</ele>
        <time>2010-01-01T00:09:17Z</time>
      </trkpt>
      <trkpt lat="31.81913040" lon="35.01807780">
        <ele>290.00000</ele>
        <time>2010-01-01T00:09:21Z</time>
      </trkpt>
      <trkpt lat="31.81922580" lon="35.01799410">
        <ele>289.00000</ele>
        <time>2010-01-01T00:09:26Z</time>
      </trkpt>
      <trkpt lat="31.81931040" lon="35.01789790">
        <ele>289.00000</ele>
        <time>2010-01-01T00:09:31Z</time>
      </trkpt>
      <trkpt lat="31.81938120" lon="35.01781000">
        <ele>288.00000</ele>
        <time>2010-01-01T00:09:35Z</time>
      </trkpt>
      <trkpt lat="31.81946860" lon="35.01769310">
        <ele>288.00000</ele>
        <time>2010-01-01T00:09:40Z</time>
      </trkpt>
      <trkpt lat="31.81954970" lon="35.01760810">
        <ele>288.00000</ele>
        <time>2010-01-01T00:09:45Z</time>
      </trkpt>
      <trkpt lat="31.81963340" lon="35.01758800">
        <ele>287.00000</ele>
        <time>2010-01-01T00:09:48Z</time>
      </trkpt>
      <trkpt lat="31.81973960" lon="35.01765440">
        <ele>285.00000</ele>
        <time>2010-01-01T00:09:53Z</time>
      </trkpt>
      <trkpt lat="31.81985330" lon="35.01772240">
        <ele>283.00000</ele>
        <time>2010-01-01T00:09:58Z</time>
      </trkpt>
      <trkpt lat="31.81994010" lon="35.01777310">
        <ele>282.00000</ele>
        <time>2010-01-01T00:10:02Z</time>
      </trkpt>
      <trkpt lat="31.82002770" lon="35.01782760">
        <ele>281.00000</ele>
        <time>2010-01-01T00:10:06Z</time>
      </trkpt>
      <trkpt lat="31.82011000" lon="35.01788280">
        <ele>280.00000</ele>
        <time>2010-01-01T00:10:10Z</time>
      </trkpt>
      <trkpt lat="31.82019290" lon="35.01793260">
        <ele>279.00000</ele>
        <time>2010-01-01T00:10:13Z</time>
      </trkpt>
      <trkpt lat="31.82030150" lon="35.01801600">
        <ele>278.00000</ele>
        <time>2010-01-01T00:10:19Z</time>
      </trkpt>
      <trkpt lat="31.82037430" lon="35.01812570">
        <ele>276.00000</ele>
        <time>2010-01-01T00:10:23Z</time>
      </trkpt>
      <trkpt lat="31.82039860" lon="35.01822970">
        <ele>275.00000</ele>
        <time>2010-01-01T00:10:27Z</time>
      </trkpt>
      <trkpt lat="31.82040920" lon="35.01834330">
        <ele>274.00000</ele>
        <time>2010-01-01T00:10:31Z</time>
      </trkpt>
      <trkpt lat="31.82043220" lon="35.01846560">
        <ele>274.00000</ele>
        <time>2010-01-01T00:10:35Z</time>
      </trkpt>
      <trkpt lat="31.82044970" lon="35.01858230">
        <ele>273.00000</ele>
        <time>2010-01-01T00:10:39Z</time>
      </trkpt>
      <trkpt lat="31.82047480" lon="35.01872330">
        <ele>273.00000</ele>
        <time>2010-01-01T00:10:44Z</time>
      </trkpt>
      <trkpt lat="31.82052830" lon="35.01882400">
        <ele>273.00000</ele>
        <time>2010-01-01T00:10:48Z</time>
      </trkpt>
      <trkpt lat="31.82060410" lon="35.01891940">
        <ele>273.00000</ele>
        <time>2010-01-01T00:10:52Z</time>
      </trkpt>
      <trkpt lat="31.82067750" lon="35.01901820">
        <ele>273.00000</ele>
        <time>2010-01-01T00:10:57Z</time>
      </trkpt>
      <trkpt lat="31.82076450" lon="35.01912000">
        <ele>273.00000</ele>
        <time>2010-01-01T00:11:02Z</time>
      </trkpt>
      <trkpt lat="31.82085720" lon="35.01925970">
        <ele>272.00000</ele>
        <time>2010-01-01T00:11:08Z</time>
      </trkpt>
      <trkpt lat="31.82095470" lon="35.01934330">
        <ele>272.00000</ele>
        <time>2010-01-01T00:11:13Z</time>
      </trkpt>
      <trkpt lat="31.82107230" lon="35.01943520">
        <ele>272.00000</ele>
        <time>2010-01-01T00:11:18Z</time>
      </trkpt>
      <trkpt lat="31.82117500" lon="35.01950020">
        <ele>271.00000</ele>
        <time>2010-01-01T00:11:23Z</time>
      </trkpt>
      <trkpt lat="31.82128510" lon="35.01957440">
        <ele>270.00000</ele>
        <time>2010-01-01T00:11:28Z</time>
      </trkpt>
      <trkpt lat="31.82139370" lon="35.01964610">
        <ele>270.00000</ele>
        <time>2010-01-01T00:11:33Z</time>
      </trkpt>
      <trkpt lat="31.82150690" lon="35.01967880">
        <ele>270.00000</ele>
        <time>2010-01-01T00:11:38Z</time>
      </trkpt>
      <trkpt lat="31.82160070" lon="35.01971580">
        <ele>270.00000</ele>
        <time>2010-01-01T00:11:42Z</time>
      </trkpt>
      <trkpt lat="31.82169780" lon="35.01971350">
        <ele>270.00000</ele>
        <time>2010-01-01T00:11:46Z</time>
      </trkpt>
      <trkpt lat="31.82176740" lon="35.01963040">
        <ele>270.00000</ele>
        <time>2010-01-01T00:11:50Z</time>
      </trkpt>
      <trkpt lat="31.82180220" lon="35.01952240">
        <ele>270.00000</ele>
        <time>2010-01-01T00:11:54Z</time>
      </trkpt>
      <trkpt lat="31.82182190" lon="35.01940800">
        <ele>269.00000</ele>
        <time>2010-01-01T00:11:57Z</time>
      </trkpt>
      <trkpt lat="31.82185130" lon="35.01927240">
        <ele>269.00000</ele>
        <time>2010-01-01T00:12:02Z</time>
      </trkpt>
      <trkpt lat="31.82188030" lon="35.01916920">
        <ele>269.00000</ele>
        <time>2010-01-01T00:12:06Z</time>
      </trkpt>
      <trkpt lat="31.82191880" lon="35.01904060">
        <ele>268.00000</ele>
        <time>2010-01-01T00:12:11Z</time>
      </trkpt>
      <trkpt lat="31.82194910" lon="35.01891340">
        <ele>268.00000</ele>
        <time>2010-01-01T00:12:15Z</time>
      </trkpt>
      <trkpt lat="31.82197410" lon="35.01878480">
        <ele>267.00000</ele>
        <time>2010-01-01T00:12:20Z</time>
      </trkpt>
      <trkpt lat="31.82203390" lon="35.01870080">
        <ele>267.00000</ele>
        <time>2010-01-01T00:12:23Z</time>
      </trkpt>
      <trkpt lat="31.82205410" lon="35.01879060">
        <ele>267.00000</ele>
        <time>2010-01-01T00:12:26Z</time>
      </trkpt>
      <trkpt lat="31.82202610" lon="35.01891090">
        <ele>268.00000</ele>
        <time>2010-01-01T00:12:31Z</time>
      </trkpt>
      <trkpt lat="31.82200220" lon="35.01903950">
        <ele>268.00000</ele>
        <time>2010-01-01T00:12:35Z</time>
      </trkpt>
      <trkpt lat="31.82198730" lon="35.01916370">
        <ele>269.00000</ele>
        <time>2010-01-01T00:12:39Z</time>
      </trkpt>
      <trkpt lat="31.82197270" lon="35.01927300">
        <ele>269.00000</ele>
        <time>2010-01-01T00:12:43Z</time>
      </trkpt>
      <trkpt lat="31.82195580" lon="35.01940250">
        <ele>269.00000</ele>
        <time>2010-01-01T00:12:48Z</time>
      </trkpt>
      <trkpt lat="31.82194160" lon="35.01951030">
        <ele>270.00000</ele>
        <time>2010-01-01T00:12:51Z</time>
      </trkpt>
      <trkpt lat="31.82190990" lon="35.01962020">
        <ele>270.00000</ele>
        <time>2010-01-01T00:12:55Z</time>
      </trkpt>
      <trkpt lat="31.82186940" lon="35.01973230">
        <ele>269.00000</ele>
        <time>2010-01-01T00:12:59Z</time>
      </trkpt>
      <trkpt lat="31.82180050" lon="35.01984050">
        <ele>269.00000</ele>
        <time>2010-01-01T00:13:04Z</time>
      </trkpt>
      <trkpt lat="31.82170950" lon="35.01992300">
        <ele>269.00000</ele>
        <time>2010-01-01T00:13:09Z</time>
      </trkpt>
      <trkpt lat="31.82161400" lon="35.01999220">
        <ele>269.00000</ele>
        <time>2010-01-01T00:13:13Z</time>
      </trkpt>
      <trkpt lat="31.82151520" lon="35.02007090">
        <ele>269.00000</ele>
        <time>2010-01-01T00:13:18Z</time>
      </trkpt>
      <trkpt lat="31.82143290" lon="35.02013220">
        <ele>270.00000</ele>
        <time>2010-01-01T00:13:22Z</time>
      </trkpt>
      <trkpt lat="31.82134660" lon="35.02019740">
        <ele>271.00000</ele>
        <time>2010-01-01T00:13:26Z</time>
      </trkpt>
      <trkpt lat="31.82126560" lon="35.02026820">
        <ele>271.00000</ele>
        <time>2010-01-01T00:13:30Z</time>
      </trkpt>
      <trkpt lat="31.82119090" lon="35.02033860">
        <ele>272.00000</ele>
        <time>2010-01-01T00:13:34Z</time>
      </trkpt>
      <trkpt lat="31.82110640" lon="35.02043580">
        <ele>273.00000</ele>
        <time>2010-01-01T00:13:39Z</time>
      </trkpt>
      <trkpt lat="31.82102300" lon="35.02053400">
        <ele>273.00000</ele>
        <time>2010-01-01T00:13:43Z</time>
      </trkpt>
      <trkpt lat="31.82096380" lon="35.02065020">
        <ele>273.00000</ele>
        <time>2010-01-01T00:13:48Z</time>
      </trkpt>
      <trkpt lat="31.82094010" lon="35.02078690">
        <ele>274.00000</ele>
        <time>2010-01-01T00:13:53Z</time>
      </trkpt>
      <trkpt lat="31.82088670" lon="35.02087840">
        <ele>275.00000</ele>
        <time>2010-01-01T00:13:56Z</time>
      </trkpt>
      <trkpt lat="31.82079650" lon="35.02095830">
        <ele>276.00000</ele>
        <time>2010-01-01T00:14:01Z</time>
      </trkpt>
      <trkpt lat="31.82070450" lon="35.02104060">
        <ele>276.00000</ele>
        <time>2010-01-01T00:14:06Z</time>
      </trkpt>
      <trkpt lat="31.82061610" lon="35.02111770">
        <ele>276.00000</ele>
        <time>2010-01-01T00:14:10Z</time>
      </trkpt>
      <trkpt lat="31.82053050" lon="35.02119540">
        <ele>276.00000</ele>
        <time>2010-01-01T00:14:14Z</time>
      </trkpt>
      <trkpt lat="31.82044500" lon="35.02127190">
        <ele>277.00000</ele>
        <time>2010-01-01T00:14:19Z</time>
      </trkpt>
      <trkpt lat="31.82037080" lon="35.02136040">
        <ele>278.00000</ele>
        <time>2010-01-01T00:14:23Z</time>
      </trkpt>
      <trkpt lat="31.82028040" lon="35.02143790">
        <ele>279.00000</ele>
        <time>2010-01-01T00:14:27Z</time>
      </trkpt>
      <trkpt lat="31.82020100" lon="35.02152900">
        <ele>279.00000</ele>
        <time>2010-01-01T00:14:32Z</time>
      </trkpt>
      <trkpt lat="31.82012820" lon="35.02161660">
        <ele>279.00000</ele>
        <time>2010-01-01T00:14:36Z</time>
      </trkpt>
      <trkpt lat="31.82005510" lon="35.02169330">
        <ele>279.00000</ele>
        <time>2010-01-01T00:14:40Z</time>
      </trkpt>
      <trkpt lat="31.81997940" lon="35.02177770">
        <ele>279.00000</ele>
        <time>2010-01-01T00:14:44Z</time>
      </trkpt>
      <trkpt lat="31.81990120" lon="35.02187530">
        <ele>280.00000</ele>
        <time>2010-01-01T00:14:49Z</time>
      </trkpt>
      <trkpt lat="31.81981770" lon="35.02197100">
        <ele>280.00000</ele>
        <time>2010-01-01T00:14:53Z</time>
      </trkpt>
      <trkpt lat="31.81974570" lon="35.02204870">
        <ele>280.00000</ele>
        <time>2010-01-01T00:14:57Z</time>
      </trkpt>
      <trkpt lat="31.81967150" lon="35.02213160">
        <ele>281.00000</ele>
        <time>2010-01-01T00:15:01Z</time>
      </trkpt>
      <trkpt lat="31.81960360" lon="35.02222270">
        <ele>282.00000</ele>
        <time>2010-01-01T00:15:05Z</time>
      </trkpt>
      <trkpt lat="31.81953220" lon="35.02231130">
        <ele>282.00000</ele>
        <time>2010-01-01T00:15:09Z</time>
      </trkpt>
      <trkpt lat="31.81946890" lon="35.02239280">
        <ele>282.00000</ele>
        <time>2010-01-01T00:15:13Z</time>
      </trkpt>
      <trkpt lat="31.81939140" lon="35.02248820">
        <ele>282.00000</ele>
        <time>2010-01-01T00:15:18Z</time>
      </trkpt>
      <trkpt lat="31.81931250" lon="35.02258140">
        <ele>282.00000</ele>
        <time>2010-01-01T00:15:22Z</time>
      </trkpt>
      <trkpt lat="31.81925410" lon="35.02266420">
        <ele>282.00000</ele>
        <time>2010-01-01T00:15:26Z</time>
      </trkpt>
      <trkpt lat="31.81918640" lon="35.02277540">
        <ele>282.00000</ele>
        <time>2010-01-01T00:15:30Z</time>
      </trkpt>
      <trkpt lat="31.81913830" lon="35.02286730">
        <ele>282.00000</ele>
        <time>2010-01-01T00:15:34Z</time>
      </trkpt>
      <trkpt lat="31.81908970" lon="35.02296230">
        <ele>282.00000</ele>
        <time>2010-01-01T00:15:38Z</time>
      </trkpt>
      <trkpt lat="31.81904600" lon="35.02309230">
        <ele>282.00000</ele>
        <time>2010-01-01T00:15:43Z</time>
      </trkpt>
      <trkpt lat="31.81901960" lon="35.02321250">
        <ele>283.00000</ele>
        <time>2010-01-01T00:15:47Z</time>
      </trkpt>
      <trkpt lat="31.81899440" lon="35.02333220">
        <ele>284.00000</ele>
        <time>2010-01-01T00:15:51Z</time>
      </trkpt>
      <trkpt lat="31.81897430" lon="35.02345540">
        <ele>284.00000</ele>
        <time>2010-01-01T00:15:55Z</time>
      </trkpt>
      <trkpt lat="31.81896050" lon="35.02358470">
        <ele>285.00000</ele>
        <time>2010-01-01T00:16:00Z</time>
      </trkpt>
      <trkpt lat="31.81895160" lon="35.02371480">
        <ele>285.00000</ele>
        <time>2010-01-01T00:16:04Z</time>
      </trkpt>
      <trkpt lat="31.81894740" lon="35.02382880">
        <ele>286.00000</ele>
        <time>2010-01-01T00:16:08Z</time>
      </trkpt>
      <trkpt lat="31.81893960" lon="35.02393900">
        <ele>286.00000</ele>
        <time>2010-01-01T00:16:12Z</time>
      </trkpt>
      <trkpt lat="31.81897640" lon="35.02404560">
        <ele>287.00000</ele>
        <time>2010-01-01T00:16:16Z</time>
      </trkpt>
      <trkpt lat="31.81899950" lon="35.02415520">
        <ele>288.00000</ele>
        <time>2010-01-01T00:16:20Z</time>
      </trkpt>
      <trkpt lat="31.81901260" lon="35.02426390">
        <ele>289.00000</ele>
        <time>2010-01-01T00:16:23Z</time>
      </trkpt>
      <trkpt lat="31.81896390" lon="35.02437030">
        <ele>289.00000</ele>
        <time>2010-01-01T00:16:27Z</time>
      </trkpt>
      <trkpt lat="31.81886660" lon="35.02442930">
        <ele>288.00000</ele>
        <time>2010-01-01T00:16:32Z</time>
      </trkpt>
      <trkpt lat="31.81878620" lon="35.02447860">
        <ele>289.00000</ele>
        <time>2010-01-01T00:16:35Z</time>
      </trkpt>
      <trkpt lat="31.81869310" lon="35.02455070">
        <ele>289.00000</ele>
        <time>2010-01-01T00:16:40Z</time>
      </trkpt>
      <trkpt lat="31.81861420" lon="35.02464380">
        <ele>290.00000</ele>
        <time>2010-01-01T00:16:44Z</time>
      </trkpt>
      <trkpt lat="31.81854520" lon="35.02473550">
        <ele>290.00000</ele>
        <time>2010-01-01T00:16:49Z</time>
      </trkpt>
      <trkpt lat="31.81847070" lon="35.02481860">
        <ele>291.00000</ele>
        <time>2010-01-01T00:16:53Z</time>
      </trkpt>
      <trkpt lat="31.81838740" lon="35.02491250">
        <ele>291.00000</ele>
        <time>2010-01-01T00:16:57Z</time>
      </trkpt>
      <trkpt lat="31.81831100" lon="35.02501820">
        <ele>290.00000</ele>
        <time>2010-01-01T00:17:02Z</time>
      </trkpt>
      <trkpt lat="31.81825410" lon="35.02512180">
        <ele>291.00000</ele>
        <time>2010-01-01T00:17:06Z</time>
      </trkpt>
      <trkpt lat="31.81821950" lon="35.02522610">
        <ele>291.00000</ele>
        <time>2010-01-01T00:17:10Z</time>
      </trkpt>
      <trkpt lat="31.81818530" lon="35.02534520">
        <ele>291.00000</ele>
        <time>2010-01-01T00:17:14Z</time>
      </trkpt>
      <trkpt lat="31.81815720" lon="35.02545820">
        <ele>291.00000</ele>
        <time>2010-01-01T00:17:18Z</time>
      </trkpt>
      <trkpt lat="31.81813890" lon="35.02557410">
        <ele>291.00000</ele>
        <time>2010-01-01T00:17:22Z</time>
      </trkpt>
      <trkpt lat="31.81811570" lon="35.02568760">
        <ele>292.00000</ele>
        <time>2010-01-01T00:17:26Z</time>
      </trkpt>
      <trkpt lat="31.81809670" lon="35.02579480">
        <ele>292.00000</ele>
        <time>2010-01-01T00:17:30Z</time>
      </trkpt>
      <trkpt lat="31.81808480" lon="35.02591360">
        <ele>293.00000</ele>
        <time>2010-01-01T00:17:34Z</time>
      </trkpt>
      <trkpt lat="31.81806660" lon="35.02602230">
        <ele>294.00000</ele>
        <time>2010-01-01T00:17:38Z</time>
      </trkpt>
      <trkpt lat="31.81807020" lon="35.02613180">
        <ele>295.00000</ele>
        <time>2010-01-01T00:17:42Z</time>
      </trkpt>
      <trkpt lat="31.81809210" lon="35.02624170">
        <ele>295.00000</ele>
        <time>2010-01-01T00:17:45Z</time>
      </trkpt>
      <trkpt lat="31.81812220" lon="35.02636280">
        <ele>296.00000</ele>
        <time>2010-01-01T00:17:50Z</time>
      </trkpt>
      <trkpt lat="31.81815770" lon="35.02647980">
        <ele>296.00000</ele>
        <time>2010-01-01T00:17:54Z</time>
      </trkpt>
      <trkpt lat="31.81816820" lon="35.02661260">
        <ele>296.00000</ele>
        <time>2010-01-01T00:17:58Z</time>
      </trkpt>
      <trkpt lat="31.81816280" lon="35.02673940">
        <ele>296.00000</ele>
        <time>2010-01-01T00:18:03Z</time>
      </trkpt>
      <trkpt lat="31.81815600" lon="35.02686360">
        <ele>296.00000</ele>
        <time>2010-01-01T00:18:07Z</time>
      </trkpt>
      <trkpt lat="31.81812970" lon="35.02700280">
        <ele>297.00000</ele>
        <time>2010-01-01T00:18:12Z</time>
      </trkpt>
      <trkpt lat="31.81810290" lon="35.02712660">
        <ele>299.00000</ele>
        <time>2010-01-01T00:18:16Z</time>
      </trkpt>
      <trkpt lat="31.81806220" lon="35.02725020">
        <ele>300.00000</ele>
        <time>2010-01-01T00:18:21Z</time>
      </trkpt>
      <trkpt lat="31.81801630" lon="35.02734060">
        <ele>301.00000</ele>
        <time>2010-01-01T00:18:24Z</time>
      </trkpt>
      <trkpt lat="31.81796450" lon="35.02743060">
        <ele>301.00000</ele>
        <time>2010-01-01T00:18:28Z</time>
      </trkpt>
      <trkpt lat="31.81791980" lon="35.02752300">
        <ele>302.00000</ele>
        <time>2010-01-01T00:18:32Z</time>
      </trkpt>
      <trkpt lat="31.81787810" lon="35.02762070">
        <ele>302.00000</ele>
        <time>2010-01-01T00:18:35Z</time>
      </trkpt>
      <trkpt lat="31.81783750" lon="35.02772450">
        <ele>303.00000</ele>
        <time>2010-01-01T00:18:39Z</time>
      </trkpt>
      <trkpt lat="31.81780030" lon="35.02782690">
        <ele>303.00000</ele>
        <time>2010-01-01T00:18:43Z</time>
      </trkpt>
      <trkpt lat="31.81774860" lon="35.02795550">
        <ele>304.00000</ele>
        <time>2010-01-01T00:18:48Z</time>
      </trkpt>
      <trkpt lat="31.81769830" lon="35.02807830">
        <ele>306.00000</ele>
        <time>2010-01-01T00:18:53Z</time>
      </trkpt>
      <trkpt lat="31.81763470" lon="35.02819990">
        <ele>305.00000</ele>
        <time>2010-01-01T00:18:57Z</time>
      </trkpt>
      <trkpt lat="31.81755490" lon="35.02831860">
        <ele>305.00000</ele>
        <time>2010-01-01T00:19:03Z</time>
      </trkpt>
      <trkpt lat="31.81750020" lon="35.02843770">
        <ele>305.00000</ele>
        <time>2010-01-01T00:19:07Z</time>
      </trkpt>
      <trkpt lat="31.81746510" lon="35.02856250">
        <ele>305.00000</ele>
        <time>2010-01-01T00:19:12Z</time>
      </trkpt>
      <trkpt lat="31.81744230" lon="35.02866900">
        <ele>306.00000</ele>
        <time>2010-01-01T00:19:15Z</time>
      </trkpt>
      <trkpt lat="31.81741590" lon="35.02880350">
        <ele>307.00000</ele>
        <time>2010-01-01T00:19:20Z</time>
      </trkpt>
      <trkpt lat="31.81739040" lon="35.02891270">
        <ele>307.00000</ele>
        <time>2010-01-01T00:19:24Z</time>
      </trkpt>
      <trkpt lat="31.81736550" lon="35.02902580">
        <ele>307.00000</ele>
        <time>2010-01-01T00:19:28Z</time>
      </trkpt>
      <trkpt lat="31.81733020" lon="35.02913700">
        <ele>308.00000</ele>
        <time>2010-01-01T00:19:32Z</time>
      </trkpt>
      <trkpt lat="31.81730260" lon="35.02924420">
        <ele>308.00000</ele>
        <time>2010-01-01T00:19:36Z</time>
      </trkpt>
      <trkpt lat="31.81727650" lon="35.02935090">
        <ele>308.00000</ele>
        <time>2010-01-01T00:19:39Z</time>
      </trkpt>
      <trkpt lat="31.81724870" lon="35.02948390">
        <ele>308.00000</ele>
        <time>2010-01-01T00:19:44Z</time>
      </trkpt>
      <trkpt lat="31.81723200" lon="35.02960380">
        <ele>308.00000</ele>
        <time>2010-01-01T00:19:48Z</time>
      </trkpt>
      <trkpt lat="31.81722850" lon="35.02973780">
        <ele>309.00000</ele>
        <time>2010-01-01T00:19:53Z</time>
      </trkpt>
      <trkpt lat="31.81723460" lon="35.02985190">
        <ele>309.00000</ele>
        <time>2010-01-01T00:19:57Z</time>
      </trkpt>
      <trkpt lat="31.81724860" lon="35.02996190">
        <ele>309.00000</ele>
        <time>2010-01-01T00:20:01Z</time>
      </trkpt>
      <trkpt lat="31.81727290" lon="35.03006420">
        <ele>309.00000</ele>
        <time>2010-01-01T00:20:04Z</time>
      </trkpt>
      <trkpt lat="31.81730890" lon="35.03018870">
        <ele>310.00000</ele>
        <time>2010-01-01T00:20:09Z</time>
      </trkpt>
      <trkpt lat="31.81734130" lon="35.03031180">
        <ele>311.00000</ele>
        <time>2010-01-01T00:20:13Z</time>
      </trkpt>
      <trkpt lat="31.81737410" lon="35.03043180">
        <ele>311.00000</ele>
        <time>2010-01-01T00:20:17Z</time>
      </trkpt>
      <trkpt lat="31.81741550" lon="35.03055530">
        <ele>311.00000</ele>
        <time>2010-01-01T00:20:22Z</time>
      </trkpt>
      <trkpt lat="31.81744670" lon="35.03065920">
        <ele>311.00000</ele>
        <time>2010-01-01T00:20:26Z</time>
      </trkpt>
      <trkpt lat="31.81745230" lon="35.03077210">
        <ele>312.00000</ele>
        <time>2010-01-01T00:20:29Z</time>
      </trkpt>
      <trkpt lat="31.81737810" lon="35.03081710">
        <ele>313.00000</ele>
        <time>2010-01-01T00:20:33Z</time>
      </trkpt>
      <trkpt lat="31.81730590" lon="35.03074440">
        <ele>313.00000</ele>
        <time>2010-01-01T00:20:37Z</time>
      </trkpt>
      <trkpt lat="31.81724400" lon="35.03065210">
        <ele>312.00000</ele>
        <time>2010-01-01T00:20:41Z</time>
      </trkpt>
      <trkpt lat="31.81718520" lon="35.03056190">
        <ele>312.00000</ele>
        <time>2010-01-01T00:20:44Z</time>
      </trkpt>
      <trkpt lat="31.81711770" lon="35.03048390">
        <ele>312.00000</ele>
        <time>2010-01-01T00:20:48Z</time>
      </trkpt>
      <trkpt lat="31.81703280" lon="35.03042210">
        <ele>313.00000</ele>
        <time>2010-01-01T00:20:52Z</time>
      </trkpt>
      <trkpt lat="31.81694550" lon="35.03039130">
        <ele>313.00000</ele>
        <time>2010-01-01T00:20:56Z</time>
      </trkpt>
      <trkpt lat="31.81685150" lon="35.03035160">
        <ele>314.00000</ele>
        <time>2010-01-01T00:21:00Z</time>
      </trkpt>
      <trkpt lat="31.81675300" lon="35.03032400">
        <ele>316.00000</ele>
        <time>2010-01-01T00:21:04Z</time>
      </trkpt>
      <trkpt lat="31.81666040" lon="35.03030990">
        <ele>317.00000</ele>
        <time>2010-01-01T00:21:08Z</time>
      </trkpt>
      <trkpt lat="31.81656700" lon="35.03031970">
        <ele>319.00000</ele>
        <time>2010-01-01T00:21:11Z</time>
      </trkpt>
      <trkpt lat="31.81646970" lon="35.03034380">
        <ele>321.00000</ele>
        <time>2010-01-01T00:21:15Z</time>
      </trkpt>
      <trkpt lat="31.81638060" lon="35.03037610">
        <ele>322.00000</ele>
        <time>2010-01-01T00:21:19Z</time>
      </trkpt>
      <trkpt lat="31.81628060" lon="35.03039990">
        <ele>324.00000</ele>
        <time>2010-01-01T00:21:23Z</time>
      </trkpt>
      <trkpt lat="31.81616910" lon="35.03042500">
        <ele>326.00000</ele>
        <time>2010-01-01T00:21:28Z</time>
      </trkpt>
      <trkpt lat="31.81606900" lon="35.03042470">
        <ele>328.00000</ele>
        <time>2010-01-01T00:21:32Z</time>
      </trkpt>
      <trkpt lat="31.81599440" lon="35.03033800">
        <ele>329.00000</ele>
        <time>2010-01-01T00:21:36Z</time>
      </trkpt>
      <trkpt lat="31.81600660" lon="35.03023000">
        <ele>329.00000</ele>
        <time>2010-01-01T00:21:40Z</time>
      </trkpt>
      <trkpt lat="31.81606790" lon="35.03013280">
        <ele>328.00000</ele>
        <time>2010-01-01T00:21:44Z</time>
      </trkpt>
      <trkpt lat="31.81613370" lon="35.03004970">
        <ele>328.00000</ele>
        <time>2010-01-01T00:21:48Z</time>
      </trkpt>
      <trkpt lat="31.81620030" lon="35.02996830">
        <ele>327.00000</ele>
        <time>2010-01-01T00:21:51Z</time>
      </trkpt>
      <trkpt lat="31.81627070" lon="35.02986930">
        <ele>326.00000</ele>
        <time>2010-01-01T00:21:56Z</time>
      </trkpt>
      <trkpt lat="31.81632460" lon="35.02976460">
        <ele>326.00000</ele>
        <time>2010-01-01T00:22:00Z</time>
      </trkpt>
      <trkpt lat="31.81635240" lon="35.02965840">
        <ele>326.00000</ele>
        <time>2010-01-01T00:22:04Z</time>
      </trkpt>
      <trkpt lat="31.81638610" lon="35.02955250">
        <ele>326.00000</ele>
        <time>2010-01-01T00:22:08Z</time>
      </trkpt>
      <trkpt lat="31.81641310" lon="35.02944420">
        <ele>326.00000</ele>
        <time>2010-01-01T00:22:11Z</time>
      </trkpt>
      <trkpt lat="31.81644950" lon="35.02933590">
        <ele>326.00000</ele>
        <time>2010-01-01T00:22:15Z</time>
      </trkpt>
      <trkpt lat="31.81647730" lon="35.02923570">
        <ele>326.00000</ele>
        <time>2010-01-01T00:22:19Z</time>
      </trkpt>
      <trkpt lat="31.81650700" lon="35.02913080">
        <ele>327.00000</ele>
        <time>2010-01-01T00:22:23Z</time>
      </trkpt>
      <trkpt lat="31.81653340" lon="35.02902100">
        <ele>328.00000</ele>
        <time>2010-01-01T00:22:27Z</time>
      </trkpt>
      <trkpt lat="31.81655980" lon="35.02890390">
        <ele>330.00000</ele>
        <time>2010-01-01T00:22:31Z</time>
      </trkpt>
      <trkpt lat="31.81659150" lon="35.02878880">
        <ele>331.00000</ele>
        <time>2010-01-01T00:22:35Z</time>
      </trkpt>
      <trkpt lat="31.81661570" lon="35.02867810">
        <ele>332.00000</ele>
        <time>2010-01-01T00:22:39Z</time>
      </trkpt>
      <trkpt lat="31.81664170" lon="35.02857080">
        <ele>333.00000</ele>
        <time>2010-01-01T00:22:43Z</time>
      </trkpt>
      <trkpt lat="31.81667270" lon="35.02845630">
        <ele>333.00000</ele>
        <time>2010-01-01T00:22:47Z</time>
      </trkpt>
      <trkpt lat="31.81670980" lon="35.02834210">
        <ele>333.00000</ele>
        <time>2010-01-01T00:22:51Z</time>
      </trkpt>
      <trkpt lat="31.81673520" lon="35.02823440">
        <ele>333.00000</ele>
        <time>2010-01-01T00:22:55Z</time>
      </trkpt>
      <trkpt lat="31.81676220" lon="35.02811340">
        <ele>332.00000</ele>
        <time>2010-01-01T00:22:59Z</time>
      </trkpt>
      <trkpt lat="31.81676800" lon="35.02800490">
        <ele>332.00000</ele>
        <time>2010-01-01T00:23:03Z</time>
      </trkpt>
      <trkpt lat="31.81676510" lon="35.02787400">
        <ele>333.00000</ele>
        <time>2010-01-01T00:23:07Z</time>
      </trkpt>
      <trkpt lat="31.81675240" lon="35.02776120">
        <ele>333.00000</ele>
        <time>2010-01-01T00:23:11Z</time>
      </trkpt>
      <trkpt lat="31.81673700" lon="35.02763950">
        <ele>334.00000</ele>
        <time>2010-01-01T00:23:15Z</time>
      </trkpt>
      <trkpt lat="31.81669500" lon="35.02753980">
        <ele>335.00000</ele>
        <time>2010-01-01T00:23:19Z</time>
      </trkpt>
      <trkpt lat="31.81664220" lon="35.02743670">
        <ele>336.00000</ele>
        <time>2010-01-01T00:23:23Z</time>
      </trkpt>
      <trkpt lat="31.81657130" lon="35.02735370">
        <ele>339.00000</ele>
        <time>2010-01-01T00:23:27Z</time>
      </trkpt>
      <trkpt lat="31.81652510" lon="35.02726140">
        <ele>340.00000</ele>
        <time>2010-01-01T00:23:31Z</time>
      </trkpt>
      <trkpt lat="31.81645540" lon="35.02717150">
        <ele>341.00000</ele>
        <time>2010-01-01T00:23:35Z</time>
      </trkpt>
      <trkpt lat="31.81638060" lon="35.02706940">
        <ele>343.00000</ele>
        <time>2010-01-01T00:23:39Z</time>
      </trkpt>
      <trkpt lat="31.81631880" lon="35.02698730">
        <ele>343.00000</ele>
        <time>2010-01-01T00:23:43Z</time>
      </trkpt>
      <trkpt lat="31.81623770" lon="35.02690220">
        <ele>345.00000</ele>
        <time>2010-01-01T00:23:47Z</time>
      </trkpt>
      <trkpt lat="31.81614270" lon="35.02683320">
        <ele>346.00000</ele>
        <time>2010-01-01T00:23:52Z</time>
      </trkpt>
      <trkpt lat="31.81605400" lon="35.02677300">
        <ele>347.00000</ele>
        <time>2010-01-01T00:23:56Z</time>
      </trkpt>
      <trkpt lat="31.81596820" lon="35.02672040">
        <ele>348.00000</ele>
        <time>2010-01-01T00:24:00Z</time>
      </trkpt>
      <trkpt lat="31.81587320" lon="35.02667560">
        <ele>348.00000</ele>
        <time>2010-01-01T00:24:04Z</time>
      </trkpt>
      <trkpt lat="31.81577850" lon="35.02665520">
        <ele>349.00000</ele>
        <time>2010-01-01T00:24:08Z</time>
      </trkpt>
      <trkpt lat="31.81568180" lon="35.02664550">
        <ele>349.00000</ele>
        <time>2010-01-01T00:24:12Z</time>
      </trkpt>
      <trkpt lat="31.81559060" lon="35.02666160">
        <ele>350.00000</ele>
        <time>2010-01-01T00:24:15Z</time>
      </trkpt>
      <trkpt lat="31.81549170" lon="35.02670080">
        <ele>351.00000</ele>
        <time>2010-01-01T00:24:20Z</time>
      </trkpt>
      <trkpt lat="31.81538940" lon="35.02675380">
        <ele>352.00000</ele>
        <time>2010-01-01T00:24:24Z</time>
      </trkpt>
      <trkpt lat="31.81530380" lon="35.02680540">
        <ele>353.00000</ele>
        <time>2010-01-01T00:24:28Z</time>
      </trkpt>
      <trkpt lat="31.81521280" lon="35.02686850">
        <ele>354.00000</ele>
        <time>2010-01-01T00:24:32Z</time>
      </trkpt>
      <trkpt lat="31.81512910" lon="35.02692460">
        <ele>354.00000</ele>
        <time>2010-01-01T00:24:36Z</time>
      </trkpt>
      <trkpt lat="31.81505310" lon="35.02699050">
        <ele>354.00000</ele>
        <time>2010-01-01T00:24:40Z</time>
      </trkpt>
      <trkpt lat="31.81497740" lon="35.02705720">
        <ele>354.00000</ele>
        <time>2010-01-01T00:24:44Z</time>
      </trkpt>
      <trkpt lat="31.81491100" lon="35.02713420">
        <ele>355.00000</ele>
        <time>2010-01-01T00:24:47Z</time>
      </trkpt>
      <trkpt lat="31.81484650" lon="35.02722240">
        <ele>356.00000</ele>
        <time>2010-01-01T00:24:51Z</time>
      </trkpt>
      <trkpt lat="31.81479280" lon="35.02731360">
        <ele>357.00000</ele>
        <time>2010-01-01T00:24:55Z</time>
      </trkpt>
      <trkpt lat="31.81474890" lon="35.02741150">
        <ele>358.00000</ele>
        <time>2010-01-01T00:24:59Z</time>
      </trkpt>
      <trkpt lat="31.81471560" lon="35.02751200">
        <ele>359.00000</ele>
        <time>2010-01-01T00:25:02Z</time>
      </trkpt>
      <trkpt lat="31.81468560" lon="35.02763700">
        <ele>360.00000</ele>
        <time>2010-01-01T00:25:07Z</time>
      </trkpt>
      <trkpt lat="31.81465290" lon="35.02773990">
        <ele>361.00000</ele>
        <time>2010-01-01T00:25:11Z</time>
      </trkpt>
      <trkpt lat="31.81462190" lon="35.02784660">
        <ele>363.00000</ele>
        <time>2010-01-01T00:25:14Z</time>
      </trkpt>
      <trkpt lat="31.81459120" lon="35.02794950">
        <ele>364.00000</ele>
        <time>2010-01-01T00:25:18Z</time>
      </trkpt>
      <trkpt lat="31.81457200" lon="35.02805630">
        <ele>365.00000</ele>
        <time>2010-01-01T00:25:22Z</time>
      </trkpt>
      <trkpt lat="31.81453380" lon="35.02815910">
        <ele>366.00000</ele>
        <time>2010-01-01T00:25:26Z</time>
      </trkpt>
      <trkpt lat="31.81448850" lon="35.02826980">
        <ele>367.00000</ele>
        <time>2010-01-01T00:25:30Z</time>
      </trkpt>
      <trkpt lat="31.81444320" lon="35.02836220">
        <ele>368.00000</ele>
        <time>2010-01-01T00:25:33Z</time>
      </trkpt>
      <trkpt lat="31.81438920" lon="35.02846260">
        <ele>369.00000</ele>
        <time>2010-01-01T00:25:38Z</time>
      </trkpt>
      <trkpt lat="31.81433750" lon="35.02854920">
        <ele>370.00000</ele>
        <time>2010-01-01T00:25:41Z</time>
      </trkpt>
      <trkpt lat="31.81427250" lon="35.02864120">
        <ele>371.00000</ele>
        <time>2010-01-01T00:25:45Z</time>
      </trkpt>
      <trkpt lat="31.81420180" lon="35.02870970">
        <ele>371.00000</ele>
        <time>2010-01-01T00:25:49Z</time>
      </trkpt>
      <trkpt lat="31.81411680" lon="35.02877250">
        <ele>371.00000</ele>
        <time>2010-01-01T00:25:53Z</time>
      </trkpt>
      <trkpt lat="31.81403460" lon="35.02882990">
        <ele>372.00000</ele>
        <time>2010-01-01T00:25:57Z</time>
      </trkpt>
      <trkpt lat="31.81394380" lon="35.02888860">
        <ele>372.00000</ele>
        <time>2010-01-01T00:26:01Z</time>
      </trkpt>
      <trkpt lat="31.81387450" lon="35.02895990">
        <ele>372.00000</ele>
        <time>2010-01-01T00:26:05Z</time>
      </trkpt>
      <trkpt lat="31.81381880" lon="35.02905930">
        <ele>373.00000</ele>
        <time>2010-01-01T00:26:09Z</time>
      </trkpt>
      <trkpt lat="31.81376410" lon="35.02915830">
        <ele>374.00000</ele>
        <time>2010-01-01T00:26:13Z</time>
      </trkpt>
      <trkpt lat="31.81371740" lon="35.02925190">
        <ele>374.00000</ele>
        <time>2010-01-01T00:26:16Z</time>
      </trkpt>
      <trkpt lat="31.81367740" lon="35.02936650">
        <ele>375.00000</ele>
        <time>2010-01-01T00:26:20Z</time>
      </trkpt>
      <trkpt lat="31.81364810" lon="35.02946850">
        <ele>376.00000</ele>
        <time>2010-01-01T00:26:24Z</time>
      </trkpt>
      <trkpt lat="31.81363140" lon="35.02957240">
        <ele>377.00000</ele>
        <time>2010-01-01T00:26:28Z</time>
      </trkpt>
      <trkpt lat="31.81359480" lon="35.02969300">
        <ele>378.00000</ele>
        <time>2010-01-01T00:26:32Z</time>
      </trkpt>
      <trkpt lat="31.81358940" lon="35.02981040">
        <ele>379.00000</ele>
        <time>2010-01-01T00:26:36Z</time>
      </trkpt>
      <trkpt lat="31.81357610" lon="35.02993240">
        <ele>379.00000</ele>
        <time>2010-01-01T00:26:40Z</time>
      </trkpt>
      <trkpt lat="31.81359100" lon="35.03005340">
        <ele>381.00000</ele>
        <time>2010-01-01T00:26:44Z</time>
      </trkpt>
      <trkpt lat="31.81360090" lon="35.03015720">
        <ele>381.00000</ele>
        <time>2010-01-01T00:26:48Z</time>
      </trkpt>
      <trkpt lat="31.81363610" lon="35.03026180">
        <ele>383.00000</ele>
        <time>2010-01-01T00:26:52Z</time>
      </trkpt>
      <trkpt lat="31.81366560" lon="35.03036700">
        <ele>384.00000</ele>
        <time>2010-01-01T00:26:56Z</time>
      </trkpt>
      <trkpt lat="31.81370190" lon="35.03047860">
        <ele>386.00000</ele>
        <time>2010-01-01T00:27:00Z</time>
      </trkpt>
      <trkpt lat="31.81375160" lon="35.03057800">
        <ele>388.00000</ele>
        <time>2010-01-01T00:27:04Z</time>
      </trkpt>
      <trkpt lat="31.81378900" lon="35.03069370">
        <ele>388.00000</ele>
        <time>2010-01-01T00:27:08Z</time>
      </trkpt>
      <trkpt lat="31.81380860" lon="35.03080210">
        <ele>388.00000</ele>
        <time>2010-01-01T00:27:12Z</time>
      </trkpt>
      <trkpt lat="31.81379050" lon="35.03092400">
        <ele>388.00000</ele>
        <time>2010-01-01T00:27:16Z</time>
      </trkpt>
      <trkpt lat="31.81375380" lon="35.03104250">
        <ele>388.00000</ele>
        <time>2010-01-01T00:27:20Z</time>
      </trkpt>
      <trkpt lat="31.81371810" lon="35.03115920">
        <ele>389.00000</ele>
        <time>2010-01-01T00:27:24Z</time>
      </trkpt>
      <trkpt lat="31.81367270" lon="35.03126290">
        <ele>390.00000</ele>
        <time>2010-01-01T00:27:28Z</time>
      </trkpt>
      <trkpt lat="31.81361590" lon="35.03134680">
        <ele>391.00000</ele>
        <time>2010-01-01T00:27:32Z</time>
      </trkpt>
      <trkpt lat="31.81353630" lon="35.03142720">
        <ele>393.00000</ele>
        <time>2010-01-01T00:27:36Z</time>
      </trkpt>
      <trkpt lat="31.81344470" lon="35.03148150">
        <ele>395.00000</ele>
        <time>2010-01-01T00:27:40Z</time>
      </trkpt>
      <trkpt lat="31.81335480" lon="35.03151480">
        <ele>397.00000</ele>
        <time>2010-01-01T00:27:44Z</time>
      </trkpt>
      <trkpt lat="31.81325030" lon="35.03153030">
        <ele>398.00000</ele>
        <time>2010-01-01T00:27:48Z</time>
      </trkpt>
      <trkpt lat="31.81314660" lon="35.03153750">
        <ele>399.00000</ele>
        <time>2010-01-01T00:27:52Z</time>
      </trkpt>
      <trkpt lat="31.81304350" lon="35.03153600">
        <ele>400.00000</ele>
        <time>2010-01-01T00:27:56Z</time>
      </trkpt>
      <trkpt lat="31.81294490" lon="35.03152610">
        <ele>399.00000</ele>
        <time>2010-01-01T00:28:00Z</time>
      </trkpt>
      <trkpt lat="31.81285130" lon="35.03150330">
        <ele>398.00000</ele>
        <time>2010-01-01T00:28:04Z</time>
      </trkpt>
      <trkpt lat="31.81275780" lon="35.03149450">
        <ele>398.00000</ele>
        <time>2010-01-01T00:28:08Z</time>
      </trkpt>
      <trkpt lat="31.81265440" lon="35.03146580">
        <ele>399.00000</ele>
        <time>2010-01-01T00:28:12Z</time>
      </trkpt>
      <trkpt lat="31.81256800" lon="35.03142770">
        <ele>399.00000</ele>
        <time>2010-01-01T00:28:16Z</time>
      </trkpt>
      <trkpt lat="31.81247160" lon="35.03140230">
        <ele>400.00000</ele>
        <time>2010-01-01T00:28:20Z</time>
      </trkpt>
      <trkpt lat="31.81237160" lon="35.03137750">
        <ele>400.00000</ele>
        <time>2010-01-01T00:28:24Z</time>
      </trkpt>
      <trkpt lat="31.81232040" lon="35.03137580">
        <ele>400.00000</ele>
        <time>2010-01-01T00:28:26Z</time>
      </trkpt>
      <trkpt lat="31.81225560" lon="35.03146060">
        <ele>403.00000</ele>
        <time>2010-01-01T00:28:30Z</time>
      </trkpt>
      <trkpt lat="31.81216960" lon="35.03150220">
        <ele>402.00000</ele>
        <time>2010-01-01T00:28:34Z</time>
      </trkpt>
      <trkpt lat="31.81210220" lon="35.03158210">
        <ele>402.00000</ele>
        <time>2010-01-01T00:28:37Z</time>
      </trkpt>
      <trkpt lat="31.81206200" lon="35.03168400">
        <ele>403.00000</ele>
        <time>2010-01-01T00:28:41Z</time>
      </trkpt>
      <trkpt lat="31.81203570" lon="35.03178840">
        <ele>404.00000</ele>
        <time>2010-01-01T00:28:45Z</time>
      </trkpt>
      <trkpt lat="31.81202210" lon="35.03190310">
        <ele>405.00000</ele>
        <time>2010-01-01T00:28:49Z</time>
      </trkpt>
      <trkpt lat="31.81201720" lon="35.03201840">
        <ele>407.00000</ele>
        <time>2010-01-01T00:28:53Z</time>
      </trkpt>
      <trkpt lat="31.81201010" lon="35.03214550">
        <ele>409.00000</ele>
        <time>2010-01-01T00:28:57Z</time>
      </trkpt>
      <trkpt lat="31.81200950" lon="35.03226890">
        <ele>410.00000</ele>
        <time>2010-01-01T00:29:01Z</time>
      </trkpt>
      <trkpt lat="31.81200990" lon="35.03238300">
        <ele>412.00000</ele>
        <time>2010-01-01T00:29:05Z</time>
      </trkpt>
      <trkpt lat="31.81198450" lon="35.03250050">
        <ele>412.00000</ele>
        <time>2010-01-01T00:29:09Z</time>
      </trkpt>
      <trkpt lat="31.81195300" lon="35.03261510">
        <ele>413.00000</ele>
        <time>2010-01-01T00:29:14Z</time>
      </trkpt>
      <trkpt lat="31.81191630" lon="35.03272660">
        <ele>414.00000</ele>
        <time>2010-01-01T00:29:18Z</time>
      </trkpt>
      <trkpt lat="31.81187470" lon="35.03283100">
        <ele>415.00000</ele>
        <time>2010-01-01T00:29:22Z</time>
      </trkpt>
      <trkpt lat="31.81183140" lon="35.03293490">
        <ele>415.00000</ele>
        <time>2010-01-01T00:29:25Z</time>
      </trkpt>
      <trkpt lat="31.81178360" lon="35.03303960">
        <ele>416.00000</ele>
        <time>2010-01-01T00:29:29Z</time>
      </trkpt>
      <trkpt lat="31.81173260" lon="35.03314750">
        <ele>416.00000</ele>
        <time>2010-01-01T00:29:34Z</time>
      </trkpt>
      <trkpt lat="31.81168120" lon="35.03326080">
        <ele>416.00000</ele>
        <time>2010-01-01T00:29:38Z</time>
      </trkpt>
      <trkpt lat="31.81163330" lon="35.03337570">
        <ele>416.00000</ele>
        <time>2010-01-01T00:29:42Z</time>
      </trkpt>
      <trkpt lat="31.81159000" lon="35.03349140">
        <ele>416.00000</ele>
        <time>2010-01-01T00:29:47Z</time>
      </trkpt>
      <trkpt lat="31.81154290" lon="35.03360340">
        <ele>417.00000</ele>
        <time>2010-01-01T00:29:51Z</time>
      </trkpt>
      <trkpt lat="31.81150590" lon="35.03370630">
        <ele>418.00000</ele>
        <time>2010-01-01T00:29:55Z</time>
      </trkpt>
      <trkpt lat="31.81145930" lon="35.03380220">
        <ele>420.00000</ele>
        <time>2010-01-01T00:29:59Z</time>
      </trkpt>
      <trkpt lat="31.81140460" lon="35.03388560">
        <ele>422.00000</ele>
        <time>2010-01-01T00:30:02Z</time>
      </trkpt>
      <trkpt lat="31.81133350" lon="35.03397600">
        <ele>424.00000</ele>
        <time>2010-01-01T00:30:06Z</time>
      </trkpt>
      <trkpt lat="31.81127190" lon="35.03405260">
        <ele>425.00000</ele>
        <time>2010-01-01T00:30:10Z</time>
      </trkpt>
      <trkpt lat="31.81119870" lon="35.03411530">
        <ele>427.00000</ele>
        <time>2010-01-01T00:30:14Z</time>
      </trkpt>
      <trkpt lat="31.81112050" lon="35.03417690">
        <ele>428.00000</ele>
        <time>2010-01-01T00:30:17Z</time>
      </trkpt>
      <trkpt lat="31.81103340" lon="35.03421710">
        <ele>429.00000</ele>
        <time>2010-01-01T00:30:21Z</time>
      </trkpt>
      <trkpt lat="31.81093970" lon="35.03424450">
        <ele>430.00000</ele>
        <time>2010-01-01T00:30:25Z</time>
      </trkpt>
      <trkpt lat="31.81084640" lon="35.03426590">
        <ele>431.00000</ele>
        <time>2010-01-01T00:30:29Z</time>
      </trkpt>
      <trkpt lat="31.81074410" lon="35.03427680">
        <ele>432.00000</ele>
        <time>2010-01-01T00:30:33Z</time>
      </trkpt>
      <trkpt lat="31.81063970" lon="35.03427830">
        <ele>432.00000</ele>
        <time>2010-01-01T00:30:37Z</time>
      </trkpt>
      <trkpt lat="31.81053600" lon="35.03427070">
        <ele>433.00000</ele>
        <time>2010-01-01T00:30:41Z</time>
      </trkpt>
      <trkpt lat="31.81043690" lon="35.03426010">
        <ele>434.00000</ele>
        <time>2010-01-01T00:30:45Z</time>
      </trkpt>
      <trkpt lat="31.81034360" lon="35.03424670">
        <ele>435.00000</ele>
        <time>2010-01-01T00:30:49Z</time>
      </trkpt>
      <trkpt lat="31.81024560" lon="35.03423070">
        <ele>436.00000</ele>
        <time>2010-01-01T00:30:53Z</time>
      </trkpt>
      <trkpt lat="31.81015510" lon="35.03422440">
        <ele>436.00000</ele>
        <time>2010-01-01T00:30:56Z</time>
      </trkpt>
      <trkpt lat="31.81006020" lon="35.03422150">
        <ele>437.00000</ele>
        <time>2010-01-01T00:31:00Z</time>
      </trkpt>
      <trkpt lat="31.80995900" lon="35.03422010">
        <ele>437.00000</ele>
        <time>2010-01-01T00:31:04Z</time>
      </trkpt>
      <trkpt lat="31.80985620" lon="35.03423460">
        <ele>436.00000</ele>
        <time>2010-01-01T00:31:08Z</time>
      </trkpt>
      <trkpt lat="31.80975850" lon="35.03426670">
        <ele>436.00000</ele>
        <time>2010-01-01T00:31:13Z</time>
      </trkpt>
      <trkpt lat="31.80967280" lon="35.03430790">
        <ele>436.00000</ele>
        <time>2010-01-01T00:31:16Z</time>
      </trkpt>
      <trkpt lat="31.80957660" lon="35.03435910">
        <ele>435.00000</ele>
        <time>2010-01-01T00:31:20Z</time>
      </trkpt>
      <trkpt lat="31.80949910" lon="35.03442230">
        <ele>436.00000</ele>
        <time>2010-01-01T00:31:24Z</time>
      </trkpt>
      <trkpt lat="31.80942290" lon="35.03450230">
        <ele>437.00000</ele>
        <time>2010-01-01T00:31:28Z</time>
      </trkpt>
      <trkpt lat="31.80933760" lon="35.03459580">
        <ele>438.00000</ele>
        <time>2010-01-01T00:31:33Z</time>
      </trkpt>
      <trkpt lat="31.80927040" lon="35.03467500">
        <ele>438.00000</ele>
        <time>2010-01-01T00:31:37Z</time>
      </trkpt>
      <trkpt lat="31.80920840" lon="35.03475160">
        <ele>439.00000</ele>
        <time>2010-01-01T00:31:40Z</time>
      </trkpt>
      <trkpt lat="31.80915670" lon="35.03484510">
        <ele>440.00000</ele>
        <time>2010-01-01T00:31:44Z</time>
      </trkpt>
      <trkpt lat="31.80909470" lon="35.03493390">
        <ele>440.00000</ele>
        <time>2010-01-01T00:31:48Z</time>
      </trkpt>
      <trkpt lat="31.80904020" lon="35.03503390">
        <ele>442.00000</ele>
        <time>2010-01-01T00:31:52Z</time>
      </trkpt>
      <trkpt lat="31.80898900" lon="35.03514130">
        <ele>443.00000</ele>
        <time>2010-01-01T00:31:56Z</time>
      </trkpt>
      <trkpt lat="31.80894640" lon="35.03523690">
        <ele>445.00000</ele>
        <time>2010-01-01T00:32:00Z</time>
      </trkpt>
      <trkpt lat="31.80890640" lon="35.03534610">
        <ele>446.00000</ele>
        <time>2010-01-01T00:32:04Z</time>
      </trkpt>
      <trkpt lat="31.80888060" lon="35.03544990">
        <ele>447.00000</ele>
        <time>2010-01-01T00:32:08Z</time>
      </trkpt>
      <trkpt lat="31.80885460" lon="35.03556180">
        <ele>448.00000</ele>
        <time>2010-01-01T00:32:12Z</time>
      </trkpt>
      <trkpt lat="31.80882610" lon="35.03567680">
        <ele>450.00000</ele>
        <time>2010-01-01T00:32:16Z</time>
      </trkpt>
      <trkpt lat="31.80878330" lon="35.03578410">
        <ele>450.00000</ele>
        <time>2010-01-01T00:32:20Z</time>
      </trkpt>
      <trkpt lat="31.80874410" lon="35.03588720">
        <ele>451.00000</ele>
        <time>2010-01-01T00:32:24Z</time>
      </trkpt>
      <trkpt lat="31.80870540" lon="35.03599430">
        <ele>451.00000</ele>
        <time>2010-01-01T00:32:28Z</time>
      </trkpt>
      <trkpt lat="31.80867190" lon="35.03609610">
        <ele>452.00000</ele>
        <time>2010-01-01T00:32:31Z</time>
      </trkpt>
      <trkpt lat="31.80863180" lon="35.03619650">
        <ele>453.00000</ele>
        <time>2010-01-01T00:32:35Z</time>
      </trkpt>
      <trkpt lat="31.80858040" lon="35.03629550">
        <ele>454.00000</ele>
        <time>2010-01-01T00:32:39Z</time>
      </trkpt>
      <trkpt lat="31.80852080" lon="35.03637210">
        <ele>454.00000</ele>
        <time>2010-01-01T00:32:43Z</time>
      </trkpt>
      <trkpt lat="31.80846370" lon="35.03645830">
        <ele>454.00000</ele>
        <time>2010-01-01T00:32:46Z</time>
      </trkpt>
      <trkpt lat="31.80841090" lon="35.03654870">
        <ele>455.00000</ele>
        <time>2010-01-01T00:32:50Z</time>
      </trkpt>
      <trkpt lat="31.80836110" lon="35.03664410">
        <ele>457.00000</ele>
        <time>2010-01-01T00:32:54Z</time>
      </trkpt>
      <trkpt lat="31.80831260" lon="35.03675620">
        <ele>457.00000</ele>
        <time>2010-01-01T00:32:58Z</time>
      </trkpt>
      <trkpt lat="31.80827490" lon="35.03686340">
        <ele>458.00000</ele>
        <time>2010-01-01T00:33:02Z</time>
      </trkpt>
      <trkpt lat="31.80824410" lon="35.03697720">
        <ele>459.00000</ele>
        <time>2010-01-01T00:33:06Z</time>
      </trkpt>
      <trkpt lat="31.80821570" lon="35.03709260">
        <ele>461.00000</ele>
        <time>2010-01-01T00:33:10Z</time>
      </trkpt>
      <trkpt lat="31.80819880" lon="35.03719990">
        <ele>462.00000</ele>
        <time>2010-01-01T00:33:14Z</time>
      </trkpt>
      <trkpt lat="31.80818540" lon="35.03731070">
        <ele>463.00000</ele>
        <time>2010-01-01T00:33:18Z</time>
      </trkpt>
      <trkpt lat="31.80817330" lon="35.03743280">
        <ele>465.00000</ele>
        <time>2010-01-01T00:33:22Z</time>
      </trkpt>
      <trkpt lat="31.80817110" lon="35.03755400">
        <ele>466.00000</ele>
        <time>2010-01-01T00:33:26Z</time>
      </trkpt>
      <trkpt lat="31.80817480" lon="35.03767280">
        <ele>467.00000</ele>
        <time>2010-01-01T00:33:30Z</time>
      </trkpt>
      <trkpt lat="31.80817800" lon="35.03778210">
        <ele>467.00000</ele>
        <time>2010-01-01T00:33:34Z</time>
      </trkpt>
      <trkpt lat="31.80818880" lon="35.03788840">
        <ele>468.00000</ele>
        <time>2010-01-01T00:33:37Z</time>
      </trkpt>
      <trkpt lat="31.80819970" lon="35.03800490">
        <ele>468.00000</ele>
        <time>2010-01-01T00:33:41Z</time>
      </trkpt>
      <trkpt lat="31.80820840" lon="35.03812580">
        <ele>468.00000</ele>
        <time>2010-01-01T00:33:46Z</time>
      </trkpt>
      <trkpt lat="31.80823090" lon="35.03823750">
        <ele>469.00000</ele>
        <time>2010-01-01T00:33:49Z</time>
      </trkpt>
      <trkpt lat="31.80826050" lon="35.03834210">
        <ele>470.00000</ele>
        <time>2010-01-01T00:33:53Z</time>
      </trkpt>
      <trkpt lat="31.80829030" lon="35.03844920">
        <ele>470.00000</ele>
        <time>2010-01-01T00:33:57Z</time>
      </trkpt>
      <trkpt lat="31.80833450" lon="35.03855300">
        <ele>472.00000</ele>
        <time>2010-01-01T00:34:01Z</time>
      </trkpt>
      <trkpt lat="31.80837540" lon="35.03866330">
        <ele>473.00000</ele>
        <time>2010-01-01T00:34:05Z</time>
      </trkpt>
      <trkpt lat="31.80842530" lon="35.03876510">
        <ele>474.00000</ele>
        <time>2010-01-01T00:34:09Z</time>
      </trkpt>
      <trkpt lat="31.80847610" lon="35.03885330">
        <ele>476.00000</ele>
        <time>2010-01-01T00:34:13Z</time>
      </trkpt>
      <trkpt lat="31.80852720" lon="35.03894650">
        <ele>477.00000</ele>
        <time>2010-01-01T00:34:16Z</time>
      </trkpt>
      <trkpt lat="31.80857790" lon="35.03905070">
        <ele>478.00000</ele>
        <time>2010-01-01T00:34:21Z</time>
      </trkpt>
      <trkpt lat="31.80862860" lon="35.03915870">
        <ele>479.00000</ele>
        <time>2010-01-01T00:34:25Z</time>
      </trkpt>
      <trkpt lat="31.80868110" lon="35.03926100">
        <ele>480.00000</ele>
        <time>2010-01-01T00:34:29Z</time>
      </trkpt>
      <trkpt lat="31.80873150" lon="35.03936570">
        <ele>480.00000</ele>
        <time>2010-01-01T00:34:33Z</time>
      </trkpt>
      <trkpt lat="31.80878230" lon="35.03947390">
        <ele>481.00000</ele>
        <time>2010-01-01T00:34:37Z</time>
      </trkpt>
      <trkpt lat="31.80883900" lon="35.03958300">
        <ele>481.00000</ele>
        <time>2010-01-01T00:34:41Z</time>
      </trkpt>
      <trkpt lat="31.80889010" lon="35.03966990">
        <ele>481.00000</ele>
        <time>2010-01-01T00:34:45Z</time>
      </trkpt>
      <trkpt lat="31.80893970" lon="35.03976610">
        <ele>481.00000</ele>
        <time>2010-01-01T00:34:49Z</time>
      </trkpt>
      <trkpt lat="31.80899370" lon="35.03986410">
        <ele>482.00000</ele>
        <time>2010-01-01T00:34:53Z</time>
      </trkpt>
      <trkpt lat="31.80905330" lon="35.03997480">
        <ele>482.00000</ele>
        <time>2010-01-01T00:34:57Z</time>
      </trkpt>
      <trkpt lat="31.80910660" lon="35.04007760">
        <ele>482.00000</ele>
        <time>2010-01-01T00:35:01Z</time>
      </trkpt>
      <trkpt lat="31.80916050" lon="35.04019190">
        <ele>483.00000</ele>
        <time>2010-01-01T00:35:06Z</time>
      </trkpt>
      <trkpt lat="31.80920300" lon="35.04030530">
        <ele>484.00000</ele>
        <time>2010-01-01T00:35:10Z</time>
      </trkpt>
      <trkpt lat="31.80923910" lon="35.04039850">
        <ele>484.00000</ele>
        <time>2010-01-01T00:35:14Z</time>
      </trkpt>
      <trkpt lat="31.80926110" lon="35.04052130">
        <ele>484.00000</ele>
        <time>2010-01-01T00:35:18Z</time>
      </trkpt>
      <trkpt lat="31.80925320" lon="35.04064290">
        <ele>485.00000</ele>
        <time>2010-01-01T00:35:22Z</time>
      </trkpt>
      <trkpt lat="31.80924390" lon="35.04076410">
        <ele>486.00000</ele>
        <time>2010-01-01T00:35:26Z</time>
      </trkpt>
      <trkpt lat="31.80919400" lon="35.04087000">
        <ele>487.00000</ele>
        <time>2010-01-01T00:35:30Z</time>
      </trkpt>
      <trkpt lat="31.80913120" lon="35.04094820">
        <ele>488.00000</ele>
        <time>2010-01-01T00:35:34Z</time>
      </trkpt>
      <trkpt lat="31.80906700" lon="35.04102570">
        <ele>489.00000</ele>
        <time>2010-01-01T00:35:38Z</time>
      </trkpt>
      <trkpt lat="31.80899520" lon="35.04110850">
        <ele>489.00000</ele>
        <time>2010-01-01T00:35:42Z</time>
      </trkpt>
      <trkpt lat="31.80893100" lon="35.04119280">
        <ele>491.00000</ele>
        <time>2010-01-01T00:35:45Z</time>
      </trkpt>
      <trkpt lat="31.80886840" lon="35.04128620">
        <ele>492.00000</ele>
        <time>2010-01-01T00:35:49Z</time>
      </trkpt>
      <trkpt lat="31.80880780" lon="35.04136920">
        <ele>493.00000</ele>
        <time>2010-01-01T00:35:53Z</time>
      </trkpt>
      <trkpt lat="31.80874560" lon="35.04145340">
        <ele>494.00000</ele>
        <time>2010-01-01T00:35:57Z</time>
      </trkpt>
      <trkpt lat="31.80867900" lon="35.04152710">
        <ele>494.00000</ele>
        <time>2010-01-01T00:36:01Z</time>
      </trkpt>
      <trkpt lat="31.80858780" lon="35.04159820">
        <ele>495.00000</ele>
        <time>2010-01-01T00:36:05Z</time>
      </trkpt>
      <trkpt lat="31.80849980" lon="35.04163990">
        <ele>494.00000</ele>
        <time>2010-01-01T00:36:09Z</time>
      </trkpt>
      <trkpt lat="31.80840210" lon="35.04168170">
        <ele>493.00000</ele>
        <time>2010-01-01T00:36:13Z</time>
      </trkpt>
      <trkpt lat="31.80830730" lon="35.04171280">
        <ele>493.00000</ele>
        <time>2010-01-01T00:36:17Z</time>
      </trkpt>
      <trkpt lat="31.80823110" lon="35.04176370">
        <ele>492.00000</ele>
        <time>2010-01-01T00:36:20Z</time>
      </trkpt>
      <trkpt lat="31.80817020" lon="35.04184290">
        <ele>492.00000</ele>
        <time>2010-01-01T00:36:24Z</time>
      </trkpt>
      <trkpt lat="31.80814020" lon="35.04195610">
        <ele>493.00000</ele>
        <time>2010-01-01T00:36:28Z</time>
      </trkpt>
      <trkpt lat="31.80812160" lon="35.04207560">
        <ele>495.00000</ele>
        <time>2010-01-01T00:36:32Z</time>
      </trkpt>
      <trkpt lat="31.80811210" lon="35.04218970">
        <ele>497.00000</ele>
        <time>2010-01-01T00:36:36Z</time>
      </trkpt>
      <trkpt lat="31.80810520" lon="35.04229980">
        <ele>498.00000</ele>
        <time>2010-01-01T00:36:40Z</time>
      </trkpt>
      <trkpt lat="31.80809640" lon="35.04240820">
        <ele>499.00000</ele>
        <time>2010-01-01T00:36:44Z</time>
      </trkpt>
      <trkpt lat="31.80810540" lon="35.04252730">
        <ele>500.00000</ele>
        <time>2010-01-01T00:36:48Z</time>
      </trkpt>
      <trkpt lat="31.80811420" lon="35.04264340">
        <ele>502.00000</ele>
        <time>2010-01-01T00:36:52Z</time>
      </trkpt>
      <trkpt lat="31.80813150" lon="35.04276780">
        <ele>504.00000</ele>
        <time>2010-01-01T00:36:56Z</time>
      </trkpt>
      <trkpt lat="31.80811390" lon="35.04289010">
        <ele>505.00000</ele>
        <time>2010-01-01T00:37:00Z</time>
      </trkpt>
      <trkpt lat="31.80810840" lon="35.04299380">
        <ele>506.00000</ele>
        <time>2010-01-01T00:37:04Z</time>
      </trkpt>
      <trkpt lat="31.80810330" lon="35.04311550">
        <ele>507.00000</ele>
        <time>2010-01-01T00:37:08Z</time>
      </trkpt>
      <trkpt lat="31.80811920" lon="35.04323570">
        <ele>508.00000</ele>
        <time>2010-01-01T00:37:12Z</time>
      </trkpt>
      <trkpt lat="31.80813430" lon="35.04335680">
        <ele>509.00000</ele>
        <time>2010-01-01T00:37:16Z</time>
      </trkpt>
      <trkpt lat="31.80813280" lon="35.04345610">
        <ele>509.00000</ele>
        <time>2010-01-01T00:37:20Z</time>
      </trkpt>
      <trkpt lat="31.80812250" lon="35.04355690">
        <ele>510.00000</ele>
        <time>2010-01-01T00:37:23Z</time>
      </trkpt>
      <trkpt lat="31.80811540" lon="35.04367410">
        <ele>511.00000</ele>
        <time>2010-01-01T00:37:27Z</time>
      </trkpt>
      <trkpt lat="31.80809840" lon="35.04379490">
        <ele>512.00000</ele>
        <time>2010-01-01T00:37:31Z</time>
      </trkpt>
      <trkpt lat="31.80807420" lon="35.04390720">
        <ele>512.00000</ele>
        <time>2010-01-01T00:37:35Z</time>
      </trkpt>
      <trkpt lat="31.80807530" lon="35.04403980">
        <ele>515.00000</ele>
        <time>2010-01-01T00:37:40Z</time>
      </trkpt>
      <trkpt lat="31.80805290" lon="35.04415410">
        <ele>516.00000</ele>
        <time>2010-01-01T00:37:44Z</time>
      </trkpt>
      <trkpt lat="31.80804310" lon="35.04426730">
        <ele>517.00000</ele>
        <time>2010-01-01T00:37:47Z</time>
      </trkpt>
      <trkpt lat="31.80804420" lon="35.04436470">
        <ele>518.00000</ele>
        <time>2010-01-01T00:37:51Z</time>
      </trkpt>
      <trkpt lat="31.80804360" lon="35.04446570">
        <ele>519.00000</ele>
        <time>2010-01-01T00:37:54Z</time>
      </trkpt>
      <trkpt lat="31.80804540" lon="35.04458350">
        <ele>521.00000</ele>
        <time>2010-01-01T00:37:58Z</time>
      </trkpt>
      <trkpt lat="31.80804990" lon="35.04469450">
        <ele>522.00000</ele>
        <time>2010-01-01T00:38:02Z</time>
      </trkpt>
      <trkpt lat="31.80805210" lon="35.04480950">
        <ele>523.00000</ele>
        <time>2010-01-01T00:38:06Z</time>
      </trkpt>
      <trkpt lat="31.80804810" lon="35.04491000">
        <ele>524.00000</ele>
        <time>2010-01-01T00:38:09Z</time>
      </trkpt>
      <trkpt lat="31.80804680" lon="35.04502870">
        <ele>526.00000</ele>
        <time>2010-01-01T00:38:13Z</time>
      </trkpt>
      <trkpt lat="31.80804530" lon="35.04514130">
        <ele>527.00000</ele>
        <time>2010-01-01T00:38:17Z</time>
      </trkpt>
      <trkpt lat="31.80803560" lon="35.04527990">
        <ele>529.00000</ele>
        <time>2010-01-01T00:38:22Z</time>
      </trkpt>
      <trkpt lat="31.80803080" lon="35.04539260">
        <ele>529.00000</ele>
        <time>2010-01-01T00:38:26Z</time>
      </trkpt>
      <trkpt lat="31.80801600" lon="35.04551210">
        <ele>529.00000</ele>
        <time>2010-01-01T00:38:30Z</time>
      </trkpt>
      <trkpt lat="31.80800740" lon="35.04562750">
        <ele>530.00000</ele>
        <time>2010-01-01T00:38:34Z</time>
      </trkpt>
      <trkpt lat="31.80799450" lon="35.04573990">
        <ele>531.00000</ele>
        <time>2010-01-01T00:38:38Z</time>
      </trkpt>
      <trkpt lat="31.80798660" lon="35.04585090">
        <ele>532.00000</ele>
        <time>2010-01-01T00:38:41Z</time>
      </trkpt>
      <trkpt lat="31.80797970" lon="35.04596120">
        <ele>532.00000</ele>
        <time>2010-01-01T00:38:45Z</time>
      </trkpt>
      <trkpt lat="31.80797320" lon="35.04607760">
        <ele>533.00000</ele>
        <time>2010-01-01T00:38:49Z</time>
      </trkpt>
      <trkpt lat="31.80795780" lon="35.04619280">
        <ele>534.00000</ele>
        <time>2010-01-01T00:38:53Z</time>
      </trkpt>
      <trkpt lat="31.80794460" lon="35.04632110">
        <ele>535.00000</ele>
        <time>2010-01-01T00:38:58Z</time>
      </trkpt>
      <trkpt lat="31.80790910" lon="35.04645240">
        <ele>536.00000</ele>
        <time>2010-01-01T00:39:02Z</time>
      </trkpt>
      <trkpt lat="31.80788370" lon="35.04658140">
        <ele>537.00000</ele>
        <time>2010-01-01T00:39:07Z</time>
      </trkpt>
      <trkpt lat="31.80785430" lon="35.04669540">
        <ele>538.00000</ele>
        <time>2010-01-01T00:39:11Z</time>
      </trkpt>
      <trkpt lat="31.80784530" lon="35.04681180">
        <ele>540.00000</ele>
        <time>2010-01-01T00:39:15Z</time>
      </trkpt>
      <trkpt lat="31.80783630" lon="35.04692460">
        <ele>541.00000</ele>
        <time>2010-01-01T00:39:19Z</time>
      </trkpt>
      <trkpt lat="31.80782670" lon="35.04703480">
        <ele>543.00000</ele>
        <time>2010-01-01T00:39:22Z</time>
      </trkpt>
      <trkpt lat="31.80781960" lon="35.04714900">
        <ele>544.00000</ele>
        <time>2010-01-01T00:39:26Z</time>
      </trkpt>
      <trkpt lat="31.80781400" lon="35.04726230">
        <ele>545.00000</ele>
        <time>2010-01-01T00:39:30Z</time>
      </trkpt>
      <trkpt lat="31.80781990" lon="35.04738200">
        <ele>546.00000</ele>
        <time>2010-01-01T00:39:34Z</time>
      </trkpt>
      <trkpt lat="31.80782670" lon="35.04750230">
        <ele>546.00000</ele>
        <time>2010-01-01T00:39:38Z</time>
      </trkpt>
      <trkpt lat="31.80783760" lon="35.04761600">
        <ele>546.00000</ele>
        <time>2010-01-01T00:39:42Z</time>
      </trkpt>
      <trkpt lat="31.80786170" lon="35.04773030">
        <ele>547.00000</ele>
        <time>2010-01-01T00:39:46Z</time>
      </trkpt>
      <trkpt lat="31.80788470" lon="35.04783920">
        <ele>547.00000</ele>
        <time>2010-01-01T00:39:50Z</time>
      </trkpt>
      <trkpt lat="31.80790090" lon="35.04795030">
        <ele>547.00000</ele>
        <time>2010-01-01T00:39:54Z</time>
      </trkpt>
      <trkpt lat="31.80793280" lon="35.04805980">
        <ele>548.00000</ele>
        <time>2010-01-01T00:39:58Z</time>
      </trkpt>
      <trkpt lat="31.80796260" lon="35.04817010">
        <ele>550.00000</ele>
        <time>2010-01-01T00:40:02Z</time>
      </trkpt>
      <trkpt lat="31.80800120" lon="35.04828010">
        <ele>551.00000</ele>
        <time>2010-01-01T00:40:06Z</time>
      </trkpt>
      <trkpt lat="31.80803900" lon="35.04838190">
        <ele>553.00000</ele>
        <time>2010-01-01T00:40:10Z</time>
      </trkpt>
      <trkpt lat="31.80806440" lon="35.04848420">
        <ele>554.00000</ele>
        <time>2010-01-01T00:40:13Z</time>
      </trkpt>
      <trkpt lat="31.80808610" lon="35.04859000">
        <ele>555.00000</ele>
        <time>2010-01-01T00:40:17Z</time>
      </trkpt>
      <trkpt lat="31.80809830" lon="35.04869970">
        <ele>555.00000</ele>
        <time>2010-01-01T00:40:21Z</time>
      </trkpt>
      <trkpt lat="31.80813000" lon="35.04880840">
        <ele>556.00000</ele>
        <time>2010-01-01T00:40:25Z</time>
      </trkpt>
      <trkpt lat="31.80815540" lon="35.04890990">
        <ele>557.00000</ele>
        <time>2010-01-01T00:40:28Z</time>
      </trkpt>
      <trkpt lat="31.80819000" lon="35.04902200">
        <ele>559.00000</ele>
        <time>2010-01-01T00:40:32Z</time>
      </trkpt>
      <trkpt lat="31.80822830" lon="35.04912470">
        <ele>560.00000</ele>
        <time>2010-01-01T00:40:36Z</time>
      </trkpt>
      <trkpt lat="31.80826850" lon="35.04923060">
        <ele>561.00000</ele>
        <time>2010-01-01T00:40:40Z</time>
      </trkpt>
      <trkpt lat="31.80831660" lon="35.04933840">
        <ele>563.00000</ele>
        <time>2010-01-01T00:40:44Z</time>
      </trkpt>
      <trkpt lat="31.80837110" lon="35.04942560">
        <ele>564.00000</ele>
        <time>2010-01-01T00:40:48Z</time>
      </trkpt>
      <trkpt lat="31.80843170" lon="35.04952590">
        <ele>565.00000</ele>
        <time>2010-01-01T00:40:52Z</time>
      </trkpt>
      <trkpt lat="31.80848540" lon="35.04962390">
        <ele>565.00000</ele>
        <time>2010-01-01T00:40:56Z</time>
      </trkpt>
      <trkpt lat="31.80854530" lon="35.04971210">
        <ele>565.00000</ele>
        <time>2010-01-01T00:41:00Z</time>
      </trkpt>
      <trkpt lat="31.80858440" lon="35.04981530">
        <ele>566.00000</ele>
        <time>2010-01-01T00:41:04Z</time>
      </trkpt>
      <trkpt lat="31.80862910" lon="35.04990420">
        <ele>565.00000</ele>
        <time>2010-01-01T00:41:07Z</time>
      </trkpt>
      <trkpt lat="31.80858580" lon="35.05001200">
        <ele>566.00000</ele>
        <time>2010-01-01T00:41:11Z</time>
      </trkpt>
      <trkpt lat="31.80849460" lon="35.05004930">
        <ele>566.00000</ele>
        <time>2010-01-01T00:41:15Z</time>
      </trkpt>
      <trkpt lat="31.80839570" lon="35.05010240">
        <ele>567.00000</ele>
        <time>2010-01-01T00:41:19Z</time>
      </trkpt>
      <trkpt lat="31.80829740" lon="35.05014880">
        <ele>567.00000</ele>
        <time>2010-01-01T00:41:24Z</time>
      </trkpt>
      <trkpt lat="31.80821120" lon="35.05018600">
        <ele>567.00000</ele>
        <time>2010-01-01T00:41:27Z</time>
      </trkpt>
      <trkpt lat="31.80810520" lon="35.05021980">
        <ele>566.00000</ele>
        <time>2010-01-01T00:41:32Z</time>
      </trkpt>
      <trkpt lat="31.80799350" lon="35.05024660">
        <ele>566.00000</ele>
        <time>2010-01-01T00:41:36Z</time>
      </trkpt>
      <trkpt lat="31.80790400" lon="35.05027160">
        <ele>565.00000</ele>
        <time>2010-01-01T00:41:40Z</time>
      </trkpt>
      <trkpt lat="31.80780940" lon="35.05030710">
        <ele>564.00000</ele>
        <time>2010-01-01T00:41:44Z</time>
      </trkpt>
      <trkpt lat="31.80770460" lon="35.05036060">
        <ele>565.00000</ele>
        <time>2010-01-01T00:41:49Z</time>
      </trkpt>
      <trkpt lat="31.80759040" lon="35.05041900">
        <ele>565.00000</ele>
        <time>2010-01-01T00:41:54Z</time>
      </trkpt>
      <trkpt lat="31.80748120" lon="35.05049130">
        <ele>565.00000</ele>
        <time>2010-01-01T00:41:59Z</time>
      </trkpt>
      <trkpt lat="31.80738870" lon="35.05059920">
        <ele>565.00000</ele>
        <time>2010-01-01T00:42:04Z</time>
      </trkpt>
      <trkpt lat="31.80732770" lon="35.05073330">
        <ele>565.00000</ele>
        <time>2010-01-01T00:42:09Z</time>
      </trkpt>
      <trkpt lat="31.80728780" lon="35.05088520">
        <ele>564.00000</ele>
        <time>2010-01-01T00:42:14Z</time>
      </trkpt>
      <trkpt lat="31.80727890" lon="35.05099750">
        <ele>565.00000</ele>
        <time>2010-01-01T00:42:18Z</time>
      </trkpt>
      <trkpt lat="31.80728040" lon="35.05112760">
        <ele>565.00000</ele>
        <time>2010-01-01T00:42:23Z</time>
      </trkpt>
      <trkpt lat="31.80728810" lon="35.05125040">
        <ele>563.00000</ele>
        <time>2010-01-01T00:42:27Z</time>
      </trkpt>
      <trkpt lat="31.80729770" lon="35.05138760">
        <ele>562.00000</ele>
        <time>2010-01-01T00:42:31Z</time>
      </trkpt>
      <trkpt lat="31.80732960" lon="35.05149400">
        <ele>561.00000</ele>
        <time>2010-01-01T00:42:35Z</time>
      </trkpt>
      <trkpt lat="31.80735470" lon="35.05160280">
        <ele>560.00000</ele>
        <time>2010-01-01T00:42:39Z</time>
      </trkpt>
      <trkpt lat="31.80737610" lon="35.05171290">
        <ele>560.00000</ele>
        <time>2010-01-01T00:42:43Z</time>
      </trkpt>
      <trkpt lat="31.80742140" lon="35.05183110">
        <ele>560.00000</ele>
        <time>2010-01-01T00:42:47Z</time>
      </trkpt>
      <trkpt lat="31.80748350" lon="35.05195510">
        <ele>561.00000</ele>
        <time>2010-01-01T00:42:52Z</time>
      </trkpt>
      <trkpt lat="31.80755840" lon="35.05208530">
        <ele>561.00000</ele>
        <time>2010-01-01T00:42:58Z</time>
      </trkpt>
      <trkpt lat="31.80761650" lon="35.05217980">
        <ele>562.00000</ele>
        <time>2010-01-01T00:43:02Z</time>
      </trkpt>
      <trkpt lat="31.80768050" lon="35.05227930">
        <ele>562.00000</ele>
        <time>2010-01-01T00:43:06Z</time>
      </trkpt>
      <trkpt lat="31.80775210" lon="35.05239080">
        <ele>562.00000</ele>
        <time>2010-01-01T00:43:11Z</time>
      </trkpt>
      <trkpt lat="31.80782390" lon="35.05250700">
        <ele>561.00000</ele>
        <time>2010-01-01T00:43:16Z</time>
      </trkpt>
      <trkpt lat="31.80790560" lon="35.05262760">
        <ele>560.00000</ele>
        <time>2010-01-01T00:43:21Z</time>
      </trkpt>
      <trkpt lat="31.80799010" lon="35.05276290">
        <ele>559.00000</ele>
        <time>2010-01-01T00:43:26Z</time>
      </trkpt>
      <trkpt lat="31.80807680" lon="35.05291560">
        <ele>558.00000</ele>
        <time>2010-01-01T00:43:33Z</time>
      </trkpt>
      <trkpt lat="31.80816530" lon="35.05308130">
        <ele>557.00000</ele>
        <time>2010-01-01T00:43:39Z</time>
      </trkpt>
      <trkpt lat="31.80825210" lon="35.05325680">
        <ele>557.00000</ele>
        <time>2010-01-01T00:43:46Z</time>
      </trkpt>
      <trkpt lat="31.80829150" lon="35.05334740">
        <ele>557.00000</ele>
        <time>2010-01-01T00:43:50Z</time>
      </trkpt>
      <trkpt lat="31.80836530" lon="35.05351850">
        <ele>556.00000</ele>
        <time>2010-01-01T00:43:56Z</time>
      </trkpt>
      <trkpt lat="31.80843650" lon="35.05368550">
        <ele>555.00000</ele>
        <time>2010-01-01T00:44:03Z</time>
      </trkpt>
      <trkpt lat="31.80849310" lon="35.05385040">
        <ele>554.00000</ele>
        <time>2010-01-01T00:44:09Z</time>
      </trkpt>
      <trkpt lat="31.80851760" lon="35.05401940">
        <ele>554.00000</ele>
        <time>2010-01-01T00:44:15Z</time>
      </trkpt>
      <trkpt lat="31.80851760" lon="35.05419380">
        <ele>553.00000</ele>
        <time>2010-01-01T00:44:20Z</time>
      </trkpt>
      <trkpt lat="31.80850520" lon="35.05437500">
        <ele>552.00000</ele>
        <time>2010-01-01T00:44:27Z</time>
      </trkpt>
      <trkpt lat="31.80848720" lon="35.05454960">
        <ele>552.00000</ele>
        <time>2010-01-01T00:44:33Z</time>
      </trkpt>
      <trkpt lat="31.80846860" lon="35.05471260">
        <ele>551.00000</ele>
        <time>2010-01-01T00:44:38Z</time>
      </trkpt>
      <trkpt lat="31.80845680" lon="35.05485170">
        <ele>552.00000</ele>
        <time>2010-01-01T00:44:43Z</time>
      </trkpt>
      <trkpt lat="31.80845070" lon="35.05496920">
        <ele>552.00000</ele>
        <time>2010-01-01T00:44:47Z</time>
      </trkpt>
      <trkpt lat="31.80845130" lon="35.05507550">
        <ele>552.00000</ele>
        <time>2010-01-01T00:44:51Z</time>
      </trkpt>
      <trkpt lat="31.80844700" lon="35.05517850">
        <ele>552.00000</ele>
        <time>2010-01-01T00:44:54Z</time>
      </trkpt>
      <trkpt lat="31.80844210" lon="35.05532480">
        <ele>553.00000</ele>
        <time>2010-01-01T00:44:59Z</time>
      </trkpt>
      <trkpt lat="31.80845050" lon="35.05547770">
        <ele>554.00000</ele>
        <time>2010-01-01T00:45:04Z</time>
      </trkpt>
      <trkpt lat="31.80846690" lon="35.05563390">
        <ele>555.00000</ele>
        <time>2010-01-01T00:45:10Z</time>
      </trkpt>
      <trkpt lat="31.80847510" lon="35.05574890">
        <ele>555.00000</ele>
        <time>2010-01-01T00:45:14Z</time>
      </trkpt>
      <trkpt lat="31.80848690" lon="35.05587670">
        <ele>555.00000</ele>
        <time>2010-01-01T00:45:18Z</time>
      </trkpt>
      <trkpt lat="31.80850600" lon="35.05601650">
        <ele>555.00000</ele>
        <time>2010-01-01T00:45:23Z</time>
      </trkpt>
      <trkpt lat="31.80852870" lon="35.05617300">
        <ele>555.00000</ele>
        <time>2010-01-01T00:45:28Z</time>
      </trkpt>
      <trkpt lat="31.80855480" lon="35.05634170">
        <ele>554.00000</ele>
        <time>2010-01-01T00:45:34Z</time>
      </trkpt>
      <trkpt lat="31.80858550" lon="35.05651540">
        <ele>553.00000</ele>
        <time>2010-01-01T00:45:40Z</time>
      </trkpt>
      <trkpt lat="31.80861870" lon="35.05669180">
        <ele>552.00000</ele>
        <time>2010-01-01T00:45:46Z</time>
      </trkpt>
      <trkpt lat="31.80866010" lon="35.05686450">
        <ele>551.00000</ele>
        <time>2010-01-01T00:45:52Z</time>
      </trkpt>
      <trkpt lat="31.80870030" lon="35.05702920">
        <ele>551.00000</ele>
        <time>2010-01-01T00:45:58Z</time>
      </trkpt>
      <trkpt lat="31.80873750" lon="35.05718420">
        <ele>551.00000</ele>
        <time>2010-01-01T00:46:04Z</time>
      </trkpt>
      <trkpt lat="31.80876740" lon="35.05733340">
        <ele>551.00000</ele>
        <time>2010-01-01T00:46:09Z</time>
      </trkpt>
      <trkpt lat="31.80879380" lon="35.05747710">
        <ele>551.00000</ele>
        <time>2010-01-01T00:46:14Z</time>
      </trkpt>
      <trkpt lat="31.80882100" lon="35.05761720">
        <ele>551.00000</ele>
        <time>2010-01-01T00:46:19Z</time>
      </trkpt>
      <trkpt lat="31.80885190" lon="35.05775400">
        <ele>551.00000</ele>
        <time>2010-01-01T00:46:24Z</time>
      </trkpt>
      <trkpt lat="31.80888180" lon="35.05789470">
        <ele>552.00000</ele>
        <time>2010-01-01T00:46:28Z</time>
      </trkpt>
      <trkpt lat="31.80890910" lon="35.05804410">
        <ele>553.00000</ele>
        <time>2010-01-01T00:46:34Z</time>
      </trkpt>
      <trkpt lat="31.80892800" lon="35.05820050">
        <ele>553.00000</ele>
        <time>2010-01-01T00:46:39Z</time>
      </trkpt>
      <trkpt lat="31.80893520" lon="35.05836110">
        <ele>552.00000</ele>
        <time>2010-01-01T00:46:44Z</time>
      </trkpt>
      <trkpt lat="31.80893410" lon="35.05852350">
        <ele>552.00000</ele>
        <time>2010-01-01T00:46:50Z</time>
      </trkpt>
      <trkpt lat="31.80892740" lon="35.05868080">
        <ele>552.00000</ele>
        <time>2010-01-01T00:46:55Z</time>
      </trkpt>
      <trkpt lat="31.80891380" lon="35.05882400">
        <ele>553.00000</ele>
        <time>2010-01-01T00:47:00Z</time>
      </trkpt>
      <trkpt lat="31.80890070" lon="35.05895440">
        <ele>554.00000</ele>
        <time>2010-01-01T00:47:05Z</time>
      </trkpt>
      <trkpt lat="31.80888960" lon="35.05907530">
        <ele>555.00000</ele>
        <time>2010-01-01T00:47:09Z</time>
      </trkpt>
      <trkpt lat="31.80887380" lon="35.05922490">
        <ele>556.00000</ele>
        <time>2010-01-01T00:47:14Z</time>
      </trkpt>
      <trkpt lat="31.80884940" lon="35.05934850">
        <ele>556.00000</ele>
        <time>2010-01-01T00:47:18Z</time>
      </trkpt>
      <trkpt lat="31.80882500" lon="35.05946340">
        <ele>556.00000</ele>
        <time>2010-01-01T00:47:22Z</time>
      </trkpt>
      <trkpt lat="31.80881450" lon="35.05958000">
        <ele>557.00000</ele>
        <time>2010-01-01T00:47:26Z</time>
      </trkpt>
      <trkpt lat="31.80879700" lon="35.05968920">
        <ele>558.00000</ele>
        <time>2010-01-01T00:47:30Z</time>
      </trkpt>
      <trkpt lat="31.80876630" lon="35.05978560">
        <ele>559.00000</ele>
        <time>2010-01-01T00:47:34Z</time>
      </trkpt>
      <trkpt lat="31.80874310" lon="35.05990640">
        <ele>560.00000</ele>
        <time>2010-01-01T00:47:38Z</time>
      </trkpt>
      <trkpt lat="31.80871540" lon="35.06000810">
        <ele>560.00000</ele>
        <time>2010-01-01T00:47:41Z</time>
      </trkpt>
      <trkpt lat="31.80867840" lon="35.06013110">
        <ele>562.00000</ele>
        <time>2010-01-01T00:47:46Z</time>
      </trkpt>
      <trkpt lat="31.80864050" lon="35.06023470">
        <ele>563.00000</ele>
        <time>2010-01-01T00:47:50Z</time>
      </trkpt>
      <trkpt lat="31.80859730" lon="35.06033790">
        <ele>565.00000</ele>
        <time>2010-01-01T00:47:54Z</time>
      </trkpt>
      <trkpt lat="31.80856100" lon="35.06043360">
        <ele>567.00000</ele>
        <time>2010-01-01T00:47:57Z</time>
      </trkpt>
      <trkpt lat="31.80851300" lon="35.06052520">
        <ele>568.00000</ele>
        <time>2010-01-01T00:48:01Z</time>
      </trkpt>
      <trkpt lat="31.80847640" lon="35.06062430">
        <ele>569.00000</ele>
        <time>2010-01-01T00:48:05Z</time>
      </trkpt>
      <trkpt lat="31.80843430" lon="35.06071470">
        <ele>569.00000</ele>
        <time>2010-01-01T00:48:08Z</time>
      </trkpt>
      <trkpt lat="31.80839280" lon="35.06081300">
        <ele>570.00000</ele>
        <time>2010-01-01T00:48:12Z</time>
      </trkpt>
      <trkpt lat="31.80834160" lon="35.06091110">
        <ele>570.00000</ele>
        <time>2010-01-01T00:48:16Z</time>
      </trkpt>
      <trkpt lat="31.80830450" lon="35.06102380">
        <ele>571.00000</ele>
        <time>2010-01-01T00:48:20Z</time>
      </trkpt>
      <trkpt lat="31.80825880" lon="35.06111790">
        <ele>571.00000</ele>
        <time>2010-01-01T00:48:24Z</time>
      </trkpt>
      <trkpt lat="31.80821720" lon="35.06122080">
        <ele>572.00000</ele>
        <time>2010-01-01T00:48:27Z</time>
      </trkpt>
      <trkpt lat="31.80815770" lon="35.06132150">
        <ele>573.00000</ele>
        <time>2010-01-01T00:48:32Z</time>
      </trkpt>
      <trkpt lat="31.80810440" lon="35.06140980">
        <ele>574.00000</ele>
        <time>2010-01-01T00:48:35Z</time>
      </trkpt>
      <trkpt lat="31.80804560" lon="35.06149090">
        <ele>574.00000</ele>
        <time>2010-01-01T00:48:39Z</time>
      </trkpt>
      <trkpt lat="31.80798590" lon="35.06158050">
        <ele>575.00000</ele>
        <time>2010-01-01T00:48:43Z</time>
      </trkpt>
      <trkpt lat="31.80792200" lon="35.06166990">
        <ele>576.00000</ele>
        <time>2010-01-01T00:48:47Z</time>
      </trkpt>
      <trkpt lat="31.80785600" lon="35.06175070">
        <ele>576.00000</ele>
        <time>2010-01-01T00:48:51Z</time>
      </trkpt>
      <trkpt lat="31.80778960" lon="35.06182760">
        <ele>576.00000</ele>
        <time>2010-01-01T00:48:54Z</time>
      </trkpt>
      <trkpt lat="31.80772630" lon="35.06190830">
        <ele>576.00000</ele>
        <time>2010-01-01T00:48:58Z</time>
      </trkpt>
      <trkpt lat="31.80766790" lon="35.06199080">
        <ele>576.00000</ele>
        <time>2010-01-01T00:49:02Z</time>
      </trkpt>
      <trkpt lat="31.80760010" lon="35.06207470">
        <ele>576.00000</ele>
        <time>2010-01-01T00:49:06Z</time>
      </trkpt>
      <trkpt lat="31.80753430" lon="35.06217320">
        <ele>576.00000</ele>
        <time>2010-01-01T00:49:10Z</time>
      </trkpt>
      <trkpt lat="31.80746570" lon="35.06226410">
        <ele>577.00000</ele>
        <time>2010-01-01T00:49:14Z</time>
      </trkpt>
      <trkpt lat="31.80739080" lon="35.06235560">
        <ele>577.00000</ele>
        <time>2010-01-01T00:49:18Z</time>
      </trkpt>
      <trkpt lat="31.80731180" lon="35.06244980">
        <ele>577.00000</ele>
        <time>2010-01-01T00:49:23Z</time>
      </trkpt>
      <trkpt lat="31.80725100" lon="35.06253180">
        <ele>577.00000</ele>
        <time>2010-01-01T00:49:27Z</time>
      </trkpt>
      <trkpt lat="31.80718460" lon="35.06260980">
        <ele>577.00000</ele>
        <time>2010-01-01T00:49:30Z</time>
      </trkpt>
      <trkpt lat="31.80712170" lon="35.06268560">
        <ele>577.00000</ele>
        <time>2010-01-01T00:49:34Z</time>
      </trkpt>
      <trkpt lat="31.80705510" lon="35.06276780">
        <ele>578.00000</ele>
        <time>2010-01-01T00:49:38Z</time>
      </trkpt>
      <trkpt lat="31.80697300" lon="35.06285880">
        <ele>579.00000</ele>
        <time>2010-01-01T00:49:42Z</time>
      </trkpt>
      <trkpt lat="31.80689330" lon="35.06293200">
        <ele>579.00000</ele>
        <time>2010-01-01T00:49:46Z</time>
      </trkpt>
      <trkpt lat="31.80681300" lon="35.06302260">
        <ele>579.00000</ele>
        <time>2010-01-01T00:49:51Z</time>
      </trkpt>
      <trkpt lat="31.80672960" lon="35.06312000">
        <ele>578.00000</ele>
        <time>2010-01-01T00:49:55Z</time>
      </trkpt>
      <trkpt lat="31.80664510" lon="35.06322450">
        <ele>577.00000</ele>
        <time>2010-01-01T00:50:00Z</time>
      </trkpt>
      <trkpt lat="31.80655940" lon="35.06334330">
        <ele>576.00000</ele>
        <time>2010-01-01T00:50:06Z</time>
      </trkpt>
      <trkpt lat="31.80650160" lon="35.06343190">
        <ele>575.00000</ele>
        <time>2010-01-01T00:50:09Z</time>
      </trkpt>
      <trkpt lat="31.80644320" lon="35.06352560">
        <ele>575.00000</ele>
        <time>2010-01-01T00:50:13Z</time>
      </trkpt>
      <trkpt lat="31.80638250" lon="35.06362330">
        <ele>575.00000</ele>
        <time>2010-01-01T00:50:18Z</time>
      </trkpt>
      <trkpt lat="31.80631480" lon="35.06372510">
        <ele>575.00000</ele>
        <time>2010-01-01T00:50:22Z</time>
      </trkpt>
      <trkpt lat="31.80625120" lon="35.06381310">
        <ele>575.00000</ele>
        <time>2010-01-01T00:50:26Z</time>
      </trkpt>
      <trkpt lat="31.80619060" lon="35.06390380">
        <ele>575.00000</ele>
        <time>2010-01-01T00:50:30Z</time>
      </trkpt>
      <trkpt lat="31.80613070" lon="35.06399640">
        <ele>576.00000</ele>
        <time>2010-01-01T00:50:34Z</time>
      </trkpt>
      <trkpt lat="31.80606800" lon="35.06408820">
        <ele>576.00000</ele>
        <time>2010-01-01T00:50:38Z</time>
      </trkpt>
      <trkpt lat="31.80600480" lon="35.06418690">
        <ele>577.00000</ele>
        <time>2010-01-01T00:50:42Z</time>
      </trkpt>
      <trkpt lat="31.80594270" lon="35.06429760">
        <ele>577.00000</ele>
        <time>2010-01-01T00:50:46Z</time>
      </trkpt>
      <trkpt lat="31.80587180" lon="35.06441180">
        <ele>577.00000</ele>
        <time>2010-01-01T00:50:51Z</time>
      </trkpt>
      <trkpt lat="31.80579840" lon="35.06453140">
        <ele>577.00000</ele>
        <time>2010-01-01T00:50:56Z</time>
      </trkpt>
      <trkpt lat="31.80572530" lon="35.06465000">
        <ele>577.00000</ele>
        <time>2010-01-01T00:51:01Z</time>
      </trkpt>
      <trkpt lat="31.80565710" lon="35.06476630">
        <ele>577.00000</ele>
        <time>2010-01-01T00:51:06Z</time>
      </trkpt>
      <trkpt lat="31.80559030" lon="35.06488130">
        <ele>577.00000</ele>
        <time>2010-01-01T00:51:11Z</time>
      </trkpt>
      <trkpt lat="31.80551990" lon="35.06499100">
        <ele>577.00000</ele>
        <time>2010-01-01T00:51:15Z</time>
      </trkpt>
      <trkpt lat="31.80544650" lon="35.06509910">
        <ele>577.00000</ele>
        <time>2010-01-01T00:51:20Z</time>
      </trkpt>
      <trkpt lat="31.80536500" lon="35.06519730">
        <ele>576.00000</ele>
        <time>2010-01-01T00:51:25Z</time>
      </trkpt>
      <trkpt lat="31.80529200" lon="35.06527740">
        <ele>576.00000</ele>
        <time>2010-01-01T00:51:29Z</time>
      </trkpt>
      <trkpt lat="31.80521120" lon="35.06537560">
        <ele>576.00000</ele>
        <time>2010-01-01T00:51:34Z</time>
      </trkpt>
      <trkpt lat="31.80513560" lon="35.06547280">
        <ele>576.00000</ele>
        <time>2010-01-01T00:51:38Z</time>
      </trkpt>
      <trkpt lat="31.80507440" lon="35.06555260">
        <ele>576.00000</ele>
        <time>2010-01-01T00:51:42Z</time>
      </trkpt>
      <trkpt lat="31.80502370" lon="35.06564820">
        <ele>577.00000</ele>
        <time>2010-01-01T00:51:45Z</time>
      </trkpt>
      <trkpt lat="31.80497650" lon="35.06574970">
        <ele>579.00000</ele>
        <time>2010-01-01T00:51:49Z</time>
      </trkpt>
      <trkpt lat="31.80493900" lon="35.06584960">
        <ele>580.00000</ele>
        <time>2010-01-01T00:51:53Z</time>
      </trkpt>
      <trkpt lat="31.80488270" lon="35.06594790">
        <ele>580.00000</ele>
        <time>2010-01-01T00:51:57Z</time>
      </trkpt>
      <trkpt lat="31.80484240" lon="35.06604410">
        <ele>581.00000</ele>
        <time>2010-01-01T00:52:01Z</time>
      </trkpt>
      <trkpt lat="31.80481440" lon="35.06616840">
        <ele>582.00000</ele>
        <time>2010-01-01T00:52:05Z</time>
      </trkpt>
      <trkpt lat="31.80480200" lon="35.06628640">
        <ele>584.00000</ele>
        <time>2010-01-01T00:52:09Z</time>
      </trkpt>
      <trkpt lat="31.80480010" lon="35.06641470">
        <ele>585.00000</ele>
        <time>2010-01-01T00:52:14Z</time>
      </trkpt>
      <trkpt lat="31.80478230" lon="35.06652720">
        <ele>587.00000</ele>
        <time>2010-01-01T00:52:18Z</time>
      </trkpt>
      <trkpt lat="31.80474660" lon="35.06663280">
        <ele>588.00000</ele>
        <time>2010-01-01T00:52:21Z</time>
      </trkpt>
      <trkpt lat="31.80471450" lon="35.06672200">
        <ele>588.00000</ele>
        <time>2010-01-01T00:52:25Z</time>
      </trkpt>
      <trkpt lat="31.80465260" lon="35.06681870">
        <ele>588.00000</ele>
        <time>2010-01-01T00:52:29Z</time>
      </trkpt>
      <trkpt lat="31.80458780" lon="35.06690070">
        <ele>588.00000</ele>
        <time>2010-01-01T00:52:33Z</time>
      </trkpt>
      <trkpt lat="31.80451900" lon="35.06698190">
        <ele>589.00000</ele>
        <time>2010-01-01T00:52:36Z</time>
      </trkpt>
      <trkpt lat="31.80445050" lon="35.06705540">
        <ele>589.00000</ele>
        <time>2010-01-01T00:52:40Z</time>
      </trkpt>
      <trkpt lat="31.80437770" lon="35.06714600">
        <ele>589.00000</ele>
        <time>2010-01-01T00:52:44Z</time>
      </trkpt>
      <trkpt lat="31.80432730" lon="35.06724120">
        <ele>589.00000</ele>
        <time>2010-01-01T00:52:48Z</time>
      </trkpt>
      <trkpt lat="31.80429370" lon="35.06735140">
        <ele>589.00000</ele>
        <time>2010-01-01T00:52:52Z</time>
      </trkpt>
      <trkpt lat="31.80427010" lon="35.06746860">
        <ele>589.00000</ele>
        <time>2010-01-01T00:52:56Z</time>
      </trkpt>
      <trkpt lat="31.80426500" lon="35.06759030">
        <ele>589.00000</ele>
        <time>2010-01-01T00:53:00Z</time>
      </trkpt>
      <trkpt lat="31.80426380" lon="35.06770790">
        <ele>589.00000</ele>
        <time>2010-01-01T00:53:04Z</time>
      </trkpt>
      <trkpt lat="31.80426950" lon="35.06783500">
        <ele>589.00000</ele>
        <time>2010-01-01T00:53:09Z</time>
      </trkpt>
      <trkpt lat="31.80427060" lon="35.06795160">
        <ele>589.00000</ele>
        <time>2010-01-01T00:53:13Z</time>
      </trkpt>
      <trkpt lat="31.80425840" lon="35.06809970">
        <ele>589.00000</ele>
        <time>2010-01-01T00:53:18Z</time>
      </trkpt>
      <trkpt lat="31.80424060" lon="35.06823020">
        <ele>589.00000</ele>
        <time>2010-01-01T00:53:22Z</time>
      </trkpt>
      <trkpt lat="31.80418050" lon="35.06835300">
        <ele>588.00000</ele>
        <time>2010-01-01T00:53:27Z</time>
      </trkpt>
      <trkpt lat="31.80412640" lon="35.06849360">
        <ele>589.00000</ele>
        <time>2010-01-01T00:53:32Z</time>
      </trkpt>
      <trkpt lat="31.80408140" lon="35.06861100">
        <ele>589.00000</ele>
        <time>2010-01-01T00:53:37Z</time>
      </trkpt>
      <trkpt lat="31.80402840" lon="35.06873730">
        <ele>589.00000</ele>
        <time>2010-01-01T00:53:42Z</time>
      </trkpt>
      <trkpt lat="31.80396540" lon="35.06886430">
        <ele>589.00000</ele>
        <time>2010-01-01T00:53:47Z</time>
      </trkpt>
      <trkpt lat="31.80389200" lon="35.06898640">
        <ele>589.00000</ele>
        <time>2010-01-01T00:53:52Z</time>
      </trkpt>
      <trkpt lat="31.80381540" lon="35.06910530">
        <ele>589.00000</ele>
        <time>2010-01-01T00:53:57Z</time>
      </trkpt>
      <trkpt lat="31.80373960" lon="35.06922200">
        <ele>589.00000</ele>
        <time>2010-01-01T00:54:02Z</time>
      </trkpt>
      <trkpt lat="31.80366640" lon="35.06932630">
        <ele>589.00000</ele>
        <time>2010-01-01T00:54:06Z</time>
      </trkpt>
      <trkpt lat="31.80359270" lon="35.06943150">
        <ele>590.00000</ele>
        <time>2010-01-01T00:54:11Z</time>
      </trkpt>
      <trkpt lat="31.80351560" lon="35.06954120">
        <ele>589.00000</ele>
        <time>2010-01-01T00:54:16Z</time>
      </trkpt>
      <trkpt lat="31.80343620" lon="35.06965840">
        <ele>589.00000</ele>
        <time>2010-01-01T00:54:21Z</time>
      </trkpt>
      <trkpt lat="31.80335520" lon="35.06978340">
        <ele>589.00000</ele>
        <time>2010-01-01T00:54:26Z</time>
      </trkpt>
      <trkpt lat="31.80327070" lon="35.06991390">
        <ele>589.00000</ele>
        <time>2010-01-01T00:54:32Z</time>
      </trkpt>
      <trkpt lat="31.80318630" lon="35.07005260">
        <ele>588.00000</ele>
        <time>2010-01-01T00:54:38Z</time>
      </trkpt>
      <trkpt lat="31.80309560" lon="35.07018890">
        <ele>587.00000</ele>
        <time>2010-01-01T00:54:44Z</time>
      </trkpt>
      <trkpt lat="31.80300830" lon="35.07031930">
        <ele>586.00000</ele>
        <time>2010-01-01T00:54:49Z</time>
      </trkpt>
      <trkpt lat="31.80292120" lon="35.07045410">
        <ele>586.00000</ele>
        <time>2010-01-01T00:54:55Z</time>
      </trkpt>
      <trkpt lat="31.80283040" lon="35.07059700">
        <ele>586.00000</ele>
        <time>2010-01-01T00:55:01Z</time>
      </trkpt>
      <trkpt lat="31.80274290" lon="35.07074790">
        <ele>585.00000</ele>
        <time>2010-01-01T00:55:07Z</time>
      </trkpt>
      <trkpt lat="31.80266000" lon="35.07089720">
        <ele>585.00000</ele>
        <time>2010-01-01T00:55:13Z</time>
      </trkpt>
      <trkpt lat="31.80257250" lon="35.07103820">
        <ele>586.00000</ele>
        <time>2010-01-01T00:55:19Z</time>
      </trkpt>
      <trkpt lat="31.80249580" lon="35.07117510">
        <ele>586.00000</ele>
        <time>2010-01-01T00:55:25Z</time>
      </trkpt>
      <trkpt lat="31.80243550" lon="35.07130180">
        <ele>586.00000</ele>
        <time>2010-01-01T00:55:30Z</time>
      </trkpt>
      <trkpt lat="31.80238450" lon="35.07141040">
        <ele>586.00000</ele>
        <time>2010-01-01T00:55:34Z</time>
      </trkpt>
      <trkpt lat="31.80235440" lon="35.07153420">
        <ele>586.00000</ele>
        <time>2010-01-01T00:55:38Z</time>
      </trkpt>
      <trkpt lat="31.80235530" lon="35.07163720">
        <ele>586.00000</ele>
        <time>2010-01-01T00:55:42Z</time>
      </trkpt>
      <trkpt lat="31.80236880" lon="35.07176750">
        <ele>586.00000</ele>
        <time>2010-01-01T00:55:46Z</time>
      </trkpt>
      <trkpt lat="31.80238190" lon="35.07189060">
        <ele>586.00000</ele>
        <time>2010-01-01T00:55:51Z</time>
      </trkpt>
      <trkpt lat="31.80236460" lon="35.07200420">
        <ele>585.00000</ele>
        <time>2010-01-01T00:55:54Z</time>
      </trkpt>
      <trkpt lat="31.80230140" lon="35.07212390">
        <ele>584.00000</ele>
        <time>2010-01-01T00:55:59Z</time>
      </trkpt>
      <trkpt lat="31.80224300" lon="35.07220490">
        <ele>584.00000</ele>
        <time>2010-01-01T00:56:03Z</time>
      </trkpt>
      <trkpt lat="31.80217650" lon="35.07228670">
        <ele>583.00000</ele>
        <time>2010-01-01T00:56:07Z</time>
      </trkpt>
      <trkpt lat="31.80211020" lon="35.07238360">
        <ele>582.00000</ele>
        <time>2010-01-01T00:56:11Z</time>
      </trkpt>
      <trkpt lat="31.80205090" lon="35.07248330">
        <ele>582.00000</ele>
        <time>2010-01-01T00:56:15Z</time>
      </trkpt>
      <trkpt lat="31.80199670" lon="35.07258560">
        <ele>581.00000</ele>
        <time>2010-01-01T00:56:19Z</time>
      </trkpt>
      <trkpt lat="31.80194040" lon="35.07267860">
        <ele>581.00000</ele>
        <time>2010-01-01T00:56:23Z</time>
      </trkpt>
      <trkpt lat="31.80188520" lon="35.07276510">
        <ele>581.00000</ele>
        <time>2010-01-01T00:56:27Z</time>
      </trkpt>
      <trkpt lat="31.80183120" lon="35.07285170">
        <ele>582.00000</ele>
        <time>2010-01-01T00:56:30Z</time>
      </trkpt>
      <trkpt lat="31.80177830" lon="35.07294080">
        <ele>582.00000</ele>
        <time>2010-01-01T00:56:34Z</time>
      </trkpt>
      <trkpt lat="31.80172810" lon="35.07303160">
        <ele>583.00000</ele>
        <time>2010-01-01T00:56:38Z</time>
      </trkpt>
      <trkpt lat="31.80167690" lon="35.07313000">
        <ele>583.00000</ele>
        <time>2010-01-01T00:56:42Z</time>
      </trkpt>
      <trkpt lat="31.80162850" lon="35.07323020">
        <ele>584.00000</ele>
        <time>2010-01-01T00:56:46Z</time>
      </trkpt>
      <trkpt lat="31.80158660" lon="35.07332750">
        <ele>584.00000</ele>
        <time>2010-01-01T00:56:49Z</time>
      </trkpt>
      <trkpt lat="31.80154980" lon="35.07342830">
        <ele>584.00000</ele>
        <time>2010-01-01T00:56:53Z</time>
      </trkpt>
      <trkpt lat="31.80152240" lon="35.07353620">
        <ele>584.00000</ele>
        <time>2010-01-01T00:56:57Z</time>
      </trkpt>
      <trkpt lat="31.80149030" lon="35.07365060">
        <ele>583.00000</ele>
        <time>2010-01-01T00:57:01Z</time>
      </trkpt>
      <trkpt lat="31.80146820" lon="35.07376580">
        <ele>582.00000</ele>
        <time>2010-01-01T00:57:05Z</time>
      </trkpt>
      <trkpt lat="31.80144270" lon="35.07387900">
        <ele>581.00000</ele>
        <time>2010-01-01T00:57:09Z</time>
      </trkpt>
      <trkpt lat="31.80140770" lon="35.07398810">
        <ele>582.00000</ele>
        <time>2010-01-01T00:57:13Z</time>
      </trkpt>
      <trkpt lat="31.80136700" lon="35.07410210">
        <ele>583.00000</ele>
        <time>2010-01-01T00:57:17Z</time>
      </trkpt>
      <trkpt lat="31.80132560" lon="35.07421790">
        <ele>583.00000</ele>
        <time>2010-01-01T00:57:21Z</time>
      </trkpt>
      <trkpt lat="31.80128370" lon="35.07433440">
        <ele>583.00000</ele>
        <time>2010-01-01T00:57:26Z</time>
      </trkpt>
      <trkpt lat="31.80124130" lon="35.07445390">
        <ele>583.00000</ele>
        <time>2010-01-01T00:57:30Z</time>
      </trkpt>
      <trkpt lat="31.80119770" lon="35.07458000">
        <ele>584.00000</ele>
        <time>2010-01-01T00:57:35Z</time>
      </trkpt>
      <trkpt lat="31.80115520" lon="35.07471160">
        <ele>584.00000</ele>
        <time>2010-01-01T00:57:40Z</time>
      </trkpt>
      <trkpt lat="31.80112360" lon="35.07483270">
        <ele>584.00000</ele>
        <time>2010-01-01T00:57:44Z</time>
      </trkpt>
      <trkpt lat="31.80109960" lon="35.07497250">
        <ele>584.00000</ele>
        <time>2010-01-01T00:57:49Z</time>
      </trkpt>
      <trkpt lat="31.80109390" lon="35.07508550">
        <ele>584.00000</ele>
        <time>2010-01-01T00:57:53Z</time>
      </trkpt>
      <trkpt lat="31.80109750" lon="35.07519230">
        <ele>583.00000</ele>
        <time>2010-01-01T00:57:56Z</time>
      </trkpt>
      <trkpt lat="31.80111280" lon="35.07530780">
        <ele>583.00000</ele>
        <time>2010-01-01T00:58:00Z</time>
      </trkpt>
      <trkpt lat="31.80113440" lon="35.07541660">
        <ele>583.00000</ele>
        <time>2010-01-01T00:58:04Z</time>
      </trkpt>
      <trkpt lat="31.80116620" lon="35.07551770">
        <ele>583.00000</ele>
        <time>2010-01-01T00:58:08Z</time>
      </trkpt>
      <trkpt lat="31.80121540" lon="35.07562550">
        <ele>585.00000</ele>
        <time>2010-01-01T00:58:12Z</time>
      </trkpt>
      <trkpt lat="31.80129210" lon="35.07569580">
        <ele>586.00000</ele>
        <time>2010-01-01T00:58:16Z</time>
      </trkpt>
      <trkpt lat="31.80140040" lon="35.07570010">
        <ele>587.00000</ele>
        <time>2010-01-01T00:58:20Z</time>
      </trkpt>
      <trkpt lat="31.80149130" lon="35.07563280">
        <ele>587.00000</ele>
        <time>2010-01-01T00:58:24Z</time>
      </trkpt>
      <trkpt lat="31.80158380" lon="35.07553320">
        <ele>587.00000</ele>
        <time>2010-01-01T00:58:29Z</time>
      </trkpt>
      <trkpt lat="31.80167150" lon="35.07545610">
        <ele>586.00000</ele>
        <time>2010-01-01T00:58:34Z</time>
      </trkpt>
      <trkpt lat="31.80175540" lon="35.07538890">
        <ele>586.00000</ele>
        <time>2010-01-01T00:58:38Z</time>
      </trkpt>
      <trkpt lat="31.80184360" lon="35.07532120">
        <ele>586.00000</ele>
        <time>2010-01-01T00:58:42Z</time>
      </trkpt>
      <trkpt lat="31.80192260" lon="35.07527810">
        <ele>585.00000</ele>
        <time>2010-01-01T00:58:46Z</time>
      </trkpt>
      <trkpt lat="31.80202050" lon="35.07525740">
        <ele>585.00000</ele>
        <time>2010-01-01T00:58:50Z</time>
      </trkpt>
      <trkpt lat="31.80211660" lon="35.07526120">
        <ele>586.00000</ele>
        <time>2010-01-01T00:58:53Z</time>
      </trkpt>
      <trkpt lat="31.80221010" lon="35.07528310">
        <ele>588.00000</ele>
        <time>2010-01-01T00:58:57Z</time>
      </trkpt>
      <trkpt lat="31.80230040" lon="35.07530110">
        <ele>588.00000</ele>
        <time>2010-01-01T00:59:01Z</time>
      </trkpt>
      <trkpt lat="31.80239780" lon="35.07531550">
        <ele>589.00000</ele>
        <time>2010-01-01T00:59:05Z</time>
      </trkpt>
      <trkpt lat="31.80249360" lon="35.07536920">
        <ele>591.00000</ele>
        <time>2010-01-01T00:59:09Z</time>
      </trkpt>
      <trkpt lat="31.80260620" lon="35.07542230">
        <ele>591.00000</ele>
        <time>2010-01-01T00:59:14Z</time>
      </trkpt>
      <trkpt lat="31.80269520" lon="35.07548660">
        <ele>592.00000</ele>
        <time>2010-01-01T00:59:18Z</time>
      </trkpt>
      <trkpt lat="31.80276460" lon="35.07555980">
        <ele>594.00000</ele>
        <time>2010-01-01T00:59:22Z</time>
      </trkpt>
      <trkpt lat="31.80283710" lon="35.07565200">
        <ele>595.00000</ele>
        <time>2010-01-01T00:59:26Z</time>
      </trkpt>
      <trkpt lat="31.80290530" lon="35.07573670">
        <ele>596.00000</ele>
        <time>2010-01-01T00:59:30Z</time>
      </trkpt>
      <trkpt lat="31.80297680" lon="35.07581900">
        <ele>596.00000</ele>
        <time>2010-01-01T00:59:34Z</time>
      </trkpt>
      <trkpt lat="31.80303910" lon="35.07590230">
        <ele>596.00000</ele>
        <time>2010-01-01T00:59:38Z</time>
      </trkpt>
      <trkpt lat="31.80310570" lon="35.07598790">
        <ele>596.00000</ele>
        <time>2010-01-01T00:59:42Z</time>
      </trkpt>
      <trkpt lat="31.80316030" lon="35.07607500">
        <ele>597.00000</ele>
        <time>2010-01-01T00:59:45Z</time>
      </trkpt>
      <trkpt lat="31.80321010" lon="35.07617440">
        <ele>597.00000</ele>
        <time>2010-01-01T00:59:49Z</time>
      </trkpt>
      <trkpt lat="31.80327130" lon="35.07626970">
        <ele>597.00000</ele>
        <time>2010-01-01T00:59:53Z</time>
      </trkpt>
      <trkpt lat="31.80333850" lon="35.07635910">
        <ele>597.00000</ele>
        <time>2010-01-01T00:59:58Z</time>
      </trkpt>
      <trkpt lat="31.80339890" lon="35.07647390">
        <ele>596.00000</ele>
        <time>2010-01-01T01:00:02Z</time>
      </trkpt>
      <trkpt lat="31.80346270" lon="35.07656160">
        <ele>595.00000</ele>
        <time>2010-01-01T01:00:06Z</time>
      </trkpt>
      <trkpt lat="31.80353430" lon="35.07666020">
        <ele>593.00000</ele>
        <time>2010-01-01T01:00:10Z</time>
      </trkpt>
      <trkpt lat="31.80360990" lon="35.07678050">
        <ele>592.00000</ele>
        <time>2010-01-01T01:00:16Z</time>
      </trkpt>
      <trkpt lat="31.80366610" lon="35.07687480">
        <ele>592.00000</ele>
        <time>2010-01-01T01:00:19Z</time>
      </trkpt>
      <trkpt lat="31.80372690" lon="35.07698170">
        <ele>592.00000</ele>
        <time>2010-01-01T01:00:24Z</time>
      </trkpt>
      <trkpt lat="31.80378450" lon="35.07709420">
        <ele>593.00000</ele>
        <time>2010-01-01T01:00:28Z</time>
      </trkpt>
      <trkpt lat="31.80384090" lon="35.07720740">
        <ele>594.00000</ele>
        <time>2010-01-01T01:00:33Z</time>
      </trkpt>
      <trkpt lat="31.80389500" lon="35.07731810">
        <ele>595.00000</ele>
        <time>2010-01-01T01:00:37Z</time>
      </trkpt>
      <trkpt lat="31.80394480" lon="35.07742440">
        <ele>595.00000</ele>
        <time>2010-01-01T01:00:41Z</time>
      </trkpt>
      <trkpt lat="31.80398280" lon="35.07753130">
        <ele>596.00000</ele>
        <time>2010-01-01T01:00:45Z</time>
      </trkpt>
      <trkpt lat="31.80401880" lon="35.07766190">
        <ele>597.00000</ele>
        <time>2010-01-01T01:00:50Z</time>
      </trkpt>
      <trkpt lat="31.80404420" lon="35.07778040">
        <ele>597.00000</ele>
        <time>2010-01-01T01:00:54Z</time>
      </trkpt>
      <trkpt lat="31.80405180" lon="35.07788490">
        <ele>599.00000</ele>
        <time>2010-01-01T01:00:58Z</time>
      </trkpt>
      <trkpt lat="31.80406410" lon="35.07799630">
        <ele>600.00000</ele>
        <time>2010-01-01T01:01:01Z</time>
      </trkpt>
      <trkpt lat="31.80407370" lon="35.07810670">
        <ele>601.00000</ele>
        <time>2010-01-01T01:01:05Z</time>
      </trkpt>
      <trkpt lat="31.80407790" lon="35.07821400">
        <ele>602.00000</ele>
        <time>2010-01-01T01:01:09Z</time>
      </trkpt>
      <trkpt lat="31.80407320" lon="35.07833040">
        <ele>604.00000</ele>
        <time>2010-01-01T01:01:13Z</time>
      </trkpt>
      <trkpt lat="31.80407900" lon="35.07844020">
        <ele>605.00000</ele>
        <time>2010-01-01T01:01:17Z</time>
      </trkpt>
      <trkpt lat="31.80407920" lon="35.07855640">
        <ele>607.00000</ele>
        <time>2010-01-01T01:01:21Z</time>
      </trkpt>
      <trkpt lat="31.80407500" lon="35.07867080">
        <ele>608.00000</ele>
        <time>2010-01-01T01:01:24Z</time>
      </trkpt>
      <trkpt lat="31.80406330" lon="35.07878610">
        <ele>610.00000</ele>
        <time>2010-01-01T01:01:28Z</time>
      </trkpt>
      <trkpt lat="31.80404990" lon="35.07889810">
        <ele>611.00000</ele>
        <time>2010-01-01T01:01:32Z</time>
      </trkpt>
      <trkpt lat="31.80403410" lon="35.07901260">
        <ele>612.00000</ele>
        <time>2010-01-01T01:01:36Z</time>
      </trkpt>
      <trkpt lat="31.80401860" lon="35.07911830">
        <ele>612.00000</ele>
        <time>2010-01-01T01:01:40Z</time>
      </trkpt>
      <trkpt lat="31.80400010" lon="35.07923220">
        <ele>613.00000</ele>
        <time>2010-01-01T01:01:44Z</time>
      </trkpt>
      <trkpt lat="31.80397210" lon="35.07933950">
        <ele>614.00000</ele>
        <time>2010-01-01T01:01:48Z</time>
      </trkpt>
      <trkpt lat="31.80394970" lon="35.07944470">
        <ele>615.00000</ele>
        <time>2010-01-01T01:01:51Z</time>
      </trkpt>
      <trkpt lat="31.80390440" lon="35.07954660">
        <ele>617.00000</ele>
        <time>2010-01-01T01:01:55Z</time>
      </trkpt>
      <trkpt lat="31.80388220" lon="35.07965680">
        <ele>618.00000</ele>
        <time>2010-01-01T01:01:59Z</time>
      </trkpt>
      <trkpt lat="31.80384480" lon="35.07976140">
        <ele>619.00000</ele>
        <time>2010-01-01T01:02:03Z</time>
      </trkpt>
      <trkpt lat="31.80381480" lon="35.07986230">
        <ele>619.00000</ele>
        <time>2010-01-01T01:02:07Z</time>
      </trkpt>
      <trkpt lat="31.80377670" lon="35.07996670">
        <ele>620.00000</ele>
        <time>2010-01-01T01:02:10Z</time>
      </trkpt>
      <trkpt lat="31.80374730" lon="35.08008120">
        <ele>620.00000</ele>
        <time>2010-01-01T01:02:14Z</time>
      </trkpt>
      <trkpt lat="31.80371440" lon="35.08019440">
        <ele>621.00000</ele>
        <time>2010-01-01T01:02:19Z</time>
      </trkpt>
      <trkpt lat="31.80368760" lon="35.08030350">
        <ele>621.00000</ele>
        <time>2010-01-01T01:02:22Z</time>
      </trkpt>
      <trkpt lat="31.80366720" lon="35.08040780">
        <ele>621.00000</ele>
        <time>2010-01-01T01:02:26Z</time>
      </trkpt>
      <trkpt lat="31.80363840" lon="35.08051890">
        <ele>622.00000</ele>
        <time>2010-01-01T01:02:30Z</time>
      </trkpt>
      <trkpt lat="31.80361360" lon="35.08062860">
        <ele>622.00000</ele>
        <time>2010-01-01T01:02:34Z</time>
      </trkpt>
      <trkpt lat="31.80358420" lon="35.08073880">
        <ele>624.00000</ele>
        <time>2010-01-01T01:02:38Z</time>
      </trkpt>
      <trkpt lat="31.80354580" lon="35.08084910">
        <ele>625.00000</ele>
        <time>2010-01-01T01:02:42Z</time>
      </trkpt>
      <trkpt lat="31.80349770" lon="35.08094850">
        <ele>627.00000</ele>
        <time>2010-01-01T01:02:46Z</time>
      </trkpt>
      <trkpt lat="31.80343700" lon="35.08103440">
        <ele>629.00000</ele>
        <time>2010-01-01T01:02:50Z</time>
      </trkpt>
      <trkpt lat="31.80337380" lon="35.08112080">
        <ele>630.00000</ele>
        <time>2010-01-01T01:02:53Z</time>
      </trkpt>
      <trkpt lat="31.80331180" lon="35.08120500">
        <ele>631.00000</ele>
        <time>2010-01-01T01:02:57Z</time>
      </trkpt>
      <trkpt lat="31.80325120" lon="35.08129170">
        <ele>632.00000</ele>
        <time>2010-01-01T01:03:01Z</time>
      </trkpt>
      <trkpt lat="31.80319670" lon="35.08138130">
        <ele>632.00000</ele>
        <time>2010-01-01T01:03:05Z</time>
      </trkpt>
      <trkpt lat="31.80315210" lon="35.08147830">
        <ele>633.00000</ele>
        <time>2010-01-01T01:03:08Z</time>
      </trkpt>
      <trkpt lat="31.80311310" lon="35.08159120">
        <ele>633.00000</ele>
        <time>2010-01-01T01:03:13Z</time>
      </trkpt>
      <trkpt lat="31.80307800" lon="35.08169720">
        <ele>634.00000</ele>
        <time>2010-01-01T01:03:17Z</time>
      </trkpt>
      <trkpt lat="31.80303750" lon="35.08180170">
        <ele>635.00000</ele>
        <time>2010-01-01T01:03:20Z</time>
      </trkpt>
      <trkpt lat="31.80300860" lon="35.08190740">
        <ele>636.00000</ele>
        <time>2010-01-01T01:03:24Z</time>
      </trkpt>
      <trkpt lat="31.80296010" lon="35.08201470">
        <ele>637.00000</ele>
        <time>2010-01-01T01:03:28Z</time>
      </trkpt>
      <trkpt lat="31.80290810" lon="35.08210520">
        <ele>639.00000</ele>
        <time>2010-01-01T01:03:32Z</time>
      </trkpt>
      <trkpt lat="31.80284140" lon="35.08218070">
        <ele>641.00000</ele>
        <time>2010-01-01T01:03:36Z</time>
      </trkpt>
      <trkpt lat="31.80278350" lon="35.08226090">
        <ele>642.00000</ele>
        <time>2010-01-01T01:03:39Z</time>
      </trkpt>
      <trkpt lat="31.80276990" lon="35.08237920">
        <ele>641.00000</ele>
        <time>2010-01-01T01:03:43Z</time>
      </trkpt>
      <trkpt lat="31.80276100" lon="35.08249000">
        <ele>641.00000</ele>
        <time>2010-01-01T01:03:47Z</time>
      </trkpt>
      <trkpt lat="31.80274680" lon="35.08260920">
        <ele>641.00000</ele>
        <time>2010-01-01T01:03:51Z</time>
      </trkpt>
      <trkpt lat="31.80275300" lon="35.08272200">
        <ele>641.00000</ele>
        <time>2010-01-01T01:03:55Z</time>
      </trkpt>
      <trkpt lat="31.80276230" lon="35.08283240">
        <ele>641.00000</ele>
        <time>2010-01-01T01:03:59Z</time>
      </trkpt>
      <trkpt lat="31.80275910" lon="35.08296810">
        <ele>641.00000</ele>
        <time>2010-01-01T01:04:04Z</time>
      </trkpt>
      <trkpt lat="31.80275400" lon="35.08309290">
        <ele>641.00000</ele>
        <time>2010-01-01T01:04:08Z</time>
      </trkpt>
      <trkpt lat="31.80275400" lon="35.08322630">
        <ele>642.00000</ele>
        <time>2010-01-01T01:04:12Z</time>
      </trkpt>
      <trkpt lat="31.80274800" lon="35.08336260">
        <ele>643.00000</ele>
        <time>2010-01-01T01:04:17Z</time>
      </trkpt>
      <trkpt lat="31.80274070" lon="35.08351710">
        <ele>644.00000</ele>
        <time>2010-01-01T01:04:22Z</time>
      </trkpt>
      <trkpt lat="31.80273280" lon="35.08365740">
        <ele>644.00000</ele>
        <time>2010-01-01T01:04:27Z</time>
      </trkpt>
      <trkpt lat="31.80272740" lon="35.08378610">
        <ele>644.00000</ele>
        <time>2010-01-01T01:04:31Z</time>
      </trkpt>
      <trkpt lat="31.80272080" lon="35.08390400">
        <ele>644.00000</ele>
        <time>2010-01-01T01:04:35Z</time>
      </trkpt>
      <trkpt lat="31.80271290" lon="35.08401030">
        <ele>644.00000</ele>
        <time>2010-01-01T01:04:39Z</time>
      </trkpt>
      <trkpt lat="31.80269290" lon="35.08413320">
        <ele>644.00000</ele>
        <time>2010-01-01T01:04:43Z</time>
      </trkpt>
      <trkpt lat="31.80265980" lon="35.08423760">
        <ele>644.00000</ele>
        <time>2010-01-01T01:04:47Z</time>
      </trkpt>
      <trkpt lat="31.80263360" lon="35.08435380">
        <ele>645.00000</ele>
        <time>2010-01-01T01:04:51Z</time>
      </trkpt>
      <trkpt lat="31.80261990" lon="35.08446910">
        <ele>646.00000</ele>
        <time>2010-01-01T01:04:55Z</time>
      </trkpt>
      <trkpt lat="31.80261920" lon="35.08458030">
        <ele>646.00000</ele>
        <time>2010-01-01T01:04:59Z</time>
      </trkpt>
      <trkpt lat="31.80261080" lon="35.08470860">
        <ele>646.00000</ele>
        <time>2010-01-01T01:05:03Z</time>
      </trkpt>
      <trkpt lat="31.80261700" lon="35.08483860">
        <ele>646.00000</ele>
        <time>2010-01-01T01:05:08Z</time>
      </trkpt>
      <trkpt lat="31.80260710" lon="35.08494590">
        <ele>647.00000</ele>
        <time>2010-01-01T01:05:11Z</time>
      </trkpt>
      <trkpt lat="31.80259320" lon="35.08506670">
        <ele>647.00000</ele>
        <time>2010-01-01T01:05:16Z</time>
      </trkpt>
      <trkpt lat="31.80257770" lon="35.08517650">
        <ele>646.00000</ele>
        <time>2010-01-01T01:05:19Z</time>
      </trkpt>
      <trkpt lat="31.80255630" lon="35.08530070">
        <ele>645.00000</ele>
        <time>2010-01-01T01:05:24Z</time>
      </trkpt>
      <trkpt lat="31.80252390" lon="35.08541820">
        <ele>644.00000</ele>
        <time>2010-01-01T01:05:28Z</time>
      </trkpt>
      <trkpt lat="31.80249120" lon="35.08552550">
        <ele>643.00000</ele>
        <time>2010-01-01T01:05:32Z</time>
      </trkpt>
      <trkpt lat="31.80244970" lon="35.08564010">
        <ele>645.00000</ele>
        <time>2010-01-01T01:05:36Z</time>
      </trkpt>
      <trkpt lat="31.80241140" lon="35.08575690">
        <ele>646.00000</ele>
        <time>2010-01-01T01:05:40Z</time>
      </trkpt>
      <trkpt lat="31.80238230" lon="35.08587560">
        <ele>648.00000</ele>
        <time>2010-01-01T01:05:44Z</time>
      </trkpt>
      <trkpt lat="31.80237570" lon="35.08598390">
        <ele>648.00000</ele>
        <time>2010-01-01T01:05:48Z</time>
      </trkpt>
      <trkpt lat="31.80237850" lon="35.08611040">
        <ele>649.00000</ele>
        <time>2010-01-01T01:05:52Z</time>
      </trkpt>
      <trkpt lat="31.80235870" lon="35.08622970">
        <ele>649.00000</ele>
        <time>2010-01-01T01:05:57Z</time>
      </trkpt>
      <trkpt lat="31.80231230" lon="35.08633930">
        <ele>650.00000</ele>
        <time>2010-01-01T01:06:01Z</time>
      </trkpt>
      <trkpt lat="31.80224040" lon="35.08644710">
        <ele>650.00000</ele>
        <time>2010-01-01T01:06:05Z</time>
      </trkpt>
      <trkpt lat="31.80217360" lon="35.08654150">
        <ele>651.00000</ele>
        <time>2010-01-01T01:06:10Z</time>
      </trkpt>
      <trkpt lat="31.80210650" lon="35.08663980">
        <ele>651.00000</ele>
        <time>2010-01-01T01:06:14Z</time>
      </trkpt>
      <trkpt lat="31.80204210" lon="35.08674030">
        <ele>651.00000</ele>
        <time>2010-01-01T01:06:18Z</time>
      </trkpt>
      <trkpt lat="31.80197070" lon="35.08683250">
        <ele>652.00000</ele>
        <time>2010-01-01T01:06:22Z</time>
      </trkpt>
      <trkpt lat="31.80190660" lon="35.08690500">
        <ele>652.00000</ele>
        <time>2010-01-01T01:06:26Z</time>
      </trkpt>
      <trkpt lat="31.80183360" lon="35.08696450">
        <ele>653.00000</ele>
        <time>2010-01-01T01:06:29Z</time>
      </trkpt>
      <trkpt lat="31.80174800" lon="35.08702500">
        <ele>654.00000</ele>
        <time>2010-01-01T01:06:33Z</time>
      </trkpt>
      <trkpt lat="31.80167640" lon="35.08709410">
        <ele>655.00000</ele>
        <time>2010-01-01T01:06:37Z</time>
      </trkpt>
      <trkpt lat="31.80158900" lon="35.08715710">
        <ele>655.00000</ele>
        <time>2010-01-01T01:06:41Z</time>
      </trkpt>
      <trkpt lat="31.80150140" lon="35.08721910">
        <ele>656.00000</ele>
        <time>2010-01-01T01:06:45Z</time>
      </trkpt>
      <trkpt lat="31.80141990" lon="35.08727430">
        <ele>657.00000</ele>
        <time>2010-01-01T01:06:49Z</time>
      </trkpt>
      <trkpt lat="31.80134510" lon="35.08733750">
        <ele>657.00000</ele>
        <time>2010-01-01T01:06:53Z</time>
      </trkpt>
      <trkpt lat="31.80125190" lon="35.08738870">
        <ele>658.00000</ele>
        <time>2010-01-01T01:06:57Z</time>
      </trkpt>
      <trkpt lat="31.80114990" lon="35.08742030">
        <ele>659.00000</ele>
        <time>2010-01-01T01:07:01Z</time>
      </trkpt>
      <trkpt lat="31.80104900" lon="35.08741790">
        <ele>660.00000</ele>
        <time>2010-01-01T01:07:05Z</time>
      </trkpt>
      <trkpt lat="31.80096630" lon="35.08734370">
        <ele>661.00000</ele>
        <time>2010-01-01T01:07:09Z</time>
      </trkpt>
      <trkpt lat="31.80094370" lon="35.08722380">
        <ele>663.00000</ele>
        <time>2010-01-01T01:07:14Z</time>
      </trkpt>
      <trkpt lat="31.80092690" lon="35.08710550">
        <ele>664.00000</ele>
        <time>2010-01-01T01:07:18Z</time>
      </trkpt>
      <trkpt lat="31.80091690" lon="35.08699190">
        <ele>665.00000</ele>
        <time>2010-01-01T01:07:22Z</time>
      </trkpt>
      <trkpt lat="31.80091800" lon="35.08688250">
        <ele>666.00000</ele>
        <time>2010-01-01T01:07:25Z</time>
      </trkpt>
      <trkpt lat="31.80090770" lon="35.08677430">
        <ele>666.00000</ele>
        <time>2010-01-01T01:07:29Z</time>
      </trkpt>
      <trkpt lat="31.80089230" lon="35.08667080">
        <ele>666.00000</ele>
        <time>2010-01-01T01:07:33Z</time>
      </trkpt>
      <trkpt lat="31.80087850" lon="35.08655140">
        <ele>666.00000</ele>
        <time>2010-01-01T01:07:37Z</time>
      </trkpt>
      <trkpt lat="31.80085760" lon="35.08641040">
        <ele>666.00000</ele>
        <time>2010-01-01T01:07:41Z</time>
      </trkpt>
      <trkpt lat="31.80085280" lon="35.08629940">
        <ele>666.00000</ele>
        <time>2010-01-01T01:07:45Z</time>
      </trkpt>
      <trkpt lat="31.80083510" lon="35.08617740">
        <ele>667.00000</ele>
        <time>2010-01-01T01:07:49Z</time>
      </trkpt>
      <trkpt lat="31.80084990" lon="35.08552030">
        <ele>668.00000</ele>
        <time>2010-01-01T01:08:12Z</time>
      </trkpt>
      <trkpt lat="31.80087060" lon="35.08536770">
        <ele>667.00000</ele>
        <time>2010-01-01T01:08:17Z</time>
      </trkpt>
      <trkpt lat="31.80088410" lon="35.08526190">
        <ele>666.00000</ele>
        <time>2010-01-01T01:08:21Z</time>
      </trkpt>
      <trkpt lat="31.80090110" lon="35.08510150">
        <ele>666.00000</ele>
        <time>2010-01-01T01:08:26Z</time>
      </trkpt>
      <trkpt lat="31.80091310" lon="35.08498980">
        <ele>665.00000</ele>
        <time>2010-01-01T01:08:30Z</time>
      </trkpt>
      <trkpt lat="31.80092480" lon="35.08487530">
        <ele>666.00000</ele>
        <time>2010-01-01T01:08:34Z</time>
      </trkpt>
      <trkpt lat="31.80093480" lon="35.08475800">
        <ele>666.00000</ele>
        <time>2010-01-01T01:08:38Z</time>
      </trkpt>
      <trkpt lat="31.80094280" lon="35.08463730">
        <ele>666.00000</ele>
        <time>2010-01-01T01:08:42Z</time>
      </trkpt>
      <trkpt lat="31.80094970" lon="35.08451130">
        <ele>666.00000</ele>
        <time>2010-01-01T01:08:46Z</time>
      </trkpt>
      <trkpt lat="31.80095700" lon="35.08437770">
        <ele>665.00000</ele>
        <time>2010-01-01T01:08:51Z</time>
      </trkpt>
      <trkpt lat="31.80097080" lon="35.08423660">
        <ele>665.00000</ele>
        <time>2010-01-01T01:08:56Z</time>
      </trkpt>
      <trkpt lat="31.80099160" lon="35.08408150">
        <ele>664.00000</ele>
        <time>2010-01-01T01:09:01Z</time>
      </trkpt>
      <trkpt lat="31.80101130" lon="35.08390300">
        <ele>663.00000</ele>
        <time>2010-01-01T01:09:07Z</time>
      </trkpt>
      <trkpt lat="31.80103350" lon="35.08370360">
        <ele>661.00000</ele>
        <time>2010-01-01T01:09:14Z</time>
      </trkpt>
      <trkpt lat="31.80106350" lon="35.08349100">
        <ele>660.00000</ele>
        <time>2010-01-01T01:09:21Z</time>
      </trkpt>
      <trkpt lat="31.80110070" lon="35.08330200">
        <ele>658.00000</ele>
        <time>2010-01-01T01:09:28Z</time>
      </trkpt>
      <trkpt lat="31.80113080" lon="35.08317530">
        <ele>657.00000</ele>
        <time>2010-01-01T01:09:33Z</time>
      </trkpt>
      <trkpt lat="31.80117170" lon="35.08308570">
        <ele>657.00000</ele>
        <time>2010-01-01T01:09:36Z</time>
      </trkpt>
      <trkpt lat="31.80127350" lon="35.08302860">
        <ele>658.00000</ele>
        <time>2010-01-01T01:09:40Z</time>
      </trkpt>
      <trkpt lat="31.80134940" lon="35.08295260">
        <ele>658.00000</ele>
        <time>2010-01-01T01:09:44Z</time>
      </trkpt>
      <trkpt lat="31.80140290" lon="35.08285870">
        <ele>658.00000</ele>
        <time>2010-01-01T01:09:48Z</time>
      </trkpt>
      <trkpt lat="31.80143840" lon="35.08271390">
        <ele>657.00000</ele>
        <time>2010-01-01T01:09:53Z</time>
      </trkpt>
      <trkpt lat="31.80145620" lon="35.08257990">
        <ele>656.00000</ele>
        <time>2010-01-01T01:09:58Z</time>
      </trkpt>
      <trkpt lat="31.80146810" lon="35.08241550">
        <ele>654.00000</ele>
        <time>2010-01-01T01:10:04Z</time>
      </trkpt>
      <trkpt lat="31.80147100" lon="35.08223090">
        <ele>652.00000</ele>
        <time>2010-01-01T01:10:10Z</time>
      </trkpt>
      <trkpt lat="31.80146520" lon="35.08203470">
        <ele>649.00000</ele>
        <time>2010-01-01T01:10:17Z</time>
      </trkpt>
      <trkpt lat="31.80146550" lon="35.08182370">
        <ele>647.00000</ele>
        <time>2010-01-01T01:10:24Z</time>
      </trkpt>
      <trkpt lat="31.80147130" lon="35.08161230">
        <ele>645.00000</ele>
        <time>2010-01-01T01:10:31Z</time>
      </trkpt>
      <trkpt lat="31.80144730" lon="35.08140840">
        <ele>644.00000</ele>
        <time>2010-01-01T01:10:38Z</time>
      </trkpt>
      <trkpt lat="31.80138510" lon="35.08121240">
        <ele>643.00000</ele>
        <time>2010-01-01T01:10:45Z</time>
      </trkpt>
      <trkpt lat="31.80128940" lon="35.08103140">
        <ele>642.00000</ele>
        <time>2010-01-01T01:10:52Z</time>
      </trkpt>
      <trkpt lat="31.80124300" lon="35.08093800">
        <ele>642.00000</ele>
        <time>2010-01-01T01:10:56Z</time>
      </trkpt>
      <trkpt lat="31.80120780" lon="35.08084110">
        <ele>642.00000</ele>
        <time>2010-01-01T01:11:00Z</time>
      </trkpt>
      <trkpt lat="31.80118290" lon="35.08065860">
        <ele>642.00000</ele>
        <time>2010-01-01T01:11:06Z</time>
      </trkpt>
      <trkpt lat="31.80119400" lon="35.08048060">
        <ele>642.00000</ele>
        <time>2010-01-01T01:11:12Z</time>
      </trkpt>
      <trkpt lat="31.80121070" lon="35.08028710">
        <ele>641.00000</ele>
        <time>2010-01-01T01:11:19Z</time>
      </trkpt>
      <trkpt lat="31.80123080" lon="35.08008280">
        <ele>641.00000</ele>
        <time>2010-01-01T01:11:26Z</time>
      </trkpt>
      <trkpt lat="31.80124800" lon="35.07987260">
        <ele>641.00000</ele>
        <time>2010-01-01T01:11:33Z</time>
      </trkpt>
      <trkpt lat="31.80124280" lon="35.07966780">
        <ele>639.00000</ele>
        <time>2010-01-01T01:11:40Z</time>
      </trkpt>
      <trkpt lat="31.80123290" lon="35.07946700">
        <ele>637.00000</ele>
        <time>2010-01-01T01:11:47Z</time>
      </trkpt>
      <trkpt lat="31.80121890" lon="35.07927460">
        <ele>636.00000</ele>
        <time>2010-01-01T01:11:53Z</time>
      </trkpt>
      <trkpt lat="31.80120960" lon="35.07907930">
        <ele>635.00000</ele>
        <time>2010-01-01T01:12:00Z</time>
      </trkpt>
      <trkpt lat="31.80119030" lon="35.07888810">
        <ele>634.00000</ele>
        <time>2010-01-01T01:12:06Z</time>
      </trkpt>
      <trkpt lat="31.80114430" lon="35.07871360">
        <ele>632.00000</ele>
        <time>2010-01-01T01:12:13Z</time>
      </trkpt>
      <trkpt lat="31.80109080" lon="35.07855360">
        <ele>631.00000</ele>
        <time>2010-01-01T01:12:18Z</time>
      </trkpt>
      <trkpt lat="31.80105500" lon="35.07841170">
        <ele>629.00000</ele>
        <time>2010-01-01T01:12:24Z</time>
      </trkpt>
      <trkpt lat="31.80105950" lon="35.07827300">
        <ele>628.00000</ele>
        <time>2010-01-01T01:12:28Z</time>
      </trkpt>
      <trkpt lat="31.80107260" lon="35.07810390">
        <ele>625.00000</ele>
        <time>2010-01-01T01:12:34Z</time>
      </trkpt>
      <trkpt lat="31.80109050" lon="35.07790750">
        <ele>622.00000</ele>
        <time>2010-01-01T01:12:41Z</time>
      </trkpt>
      <trkpt lat="31.80110640" lon="35.07770410">
        <ele>619.00000</ele>
        <time>2010-01-01T01:12:48Z</time>
      </trkpt>
      <trkpt lat="31.80111380" lon="35.07759620">
        <ele>617.00000</ele>
        <time>2010-01-01T01:12:51Z</time>
      </trkpt>
      <trkpt lat="31.80113450" lon="35.07738700">
        <ele>614.00000</ele>
        <time>2010-01-01T01:12:59Z</time>
      </trkpt>
      <trkpt lat="31.80117310" lon="35.07722620">
        <ele>611.00000</ele>
        <time>2010-01-01T01:13:04Z</time>
      </trkpt>
      <trkpt lat="31.80121800" lon="35.07711240">
        <ele>610.00000</ele>
        <time>2010-01-01T01:13:08Z</time>
      </trkpt>
      <trkpt lat="31.80126210" lon="35.07701410">
        <ele>609.00000</ele>
        <time>2010-01-01T01:13:12Z</time>
      </trkpt>
      <trkpt lat="31.80130410" lon="35.07689980">
        <ele>607.00000</ele>
        <time>2010-01-01T01:13:16Z</time>
      </trkpt>
      <trkpt lat="31.80129870" lon="35.07678460">
        <ele>605.00000</ele>
        <time>2010-01-01T01:13:20Z</time>
      </trkpt>
      <trkpt lat="31.80124160" lon="35.07668920">
        <ele>603.00000</ele>
        <time>2010-01-01T01:13:24Z</time>
      </trkpt>
      <trkpt lat="31.80116860" lon="35.07660900">
        <ele>600.00000</ele>
        <time>2010-01-01T01:13:28Z</time>
      </trkpt>
      <trkpt lat="31.80110900" lon="35.07650900">
        <ele>598.00000</ele>
        <time>2010-01-01T01:13:33Z</time>
      </trkpt>
      <trkpt lat="31.80103540" lon="35.07640440">
        <ele>597.00000</ele>
        <time>2010-01-01T01:13:37Z</time>
      </trkpt>
      <trkpt lat="31.80092380" lon="35.07637000">
        <ele>598.00000</ele>
        <time>2010-01-01T01:13:42Z</time>
      </trkpt>
      <trkpt lat="31.80080610" lon="35.07637010">
        <ele>598.00000</ele>
        <time>2010-01-01T01:13:46Z</time>
      </trkpt>
      <trkpt lat="31.80068390" lon="35.07632820">
        <ele>599.00000</ele>
        <time>2010-01-01T01:13:52Z</time>
      </trkpt>
      <trkpt lat="31.80055360" lon="35.07626560">
        <ele>600.00000</ele>
        <time>2010-01-01T01:13:57Z</time>
      </trkpt>
      <trkpt lat="31.80041080" lon="35.07617800">
        <ele>601.00000</ele>
        <time>2010-01-01T01:14:04Z</time>
      </trkpt>
      <trkpt lat="31.80025020" lon="35.07607510">
        <ele>604.00000</ele>
        <time>2010-01-01T01:14:11Z</time>
      </trkpt>
      <trkpt lat="31.80016170" lon="35.07602400">
        <ele>606.00000</ele>
        <time>2010-01-01T01:14:15Z</time>
      </trkpt>
      <trkpt lat="31.80007270" lon="35.07597290">
        <ele>608.00000</ele>
        <time>2010-01-01T01:14:19Z</time>
      </trkpt>
      <trkpt lat="31.79998290" lon="35.07592160">
        <ele>609.00000</ele>
        <time>2010-01-01T01:14:23Z</time>
      </trkpt>
      <trkpt lat="31.79989220" lon="35.07587130">
        <ele>610.00000</ele>
        <time>2010-01-01T01:14:27Z</time>
      </trkpt>
      <trkpt lat="31.79979130" lon="35.07585850">
        <ele>610.00000</ele>
        <time>2010-01-01T01:14:31Z</time>
      </trkpt>
      <trkpt lat="31.79961960" lon="35.07584280">
        <ele>611.00000</ele>
        <time>2010-01-01T01:14:38Z</time>
      </trkpt>
      <trkpt lat="31.79949530" lon="35.07582410">
        <ele>612.00000</ele>
        <time>2010-01-01T01:14:43Z</time>
      </trkpt>
      <trkpt lat="31.79939400" lon="35.07577190">
        <ele>613.00000</ele>
        <time>2010-01-01T01:14:47Z</time>
      </trkpt>
      <trkpt lat="31.79928190" lon="35.07570520">
        <ele>615.00000</ele>
        <time>2010-01-01T01:14:52Z</time>
      </trkpt>
      <trkpt lat="31.79917560" lon="35.07565500">
        <ele>616.00000</ele>
        <time>2010-01-01T01:14:57Z</time>
      </trkpt>
      <trkpt lat="31.79907320" lon="35.07560330">
        <ele>618.00000</ele>
        <time>2010-01-01T01:15:01Z</time>
      </trkpt>
      <trkpt lat="31.79897570" lon="35.07556760">
        <ele>619.00000</ele>
        <time>2010-01-01T01:15:05Z</time>
      </trkpt>
      <trkpt lat="31.79887760" lon="35.07552600">
        <ele>621.00000</ele>
        <time>2010-01-01T01:15:10Z</time>
      </trkpt>
      <trkpt lat="31.79877970" lon="35.07549400">
        <ele>622.00000</ele>
        <time>2010-01-01T01:15:14Z</time>
      </trkpt>
      <trkpt lat="31.79867340" lon="35.07547350">
        <ele>623.00000</ele>
        <time>2010-01-01T01:15:18Z</time>
      </trkpt>
      <trkpt lat="31.79856590" lon="35.07545830">
        <ele>624.00000</ele>
        <time>2010-01-01T01:15:22Z</time>
      </trkpt>
      <trkpt lat="31.79845940" lon="35.07544090">
        <ele>624.00000</ele>
        <time>2010-01-01T01:15:27Z</time>
      </trkpt>
      <trkpt lat="31.79836700" lon="35.07542610">
        <ele>625.00000</ele>
        <time>2010-01-01T01:15:30Z</time>
      </trkpt>
      <trkpt lat="31.79826470" lon="35.07540910">
        <ele>625.00000</ele>
        <time>2010-01-01T01:15:35Z</time>
      </trkpt>
      <trkpt lat="31.79816170" lon="35.07540830">
        <ele>626.00000</ele>
        <time>2010-01-01T01:15:39Z</time>
      </trkpt>
      <trkpt lat="31.79806600" lon="35.07543880">
        <ele>626.00000</ele>
        <time>2010-01-01T01:15:43Z</time>
      </trkpt>
      <trkpt lat="31.79798820" lon="35.07551190">
        <ele>625.00000</ele>
        <time>2010-01-01T01:15:47Z</time>
      </trkpt>
      <trkpt lat="31.79793330" lon="35.07561080">
        <ele>623.00000</ele>
        <time>2010-01-01T01:15:51Z</time>
      </trkpt>
      <trkpt lat="31.79790950" lon="35.07573880">
        <ele>622.00000</ele>
        <time>2010-01-01T01:15:55Z</time>
      </trkpt>
      <trkpt lat="31.79786470" lon="35.07583870">
        <ele>620.00000</ele>
        <time>2010-01-01T01:15:59Z</time>
      </trkpt>
      <trkpt lat="31.79778940" lon="35.07592390">
        <ele>619.00000</ele>
        <time>2010-01-01T01:16:03Z</time>
      </trkpt>
      <trkpt lat="31.79773450" lon="35.07603440">
        <ele>617.00000</ele>
        <time>2010-01-01T01:16:07Z</time>
      </trkpt>
      <trkpt lat="31.79775100" lon="35.07617210">
        <ele>616.00000</ele>
        <time>2010-01-01T01:16:12Z</time>
      </trkpt>
      <trkpt lat="31.79777320" lon="35.07631880">
        <ele>614.00000</ele>
        <time>2010-01-01T01:16:17Z</time>
      </trkpt>
      <trkpt lat="31.79772170" lon="35.07645180">
        <ele>612.00000</ele>
        <time>2010-01-01T01:16:22Z</time>
      </trkpt>
      <trkpt lat="31.79761780" lon="35.07650280">
        <ele>611.00000</ele>
        <time>2010-01-01T01:16:27Z</time>
      </trkpt>
      <trkpt lat="31.79749010" lon="35.07652350">
        <ele>610.00000</ele>
        <time>2010-01-01T01:16:32Z</time>
      </trkpt>
      <trkpt lat="31.79730300" lon="35.07654010">
        <ele>607.00000</ele>
        <time>2010-01-01T01:16:39Z</time>
      </trkpt>
      <trkpt lat="31.79717990" lon="35.07656690">
        <ele>605.00000</ele>
        <time>2010-01-01T01:16:44Z</time>
      </trkpt>
      <trkpt lat="31.79690180" lon="35.07656150">
        <ele>605.00000</ele>
        <time>2010-01-01T01:16:56Z</time>
      </trkpt>
      <trkpt lat="31.79673310" lon="35.07656150">
        <ele>603.00000</ele>
        <time>2010-01-01T01:17:02Z</time>
      </trkpt>
      <trkpt lat="31.79649140" lon="35.07660980">
        <ele>600.00000</ele>
        <time>2010-01-01T01:17:12Z</time>
      </trkpt>
      <trkpt lat="31.79629540" lon="35.07662050">
        <ele>599.00000</ele>
        <time>2010-01-01T01:17:20Z</time>
      </trkpt>
      <trkpt lat="31.79617230" lon="35.07666340">
        <ele>598.00000</ele>
        <time>2010-01-01T01:17:25Z</time>
      </trkpt>
      <trkpt lat="31.79624980" lon="35.07685120">
        <ele>595.00000</ele>
        <time>2010-01-01T01:17:32Z</time>
      </trkpt>
      <trkpt lat="31.79637290" lon="35.07695850">
        <ele>593.00000</ele>
        <time>2010-01-01T01:17:38Z</time>
      </trkpt>
      <trkpt lat="31.79656890" lon="35.07707650">
        <ele>593.00000</ele>
        <time>2010-01-01T01:17:47Z</time>
      </trkpt>
      <trkpt lat="31.79685160" lon="35.07711410">
        <ele>594.00000</ele>
        <time>2010-01-01T01:17:59Z</time>
      </trkpt>
      <trkpt lat="31.79706130" lon="35.07729110">
        <ele>593.00000</ele>
        <time>2010-01-01T01:18:09Z</time>
      </trkpt>
      <trkpt lat="31.79718900" lon="35.07746810">
        <ele>592.00000</ele>
        <time>2010-01-01T01:18:17Z</time>
      </trkpt>
      <trkpt lat="31.79728930" lon="35.07781140">
        <ele>589.00000</ele>
        <time>2010-01-01T01:18:29Z</time>
      </trkpt>
      <trkpt lat="31.79731210" lon="35.07805820">
        <ele>587.00000</ele>
        <time>2010-01-01T01:18:38Z</time>
      </trkpt>
      <trkpt lat="31.79733030" lon="35.07817620">
        <ele>586.00000</ele>
        <time>2010-01-01T01:18:42Z</time>
      </trkpt>
      <trkpt lat="31.79738960" lon="35.07843370">
        <ele>584.00000</ele>
        <time>2010-01-01T01:18:51Z</time>
      </trkpt>
      <trkpt lat="31.79745800" lon="35.07874480">
        <ele>583.00000</ele>
        <time>2010-01-01T01:19:02Z</time>
      </trkpt>
      <trkpt lat="31.79750820" lon="35.07906670">
        <ele>581.00000</ele>
        <time>2010-01-01T01:19:13Z</time>
      </trkpt>
      <trkpt lat="31.79752640" lon="35.07917400">
        <ele>581.00000</ele>
        <time>2010-01-01T01:19:17Z</time>
      </trkpt>
      <trkpt lat="31.79752180" lon="35.07934570">
        <ele>580.00000</ele>
        <time>2010-01-01T01:19:22Z</time>
      </trkpt>
      <trkpt lat="31.79752640" lon="35.07952270">
        <ele>580.00000</ele>
        <time>2010-01-01T01:19:28Z</time>
      </trkpt>
      <trkpt lat="31.79757650" lon="35.07975870">
        <ele>580.00000</ele>
        <time>2010-01-01T01:19:37Z</time>
      </trkpt>
      <trkpt lat="31.79762210" lon="35.07997870">
        <ele>580.00000</ele>
        <time>2010-01-01T01:19:44Z</time>
      </trkpt>
      <trkpt lat="31.79765410" lon="35.08018250">
        <ele>579.00000</ele>
        <time>2010-01-01T01:19:51Z</time>
      </trkpt>
      <trkpt lat="31.79767680" lon="35.08036550">
        <ele>579.00000</ele>
        <time>2010-01-01T01:19:58Z</time>
      </trkpt>
      <trkpt lat="31.79759740" lon="35.08026430">
        <ele>577.00000</ele>
        <time>2010-01-01T01:20:02Z</time>
      </trkpt>
      <trkpt lat="31.79753030" lon="35.08018530">
        <ele>575.00000</ele>
        <time>2010-01-01T01:20:06Z</time>
      </trkpt>
      <trkpt lat="31.79746590" lon="35.08007400">
        <ele>574.00000</ele>
        <time>2010-01-01T01:20:11Z</time>
      </trkpt>
      <trkpt lat="31.79738350" lon="35.07994570">
        <ele>573.00000</ele>
        <time>2010-01-01T01:20:16Z</time>
      </trkpt>
      <trkpt lat="31.79729190" lon="35.07978900">
        <ele>571.00000</ele>
        <time>2010-01-01T01:20:23Z</time>
      </trkpt>
      <trkpt lat="31.79721620" lon="35.07962780">
        <ele>570.00000</ele>
        <time>2010-01-01T01:20:29Z</time>
      </trkpt>
      <trkpt lat="31.79714390" lon="35.07945910">
        <ele>570.00000</ele>
        <time>2010-01-01T01:20:35Z</time>
      </trkpt>
      <trkpt lat="31.79707920" lon="35.07929100">
        <ele>570.00000</ele>
        <time>2010-01-01T01:20:42Z</time>
      </trkpt>
      <trkpt lat="31.79702630" lon="35.07913570">
        <ele>570.00000</ele>
        <time>2010-01-01T01:20:47Z</time>
      </trkpt>
      <trkpt lat="31.79697870" lon="35.07899340">
        <ele>570.00000</ele>
        <time>2010-01-01T01:20:53Z</time>
      </trkpt>
      <trkpt lat="31.79694070" lon="35.07886740">
        <ele>570.00000</ele>
        <time>2010-01-01T01:20:57Z</time>
      </trkpt>
      <trkpt lat="31.79692620" lon="35.07875320">
        <ele>570.00000</ele>
        <time>2010-01-01T01:21:01Z</time>
      </trkpt>
      <trkpt lat="31.79691980" lon="35.07860290">
        <ele>571.00000</ele>
        <time>2010-01-01T01:21:06Z</time>
      </trkpt>
      <trkpt lat="31.79691390" lon="35.07846780">
        <ele>573.00000</ele>
        <time>2010-01-01T01:21:11Z</time>
      </trkpt>
      <trkpt lat="31.79688130" lon="35.07835610">
        <ele>574.00000</ele>
        <time>2010-01-01T01:21:15Z</time>
      </trkpt>
      <trkpt lat="31.79679960" lon="35.07829880">
        <ele>573.00000</ele>
        <time>2010-01-01T01:21:19Z</time>
      </trkpt>
      <trkpt lat="31.79665520" lon="35.07830020">
        <ele>571.00000</ele>
        <time>2010-01-01T01:21:24Z</time>
      </trkpt>
      <trkpt lat="31.79653040" lon="35.07829460">
        <ele>568.00000</ele>
        <time>2010-01-01T01:21:29Z</time>
      </trkpt>
      <trkpt lat="31.79640090" lon="35.07827510">
        <ele>566.00000</ele>
        <time>2010-01-01T01:21:35Z</time>
      </trkpt>
      <trkpt lat="31.79627690" lon="35.07823820">
        <ele>566.00000</ele>
        <time>2010-01-01T01:21:40Z</time>
      </trkpt>
      <trkpt lat="31.79613930" lon="35.07819110">
        <ele>566.00000</ele>
        <time>2010-01-01T01:21:45Z</time>
      </trkpt>
      <trkpt lat="31.79601670" lon="35.07815220">
        <ele>565.00000</ele>
        <time>2010-01-01T01:21:51Z</time>
      </trkpt>
      <trkpt lat="31.79590410" lon="35.07812650">
        <ele>565.00000</ele>
        <time>2010-01-01T01:21:55Z</time>
      </trkpt>
      <trkpt lat="31.79585650" lon="35.07822950">
        <ele>563.00000</ele>
        <time>2010-01-01T01:21:59Z</time>
      </trkpt>
      <trkpt lat="31.79592010" lon="35.07832160">
        <ele>562.00000</ele>
        <time>2010-01-01T01:22:03Z</time>
      </trkpt>
      <trkpt lat="31.79604120" lon="35.07840390">
        <ele>561.00000</ele>
        <time>2010-01-01T01:22:09Z</time>
      </trkpt>
      <trkpt lat="31.79614050" lon="35.07846990">
        <ele>561.00000</ele>
        <time>2010-01-01T01:22:13Z</time>
      </trkpt>
      <trkpt lat="31.79624780" lon="35.07854760">
        <ele>560.00000</ele>
        <time>2010-01-01T01:22:18Z</time>
      </trkpt>
      <trkpt lat="31.79635340" lon="35.07863370">
        <ele>559.00000</ele>
        <time>2010-01-01T01:22:24Z</time>
      </trkpt>
      <trkpt lat="31.79643330" lon="35.07875530">
        <ele>559.00000</ele>
        <time>2010-01-01T01:22:29Z</time>
      </trkpt>
      <trkpt lat="31.79647500" lon="35.07889780">
        <ele>558.00000</ele>
        <time>2010-01-01T01:22:34Z</time>
      </trkpt>
      <trkpt lat="31.79649720" lon="35.07904910">
        <ele>557.00000</ele>
        <time>2010-01-01T01:22:39Z</time>
      </trkpt>
      <trkpt lat="31.79651970" lon="35.07920360">
        <ele>556.00000</ele>
        <time>2010-01-01T01:22:44Z</time>
      </trkpt>
      <trkpt lat="31.79655050" lon="35.07936420">
        <ele>555.00000</ele>
        <time>2010-01-01T01:22:50Z</time>
      </trkpt>
      <trkpt lat="31.79657910" lon="35.07952670">
        <ele>554.00000</ele>
        <time>2010-01-01T01:22:56Z</time>
      </trkpt>
      <trkpt lat="31.79659810" lon="35.07969530">
        <ele>553.00000</ele>
        <time>2010-01-01T01:23:01Z</time>
      </trkpt>
      <trkpt lat="31.79659680" lon="35.07988440">
        <ele>553.00000</ele>
        <time>2010-01-01T01:23:08Z</time>
      </trkpt>
      <trkpt lat="31.79657700" lon="35.08006190">
        <ele>552.00000</ele>
        <time>2010-01-01T01:23:14Z</time>
      </trkpt>
      <trkpt lat="31.79655540" lon="35.08020560">
        <ele>550.00000</ele>
        <time>2010-01-01T01:23:19Z</time>
      </trkpt>
      <trkpt lat="31.79655640" lon="35.08034650">
        <ele>549.00000</ele>
        <time>2010-01-01T01:23:24Z</time>
      </trkpt>
      <trkpt lat="31.79658270" lon="35.08049510">
        <ele>549.00000</ele>
        <time>2010-01-01T01:23:29Z</time>
      </trkpt>
      <trkpt lat="31.79659580" lon="35.08064590">
        <ele>548.00000</ele>
        <time>2010-01-01T01:23:34Z</time>
      </trkpt>
      <trkpt lat="31.79657420" lon="35.08078410">
        <ele>547.00000</ele>
        <time>2010-01-01T01:23:39Z</time>
      </trkpt>
      <trkpt lat="31.79651430" lon="35.08090560">
        <ele>545.00000</ele>
        <time>2010-01-01T01:23:44Z</time>
      </trkpt>
      <trkpt lat="31.79642680" lon="35.08102490">
        <ele>542.00000</ele>
        <time>2010-01-01T01:23:49Z</time>
      </trkpt>
      <trkpt lat="31.79635060" lon="35.08116600">
        <ele>540.00000</ele>
        <time>2010-01-01T01:23:55Z</time>
      </trkpt>
      <trkpt lat="31.79630040" lon="35.08131630">
        <ele>539.00000</ele>
        <time>2010-01-01T01:24:00Z</time>
      </trkpt>
      <trkpt lat="31.79625510" lon="35.08147080">
        <ele>538.00000</ele>
        <time>2010-01-01T01:24:06Z</time>
      </trkpt>
      <trkpt lat="31.79621390" lon="35.08163190">
        <ele>537.00000</ele>
        <time>2010-01-01T01:24:11Z</time>
      </trkpt>
      <trkpt lat="31.79617350" lon="35.08180260">
        <ele>536.00000</ele>
        <time>2010-01-01T01:24:18Z</time>
      </trkpt>
      <trkpt lat="31.79613100" lon="35.08198080">
        <ele>535.00000</ele>
        <time>2010-01-01T01:24:24Z</time>
      </trkpt>
      <trkpt lat="31.79609920" lon="35.08216110">
        <ele>535.00000</ele>
        <time>2010-01-01T01:24:30Z</time>
      </trkpt>
      <trkpt lat="31.79608080" lon="35.08235520">
        <ele>534.00000</ele>
        <time>2010-01-01T01:24:37Z</time>
      </trkpt>
      <trkpt lat="31.79608180" lon="35.08245840">
        <ele>534.00000</ele>
        <time>2010-01-01T01:24:40Z</time>
      </trkpt>
      <trkpt lat="31.79608300" lon="35.08267090">
        <ele>533.00000</ele>
        <time>2010-01-01T01:24:47Z</time>
      </trkpt>
      <trkpt lat="31.79607480" lon="35.08288320">
        <ele>531.00000</ele>
        <time>2010-01-01T01:24:55Z</time>
      </trkpt>
      <trkpt lat="31.79607000" lon="35.08298960">
        <ele>530.00000</ele>
        <time>2010-01-01T01:24:58Z</time>
      </trkpt>
      <trkpt lat="31.79606630" lon="35.08309810">
        <ele>529.00000</ele>
        <time>2010-01-01T01:25:02Z</time>
      </trkpt>
      <trkpt lat="31.79606140" lon="35.08331330">
        <ele>528.00000</ele>
        <time>2010-01-01T01:25:09Z</time>
      </trkpt>
      <trkpt lat="31.79604940" lon="35.08351570">
        <ele>528.00000</ele>
        <time>2010-01-01T01:25:16Z</time>
      </trkpt>
      <trkpt lat="31.79602240" lon="35.08371020">
        <ele>528.00000</ele>
        <time>2010-01-01T01:25:23Z</time>
      </trkpt>
      <trkpt lat="31.79598910" lon="35.08390640">
        <ele>527.00000</ele>
        <time>2010-01-01T01:25:30Z</time>
      </trkpt>
      <trkpt lat="31.79594230" lon="35.08409890">
        <ele>527.00000</ele>
        <time>2010-01-01T01:25:37Z</time>
      </trkpt>
      <trkpt lat="31.79587050" lon="35.08426360">
        <ele>527.00000</ele>
        <time>2010-01-01T01:25:43Z</time>
      </trkpt>
      <trkpt lat="31.79578050" lon="35.08439310">
        <ele>526.00000</ele>
        <time>2010-01-01T01:25:49Z</time>
      </trkpt>
      <trkpt lat="31.79568380" lon="35.08449210">
        <ele>525.00000</ele>
        <time>2010-01-01T01:25:54Z</time>
      </trkpt>
      <trkpt lat="31.79557650" lon="35.08458560">
        <ele>524.00000</ele>
        <time>2010-01-01T01:25:59Z</time>
      </trkpt>
      <trkpt lat="31.79548220" lon="35.08468740">
        <ele>524.00000</ele>
        <time>2010-01-01T01:26:04Z</time>
      </trkpt>
      <trkpt lat="31.79538960" lon="35.08480390">
        <ele>524.00000</ele>
        <time>2010-01-01T01:26:10Z</time>
      </trkpt>
      <trkpt lat="31.79530960" lon="35.08493400">
        <ele>524.00000</ele>
        <time>2010-01-01T01:26:15Z</time>
      </trkpt>
      <trkpt lat="31.79523670" lon="35.08506500">
        <ele>523.00000</ele>
        <time>2010-01-01T01:26:20Z</time>
      </trkpt>
      <trkpt lat="31.79516480" lon="35.08519450">
        <ele>523.00000</ele>
        <time>2010-01-01T01:26:26Z</time>
      </trkpt>
      <trkpt lat="31.79510740" lon="35.08532320">
        <ele>523.00000</ele>
        <time>2010-01-01T01:26:31Z</time>
      </trkpt>
      <trkpt lat="31.79506350" lon="35.08544490">
        <ele>524.00000</ele>
        <time>2010-01-01T01:26:35Z</time>
      </trkpt>
      <trkpt lat="31.79502400" lon="35.08556340">
        <ele>524.00000</ele>
        <time>2010-01-01T01:26:39Z</time>
      </trkpt>
      <trkpt lat="31.79498660" lon="35.08567480">
        <ele>524.00000</ele>
        <time>2010-01-01T01:26:43Z</time>
      </trkpt>
      <trkpt lat="31.79494970" lon="35.08577890">
        <ele>525.00000</ele>
        <time>2010-01-01T01:26:47Z</time>
      </trkpt>
      <trkpt lat="31.79491860" lon="35.08587980">
        <ele>525.00000</ele>
        <time>2010-01-01T01:26:51Z</time>
      </trkpt>
      <trkpt lat="31.79485780" lon="35.08600620">
        <ele>525.00000</ele>
        <time>2010-01-01T01:26:56Z</time>
      </trkpt>
      <trkpt lat="31.79476660" lon="35.08607700">
        <ele>524.00000</ele>
        <time>2010-01-01T01:27:00Z</time>
      </trkpt>
      <trkpt lat="31.79464110" lon="35.08609450">
        <ele>524.00000</ele>
        <time>2010-01-01T01:27:05Z</time>
      </trkpt>
      <trkpt lat="31.79454360" lon="35.08612860">
        <ele>524.00000</ele>
        <time>2010-01-01T01:27:09Z</time>
      </trkpt>
      <trkpt lat="31.79446330" lon="35.08618370">
        <ele>524.00000</ele>
        <time>2010-01-01T01:27:13Z</time>
      </trkpt>
      <trkpt lat="31.79439740" lon="35.08625600">
        <ele>524.00000</ele>
        <time>2010-01-01T01:27:17Z</time>
      </trkpt>
      <trkpt lat="31.79434290" lon="35.08634520">
        <ele>525.00000</ele>
        <time>2010-01-01T01:27:20Z</time>
      </trkpt>
      <trkpt lat="31.79428560" lon="35.08644880">
        <ele>525.00000</ele>
        <time>2010-01-01T01:27:25Z</time>
      </trkpt>
      <trkpt lat="31.79424250" lon="35.08654280">
        <ele>525.00000</ele>
        <time>2010-01-01T01:27:28Z</time>
      </trkpt>
      <trkpt lat="31.79421060" lon="35.08664400">
        <ele>525.00000</ele>
        <time>2010-01-01T01:27:32Z</time>
      </trkpt>
      <trkpt lat="31.79418370" lon="35.08675840">
        <ele>525.00000</ele>
        <time>2010-01-01T01:27:36Z</time>
      </trkpt>
      <trkpt lat="31.79415740" lon="35.08687090">
        <ele>526.00000</ele>
        <time>2010-01-01T01:27:40Z</time>
      </trkpt>
      <trkpt lat="31.79413710" lon="35.08698420">
        <ele>526.00000</ele>
        <time>2010-01-01T01:27:44Z</time>
      </trkpt>
      <trkpt lat="31.79409340" lon="35.08708730">
        <ele>528.00000</ele>
        <time>2010-01-01T01:27:48Z</time>
      </trkpt>
      <trkpt lat="31.79406500" lon="35.08720830">
        <ele>529.00000</ele>
        <time>2010-01-01T01:27:52Z</time>
      </trkpt>
      <trkpt lat="31.79404020" lon="35.08731840">
        <ele>530.00000</ele>
        <time>2010-01-01T01:27:56Z</time>
      </trkpt>
      <trkpt lat="31.79402640" lon="35.08742610">
        <ele>530.00000</ele>
        <time>2010-01-01T01:28:00Z</time>
      </trkpt>
      <trkpt lat="31.79402080" lon="35.08755080">
        <ele>531.00000</ele>
        <time>2010-01-01T01:28:04Z</time>
      </trkpt>
      <trkpt lat="31.79400340" lon="35.08766910">
        <ele>531.00000</ele>
        <time>2010-01-01T01:28:08Z</time>
      </trkpt>
      <trkpt lat="31.79398560" lon="35.08778140">
        <ele>531.00000</ele>
        <time>2010-01-01T01:28:12Z</time>
      </trkpt>
      <trkpt lat="31.79395950" lon="35.08790270">
        <ele>531.00000</ele>
        <time>2010-01-01T01:28:16Z</time>
      </trkpt>
      <trkpt lat="31.79393530" lon="35.08802070">
        <ele>531.00000</ele>
        <time>2010-01-01T01:28:20Z</time>
      </trkpt>
      <trkpt lat="31.79391150" lon="35.08812210">
        <ele>531.00000</ele>
        <time>2010-01-01T01:28:24Z</time>
      </trkpt>
      <trkpt lat="31.79388600" lon="35.08824620">
        <ele>532.00000</ele>
        <time>2010-01-01T01:28:28Z</time>
      </trkpt>
      <trkpt lat="31.79383060" lon="35.08833230">
        <ele>533.00000</ele>
        <time>2010-01-01T01:28:32Z</time>
      </trkpt>
      <trkpt lat="31.79374230" lon="35.08832050">
        <ele>535.00000</ele>
        <time>2010-01-01T01:28:35Z</time>
      </trkpt>
      <trkpt lat="31.79367860" lon="35.08822670">
        <ele>537.00000</ele>
        <time>2010-01-01T01:28:40Z</time>
      </trkpt>
      <trkpt lat="31.79365650" lon="35.08810470">
        <ele>538.00000</ele>
        <time>2010-01-01T01:28:44Z</time>
      </trkpt>
      <trkpt lat="31.79367120" lon="35.08799730">
        <ele>538.00000</ele>
        <time>2010-01-01T01:28:47Z</time>
      </trkpt>
      <trkpt lat="31.79367610" lon="35.08788470">
        <ele>539.00000</ele>
        <time>2010-01-01T01:28:51Z</time>
      </trkpt>
      <trkpt lat="31.79367570" lon="35.08777690">
        <ele>540.00000</ele>
        <time>2010-01-01T01:28:55Z</time>
      </trkpt>
      <trkpt lat="31.79366960" lon="35.08766040">
        <ele>540.00000</ele>
        <time>2010-01-01T01:28:59Z</time>
      </trkpt>
      <trkpt lat="31.79365970" lon="35.08754590">
        <ele>540.00000</ele>
        <time>2010-01-01T01:29:03Z</time>
      </trkpt>
      <trkpt lat="31.79366260" lon="35.08743600">
        <ele>540.00000</ele>
        <time>2010-01-01T01:29:07Z</time>
      </trkpt>
      <trkpt lat="31.79365060" lon="35.08732040">
        <ele>540.00000</ele>
        <time>2010-01-01T01:29:11Z</time>
      </trkpt>
      <trkpt lat="31.79363310" lon="35.08720960">
        <ele>541.00000</ele>
        <time>2010-01-01T01:29:14Z</time>
      </trkpt>
      <trkpt lat="31.79362640" lon="35.08710070">
        <ele>541.00000</ele>
        <time>2010-01-01T01:29:18Z</time>
      </trkpt>
      <trkpt lat="31.79361680" lon="35.08697610">
        <ele>542.00000</ele>
        <time>2010-01-01T01:29:22Z</time>
      </trkpt>
      <trkpt lat="31.79360590" lon="35.08685590">
        <ele>543.00000</ele>
        <time>2010-01-01T01:29:27Z</time>
      </trkpt>
      <trkpt lat="31.79359470" lon="35.08673090">
        <ele>543.00000</ele>
        <time>2010-01-01T01:29:31Z</time>
      </trkpt>
      <trkpt lat="31.79358260" lon="35.08661080">
        <ele>543.00000</ele>
        <time>2010-01-01T01:29:35Z</time>
      </trkpt>
      <trkpt lat="31.79357050" lon="35.08648560">
        <ele>542.00000</ele>
        <time>2010-01-01T01:29:39Z</time>
      </trkpt>
      <trkpt lat="31.79355060" lon="35.08636780">
        <ele>542.00000</ele>
        <time>2010-01-01T01:29:43Z</time>
      </trkpt>
      <trkpt lat="31.79352380" lon="35.08623930">
        <ele>542.00000</ele>
        <time>2010-01-01T01:29:48Z</time>
      </trkpt>
      <trkpt lat="31.79349280" lon="35.08612650">
        <ele>542.00000</ele>
        <time>2010-01-01T01:29:52Z</time>
      </trkpt>
      <trkpt lat="31.79346540" lon="35.08601360">
        <ele>543.00000</ele>
        <time>2010-01-01T01:29:56Z</time>
      </trkpt>
      <trkpt lat="31.79344410" lon="35.08590840">
        <ele>543.00000</ele>
        <time>2010-01-01T01:29:59Z</time>
      </trkpt>
      <trkpt lat="31.79342010" lon="35.08577240">
        <ele>545.00000</ele>
        <time>2010-01-01T01:30:04Z</time>
      </trkpt>
      <trkpt lat="31.79340180" lon="35.08563600">
        <ele>547.00000</ele>
        <time>2010-01-01T01:30:09Z</time>
      </trkpt>
      <trkpt lat="31.79338360" lon="35.08550580">
        <ele>549.00000</ele>
        <time>2010-01-01T01:30:13Z</time>
      </trkpt>
      <trkpt lat="31.79336240" lon="35.08539250">
        <ele>549.00000</ele>
        <time>2010-01-01T01:30:17Z</time>
      </trkpt>
      <trkpt lat="31.79333950" lon="35.08526560">
        <ele>550.00000</ele>
        <time>2010-01-01T01:30:22Z</time>
      </trkpt>
      <trkpt lat="31.79331820" lon="35.08515120">
        <ele>551.00000</ele>
        <time>2010-01-01T01:30:26Z</time>
      </trkpt>
      <trkpt lat="31.79328170" lon="35.08504200">
        <ele>552.00000</ele>
        <time>2010-01-01T01:30:30Z</time>
      </trkpt>
      <trkpt lat="31.79325680" lon="35.08492360">
        <ele>552.00000</ele>
        <time>2010-01-01T01:30:34Z</time>
      </trkpt>
      <trkpt lat="31.79321290" lon="35.08481130">
        <ele>551.00000</ele>
        <time>2010-01-01T01:30:38Z</time>
      </trkpt>
      <trkpt lat="31.79316700" lon="35.08470920">
        <ele>551.00000</ele>
        <time>2010-01-01T01:30:42Z</time>
      </trkpt>
      <trkpt lat="31.79311410" lon="35.08461460">
        <ele>551.00000</ele>
        <time>2010-01-01T01:30:46Z</time>
      </trkpt>
      <trkpt lat="31.79304440" lon="35.08454590">
        <ele>552.00000</ele>
        <time>2010-01-01T01:30:50Z</time>
      </trkpt>
      <trkpt lat="31.79296920" lon="35.08446410">
        <ele>552.00000</ele>
        <time>2010-01-01T01:30:54Z</time>
      </trkpt>
      <trkpt lat="31.79289140" lon="35.08438760">
        <ele>553.00000</ele>
        <time>2010-01-01T01:30:58Z</time>
      </trkpt>
      <trkpt lat="31.79281680" lon="35.08432370">
        <ele>554.00000</ele>
        <time>2010-01-01T01:31:01Z</time>
      </trkpt>
      <trkpt lat="31.79274330" lon="35.08425540">
        <ele>554.00000</ele>
        <time>2010-01-01T01:31:05Z</time>
      </trkpt>
      <trkpt lat="31.79265530" lon="35.08418370">
        <ele>554.00000</ele>
        <time>2010-01-01T01:31:09Z</time>
      </trkpt>
      <trkpt lat="31.79257510" lon="35.08411020">
        <ele>555.00000</ele>
        <time>2010-01-01T01:31:13Z</time>
      </trkpt>
      <trkpt lat="31.79248730" lon="35.08403000">
        <ele>556.00000</ele>
        <time>2010-01-01T01:31:18Z</time>
      </trkpt>
      <trkpt lat="31.79241680" lon="35.08396140">
        <ele>557.00000</ele>
        <time>2010-01-01T01:31:22Z</time>
      </trkpt>
      <trkpt lat="31.79234880" lon="35.08388860">
        <ele>558.00000</ele>
        <time>2010-01-01T01:31:25Z</time>
      </trkpt>
      <trkpt lat="31.79227550" lon="35.08381320">
        <ele>559.00000</ele>
        <time>2010-01-01T01:31:29Z</time>
      </trkpt>
      <trkpt lat="31.79219830" lon="35.08374210">
        <ele>560.00000</ele>
        <time>2010-01-01T01:31:33Z</time>
      </trkpt>
      <trkpt lat="31.79211780" lon="35.08367210">
        <ele>561.00000</ele>
        <time>2010-01-01T01:31:37Z</time>
      </trkpt>
      <trkpt lat="31.79204830" lon="35.08359850">
        <ele>562.00000</ele>
        <time>2010-01-01T01:31:41Z</time>
      </trkpt>
      <trkpt lat="31.79197610" lon="35.08352080">
        <ele>562.00000</ele>
        <time>2010-01-01T01:31:45Z</time>
      </trkpt>
      <trkpt lat="31.79189900" lon="35.08345860">
        <ele>563.00000</ele>
        <time>2010-01-01T01:31:48Z</time>
      </trkpt>
      <trkpt lat="31.79182310" lon="35.08337860">
        <ele>563.00000</ele>
        <time>2010-01-01T01:31:53Z</time>
      </trkpt>
      <trkpt lat="31.79175640" lon="35.08329900">
        <ele>564.00000</ele>
        <time>2010-01-01T01:31:56Z</time>
      </trkpt>
      <trkpt lat="31.79168410" lon="35.08322400">
        <ele>565.00000</ele>
        <time>2010-01-01T01:32:00Z</time>
      </trkpt>
      <trkpt lat="31.79162020" lon="35.08314270">
        <ele>566.00000</ele>
        <time>2010-01-01T01:32:04Z</time>
      </trkpt>
      <trkpt lat="31.79154300" lon="35.08305040">
        <ele>567.00000</ele>
        <time>2010-01-01T01:32:08Z</time>
      </trkpt>
      <trkpt lat="31.79148190" lon="35.08296390">
        <ele>568.00000</ele>
        <time>2010-01-01T01:32:12Z</time>
      </trkpt>
      <trkpt lat="31.79140510" lon="35.08289410">
        <ele>569.00000</ele>
        <time>2010-01-01T01:32:16Z</time>
      </trkpt>
      <trkpt lat="31.79132740" lon="35.08282470">
        <ele>570.00000</ele>
        <time>2010-01-01T01:32:20Z</time>
      </trkpt>
      <trkpt lat="31.79125880" lon="35.08275430">
        <ele>571.00000</ele>
        <time>2010-01-01T01:32:24Z</time>
      </trkpt>
      <trkpt lat="31.79118180" lon="35.08269260">
        <ele>573.00000</ele>
        <time>2010-01-01T01:32:27Z</time>
      </trkpt>
      <trkpt lat="31.79112460" lon="35.08260760">
        <ele>574.00000</ele>
        <time>2010-01-01T01:32:31Z</time>
      </trkpt>
      <trkpt lat="31.79106090" lon="35.08251870">
        <ele>574.00000</ele>
        <time>2010-01-01T01:32:35Z</time>
      </trkpt>
      <trkpt lat="31.79098560" lon="35.08243010">
        <ele>575.00000</ele>
        <time>2010-01-01T01:32:39Z</time>
      </trkpt>
      <trkpt lat="31.79091450" lon="35.08234600">
        <ele>575.00000</ele>
        <time>2010-01-01T01:32:43Z</time>
      </trkpt>
      <trkpt lat="31.79082800" lon="35.08226700">
        <ele>576.00000</ele>
        <time>2010-01-01T01:32:48Z</time>
      </trkpt>
      <trkpt lat="31.79074220" lon="35.08218700">
        <ele>577.00000</ele>
        <time>2010-01-01T01:32:52Z</time>
      </trkpt>
      <trkpt lat="31.79065410" lon="35.08212690">
        <ele>578.00000</ele>
        <time>2010-01-01T01:32:56Z</time>
      </trkpt>
      <trkpt lat="31.79056990" lon="35.08207200">
        <ele>578.00000</ele>
        <time>2010-01-01T01:33:00Z</time>
      </trkpt>
      <trkpt lat="31.79048140" lon="35.08200830">
        <ele>578.00000</ele>
        <time>2010-01-01T01:33:04Z</time>
      </trkpt>
      <trkpt lat="31.79038920" lon="35.08194150">
        <ele>578.00000</ele>
        <time>2010-01-01T01:33:09Z</time>
      </trkpt>
      <trkpt lat="31.79028780" lon="35.08187130">
        <ele>579.00000</ele>
        <time>2010-01-01T01:33:13Z</time>
      </trkpt>
      <trkpt lat="31.79020440" lon="35.08181160">
        <ele>580.00000</ele>
        <time>2010-01-01T01:33:17Z</time>
      </trkpt>
      <trkpt lat="31.79012030" lon="35.08175230">
        <ele>580.00000</ele>
        <time>2010-01-01T01:33:21Z</time>
      </trkpt>
      <trkpt lat="31.79002270" lon="35.08169450">
        <ele>582.00000</ele>
        <time>2010-01-01T01:33:25Z</time>
      </trkpt>
      <trkpt lat="31.78992630" lon="35.08164100">
        <ele>581.00000</ele>
        <time>2010-01-01T01:33:30Z</time>
      </trkpt>
      <trkpt lat="31.78983060" lon="35.08159420">
        <ele>581.00000</ele>
        <time>2010-01-01T01:33:34Z</time>
      </trkpt>
      <trkpt lat="31.78973090" lon="35.08156820">
        <ele>581.00000</ele>
        <time>2010-01-01T01:33:38Z</time>
      </trkpt>
      <trkpt lat="31.78961700" lon="35.08156850">
        <ele>582.00000</ele>
        <time>2010-01-01T01:33:43Z</time>
      </trkpt>
      <trkpt lat="31.78950180" lon="35.08158630">
        <ele>583.00000</ele>
        <time>2010-01-01T01:33:47Z</time>
      </trkpt>
      <trkpt lat="31.78940570" lon="35.08160300">
        <ele>584.00000</ele>
        <time>2010-01-01T01:33:51Z</time>
      </trkpt>
      <trkpt lat="31.78929920" lon="35.08161930">
        <ele>586.00000</ele>
        <time>2010-01-01T01:33:55Z</time>
      </trkpt>
      <trkpt lat="31.78918830" lon="35.08162650">
        <ele>588.00000</ele>
        <time>2010-01-01T01:34:00Z</time>
      </trkpt>
      <trkpt lat="31.78907790" lon="35.08162910">
        <ele>590.00000</ele>
        <time>2010-01-01T01:34:04Z</time>
      </trkpt>
      <trkpt lat="31.78897210" lon="35.08159510">
        <ele>590.00000</ele>
        <time>2010-01-01T01:34:09Z</time>
      </trkpt>
      <trkpt lat="31.78887990" lon="35.08156740">
        <ele>590.00000</ele>
        <time>2010-01-01T01:34:12Z</time>
      </trkpt>
      <trkpt lat="31.78878310" lon="35.08152490">
        <ele>589.00000</ele>
        <time>2010-01-01T01:34:17Z</time>
      </trkpt>
      <trkpt lat="31.78869860" lon="35.08148210">
        <ele>588.00000</ele>
        <time>2010-01-01T01:34:20Z</time>
      </trkpt>
      <trkpt lat="31.78860150" lon="35.08143330">
        <ele>586.00000</ele>
        <time>2010-01-01T01:34:24Z</time>
      </trkpt>
      <trkpt lat="31.78851130" lon="35.08138260">
        <ele>585.00000</ele>
        <time>2010-01-01T01:34:28Z</time>
      </trkpt>
      <trkpt lat="31.78841680" lon="35.08133120">
        <ele>585.00000</ele>
        <time>2010-01-01T01:34:33Z</time>
      </trkpt>
      <trkpt lat="31.78832980" lon="35.08128720">
        <ele>584.00000</ele>
        <time>2010-01-01T01:34:36Z</time>
      </trkpt>
      <trkpt lat="31.78823330" lon="35.08123520">
        <ele>585.00000</ele>
        <time>2010-01-01T01:34:41Z</time>
      </trkpt>
      <trkpt lat="31.78813850" lon="35.08118720">
        <ele>585.00000</ele>
        <time>2010-01-01T01:34:45Z</time>
      </trkpt>
      <trkpt lat="31.78805060" lon="35.08113490">
        <ele>585.00000</ele>
        <time>2010-01-01T01:34:49Z</time>
      </trkpt>
      <trkpt lat="31.78795770" lon="35.08107390">
        <ele>586.00000</ele>
        <time>2010-01-01T01:34:53Z</time>
      </trkpt>
      <trkpt lat="31.78786720" lon="35.08100270">
        <ele>587.00000</ele>
        <time>2010-01-01T01:34:57Z</time>
      </trkpt>
      <trkpt lat="31.78779640" lon="35.08093390">
        <ele>587.00000</ele>
        <time>2010-01-01T01:35:01Z</time>
      </trkpt>
      <trkpt lat="31.78771960" lon="35.08085880">
        <ele>586.00000</ele>
        <time>2010-01-01T01:35:05Z</time>
      </trkpt>
      <trkpt lat="31.78763460" lon="35.08078090">
        <ele>585.00000</ele>
        <time>2010-01-01T01:35:09Z</time>
      </trkpt>
      <trkpt lat="31.78753240" lon="35.08069850">
        <ele>585.00000</ele>
        <time>2010-01-01T01:35:14Z</time>
      </trkpt>
      <trkpt lat="31.78742430" lon="35.08060700">
        <ele>586.00000</ele>
        <time>2010-01-01T01:35:20Z</time>
      </trkpt>
      <trkpt lat="31.78731400" lon="35.08050960">
        <ele>587.00000</ele>
        <time>2010-01-01T01:35:25Z</time>
      </trkpt>
      <trkpt lat="31.78723770" lon="35.08044430">
        <ele>587.00000</ele>
        <time>2010-01-01T01:35:29Z</time>
      </trkpt>
      <trkpt lat="31.78716040" lon="35.08037970">
        <ele>588.00000</ele>
        <time>2010-01-01T01:35:33Z</time>
      </trkpt>
      <trkpt lat="31.78708610" lon="35.08031710">
        <ele>588.00000</ele>
        <time>2010-01-01T01:35:36Z</time>
      </trkpt>
      <trkpt lat="31.78701180" lon="35.08025260">
        <ele>587.00000</ele>
        <time>2010-01-01T01:35:40Z</time>
      </trkpt>
      <trkpt lat="31.78693690" lon="35.08018120">
        <ele>587.00000</ele>
        <time>2010-01-01T01:35:44Z</time>
      </trkpt>
      <trkpt lat="31.78685840" lon="35.08010480">
        <ele>587.00000</ele>
        <time>2010-01-01T01:35:48Z</time>
      </trkpt>
      <trkpt lat="31.78677160" lon="35.08001360">
        <ele>587.00000</ele>
        <time>2010-01-01T01:35:53Z</time>
      </trkpt>
      <trkpt lat="31.78668720" lon="35.07990380">
        <ele>588.00000</ele>
        <time>2010-01-01T01:35:58Z</time>
      </trkpt>
      <trkpt lat="31.78659910" lon="35.07977470">
        <ele>587.00000</ele>
        <time>2010-01-01T01:36:03Z</time>
      </trkpt>
      <trkpt lat="31.78651260" lon="35.07963090">
        <ele>586.00000</ele>
        <time>2010-01-01T01:36:09Z</time>
      </trkpt>
      <trkpt lat="31.78642480" lon="35.07947940">
        <ele>585.00000</ele>
        <time>2010-01-01T01:36:16Z</time>
      </trkpt>
      <trkpt lat="31.78633850" lon="35.07932660">
        <ele>583.00000</ele>
        <time>2010-01-01T01:36:22Z</time>
      </trkpt>
      <trkpt lat="31.78626020" lon="35.07918610">
        <ele>581.00000</ele>
        <time>2010-01-01T01:36:28Z</time>
      </trkpt>
      <trkpt lat="31.78618950" lon="35.07906700">
        <ele>581.00000</ele>
        <time>2010-01-01T01:36:32Z</time>
      </trkpt>
      <trkpt lat="31.78612930" lon="35.07895880">
        <ele>581.00000</ele>
        <time>2010-01-01T01:36:37Z</time>
      </trkpt>
      <trkpt lat="31.78607330" lon="35.07886500">
        <ele>581.00000</ele>
        <time>2010-01-01T01:36:41Z</time>
      </trkpt>
      <trkpt lat="31.78600380" lon="35.07875200">
        <ele>582.00000</ele>
        <time>2010-01-01T01:36:46Z</time>
      </trkpt>
      <trkpt lat="31.78593520" lon="35.07863580">
        <ele>583.00000</ele>
        <time>2010-01-01T01:36:50Z</time>
      </trkpt>
      <trkpt lat="31.78586670" lon="35.07854700">
        <ele>585.00000</ele>
        <time>2010-01-01T01:36:54Z</time>
      </trkpt>
      <trkpt lat="31.78578020" lon="35.07849670">
        <ele>587.00000</ele>
        <time>2010-01-01T01:36:58Z</time>
      </trkpt>
      <trkpt lat="31.78569010" lon="35.07851610">
        <ele>587.00000</ele>
        <time>2010-01-01T01:37:02Z</time>
      </trkpt>
      <trkpt lat="31.78561380" lon="35.07860500">
        <ele>587.00000</ele>
        <time>2010-01-01T01:37:06Z</time>
      </trkpt>
      <trkpt lat="31.78555640" lon="35.07870990">
        <ele>587.00000</ele>
        <time>2010-01-01T01:37:10Z</time>
      </trkpt>
      <trkpt lat="31.78550520" lon="35.07881420">
        <ele>586.00000</ele>
        <time>2010-01-01T01:37:15Z</time>
      </trkpt>
      <trkpt lat="31.78544070" lon="35.07894280">
        <ele>585.00000</ele>
        <time>2010-01-01T01:37:20Z</time>
      </trkpt>
      <trkpt lat="31.78539340" lon="35.07904110">
        <ele>585.00000</ele>
        <time>2010-01-01T01:37:24Z</time>
      </trkpt>
      <trkpt lat="31.78534660" lon="35.07915770">
        <ele>584.00000</ele>
        <time>2010-01-01T01:37:28Z</time>
      </trkpt>
      <trkpt lat="31.78528930" lon="35.07928250">
        <ele>583.00000</ele>
        <time>2010-01-01T01:37:33Z</time>
      </trkpt>
      <trkpt lat="31.78522990" lon="35.07941820">
        <ele>581.00000</ele>
        <time>2010-01-01T01:37:38Z</time>
      </trkpt>
      <trkpt lat="31.78516110" lon="35.07956520">
        <ele>580.00000</ele>
        <time>2010-01-01T01:37:44Z</time>
      </trkpt>
      <trkpt lat="31.78508500" lon="35.07972490">
        <ele>578.00000</ele>
        <time>2010-01-01T01:37:50Z</time>
      </trkpt>
      <trkpt lat="31.78500790" lon="35.07989410">
        <ele>575.00000</ele>
        <time>2010-01-01T01:37:56Z</time>
      </trkpt>
      <trkpt lat="31.78492280" lon="35.08006900">
        <ele>574.00000</ele>
        <time>2010-01-01T01:38:03Z</time>
      </trkpt>
      <trkpt lat="31.78482550" lon="35.08024540">
        <ele>572.00000</ele>
        <time>2010-01-01T01:38:10Z</time>
      </trkpt>
      <trkpt lat="31.78473200" lon="35.08044180">
        <ele>571.00000</ele>
        <time>2010-01-01T01:38:18Z</time>
      </trkpt>
      <trkpt lat="31.78468660" lon="35.08054820">
        <ele>571.00000</ele>
        <time>2010-01-01T01:38:22Z</time>
      </trkpt>
      <trkpt lat="31.78463850" lon="35.08065550">
        <ele>571.00000</ele>
        <time>2010-01-01T01:38:26Z</time>
      </trkpt>
      <trkpt lat="31.78458650" lon="35.08076450">
        <ele>571.00000</ele>
        <time>2010-01-01T01:38:30Z</time>
      </trkpt>
      <trkpt lat="31.78453200" lon="35.08087700">
        <ele>570.00000</ele>
        <time>2010-01-01T01:38:35Z</time>
      </trkpt>
      <trkpt lat="31.78447750" lon="35.08098770">
        <ele>570.00000</ele>
        <time>2010-01-01T01:38:39Z</time>
      </trkpt>
      <trkpt lat="31.78442450" lon="35.08109240">
        <ele>570.00000</ele>
        <time>2010-01-01T01:38:43Z</time>
      </trkpt>
      <trkpt lat="31.78437040" lon="35.08119290">
        <ele>570.00000</ele>
        <time>2010-01-01T01:38:47Z</time>
      </trkpt>
      <trkpt lat="31.78431580" lon="35.08128920">
        <ele>570.00000</ele>
        <time>2010-01-01T01:38:51Z</time>
      </trkpt>
      <trkpt lat="31.78426180" lon="35.08138280">
        <ele>571.00000</ele>
        <time>2010-01-01T01:38:55Z</time>
      </trkpt>
      <trkpt lat="31.78420840" lon="35.08147320">
        <ele>571.00000</ele>
        <time>2010-01-01T01:38:59Z</time>
      </trkpt>
      <trkpt lat="31.78410130" lon="35.08164530">
        <ele>569.00000</ele>
        <time>2010-01-01T01:39:06Z</time>
      </trkpt>
      <trkpt lat="31.78399460" lon="35.08180370">
        <ele>568.00000</ele>
        <time>2010-01-01T01:39:13Z</time>
      </trkpt>
      <trkpt lat="31.78388390" lon="35.08196620">
        <ele>568.00000</ele>
        <time>2010-01-01T01:39:20Z</time>
      </trkpt>
      <trkpt lat="31.78377700" lon="35.08213900">
        <ele>569.00000</ele>
        <time>2010-01-01T01:39:27Z</time>
      </trkpt>
      <trkpt lat="31.78367680" lon="35.08231370">
        <ele>569.00000</ele>
        <time>2010-01-01T01:39:35Z</time>
      </trkpt>
      <trkpt lat="31.78357270" lon="35.08248380">
        <ele>569.00000</ele>
        <time>2010-01-01T01:39:42Z</time>
      </trkpt>
      <trkpt lat="31.78346680" lon="35.08263970">
        <ele>569.00000</ele>
        <time>2010-01-01T01:39:49Z</time>
      </trkpt>
      <trkpt lat="31.78337040" lon="35.08278760">
        <ele>569.00000</ele>
        <time>2010-01-01T01:39:55Z</time>
      </trkpt>
      <trkpt lat="31.78328100" lon="35.08293200">
        <ele>569.00000</ele>
        <time>2010-01-01T01:40:01Z</time>
      </trkpt>
      <trkpt lat="31.78319070" lon="35.08307240">
        <ele>570.00000</ele>
        <time>2010-01-01T01:40:07Z</time>
      </trkpt>
      <trkpt lat="31.78310970" lon="35.08321570">
        <ele>571.00000</ele>
        <time>2010-01-01T01:40:13Z</time>
      </trkpt>
      <trkpt lat="31.78303930" lon="35.08336460">
        <ele>571.00000</ele>
        <time>2010-01-01T01:40:19Z</time>
      </trkpt>
      <trkpt lat="31.78297480" lon="35.08350740">
        <ele>572.00000</ele>
        <time>2010-01-01T01:40:24Z</time>
      </trkpt>
      <trkpt lat="31.78292000" lon="35.08363300">
        <ele>572.00000</ele>
        <time>2010-01-01T01:40:29Z</time>
      </trkpt>
      <trkpt lat="31.78287290" lon="35.08374200">
        <ele>571.00000</ele>
        <time>2010-01-01T01:40:33Z</time>
      </trkpt>
      <trkpt lat="31.78282370" lon="35.08383570">
        <ele>570.00000</ele>
        <time>2010-01-01T01:40:37Z</time>
      </trkpt>
      <trkpt lat="31.78276830" lon="35.08397190">
        <ele>569.00000</ele>
        <time>2010-01-01T01:40:42Z</time>
      </trkpt>
      <trkpt lat="31.78271540" lon="35.08409980">
        <ele>571.00000</ele>
        <time>2010-01-01T01:40:47Z</time>
      </trkpt>
      <trkpt lat="31.78267110" lon="35.08420840">
        <ele>571.00000</ele>
        <time>2010-01-01T01:40:51Z</time>
      </trkpt>
      <trkpt lat="31.78263640" lon="35.08430640">
        <ele>571.00000</ele>
        <time>2010-01-01T01:40:55Z</time>
      </trkpt>
      <trkpt lat="31.78261090" lon="35.08443630">
        <ele>572.00000</ele>
        <time>2010-01-01T01:40:59Z</time>
      </trkpt>
      <trkpt lat="31.78258680" lon="35.08454020">
        <ele>573.00000</ele>
        <time>2010-01-01T01:41:03Z</time>
      </trkpt>
      <trkpt lat="31.78255980" lon="35.08464080">
        <ele>573.00000</ele>
        <time>2010-01-01T01:41:06Z</time>
      </trkpt>
      <trkpt lat="31.78253580" lon="35.08474780">
        <ele>574.00000</ele>
        <time>2010-01-01T01:41:10Z</time>
      </trkpt>
      <trkpt lat="31.78251630" lon="35.08486300">
        <ele>575.00000</ele>
        <time>2010-01-01T01:41:14Z</time>
      </trkpt>
      <trkpt lat="31.78249470" lon="35.08497300">
        <ele>575.00000</ele>
        <time>2010-01-01T01:41:18Z</time>
      </trkpt>
      <trkpt lat="31.78245630" lon="35.08509510">
        <ele>576.00000</ele>
        <time>2010-01-01T01:41:22Z</time>
      </trkpt>
      <trkpt lat="31.78237390" lon="35.08516200">
        <ele>577.00000</ele>
        <time>2010-01-01T01:41:26Z</time>
      </trkpt>
      <trkpt lat="31.78229310" lon="35.08508050">
        <ele>577.00000</ele>
        <time>2010-01-01T01:41:31Z</time>
      </trkpt>
      <trkpt lat="31.78225000" lon="35.08497570">
        <ele>576.00000</ele>
        <time>2010-01-01T01:41:35Z</time>
      </trkpt>
      <trkpt lat="31.78223480" lon="35.08484240">
        <ele>576.00000</ele>
        <time>2010-01-01T01:41:39Z</time>
      </trkpt>
      <trkpt lat="31.78224860" lon="35.08471690">
        <ele>576.00000</ele>
        <time>2010-01-01T01:41:43Z</time>
      </trkpt>
      <trkpt lat="31.78228730" lon="35.08458140">
        <ele>575.00000</ele>
        <time>2010-01-01T01:41:48Z</time>
      </trkpt>
      <trkpt lat="31.78232300" lon="35.08447450">
        <ele>573.00000</ele>
        <time>2010-01-01T01:41:52Z</time>
      </trkpt>
      <trkpt lat="31.78236040" lon="35.08435390">
        <ele>573.00000</ele>
        <time>2010-01-01T01:41:57Z</time>
      </trkpt>
      <trkpt lat="31.78239920" lon="35.08422630">
        <ele>573.00000</ele>
        <time>2010-01-01T01:42:01Z</time>
      </trkpt>
      <trkpt lat="31.78244550" lon="35.08409210">
        <ele>572.00000</ele>
        <time>2010-01-01T01:42:06Z</time>
      </trkpt>
      <trkpt lat="31.78250110" lon="35.08394850">
        <ele>571.00000</ele>
        <time>2010-01-01T01:42:12Z</time>
      </trkpt>
      <trkpt lat="31.78255920" lon="35.08380250">
        <ele>570.00000</ele>
        <time>2010-01-01T01:42:17Z</time>
      </trkpt>
      <trkpt lat="31.78261440" lon="35.08365190">
        <ele>569.00000</ele>
        <time>2010-01-01T01:42:23Z</time>
      </trkpt>
      <trkpt lat="31.78266840" lon="35.08350320">
        <ele>568.00000</ele>
        <time>2010-01-01T01:42:28Z</time>
      </trkpt>
      <trkpt lat="31.78271670" lon="35.08335390">
        <ele>568.00000</ele>
        <time>2010-01-01T01:42:34Z</time>
      </trkpt>
      <trkpt lat="31.78276590" lon="35.08321290">
        <ele>568.00000</ele>
        <time>2010-01-01T01:42:39Z</time>
      </trkpt>
      <trkpt lat="31.78281210" lon="35.08308210">
        <ele>569.00000</ele>
        <time>2010-01-01T01:42:44Z</time>
      </trkpt>
      <trkpt lat="31.78284800" lon="35.08295710">
        <ele>570.00000</ele>
        <time>2010-01-01T01:42:48Z</time>
      </trkpt>
      <trkpt lat="31.78288340" lon="35.08283880">
        <ele>570.00000</ele>
        <time>2010-01-01T01:42:52Z</time>
      </trkpt>
      <trkpt lat="31.78292070" lon="35.08272550">
        <ele>569.00000</ele>
        <time>2010-01-01T01:42:56Z</time>
      </trkpt>
      <trkpt lat="31.78295330" lon="35.08261490">
        <ele>569.00000</ele>
        <time>2010-01-01T01:43:00Z</time>
      </trkpt>
      <trkpt lat="31.78298970" lon="35.08251360">
        <ele>567.00000</ele>
        <time>2010-01-01T01:43:04Z</time>
      </trkpt>
      <trkpt lat="31.78302690" lon="35.08240970">
        <ele>566.00000</ele>
        <time>2010-01-01T01:43:08Z</time>
      </trkpt>
      <trkpt lat="31.78306480" lon="35.08229940">
        <ele>566.00000</ele>
        <time>2010-01-01T01:43:12Z</time>
      </trkpt>
      <trkpt lat="31.78310570" lon="35.08218480">
        <ele>566.00000</ele>
        <time>2010-01-01T01:43:16Z</time>
      </trkpt>
      <trkpt lat="31.78314390" lon="35.08206770">
        <ele>566.00000</ele>
        <time>2010-01-01T01:43:21Z</time>
      </trkpt>
      <trkpt lat="31.78317420" lon="35.08194450">
        <ele>565.00000</ele>
        <time>2010-01-01T01:43:25Z</time>
      </trkpt>
      <trkpt lat="31.78320490" lon="35.08182090">
        <ele>565.00000</ele>
        <time>2010-01-01T01:43:29Z</time>
      </trkpt>
      <trkpt lat="31.78324650" lon="35.08169270">
        <ele>564.00000</ele>
        <time>2010-01-01T01:43:34Z</time>
      </trkpt>
      <trkpt lat="31.78329250" lon="35.08155760">
        <ele>563.00000</ele>
        <time>2010-01-01T01:43:39Z</time>
      </trkpt>
      <trkpt lat="31.78333670" lon="35.08143560">
        <ele>562.00000</ele>
        <time>2010-01-01T01:43:43Z</time>
      </trkpt>
      <trkpt lat="31.78338620" lon="35.08129900">
        <ele>563.00000</ele>
        <time>2010-01-01T01:43:48Z</time>
      </trkpt>
      <trkpt lat="31.78341930" lon="35.08119550">
        <ele>564.00000</ele>
        <time>2010-01-01T01:43:52Z</time>
      </trkpt>
      <trkpt lat="31.78344210" lon="35.08108380">
        <ele>565.00000</ele>
        <time>2010-01-01T01:43:56Z</time>
      </trkpt>
      <trkpt lat="31.78345120" lon="35.08096480">
        <ele>567.00000</ele>
        <time>2010-01-01T01:44:00Z</time>
      </trkpt>
      <trkpt lat="31.78346010" lon="35.08084950">
        <ele>569.00000</ele>
        <time>2010-01-01T01:44:04Z</time>
      </trkpt>
      <trkpt lat="31.78346670" lon="35.08071810">
        <ele>570.00000</ele>
        <time>2010-01-01T01:44:09Z</time>
      </trkpt>
      <trkpt lat="31.78349360" lon="35.08060860">
        <ele>568.00000</ele>
        <time>2010-01-01T01:44:13Z</time>
      </trkpt>
      <trkpt lat="31.78350970" lon="35.08047960">
        <ele>567.00000</ele>
        <time>2010-01-01T01:44:17Z</time>
      </trkpt>
      <trkpt lat="31.78351580" lon="35.08034020">
        <ele>565.00000</ele>
        <time>2010-01-01T01:44:22Z</time>
      </trkpt>
      <trkpt lat="31.78351090" lon="35.08018640">
        <ele>564.00000</ele>
        <time>2010-01-01T01:44:27Z</time>
      </trkpt>
      <trkpt lat="31.78348940" lon="35.08003520">
        <ele>564.00000</ele>
        <time>2010-01-01T01:44:32Z</time>
      </trkpt>
      <trkpt lat="31.78345710" lon="35.07989450">
        <ele>565.00000</ele>
        <time>2010-01-01T01:44:37Z</time>
      </trkpt>
      <trkpt lat="31.78342400" lon="35.07977820">
        <ele>566.00000</ele>
        <time>2010-01-01T01:44:41Z</time>
      </trkpt>
      <trkpt lat="31.78336420" lon="35.07967130">
        <ele>568.00000</ele>
        <time>2010-01-01T01:44:46Z</time>
      </trkpt>
      <trkpt lat="31.78328420" lon="35.07958190">
        <ele>568.00000</ele>
        <time>2010-01-01T01:44:50Z</time>
      </trkpt>
      <trkpt lat="31.78320510" lon="35.07953890">
        <ele>569.00000</ele>
        <time>2010-01-01T01:44:54Z</time>
      </trkpt>
      <trkpt lat="31.78310680" lon="35.07950500">
        <ele>570.00000</ele>
        <time>2010-01-01T01:44:58Z</time>
      </trkpt>
      <trkpt lat="31.78300570" lon="35.07945860">
        <ele>570.00000</ele>
        <time>2010-01-01T01:45:02Z</time>
      </trkpt>
      <trkpt lat="31.78290400" lon="35.07941820">
        <ele>571.00000</ele>
        <time>2010-01-01T01:45:06Z</time>
      </trkpt>
      <trkpt lat="31.78280960" lon="35.07938700">
        <ele>572.00000</ele>
        <time>2010-01-01T01:45:10Z</time>
      </trkpt>
      <trkpt lat="31.78272290" lon="35.07934140">
        <ele>572.00000</ele>
        <time>2010-01-01T01:45:14Z</time>
      </trkpt>
      <trkpt lat="31.78263480" lon="35.07928510">
        <ele>573.00000</ele>
        <time>2010-01-01T01:45:18Z</time>
      </trkpt>
      <trkpt lat="31.78254060" lon="35.07922510">
        <ele>574.00000</ele>
        <time>2010-01-01T01:45:22Z</time>
      </trkpt>
      <trkpt lat="31.78246590" lon="35.07915600">
        <ele>575.00000</ele>
        <time>2010-01-01T01:45:26Z</time>
      </trkpt>
      <trkpt lat="31.78239760" lon="35.07908280">
        <ele>576.00000</ele>
        <time>2010-01-01T01:45:30Z</time>
      </trkpt>
      <trkpt lat="31.78233210" lon="35.07899760">
        <ele>577.00000</ele>
        <time>2010-01-01T01:45:34Z</time>
      </trkpt>
      <trkpt lat="31.78227060" lon="35.07890070">
        <ele>577.00000</ele>
        <time>2010-01-01T01:45:38Z</time>
      </trkpt>
      <trkpt lat="31.78220550" lon="35.07880320">
        <ele>578.00000</ele>
        <time>2010-01-01T01:45:42Z</time>
      </trkpt>
      <trkpt lat="31.78214740" lon="35.07869270">
        <ele>579.00000</ele>
        <time>2010-01-01T01:45:46Z</time>
      </trkpt>
      <trkpt lat="31.78209890" lon="35.07858060">
        <ele>579.00000</ele>
        <time>2010-01-01T01:45:51Z</time>
      </trkpt>
      <trkpt lat="31.78204120" lon="35.07848600">
        <ele>579.00000</ele>
        <time>2010-01-01T01:45:55Z</time>
      </trkpt>
      <trkpt lat="31.78198600" lon="35.07840300">
        <ele>579.00000</ele>
        <time>2010-01-01T01:45:58Z</time>
      </trkpt>
      <trkpt lat="31.78192720" lon="35.07831470">
        <ele>579.00000</ele>
        <time>2010-01-01T01:46:02Z</time>
      </trkpt>
      <trkpt lat="31.78186250" lon="35.07821890">
        <ele>578.00000</ele>
        <time>2010-01-01T01:46:06Z</time>
      </trkpt>
      <trkpt lat="31.78178530" lon="35.07812980">
        <ele>577.00000</ele>
        <time>2010-01-01T01:46:11Z</time>
      </trkpt>
      <trkpt lat="31.78170340" lon="35.07806100">
        <ele>576.00000</ele>
        <time>2010-01-01T01:46:15Z</time>
      </trkpt>
      <trkpt lat="31.78159900" lon="35.07798460">
        <ele>575.00000</ele>
        <time>2010-01-01T01:46:20Z</time>
      </trkpt>
      <trkpt lat="31.78147880" lon="35.07791960">
        <ele>576.00000</ele>
        <time>2010-01-01T01:46:25Z</time>
      </trkpt>
      <trkpt lat="31.78138340" lon="35.07788040">
        <ele>576.00000</ele>
        <time>2010-01-01T01:46:29Z</time>
      </trkpt>
      <trkpt lat="31.78129210" lon="35.07785210">
        <ele>577.00000</ele>
        <time>2010-01-01T01:46:33Z</time>
      </trkpt>
      <trkpt lat="31.78118340" lon="35.07783500">
        <ele>578.00000</ele>
        <time>2010-01-01T01:46:37Z</time>
      </trkpt>
      <trkpt lat="31.78109280" lon="35.07783400">
        <ele>580.00000</ele>
        <time>2010-01-01T01:46:41Z</time>
      </trkpt>
      <trkpt lat="31.78099480" lon="35.07784970">
        <ele>582.00000</ele>
        <time>2010-01-01T01:46:45Z</time>
      </trkpt>
      <trkpt lat="31.78088670" lon="35.07786450">
        <ele>584.00000</ele>
        <time>2010-01-01T01:46:49Z</time>
      </trkpt>
      <trkpt lat="31.78078090" lon="35.07787960">
        <ele>585.00000</ele>
        <time>2010-01-01T01:46:53Z</time>
      </trkpt>
      <trkpt lat="31.78068880" lon="35.07789270">
        <ele>585.00000</ele>
        <time>2010-01-01T01:46:57Z</time>
      </trkpt>
      <trkpt lat="31.78059540" lon="35.07791030">
        <ele>585.00000</ele>
        <time>2010-01-01T01:47:01Z</time>
      </trkpt>
      <trkpt lat="31.78050290" lon="35.07793200">
        <ele>586.00000</ele>
        <time>2010-01-01T01:47:05Z</time>
      </trkpt>
      <trkpt lat="31.78038670" lon="35.07795880">
        <ele>585.00000</ele>
        <time>2010-01-01T01:47:09Z</time>
      </trkpt>
      <trkpt lat="31.78028820" lon="35.07798960">
        <ele>586.00000</ele>
        <time>2010-01-01T01:47:13Z</time>
      </trkpt>
      <trkpt lat="31.78018730" lon="35.07803400">
        <ele>586.00000</ele>
        <time>2010-01-01T01:47:18Z</time>
      </trkpt>
      <trkpt lat="31.78008530" lon="35.07809300">
        <ele>586.00000</ele>
        <time>2010-01-01T01:47:22Z</time>
      </trkpt>
      <trkpt lat="31.78000230" lon="35.07814340">
        <ele>586.00000</ele>
        <time>2010-01-01T01:47:26Z</time>
      </trkpt>
      <trkpt lat="31.77991250" lon="35.07820500">
        <ele>587.00000</ele>
        <time>2010-01-01T01:47:30Z</time>
      </trkpt>
      <trkpt lat="31.77982820" lon="35.07826940">
        <ele>587.00000</ele>
        <time>2010-01-01T01:47:34Z</time>
      </trkpt>
      <trkpt lat="31.77973420" lon="35.07832490">
        <ele>587.00000</ele>
        <time>2010-01-01T01:47:38Z</time>
      </trkpt>
      <trkpt lat="31.77962830" lon="35.07839800">
        <ele>589.00000</ele>
        <time>2010-01-01T01:47:43Z</time>
      </trkpt>
      <trkpt lat="31.77951160" lon="35.07847560">
        <ele>591.00000</ele>
        <time>2010-01-01T01:47:49Z</time>
      </trkpt>
      <trkpt lat="31.77943210" lon="35.07852980">
        <ele>591.00000</ele>
        <time>2010-01-01T01:47:52Z</time>
      </trkpt>
      <trkpt lat="31.77934060" lon="35.07857700">
        <ele>593.00000</ele>
        <time>2010-01-01T01:47:56Z</time>
      </trkpt>
      <trkpt lat="31.77924020" lon="35.07860460">
        <ele>593.00000</ele>
        <time>2010-01-01T01:48:00Z</time>
      </trkpt>
      <trkpt lat="31.77914810" lon="35.07860040">
        <ele>594.00000</ele>
        <time>2010-01-01T01:48:04Z</time>
      </trkpt>
      <trkpt lat="31.77907280" lon="35.07851570">
        <ele>594.00000</ele>
        <time>2010-01-01T01:48:08Z</time>
      </trkpt>
      <trkpt lat="31.77906880" lon="35.07838890">
        <ele>593.00000</ele>
        <time>2010-01-01T01:48:13Z</time>
      </trkpt>
      <trkpt lat="31.77908980" lon="35.07825590">
        <ele>591.00000</ele>
        <time>2010-01-01T01:48:17Z</time>
      </trkpt>
      <trkpt lat="31.77911300" lon="35.07811390">
        <ele>589.00000</ele>
        <time>2010-01-01T01:48:22Z</time>
      </trkpt>
      <trkpt lat="31.77913380" lon="35.07797020">
        <ele>588.00000</ele>
        <time>2010-01-01T01:48:27Z</time>
      </trkpt>
      <trkpt lat="31.77914500" lon="35.07782570">
        <ele>587.00000</ele>
        <time>2010-01-01T01:48:32Z</time>
      </trkpt>
      <trkpt lat="31.77914550" lon="35.07768910">
        <ele>585.00000</ele>
        <time>2010-01-01T01:48:37Z</time>
      </trkpt>
      <trkpt lat="31.77913880" lon="35.07755410">
        <ele>584.00000</ele>
        <time>2010-01-01T01:48:41Z</time>
      </trkpt>
      <trkpt lat="31.77912220" lon="35.07743120">
        <ele>583.00000</ele>
        <time>2010-01-01T01:48:46Z</time>
      </trkpt>
      <trkpt lat="31.77909230" lon="35.07731360">
        <ele>584.00000</ele>
        <time>2010-01-01T01:48:50Z</time>
      </trkpt>
      <trkpt lat="31.77905470" lon="35.07720060">
        <ele>584.00000</ele>
        <time>2010-01-01T01:48:54Z</time>
      </trkpt>
      <trkpt lat="31.77901170" lon="35.07708900">
        <ele>585.00000</ele>
        <time>2010-01-01T01:48:58Z</time>
      </trkpt>
      <trkpt lat="31.77896680" lon="35.07697850">
        <ele>586.00000</ele>
        <time>2010-01-01T01:49:02Z</time>
      </trkpt>
      <trkpt lat="31.77891940" lon="35.07687150">
        <ele>588.00000</ele>
        <time>2010-01-01T01:49:06Z</time>
      </trkpt>
      <trkpt lat="31.77887990" lon="35.07676520">
        <ele>590.00000</ele>
        <time>2010-01-01T01:49:10Z</time>
      </trkpt>
      <trkpt lat="31.77885280" lon="35.07665610">
        <ele>591.00000</ele>
        <time>2010-01-01T01:49:14Z</time>
      </trkpt>
      <trkpt lat="31.77886140" lon="35.07652670">
        <ele>592.00000</ele>
        <time>2010-01-01T01:49:19Z</time>
      </trkpt>
      <trkpt lat="31.77889740" lon="35.07641010">
        <ele>592.00000</ele>
        <time>2010-01-01T01:49:23Z</time>
      </trkpt>
      <trkpt lat="31.77896450" lon="35.07631480">
        <ele>593.00000</ele>
        <time>2010-01-01T01:49:27Z</time>
      </trkpt>
      <trkpt lat="31.77904590" lon="35.07624370">
        <ele>592.00000</ele>
        <time>2010-01-01T01:49:31Z</time>
      </trkpt>
      <trkpt lat="31.77912700" lon="35.07618420">
        <ele>591.00000</ele>
        <time>2010-01-01T01:49:35Z</time>
      </trkpt>
      <trkpt lat="31.77922670" lon="35.07609420">
        <ele>591.00000</ele>
        <time>2010-01-01T01:49:40Z</time>
      </trkpt>
      <trkpt lat="31.77931870" lon="35.07601640">
        <ele>591.00000</ele>
        <time>2010-01-01T01:49:44Z</time>
      </trkpt>
      <trkpt lat="31.77940250" lon="35.07593690">
        <ele>591.00000</ele>
        <time>2010-01-01T01:49:49Z</time>
      </trkpt>
      <trkpt lat="31.77947530" lon="35.07584850">
        <ele>591.00000</ele>
        <time>2010-01-01T01:49:53Z</time>
      </trkpt>
      <trkpt lat="31.77953610" lon="35.07575590">
        <ele>591.00000</ele>
        <time>2010-01-01T01:49:57Z</time>
      </trkpt>
      <trkpt lat="31.77958840" lon="35.07565750">
        <ele>591.00000</ele>
        <time>2010-01-01T01:50:01Z</time>
      </trkpt>
      <trkpt lat="31.77963530" lon="35.07554250">
        <ele>591.00000</ele>
        <time>2010-01-01T01:50:05Z</time>
      </trkpt>
      <trkpt lat="31.77966610" lon="35.07543060">
        <ele>591.00000</ele>
        <time>2010-01-01T01:50:09Z</time>
      </trkpt>
      <trkpt lat="31.77969730" lon="35.07532440">
        <ele>591.00000</ele>
        <time>2010-01-01T01:50:13Z</time>
      </trkpt>
      <trkpt lat="31.77972250" lon="35.07519200">
        <ele>592.00000</ele>
        <time>2010-01-01T01:50:18Z</time>
      </trkpt>
      <trkpt lat="31.77974060" lon="35.07507090">
        <ele>594.00000</ele>
        <time>2010-01-01T01:50:22Z</time>
      </trkpt>
      <trkpt lat="31.77976590" lon="35.07494430">
        <ele>596.00000</ele>
        <time>2010-01-01T01:50:26Z</time>
      </trkpt>
      <trkpt lat="31.77978630" lon="35.07483180">
        <ele>597.00000</ele>
        <time>2010-01-01T01:50:30Z</time>
      </trkpt>
      <trkpt lat="31.77979870" lon="35.07470520">
        <ele>598.00000</ele>
        <time>2010-01-01T01:50:34Z</time>
      </trkpt>
      <trkpt lat="31.77980040" lon="35.07459130">
        <ele>598.00000</ele>
        <time>2010-01-01T01:50:38Z</time>
      </trkpt>
      <trkpt lat="31.77978920" lon="35.07447140">
        <ele>598.00000</ele>
        <time>2010-01-01T01:50:42Z</time>
      </trkpt>
      <trkpt lat="31.77976120" lon="35.07435820">
        <ele>597.00000</ele>
        <time>2010-01-01T01:50:46Z</time>
      </trkpt>
      <trkpt lat="31.77973180" lon="35.07423920">
        <ele>597.00000</ele>
        <time>2010-01-01T01:50:51Z</time>
      </trkpt>
      <trkpt lat="31.77968860" lon="35.07412960">
        <ele>597.00000</ele>
        <time>2010-01-01T01:50:55Z</time>
      </trkpt>
      <trkpt lat="31.77965770" lon="35.07403370">
        <ele>597.00000</ele>
        <time>2010-01-01T01:50:58Z</time>
      </trkpt>
      <trkpt lat="31.77960970" lon="35.07393090">
        <ele>598.00000</ele>
        <time>2010-01-01T01:51:02Z</time>
      </trkpt>
      <trkpt lat="31.77956200" lon="35.07381400">
        <ele>598.00000</ele>
        <time>2010-01-01T01:51:07Z</time>
      </trkpt>
      <trkpt lat="31.77950390" lon="35.07370440">
        <ele>599.00000</ele>
        <time>2010-01-01T01:51:11Z</time>
      </trkpt>
      <trkpt lat="31.77944750" lon="35.07359640">
        <ele>600.00000</ele>
        <time>2010-01-01T01:51:15Z</time>
      </trkpt>
      <trkpt lat="31.77939210" lon="35.07347810">
        <ele>600.00000</ele>
        <time>2010-01-01T01:51:20Z</time>
      </trkpt>
      <trkpt lat="31.77935110" lon="35.07334970">
        <ele>600.00000</ele>
        <time>2010-01-01T01:51:25Z</time>
      </trkpt>
      <trkpt lat="31.77934190" lon="35.07320100">
        <ele>599.00000</ele>
        <time>2010-01-01T01:51:30Z</time>
      </trkpt>
      <trkpt lat="31.77935330" lon="35.07304670">
        <ele>599.00000</ele>
        <time>2010-01-01T01:51:35Z</time>
      </trkpt>
      <trkpt lat="31.77937190" lon="35.07289900">
        <ele>599.00000</ele>
        <time>2010-01-01T01:51:40Z</time>
      </trkpt>
      <trkpt lat="31.77939320" lon="35.07276570">
        <ele>600.00000</ele>
        <time>2010-01-01T01:51:45Z</time>
      </trkpt>
      <trkpt lat="31.77941920" lon="35.07262030">
        <ele>599.00000</ele>
        <time>2010-01-01T01:51:50Z</time>
      </trkpt>
      <trkpt lat="31.77943920" lon="35.07246210">
        <ele>598.00000</ele>
        <time>2010-01-01T01:51:55Z</time>
      </trkpt>
      <trkpt lat="31.77945410" lon="35.07234840">
        <ele>598.00000</ele>
        <time>2010-01-01T01:51:59Z</time>
      </trkpt>
      <trkpt lat="31.77946460" lon="35.07222990">
        <ele>598.00000</ele>
        <time>2010-01-01T01:52:03Z</time>
      </trkpt>
      <trkpt lat="31.77946760" lon="35.07211220">
        <ele>598.00000</ele>
        <time>2010-01-01T01:52:07Z</time>
      </trkpt>
      <trkpt lat="31.77946760" lon="35.07199380">
        <ele>598.00000</ele>
        <time>2010-01-01T01:52:11Z</time>
      </trkpt>
      <trkpt lat="31.77946170" lon="35.07187580">
        <ele>599.00000</ele>
        <time>2010-01-01T01:52:15Z</time>
      </trkpt>
      <trkpt lat="31.77945440" lon="35.07175890">
        <ele>600.00000</ele>
        <time>2010-01-01T01:52:19Z</time>
      </trkpt>
      <trkpt lat="31.77944640" lon="35.07164400">
        <ele>602.00000</ele>
        <time>2010-01-01T01:52:23Z</time>
      </trkpt>
      <trkpt lat="31.77943390" lon="35.07152880">
        <ele>603.00000</ele>
        <time>2010-01-01T01:52:27Z</time>
      </trkpt>
      <trkpt lat="31.77943070" lon="35.07140640">
        <ele>604.00000</ele>
        <time>2010-01-01T01:52:31Z</time>
      </trkpt>
      <trkpt lat="31.77944750" lon="35.07128680">
        <ele>605.00000</ele>
        <time>2010-01-01T01:52:35Z</time>
      </trkpt>
      <trkpt lat="31.77948050" lon="35.07117770">
        <ele>605.00000</ele>
        <time>2010-01-01T01:52:39Z</time>
      </trkpt>
      <trkpt lat="31.77953040" lon="35.07103610">
        <ele>605.00000</ele>
        <time>2010-01-01T01:52:45Z</time>
      </trkpt>
      <trkpt lat="31.77957530" lon="35.07092500">
        <ele>605.00000</ele>
        <time>2010-01-01T01:52:49Z</time>
      </trkpt>
      <trkpt lat="31.77962110" lon="35.07083370">
        <ele>605.00000</ele>
        <time>2010-01-01T01:52:52Z</time>
      </trkpt>
      <trkpt lat="31.77969180" lon="35.07073070">
        <ele>604.00000</ele>
        <time>2010-01-01T01:52:57Z</time>
      </trkpt>
      <trkpt lat="31.77974910" lon="35.07062970">
        <ele>604.00000</ele>
        <time>2010-01-01T01:53:01Z</time>
      </trkpt>
      <trkpt lat="31.77982050" lon="35.07052040">
        <ele>604.00000</ele>
        <time>2010-01-01T01:53:06Z</time>
      </trkpt>
      <trkpt lat="31.77987790" lon="35.07043480">
        <ele>603.00000</ele>
        <time>2010-01-01T01:53:09Z</time>
      </trkpt>
      <trkpt lat="31.77993440" lon="35.07035230">
        <ele>603.00000</ele>
        <time>2010-01-01T01:53:13Z</time>
      </trkpt>
      <trkpt lat="31.77999020" lon="35.07023980">
        <ele>603.00000</ele>
        <time>2010-01-01T01:53:17Z</time>
      </trkpt>
      <trkpt lat="31.78005160" lon="35.07012410">
        <ele>603.00000</ele>
        <time>2010-01-01T01:53:22Z</time>
      </trkpt>
      <trkpt lat="31.78010210" lon="35.07003230">
        <ele>603.00000</ele>
        <time>2010-01-01T01:53:26Z</time>
      </trkpt>
      <trkpt lat="31.78014320" lon="35.06992670">
        <ele>603.00000</ele>
        <time>2010-01-01T01:53:30Z</time>
      </trkpt>
      <trkpt lat="31.78017950" lon="35.06981270">
        <ele>604.00000</ele>
        <time>2010-01-01T01:53:34Z</time>
      </trkpt>
      <trkpt lat="31.78020710" lon="35.06969510">
        <ele>605.00000</ele>
        <time>2010-01-01T01:53:38Z</time>
      </trkpt>
      <trkpt lat="31.78022940" lon="35.06958370">
        <ele>606.00000</ele>
        <time>2010-01-01T01:53:42Z</time>
      </trkpt>
      <trkpt lat="31.78025510" lon="35.06946720">
        <ele>607.00000</ele>
        <time>2010-01-01T01:53:46Z</time>
      </trkpt>
      <trkpt lat="31.78027710" lon="35.06934170">
        <ele>607.00000</ele>
        <time>2010-01-01T01:53:50Z</time>
      </trkpt>
      <trkpt lat="31.78029650" lon="35.06921310">
        <ele>607.00000</ele>
        <time>2010-01-01T01:53:55Z</time>
      </trkpt>
      <trkpt lat="31.78031570" lon="35.06908410">
        <ele>606.00000</ele>
        <time>2010-01-01T01:53:59Z</time>
      </trkpt>
      <trkpt lat="31.78033050" lon="35.06897770">
        <ele>606.00000</ele>
        <time>2010-01-01T01:54:03Z</time>
      </trkpt>
      <trkpt lat="31.78034420" lon="35.06885030">
        <ele>606.00000</ele>
        <time>2010-01-01T01:54:07Z</time>
      </trkpt>
      <trkpt lat="31.78035540" lon="35.06872970">
        <ele>607.00000</ele>
        <time>2010-01-01T01:54:11Z</time>
      </trkpt>
      <trkpt lat="31.78035450" lon="35.06860820">
        <ele>608.00000</ele>
        <time>2010-01-01T01:54:16Z</time>
      </trkpt>
      <trkpt lat="31.78034470" lon="35.06847210">
        <ele>609.00000</ele>
        <time>2010-01-01T01:54:20Z</time>
      </trkpt>
      <trkpt lat="31.78032870" lon="35.06834990">
        <ele>609.00000</ele>
        <time>2010-01-01T01:54:24Z</time>
      </trkpt>
      <trkpt lat="31.78030560" lon="35.06823240">
        <ele>610.00000</ele>
        <time>2010-01-01T01:54:29Z</time>
      </trkpt>
      <trkpt lat="31.78027680" lon="35.06811870">
        <ele>612.00000</ele>
        <time>2010-01-01T01:54:33Z</time>
      </trkpt>
      <trkpt lat="31.78023910" lon="35.06801780">
        <ele>613.00000</ele>
        <time>2010-01-01T01:54:36Z</time>
      </trkpt>
      <trkpt lat="31.78019790" lon="35.06792040">
        <ele>614.00000</ele>
        <time>2010-01-01T01:54:40Z</time>
      </trkpt>
      <trkpt lat="31.78015470" lon="35.06780280">
        <ele>616.00000</ele>
        <time>2010-01-01T01:54:44Z</time>
      </trkpt>
      <trkpt lat="31.78013490" lon="35.06769070">
        <ele>618.00000</ele>
        <time>2010-01-01T01:54:48Z</time>
      </trkpt>
      <trkpt lat="31.78014390" lon="35.06757490">
        <ele>619.00000</ele>
        <time>2010-01-01T01:54:52Z</time>
      </trkpt>
      <trkpt lat="31.78016360" lon="35.06745390">
        <ele>620.00000</ele>
        <time>2010-01-01T01:54:56Z</time>
      </trkpt>
      <trkpt lat="31.78020170" lon="35.06734810">
        <ele>620.00000</ele>
        <time>2010-01-01T01:55:00Z</time>
      </trkpt>
      <trkpt lat="31.78027360" lon="35.06722730">
        <ele>620.00000</ele>
        <time>2010-01-01T01:55:05Z</time>
      </trkpt>
      <trkpt lat="31.78033800" lon="35.06713470">
        <ele>620.00000</ele>
        <time>2010-01-01T01:55:09Z</time>
      </trkpt>
      <trkpt lat="31.78041150" lon="35.06703980">
        <ele>621.00000</ele>
        <time>2010-01-01T01:55:14Z</time>
      </trkpt>
      <trkpt lat="31.78048020" lon="35.06694090">
        <ele>622.00000</ele>
        <time>2010-01-01T01:55:18Z</time>
      </trkpt>
      <trkpt lat="31.78055250" lon="35.06684430">
        <ele>622.00000</ele>
        <time>2010-01-01T01:55:23Z</time>
      </trkpt>
      <trkpt lat="31.78060680" lon="35.06676150">
        <ele>622.00000</ele>
        <time>2010-01-01T01:55:26Z</time>
      </trkpt>
      <trkpt lat="31.78067000" lon="35.06667580">
        <ele>620.00000</ele>
        <time>2010-01-01T01:55:30Z</time>
      </trkpt>
      <trkpt lat="31.78073130" lon="35.06658770">
        <ele>619.00000</ele>
        <time>2010-01-01T01:55:34Z</time>
      </trkpt>
      <trkpt lat="31.78078860" lon="35.06648440">
        <ele>619.00000</ele>
        <time>2010-01-01T01:55:38Z</time>
      </trkpt>
      <trkpt lat="31.78084680" lon="35.06637640">
        <ele>618.00000</ele>
        <time>2010-01-01T01:55:42Z</time>
      </trkpt>
      <trkpt lat="31.78089960" lon="35.06627560">
        <ele>618.00000</ele>
        <time>2010-01-01T01:55:46Z</time>
      </trkpt>
      <trkpt lat="31.78096110" lon="35.06616510">
        <ele>617.00000</ele>
        <time>2010-01-01T01:55:51Z</time>
      </trkpt>
      <trkpt lat="31.78100330" lon="35.06603830">
        <ele>617.00000</ele>
        <time>2010-01-01T01:55:56Z</time>
      </trkpt>
      <trkpt lat="31.78103230" lon="35.06588100">
        <ele>616.00000</ele>
        <time>2010-01-01T01:56:01Z</time>
      </trkpt>
      <trkpt lat="31.78105100" lon="35.06576240">
        <ele>615.00000</ele>
        <time>2010-01-01T01:56:05Z</time>
      </trkpt>
      <trkpt lat="31.78106140" lon="35.06562070">
        <ele>615.00000</ele>
        <time>2010-01-01T01:56:10Z</time>
      </trkpt>
      <trkpt lat="31.78106870" lon="35.06546230">
        <ele>615.00000</ele>
        <time>2010-01-01T01:56:15Z</time>
      </trkpt>
      <trkpt lat="31.78107150" lon="35.06528620">
        <ele>615.00000</ele>
        <time>2010-01-01T01:56:21Z</time>
      </trkpt>
      <trkpt lat="31.78107090" lon="35.06510350">
        <ele>615.00000</ele>
        <time>2010-01-01T01:56:28Z</time>
      </trkpt>
      <trkpt lat="31.78106520" lon="35.06491550">
        <ele>615.00000</ele>
        <time>2010-01-01T01:56:34Z</time>
      </trkpt>
      <trkpt lat="31.78106090" lon="35.06472840">
        <ele>615.00000</ele>
        <time>2010-01-01T01:56:40Z</time>
      </trkpt>
      <trkpt lat="31.78105390" lon="35.06454090">
        <ele>615.00000</ele>
        <time>2010-01-01T01:56:47Z</time>
      </trkpt>
      <trkpt lat="31.78104710" lon="35.06435630">
        <ele>613.00000</ele>
        <time>2010-01-01T01:56:53Z</time>
      </trkpt>
      <trkpt lat="31.78104020" lon="35.06416680">
        <ele>611.00000</ele>
        <time>2010-01-01T01:56:59Z</time>
      </trkpt>
      <trkpt lat="31.78103170" lon="35.06398440">
        <ele>610.00000</ele>
        <time>2010-01-01T01:57:06Z</time>
      </trkpt>
      <trkpt lat="31.78100830" lon="35.06382290">
        <ele>609.00000</ele>
        <time>2010-01-01T01:57:11Z</time>
      </trkpt>
      <trkpt lat="31.78096490" lon="35.06371470">
        <ele>607.00000</ele>
        <time>2010-01-01T01:57:15Z</time>
      </trkpt>
      <trkpt lat="31.78086590" lon="35.06365460">
        <ele>606.00000</ele>
        <time>2010-01-01T01:57:20Z</time>
      </trkpt>
      <trkpt lat="31.78076580" lon="35.06366860">
        <ele>607.00000</ele>
        <time>2010-01-01T01:57:24Z</time>
      </trkpt>
      <trkpt lat="31.78068040" lon="35.06370140">
        <ele>608.00000</ele>
        <time>2010-01-01T01:57:27Z</time>
      </trkpt>
      <trkpt lat="31.78059490" lon="35.06373610">
        <ele>609.00000</ele>
        <time>2010-01-01T01:57:31Z</time>
      </trkpt>
      <trkpt lat="31.78048350" lon="35.06379450">
        <ele>610.00000</ele>
        <time>2010-01-01T01:57:36Z</time>
      </trkpt>
      <trkpt lat="31.78039010" lon="35.06384100">
        <ele>611.00000</ele>
        <time>2010-01-01T01:57:40Z</time>
      </trkpt>
      <trkpt lat="31.78029370" lon="35.06389320">
        <ele>612.00000</ele>
        <time>2010-01-01T01:57:44Z</time>
      </trkpt>
      <trkpt lat="31.78018880" lon="35.06396680">
        <ele>612.00000</ele>
        <time>2010-01-01T01:57:49Z</time>
      </trkpt>
      <trkpt lat="31.78010850" lon="35.06402320">
        <ele>612.00000</ele>
        <time>2010-01-01T01:57:53Z</time>
      </trkpt>
      <trkpt lat="31.78002260" lon="35.06407920">
        <ele>612.00000</ele>
        <time>2010-01-01T01:57:57Z</time>
      </trkpt>
      <trkpt lat="31.77993440" lon="35.06413850">
        <ele>613.00000</ele>
        <time>2010-01-01T01:58:01Z</time>
      </trkpt>
      <trkpt lat="31.77984660" lon="35.06420240">
        <ele>614.00000</ele>
        <time>2010-01-01T01:58:05Z</time>
      </trkpt>
      <trkpt lat="31.77975340" lon="35.06426590">
        <ele>615.00000</ele>
        <time>2010-01-01T01:58:09Z</time>
      </trkpt>
      <trkpt lat="31.77965020" lon="35.06432900">
        <ele>615.00000</ele>
        <time>2010-01-01T01:58:14Z</time>
      </trkpt>
      <trkpt lat="31.77954390" lon="35.06439280">
        <ele>616.00000</ele>
        <time>2010-01-01T01:58:19Z</time>
      </trkpt>
      <trkpt lat="31.77943840" lon="35.06445440">
        <ele>616.00000</ele>
        <time>2010-01-01T01:58:23Z</time>
      </trkpt>
      <trkpt lat="31.77933540" lon="35.06451130">
        <ele>617.00000</ele>
        <time>2010-01-01T01:58:28Z</time>
      </trkpt>
      <trkpt lat="31.77924340" lon="35.06455830">
        <ele>618.00000</ele>
        <time>2010-01-01T01:58:32Z</time>
      </trkpt>
      <trkpt lat="31.77912680" lon="35.06458150">
        <ele>618.00000</ele>
        <time>2010-01-01T01:58:37Z</time>
      </trkpt>
      <trkpt lat="31.77903850" lon="35.06452940">
        <ele>618.00000</ele>
        <time>2010-01-01T01:58:41Z</time>
      </trkpt>
      <trkpt lat="31.77897440" lon="35.06440830">
        <ele>617.00000</ele>
        <time>2010-01-01T01:58:46Z</time>
      </trkpt>
      <trkpt lat="31.77896000" lon="35.06429280">
        <ele>616.00000</ele>
        <time>2010-01-01T01:58:50Z</time>
      </trkpt>
      <trkpt lat="31.77896680" lon="35.06414270">
        <ele>614.00000</ele>
        <time>2010-01-01T01:58:55Z</time>
      </trkpt>
      <trkpt lat="31.77899870" lon="35.06397640">
        <ele>612.00000</ele>
        <time>2010-01-01T01:59:00Z</time>
      </trkpt>
      <trkpt lat="31.77904920" lon="35.06379720">
        <ele>611.00000</ele>
        <time>2010-01-01T01:59:07Z</time>
      </trkpt>
      <trkpt lat="31.77911770" lon="35.06361490">
        <ele>608.00000</ele>
        <time>2010-01-01T01:59:14Z</time>
      </trkpt>
      <trkpt lat="31.77919250" lon="35.06343520">
        <ele>608.00000</ele>
        <time>2010-01-01T01:59:20Z</time>
      </trkpt>
      <trkpt lat="31.77926210" lon="35.06326200">
        <ele>606.00000</ele>
        <time>2010-01-01T01:59:27Z</time>
      </trkpt>
      <trkpt lat="31.77932700" lon="35.06309520">
        <ele>605.00000</ele>
        <time>2010-01-01T01:59:33Z</time>
      </trkpt>
      <trkpt lat="31.77938690" lon="35.06293450">
        <ele>605.00000</ele>
        <time>2010-01-01T01:59:39Z</time>
      </trkpt>
      <trkpt lat="31.77944220" lon="35.06278750">
        <ele>604.00000</ele>
        <time>2010-01-01T01:59:45Z</time>
      </trkpt>
      <trkpt lat="31.77951870" lon="35.06265390">
        <ele>603.00000</ele>
        <time>2010-01-01T01:59:50Z</time>
      </trkpt>
      <trkpt lat="31.77959770" lon="35.06252160">
        <ele>602.00000</ele>
        <time>2010-01-01T01:59:56Z</time>
      </trkpt>
      <trkpt lat="31.77966820" lon="35.06237790">
        <ele>603.00000</ele>
        <time>2010-01-01T02:00:01Z</time>
      </trkpt>
      <trkpt lat="31.77974070" lon="35.06223740">
        <ele>603.00000</ele>
        <time>2010-01-01T02:00:07Z</time>
      </trkpt>
      <trkpt lat="31.77981240" lon="35.06209300">
        <ele>601.00000</ele>
        <time>2010-01-01T02:00:13Z</time>
      </trkpt>
      <trkpt lat="31.77988200" lon="35.06194490">
        <ele>599.00000</ele>
        <time>2010-01-01T02:00:18Z</time>
      </trkpt>
      <trkpt lat="31.77994700" lon="35.06178880">
        <ele>597.00000</ele>
        <time>2010-01-01T02:00:24Z</time>
      </trkpt>
      <trkpt lat="31.78001100" lon="35.06162410">
        <ele>596.00000</ele>
        <time>2010-01-01T02:00:30Z</time>
      </trkpt>
      <trkpt lat="31.78007840" lon="35.06145300">
        <ele>595.00000</ele>
        <time>2010-01-01T02:00:37Z</time>
      </trkpt>
      <trkpt lat="31.78013880" lon="35.06127240">
        <ele>595.00000</ele>
        <time>2010-01-01T02:00:43Z</time>
      </trkpt>
      <trkpt lat="31.78019120" lon="35.06109270">
        <ele>596.00000</ele>
        <time>2010-01-01T02:00:50Z</time>
      </trkpt>
      <trkpt lat="31.78023290" lon="35.06091770">
        <ele>596.00000</ele>
        <time>2010-01-01T02:00:56Z</time>
      </trkpt>
      <trkpt lat="31.78026120" lon="35.06076570">
        <ele>597.00000</ele>
        <time>2010-01-01T02:01:01Z</time>
      </trkpt>
      <trkpt lat="31.78028020" lon="35.06064220">
        <ele>596.00000</ele>
        <time>2010-01-01T02:01:06Z</time>
      </trkpt>
      <trkpt lat="31.78029540" lon="35.06049130">
        <ele>596.00000</ele>
        <time>2010-01-01T02:01:11Z</time>
      </trkpt>
      <trkpt lat="31.78030780" lon="35.06036270">
        <ele>596.00000</ele>
        <time>2010-01-01T02:01:15Z</time>
      </trkpt>
      <trkpt lat="31.78031960" lon="35.06024010">
        <ele>596.00000</ele>
        <time>2010-01-01T02:01:19Z</time>
      </trkpt>
      <trkpt lat="31.78032820" lon="35.06010850">
        <ele>596.00000</ele>
        <time>2010-01-01T02:01:24Z</time>
      </trkpt>
      <trkpt lat="31.78034720" lon="35.05996230">
        <ele>595.00000</ele>
        <time>2010-01-01T02:01:29Z</time>
      </trkpt>
      <trkpt lat="31.78036520" lon="35.05985810">
        <ele>594.00000</ele>
        <time>2010-01-01T02:01:33Z</time>
      </trkpt>
      <trkpt lat="31.78038270" lon="35.05974590">
        <ele>594.00000</ele>
        <time>2010-01-01T02:01:36Z</time>
      </trkpt>
      <trkpt lat="31.78039850" lon="35.05962250">
        <ele>593.00000</ele>
        <time>2010-01-01T02:01:41Z</time>
      </trkpt>
      <trkpt lat="31.78040940" lon="35.05948130">
        <ele>593.00000</ele>
        <time>2010-01-01T02:01:46Z</time>
      </trkpt>
      <trkpt lat="31.78041800" lon="35.05932180">
        <ele>592.00000</ele>
        <time>2010-01-01T02:01:51Z</time>
      </trkpt>
      <trkpt lat="31.78041500" lon="35.05914020">
        <ele>591.00000</ele>
        <time>2010-01-01T02:01:57Z</time>
      </trkpt>
      <trkpt lat="31.78040060" lon="35.05894440">
        <ele>589.00000</ele>
        <time>2010-01-01T02:02:04Z</time>
      </trkpt>
      <trkpt lat="31.78037920" lon="35.05875390">
        <ele>589.00000</ele>
        <time>2010-01-01T02:02:10Z</time>
      </trkpt>
      <trkpt lat="31.78034030" lon="35.05856120">
        <ele>588.00000</ele>
        <time>2010-01-01T02:02:17Z</time>
      </trkpt>
      <trkpt lat="31.78028100" lon="35.05838440">
        <ele>587.00000</ele>
        <time>2010-01-01T02:02:24Z</time>
      </trkpt>
      <trkpt lat="31.78020420" lon="35.05824540">
        <ele>585.00000</ele>
        <time>2010-01-01T02:02:29Z</time>
      </trkpt>
      <trkpt lat="31.78010070" lon="35.05815210">
        <ele>584.00000</ele>
        <time>2010-01-01T02:02:34Z</time>
      </trkpt>
      <trkpt lat="31.77998560" lon="35.05809240">
        <ele>584.00000</ele>
        <time>2010-01-01T02:02:39Z</time>
      </trkpt>
      <trkpt lat="31.77987480" lon="35.05807310">
        <ele>584.00000</ele>
        <time>2010-01-01T02:02:44Z</time>
      </trkpt>
      <trkpt lat="31.77976100" lon="35.05808540">
        <ele>585.00000</ele>
        <time>2010-01-01T02:02:49Z</time>
      </trkpt>
      <trkpt lat="31.77964420" lon="35.05811030">
        <ele>586.00000</ele>
        <time>2010-01-01T02:02:53Z</time>
      </trkpt>
      <trkpt lat="31.77952360" lon="35.05814210">
        <ele>587.00000</ele>
        <time>2010-01-01T02:02:58Z</time>
      </trkpt>
      <trkpt lat="31.77940120" lon="35.05817440">
        <ele>588.00000</ele>
        <time>2010-01-01T02:03:03Z</time>
      </trkpt>
      <trkpt lat="31.77928030" lon="35.05819580">
        <ele>589.00000</ele>
        <time>2010-01-01T02:03:08Z</time>
      </trkpt>
      <trkpt lat="31.77916710" lon="35.05818780">
        <ele>589.00000</ele>
        <time>2010-01-01T02:03:13Z</time>
      </trkpt>
      <trkpt lat="31.77907760" lon="35.05812950">
        <ele>590.00000</ele>
        <time>2010-01-01T02:03:17Z</time>
      </trkpt>
      <trkpt lat="31.77902670" lon="35.05802010">
        <ele>590.00000</ele>
        <time>2010-01-01T02:03:21Z</time>
      </trkpt>
      <trkpt lat="31.77902660" lon="35.05788570">
        <ele>589.00000</ele>
        <time>2010-01-01T02:03:26Z</time>
      </trkpt>
      <trkpt lat="31.77906650" lon="35.05774310">
        <ele>587.00000</ele>
        <time>2010-01-01T02:03:31Z</time>
      </trkpt>
      <trkpt lat="31.77913400" lon="35.05759410">
        <ele>586.00000</ele>
        <time>2010-01-01T02:03:36Z</time>
      </trkpt>
      <trkpt lat="31.77920980" lon="35.05744040">
        <ele>585.00000</ele>
        <time>2010-01-01T02:03:42Z</time>
      </trkpt>
      <trkpt lat="31.77929140" lon="35.05727980">
        <ele>583.00000</ele>
        <time>2010-01-01T02:03:49Z</time>
      </trkpt>
      <trkpt lat="31.77937130" lon="35.05712050">
        <ele>582.00000</ele>
        <time>2010-01-01T02:03:55Z</time>
      </trkpt>
      <trkpt lat="31.77944620" lon="35.05696970">
        <ele>581.00000</ele>
        <time>2010-01-01T02:04:01Z</time>
      </trkpt>
      <trkpt lat="31.77951710" lon="35.05682480">
        <ele>582.00000</ele>
        <time>2010-01-01T02:04:07Z</time>
      </trkpt>
      <trkpt lat="31.77958250" lon="35.05668690">
        <ele>582.00000</ele>
        <time>2010-01-01T02:04:12Z</time>
      </trkpt>
      <trkpt lat="31.77964020" lon="35.05655690">
        <ele>583.00000</ele>
        <time>2010-01-01T02:04:17Z</time>
      </trkpt>
      <trkpt lat="31.77969340" lon="35.05643630">
        <ele>583.00000</ele>
        <time>2010-01-01T02:04:22Z</time>
      </trkpt>
      <trkpt lat="31.77974790" lon="35.05632540">
        <ele>584.00000</ele>
        <time>2010-01-01T02:04:26Z</time>
      </trkpt>
      <trkpt lat="31.77980080" lon="35.05622020">
        <ele>584.00000</ele>
        <time>2010-01-01T02:04:30Z</time>
      </trkpt>
      <trkpt lat="31.77984500" lon="35.05611580">
        <ele>585.00000</ele>
        <time>2010-01-01T02:04:34Z</time>
      </trkpt>
      <trkpt lat="31.77988980" lon="35.05601090">
        <ele>585.00000</ele>
        <time>2010-01-01T02:04:38Z</time>
      </trkpt>
      <trkpt lat="31.77993300" lon="35.05590850">
        <ele>586.00000</ele>
        <time>2010-01-01T02:04:42Z</time>
      </trkpt>
      <trkpt lat="31.77997430" lon="35.05580910">
        <ele>586.00000</ele>
        <time>2010-01-01T02:04:46Z</time>
      </trkpt>
      <trkpt lat="31.78002540" lon="35.05566910">
        <ele>586.00000</ele>
        <time>2010-01-01T02:04:51Z</time>
      </trkpt>
      <trkpt lat="31.78007570" lon="35.05554550">
        <ele>587.00000</ele>
        <time>2010-01-01T02:04:56Z</time>
      </trkpt>
      <trkpt lat="31.78012820" lon="35.05544200">
        <ele>588.00000</ele>
        <time>2010-01-01T02:05:00Z</time>
      </trkpt>
      <trkpt lat="31.78018500" lon="35.05532880">
        <ele>588.00000</ele>
        <time>2010-01-01T02:05:04Z</time>
      </trkpt>
      <trkpt lat="31.78020500" lon="35.05520960">
        <ele>590.00000</ele>
        <time>2010-01-01T02:05:08Z</time>
      </trkpt>
      <trkpt lat="31.78019280" lon="35.05510540">
        <ele>590.00000</ele>
        <time>2010-01-01T02:05:12Z</time>
      </trkpt>
      <trkpt lat="31.78019710" lon="35.05498920">
        <ele>591.00000</ele>
        <time>2010-01-01T02:05:16Z</time>
      </trkpt>
      <trkpt lat="31.78024050" lon="35.05489200">
        <ele>592.00000</ele>
        <time>2010-01-01T02:05:20Z</time>
      </trkpt>
      <trkpt lat="31.78033130" lon="35.05487760">
        <ele>592.00000</ele>
        <time>2010-01-01T02:05:23Z</time>
      </trkpt>
      <trkpt lat="31.78042480" lon="35.05483650">
        <ele>593.00000</ele>
        <time>2010-01-01T02:05:27Z</time>
      </trkpt>
      <trkpt lat="31.78043620" lon="35.05476950">
        <ele>594.00000</ele>
        <time>2010-01-01T02:05:30Z</time>
      </trkpt>
      <trkpt lat="31.78035300" lon="35.05478020">
        <ele>593.00000</ele>
        <time>2010-01-01T02:05:33Z</time>
      </trkpt>
      <trkpt lat="31.78024870" lon="35.05476090">
        <ele>592.00000</ele>
        <time>2010-01-01T02:05:37Z</time>
      </trkpt>
      <trkpt lat="31.78019350" lon="35.05488990">
        <ele>591.00000</ele>
        <time>2010-01-01T02:05:42Z</time>
      </trkpt>
      <trkpt lat="31.78012870" lon="35.05496950">
        <ele>590.00000</ele>
        <time>2010-01-01T02:05:46Z</time>
      </trkpt>
      <trkpt lat="31.78003140" lon="35.05496860">
        <ele>590.00000</ele>
        <time>2010-01-01T02:05:50Z</time>
      </trkpt>
      <trkpt lat="31.77996120" lon="35.05488680">
        <ele>589.00000</ele>
        <time>2010-01-01T02:05:54Z</time>
      </trkpt>
      <trkpt lat="31.77990580" lon="35.05475210">
        <ele>587.00000</ele>
        <time>2010-01-01T02:05:59Z</time>
      </trkpt>
      <trkpt lat="31.77986520" lon="35.05464580">
        <ele>586.00000</ele>
        <time>2010-01-01T02:06:03Z</time>
      </trkpt>
      <trkpt lat="31.77979390" lon="35.05451900">
        <ele>584.00000</ele>
        <time>2010-01-01T02:06:08Z</time>
      </trkpt>
      <trkpt lat="31.77972290" lon="35.05438640">
        <ele>582.00000</ele>
        <time>2010-01-01T02:06:13Z</time>
      </trkpt>
      <trkpt lat="31.77967070" lon="35.05427970">
        <ele>582.00000</ele>
        <time>2010-01-01T02:06:18Z</time>
      </trkpt>
      <trkpt lat="31.77961350" lon="35.05415910">
        <ele>581.00000</ele>
        <time>2010-01-01T02:06:22Z</time>
      </trkpt>
      <trkpt lat="31.77955590" lon="35.05402670">
        <ele>579.00000</ele>
        <time>2010-01-01T02:06:27Z</time>
      </trkpt>
      <trkpt lat="31.77949670" lon="35.05389520">
        <ele>577.00000</ele>
        <time>2010-01-01T02:06:32Z</time>
      </trkpt>
      <trkpt lat="31.77943870" lon="35.05377580">
        <ele>575.00000</ele>
        <time>2010-01-01T02:06:37Z</time>
      </trkpt>
      <trkpt lat="31.77938900" lon="35.05367570">
        <ele>574.00000</ele>
        <time>2010-01-01T02:06:41Z</time>
      </trkpt>
      <trkpt lat="31.77933740" lon="35.05356120">
        <ele>573.00000</ele>
        <time>2010-01-01T02:06:45Z</time>
      </trkpt>
      <trkpt lat="31.77927210" lon="35.05344640">
        <ele>571.00000</ele>
        <time>2010-01-01T02:06:50Z</time>
      </trkpt>
      <trkpt lat="31.77920550" lon="35.05336570">
        <ele>569.00000</ele>
        <time>2010-01-01T02:06:54Z</time>
      </trkpt>
      <trkpt lat="31.77913540" lon="35.05327140">
        <ele>567.00000</ele>
        <time>2010-01-01T02:06:58Z</time>
      </trkpt>
      <trkpt lat="31.77907070" lon="35.05318670">
        <ele>566.00000</ele>
        <time>2010-01-01T02:07:02Z</time>
      </trkpt>
      <trkpt lat="31.77900310" lon="35.05308210">
        <ele>564.00000</ele>
        <time>2010-01-01T02:07:07Z</time>
      </trkpt>
      <trkpt lat="31.77893040" lon="35.05299490">
        <ele>562.00000</ele>
        <time>2010-01-01T02:07:11Z</time>
      </trkpt>
      <trkpt lat="31.77885690" lon="35.05290280">
        <ele>560.00000</ele>
        <time>2010-01-01T02:07:15Z</time>
      </trkpt>
      <trkpt lat="31.77879970" lon="35.05281840">
        <ele>559.00000</ele>
        <time>2010-01-01T02:07:19Z</time>
      </trkpt>
      <trkpt lat="31.77873440" lon="35.05271840">
        <ele>558.00000</ele>
        <time>2010-01-01T02:07:23Z</time>
      </trkpt>
      <trkpt lat="31.77865030" lon="35.05270180">
        <ele>557.00000</ele>
        <time>2010-01-01T02:07:26Z</time>
      </trkpt>
      <trkpt lat="31.77854370" lon="35.05272160">
        <ele>556.00000</ele>
        <time>2010-01-01T02:07:31Z</time>
      </trkpt>
      <trkpt lat="31.77845310" lon="35.05267990">
        <ele>555.00000</ele>
        <time>2010-01-01T02:07:35Z</time>
      </trkpt>
      <trkpt lat="31.77835910" lon="35.05262480">
        <ele>552.00000</ele>
        <time>2010-01-01T02:07:39Z</time>
      </trkpt>
      <trkpt lat="31.77824920" lon="35.05254140">
        <ele>550.00000</ele>
        <time>2010-01-01T02:07:44Z</time>
      </trkpt>
      <trkpt lat="31.77815860" lon="35.05249410">
        <ele>550.00000</ele>
        <time>2010-01-01T02:07:48Z</time>
      </trkpt>
      <trkpt lat="31.77807070" lon="35.05244290">
        <ele>549.00000</ele>
        <time>2010-01-01T02:07:52Z</time>
      </trkpt>
      <trkpt lat="31.77795590" lon="35.05237320">
        <ele>549.00000</ele>
        <time>2010-01-01T02:07:57Z</time>
      </trkpt>
      <trkpt lat="31.77785610" lon="35.05234440">
        <ele>550.00000</ele>
        <time>2010-01-01T02:08:01Z</time>
      </trkpt>
      <trkpt lat="31.77776110" lon="35.05230880">
        <ele>550.00000</ele>
        <time>2010-01-01T02:08:05Z</time>
      </trkpt>
      <trkpt lat="31.77766420" lon="35.05224950">
        <ele>550.00000</ele>
        <time>2010-01-01T02:08:10Z</time>
      </trkpt>
      <trkpt lat="31.77757640" lon="35.05221080">
        <ele>550.00000</ele>
        <time>2010-01-01T02:08:13Z</time>
      </trkpt>
      <trkpt lat="31.77748310" lon="35.05219460">
        <ele>551.00000</ele>
        <time>2010-01-01T02:08:17Z</time>
      </trkpt>
      <trkpt lat="31.77737890" lon="35.05215700">
        <ele>550.00000</ele>
        <time>2010-01-01T02:08:21Z</time>
      </trkpt>
      <trkpt lat="31.77731270" lon="35.05216290">
        <ele>551.00000</ele>
        <time>2010-01-01T02:08:24Z</time>
      </trkpt>
      <trkpt lat="31.77724080" lon="35.05213030">
        <ele>550.00000</ele>
        <time>2010-01-01T02:08:27Z</time>
      </trkpt>
      <trkpt lat="31.77715240" lon="35.05206950">
        <ele>548.00000</ele>
        <time>2010-01-01T02:08:31Z</time>
      </trkpt>
      <trkpt lat="31.77704130" lon="35.05202830">
        <ele>547.00000</ele>
        <time>2010-01-01T02:08:36Z</time>
      </trkpt>
      <trkpt lat="31.77692720" lon="35.05202840">
        <ele>546.00000</ele>
        <time>2010-01-01T02:08:41Z</time>
      </trkpt>
      <trkpt lat="31.77682040" lon="35.05203310">
        <ele>545.00000</ele>
        <time>2010-01-01T02:08:45Z</time>
      </trkpt>
      <trkpt lat="31.77671310" lon="35.05207890">
        <ele>545.00000</ele>
        <time>2010-01-01T02:08:49Z</time>
      </trkpt>
      <trkpt lat="31.77662450" lon="35.05215250">
        <ele>546.00000</ele>
        <time>2010-01-01T02:08:54Z</time>
      </trkpt>
      <trkpt lat="31.77654420" lon="35.05223890">
        <ele>547.00000</ele>
        <time>2010-01-01T02:08:58Z</time>
      </trkpt>
      <trkpt lat="31.77648010" lon="35.05233130">
        <ele>547.00000</ele>
        <time>2010-01-01T02:09:02Z</time>
      </trkpt>
      <trkpt lat="31.77640780" lon="35.05241100">
        <ele>547.00000</ele>
        <time>2010-01-01T02:09:06Z</time>
      </trkpt>
      <trkpt lat="31.77632220" lon="35.05249200">
        <ele>546.00000</ele>
        <time>2010-01-01T02:09:11Z</time>
      </trkpt>
      <trkpt lat="31.77625240" lon="35.05257410">
        <ele>546.00000</ele>
        <time>2010-01-01T02:09:14Z</time>
      </trkpt>
      <trkpt lat="31.77617940" lon="35.05267290">
        <ele>547.00000</ele>
        <time>2010-01-01T02:09:19Z</time>
      </trkpt>
      <trkpt lat="31.77610400" lon="35.05278020">
        <ele>547.00000</ele>
        <time>2010-01-01T02:09:24Z</time>
      </trkpt>
      <trkpt lat="31.77603880" lon="35.05288460">
        <ele>549.00000</ele>
        <time>2010-01-01T02:09:28Z</time>
      </trkpt>
      <trkpt lat="31.77598140" lon="35.05299870">
        <ele>550.00000</ele>
        <time>2010-01-01T02:09:33Z</time>
      </trkpt>
      <trkpt lat="31.77593120" lon="35.05310190">
        <ele>551.00000</ele>
        <time>2010-01-01T02:09:37Z</time>
      </trkpt>
      <trkpt lat="31.77588550" lon="35.05320540">
        <ele>552.00000</ele>
        <time>2010-01-01T02:09:41Z</time>
      </trkpt>
      <trkpt lat="31.77584180" lon="35.05330010">
        <ele>552.00000</ele>
        <time>2010-01-01T02:09:44Z</time>
      </trkpt>
      <trkpt lat="31.77578880" lon="35.05340320">
        <ele>552.00000</ele>
        <time>2010-01-01T02:09:48Z</time>
      </trkpt>
      <trkpt lat="31.77573920" lon="35.05351510">
        <ele>553.00000</ele>
        <time>2010-01-01T02:09:53Z</time>
      </trkpt>
      <trkpt lat="31.77569500" lon="35.05361300">
        <ele>553.00000</ele>
        <time>2010-01-01T02:09:56Z</time>
      </trkpt>
      <trkpt lat="31.77564290" lon="35.05370830">
        <ele>553.00000</ele>
        <time>2010-01-01T02:10:00Z</time>
      </trkpt>
      <trkpt lat="31.77559250" lon="35.05380370">
        <ele>553.00000</ele>
        <time>2010-01-01T02:10:04Z</time>
      </trkpt>
      <trkpt lat="31.77554070" lon="35.05390100">
        <ele>554.00000</ele>
        <time>2010-01-01T02:10:08Z</time>
      </trkpt>
      <trkpt lat="31.77549280" lon="35.05399840">
        <ele>554.00000</ele>
        <time>2010-01-01T02:10:12Z</time>
      </trkpt>
      <trkpt lat="31.77545280" lon="35.05409510">
        <ele>555.00000</ele>
        <time>2010-01-01T02:10:16Z</time>
      </trkpt>
      <trkpt lat="31.77541930" lon="35.05419480">
        <ele>556.00000</ele>
        <time>2010-01-01T02:10:19Z</time>
      </trkpt>
      <trkpt lat="31.77537340" lon="35.05431370">
        <ele>557.00000</ele>
        <time>2010-01-01T02:10:24Z</time>
      </trkpt>
      <trkpt lat="31.77532210" lon="35.05441920">
        <ele>558.00000</ele>
        <time>2010-01-01T02:10:28Z</time>
      </trkpt>
      <trkpt lat="31.77525670" lon="35.05452420">
        <ele>558.00000</ele>
        <time>2010-01-01T02:10:32Z</time>
      </trkpt>
      <trkpt lat="31.77518700" lon="35.05461590">
        <ele>558.00000</ele>
        <time>2010-01-01T02:10:36Z</time>
      </trkpt>
      <trkpt lat="31.77512520" lon="35.05471180">
        <ele>558.00000</ele>
        <time>2010-01-01T02:10:40Z</time>
      </trkpt>
      <trkpt lat="31.77508420" lon="35.05478410">
        <ele>558.00000</ele>
        <time>2010-01-01T02:10:43Z</time>
      </trkpt>
      <trkpt lat="31.77501120" lon="35.05489300">
        <ele>559.00000</ele>
        <time>2010-01-01T02:10:48Z</time>
      </trkpt>
      <trkpt lat="31.77495890" lon="35.05499300">
        <ele>559.00000</ele>
        <time>2010-01-01T02:10:52Z</time>
      </trkpt>
      <trkpt lat="31.77490390" lon="35.05509670">
        <ele>560.00000</ele>
        <time>2010-01-01T02:10:56Z</time>
      </trkpt>
      <trkpt lat="31.77482300" lon="35.05517390">
        <ele>560.00000</ele>
        <time>2010-01-01T02:11:00Z</time>
      </trkpt>
      <trkpt lat="31.77473770" lon="35.05511120">
        <ele>558.00000</ele>
        <time>2010-01-01T02:11:04Z</time>
      </trkpt>
      <trkpt lat="31.77469290" lon="35.05499710">
        <ele>558.00000</ele>
        <time>2010-01-01T02:11:09Z</time>
      </trkpt>
      <trkpt lat="31.77467740" lon="35.05488310">
        <ele>558.00000</ele>
        <time>2010-01-01T02:11:13Z</time>
      </trkpt>
      <trkpt lat="31.77467600" lon="35.05476210">
        <ele>558.00000</ele>
        <time>2010-01-01T02:11:17Z</time>
      </trkpt>
      <trkpt lat="31.77467250" lon="35.05462910">
        <ele>559.00000</ele>
        <time>2010-01-01T02:11:21Z</time>
      </trkpt>
      <trkpt lat="31.77468180" lon="35.05449440">
        <ele>559.00000</ele>
        <time>2010-01-01T02:11:26Z</time>
      </trkpt>
      <trkpt lat="31.77468720" lon="35.05437140">
        <ele>559.00000</ele>
        <time>2010-01-01T02:11:30Z</time>
      </trkpt>
      <trkpt lat="31.77470570" lon="35.05423860">
        <ele>558.00000</ele>
        <time>2010-01-01T02:11:35Z</time>
      </trkpt>
      <trkpt lat="31.77472780" lon="35.05410680">
        <ele>557.00000</ele>
        <time>2010-01-01T02:11:39Z</time>
      </trkpt>
      <trkpt lat="31.77474390" lon="35.05400080">
        <ele>558.00000</ele>
        <time>2010-01-01T02:11:43Z</time>
      </trkpt>
      <trkpt lat="31.77475030" lon="35.05389550">
        <ele>559.00000</ele>
        <time>2010-01-01T02:11:47Z</time>
      </trkpt>
      <trkpt lat="31.77474860" lon="35.05378310">
        <ele>559.00000</ele>
        <time>2010-01-01T02:11:50Z</time>
      </trkpt>
      <trkpt lat="31.77474840" lon="35.05367620">
        <ele>560.00000</ele>
        <time>2010-01-01T02:11:54Z</time>
      </trkpt>
      <trkpt lat="31.77474860" lon="35.05355600">
        <ele>562.00000</ele>
        <time>2010-01-01T02:11:58Z</time>
      </trkpt>
      <trkpt lat="31.77474720" lon="35.05343480">
        <ele>564.00000</ele>
        <time>2010-01-01T02:12:02Z</time>
      </trkpt>
      <trkpt lat="31.77474810" lon="35.05331990">
        <ele>566.00000</ele>
        <time>2010-01-01T02:12:06Z</time>
      </trkpt>
      <trkpt lat="31.77475740" lon="35.05320960">
        <ele>566.00000</ele>
        <time>2010-01-01T02:12:10Z</time>
      </trkpt>
      <trkpt lat="31.77476290" lon="35.05309000">
        <ele>567.00000</ele>
        <time>2010-01-01T02:12:14Z</time>
      </trkpt>
      <trkpt lat="31.77477510" lon="35.05298280">
        <ele>567.00000</ele>
        <time>2010-01-01T02:12:18Z</time>
      </trkpt>
      <trkpt lat="31.77479410" lon="35.05287560">
        <ele>567.00000</ele>
        <time>2010-01-01T02:12:21Z</time>
      </trkpt>
      <trkpt lat="31.77480370" lon="35.05275340">
        <ele>567.00000</ele>
        <time>2010-01-01T02:12:26Z</time>
      </trkpt>
      <trkpt lat="31.77482270" lon="35.05264510">
        <ele>567.00000</ele>
        <time>2010-01-01T02:12:29Z</time>
      </trkpt>
      <trkpt lat="31.77483890" lon="35.05252570">
        <ele>567.00000</ele>
        <time>2010-01-01T02:12:33Z</time>
      </trkpt>
      <trkpt lat="31.77485020" lon="35.05241620">
        <ele>568.00000</ele>
        <time>2010-01-01T02:12:37Z</time>
      </trkpt>
      <trkpt lat="31.77486420" lon="35.05229260">
        <ele>569.00000</ele>
        <time>2010-01-01T02:12:41Z</time>
      </trkpt>
      <trkpt lat="31.77486620" lon="35.05218380">
        <ele>570.00000</ele>
        <time>2010-01-01T02:12:45Z</time>
      </trkpt>
      <trkpt lat="31.77486420" lon="35.05206360">
        <ele>571.00000</ele>
        <time>2010-01-01T02:12:49Z</time>
      </trkpt>
      <trkpt lat="31.77486970" lon="35.05194440">
        <ele>572.00000</ele>
        <time>2010-01-01T02:12:53Z</time>
      </trkpt>
      <trkpt lat="31.77486520" lon="35.05182380">
        <ele>573.00000</ele>
        <time>2010-01-01T02:12:57Z</time>
      </trkpt>
      <trkpt lat="31.77486510" lon="35.05170280">
        <ele>574.00000</ele>
        <time>2010-01-01T02:13:02Z</time>
      </trkpt>
      <trkpt lat="31.77486100" lon="35.05158030">
        <ele>577.00000</ele>
        <time>2010-01-01T02:13:06Z</time>
      </trkpt>
      <trkpt lat="31.77486400" lon="35.05146810">
        <ele>579.00000</ele>
        <time>2010-01-01T02:13:09Z</time>
      </trkpt>
      <trkpt lat="31.77487910" lon="35.05135750">
        <ele>580.00000</ele>
        <time>2010-01-01T02:13:13Z</time>
      </trkpt>
      <trkpt lat="31.77490380" lon="35.05123350">
        <ele>582.00000</ele>
        <time>2010-01-01T02:13:18Z</time>
      </trkpt>
      <trkpt lat="31.77493890" lon="35.05111940">
        <ele>583.00000</ele>
        <time>2010-01-01T02:13:22Z</time>
      </trkpt>
      <trkpt lat="31.77498130" lon="35.05101840">
        <ele>583.00000</ele>
        <time>2010-01-01T02:13:26Z</time>
      </trkpt>
      <trkpt lat="31.77502830" lon="35.05091660">
        <ele>583.00000</ele>
        <time>2010-01-01T02:13:30Z</time>
      </trkpt>
      <trkpt lat="31.77507600" lon="35.05081310">
        <ele>583.00000</ele>
        <time>2010-01-01T02:13:34Z</time>
      </trkpt>
      <trkpt lat="31.77512860" lon="35.05071340">
        <ele>583.00000</ele>
        <time>2010-01-01T02:13:38Z</time>
      </trkpt>
      <trkpt lat="31.77518900" lon="35.05061430">
        <ele>582.00000</ele>
        <time>2010-01-01T02:13:42Z</time>
      </trkpt>
      <trkpt lat="31.77524310" lon="35.05052510">
        <ele>582.00000</ele>
        <time>2010-01-01T02:13:45Z</time>
      </trkpt>
      <trkpt lat="31.77530240" lon="35.05042490">
        <ele>582.00000</ele>
        <time>2010-01-01T02:13:50Z</time>
      </trkpt>
      <trkpt lat="31.77536000" lon="35.05033110">
        <ele>581.00000</ele>
        <time>2010-01-01T02:13:54Z</time>
      </trkpt>
      <trkpt lat="31.77541440" lon="35.05022410">
        <ele>582.00000</ele>
        <time>2010-01-01T02:13:58Z</time>
      </trkpt>
      <trkpt lat="31.77546680" lon="35.05011810">
        <ele>582.00000</ele>
        <time>2010-01-01T02:14:02Z</time>
      </trkpt>
      <trkpt lat="31.77549000" lon="35.05000070">
        <ele>583.00000</ele>
        <time>2010-01-01T02:14:06Z</time>
      </trkpt>
      <trkpt lat="31.77548410" lon="35.04988970">
        <ele>585.00000</ele>
        <time>2010-01-01T02:14:10Z</time>
      </trkpt>
      <trkpt lat="31.77551220" lon="35.04978170">
        <ele>585.00000</ele>
        <time>2010-01-01T02:14:14Z</time>
      </trkpt>
      <trkpt lat="31.77554820" lon="35.04968070">
        <ele>585.00000</ele>
        <time>2010-01-01T02:14:17Z</time>
      </trkpt>
      <trkpt lat="31.77558120" lon="35.04956760">
        <ele>586.00000</ele>
        <time>2010-01-01T02:14:21Z</time>
      </trkpt>
      <trkpt lat="31.77560870" lon="35.04946650">
        <ele>586.00000</ele>
        <time>2010-01-01T02:14:25Z</time>
      </trkpt>
      <trkpt lat="31.77563920" lon="35.04935000">
        <ele>587.00000</ele>
        <time>2010-01-01T02:14:29Z</time>
      </trkpt>
      <trkpt lat="31.77568120" lon="35.04923960">
        <ele>589.00000</ele>
        <time>2010-01-01T02:14:33Z</time>
      </trkpt>
      <trkpt lat="31.77572640" lon="35.04913210">
        <ele>589.00000</ele>
        <time>2010-01-01T02:14:37Z</time>
      </trkpt>
      <trkpt lat="31.77578200" lon="35.04903860">
        <ele>590.00000</ele>
        <time>2010-01-01T02:14:41Z</time>
      </trkpt>
      <trkpt lat="31.77584880" lon="35.04896050">
        <ele>590.00000</ele>
        <time>2010-01-01T02:14:45Z</time>
      </trkpt>
      <trkpt lat="31.77590480" lon="35.04885610">
        <ele>591.00000</ele>
        <time>2010-01-01T02:14:49Z</time>
      </trkpt>
      <trkpt lat="31.77596650" lon="35.04876900">
        <ele>592.00000</ele>
        <time>2010-01-01T02:14:53Z</time>
      </trkpt>
      <trkpt lat="31.77600790" lon="35.04867320">
        <ele>593.00000</ele>
        <time>2010-01-01T02:14:57Z</time>
      </trkpt>
      <trkpt lat="31.77602850" lon="35.04854840">
        <ele>594.00000</ele>
        <time>2010-01-01T02:15:01Z</time>
      </trkpt>
      <trkpt lat="31.77597270" lon="35.04844600">
        <ele>594.00000</ele>
        <time>2010-01-01T02:15:05Z</time>
      </trkpt>
      <trkpt lat="31.77588070" lon="35.04838690">
        <ele>594.00000</ele>
        <time>2010-01-01T02:15:09Z</time>
      </trkpt>
      <trkpt lat="31.77577730" lon="35.04835470">
        <ele>593.00000</ele>
        <time>2010-01-01T02:15:14Z</time>
      </trkpt>
      <trkpt lat="31.77568210" lon="35.04835600">
        <ele>593.00000</ele>
        <time>2010-01-01T02:15:18Z</time>
      </trkpt>
      <trkpt lat="31.77558230" lon="35.04840200">
        <ele>593.00000</ele>
        <time>2010-01-01T02:15:22Z</time>
      </trkpt>
      <trkpt lat="31.77548860" lon="35.04843610">
        <ele>593.00000</ele>
        <time>2010-01-01T02:15:26Z</time>
      </trkpt>
      <trkpt lat="31.77539540" lon="35.04847180">
        <ele>593.00000</ele>
        <time>2010-01-01T02:15:30Z</time>
      </trkpt>
      <trkpt lat="31.77530350" lon="35.04850890">
        <ele>594.00000</ele>
        <time>2010-01-01T02:15:34Z</time>
      </trkpt>
      <trkpt lat="31.77519710" lon="35.04855290">
        <ele>594.00000</ele>
        <time>2010-01-01T02:15:38Z</time>
      </trkpt>
      <trkpt lat="31.77510810" lon="35.04858950">
        <ele>595.00000</ele>
        <time>2010-01-01T02:15:42Z</time>
      </trkpt>
      <trkpt lat="31.77500130" lon="35.04863060">
        <ele>596.00000</ele>
        <time>2010-01-01T02:15:46Z</time>
      </trkpt>
      <trkpt lat="31.77491490" lon="35.04866650">
        <ele>596.00000</ele>
        <time>2010-01-01T02:15:50Z</time>
      </trkpt>
      <trkpt lat="31.77481070" lon="35.04871050">
        <ele>597.00000</ele>
        <time>2010-01-01T02:15:54Z</time>
      </trkpt>
      <trkpt lat="31.77472220" lon="35.04873370">
        <ele>598.00000</ele>
        <time>2010-01-01T02:15:58Z</time>
      </trkpt>
      <trkpt lat="31.77461850" lon="35.04876240">
        <ele>599.00000</ele>
        <time>2010-01-01T02:16:02Z</time>
      </trkpt>
      <trkpt lat="31.77452180" lon="35.04878240">
        <ele>599.00000</ele>
        <time>2010-01-01T02:16:06Z</time>
      </trkpt>
      <trkpt lat="31.77443110" lon="35.04878680">
        <ele>600.00000</ele>
        <time>2010-01-01T02:16:10Z</time>
      </trkpt>
      <trkpt lat="31.77433030" lon="35.04880160">
        <ele>602.00000</ele>
        <time>2010-01-01T02:16:14Z</time>
      </trkpt>
      <trkpt lat="31.77423470" lon="35.04880500">
        <ele>604.00000</ele>
        <time>2010-01-01T02:16:18Z</time>
      </trkpt>
      <trkpt lat="31.77412980" lon="35.04881300">
        <ele>607.00000</ele>
        <time>2010-01-01T02:16:22Z</time>
      </trkpt>
      <trkpt lat="31.77403090" lon="35.04880440">
        <ele>609.00000</ele>
        <time>2010-01-01T02:16:26Z</time>
      </trkpt>
      <trkpt lat="31.77393650" lon="35.04878520">
        <ele>610.00000</ele>
        <time>2010-01-01T02:16:30Z</time>
      </trkpt>
      <trkpt lat="31.77384100" lon="35.04877570">
        <ele>612.00000</ele>
        <time>2010-01-01T02:16:34Z</time>
      </trkpt>
      <trkpt lat="31.77374900" lon="35.04874720">
        <ele>612.00000</ele>
        <time>2010-01-01T02:16:37Z</time>
      </trkpt>
      <trkpt lat="31.77365300" lon="35.04871120">
        <ele>613.00000</ele>
        <time>2010-01-01T02:16:41Z</time>
      </trkpt>
      <trkpt lat="31.77354890" lon="35.04869010">
        <ele>614.00000</ele>
        <time>2010-01-01T02:16:46Z</time>
      </trkpt>
      <trkpt lat="31.77345890" lon="35.04865120">
        <ele>615.00000</ele>
        <time>2010-01-01T02:16:50Z</time>
      </trkpt>
      <trkpt lat="31.77336110" lon="35.04860840">
        <ele>615.00000</ele>
        <time>2010-01-01T02:16:54Z</time>
      </trkpt>
      <trkpt lat="31.77326810" lon="35.04856930">
        <ele>617.00000</ele>
        <time>2010-01-01T02:16:58Z</time>
      </trkpt>
      <trkpt lat="31.77317960" lon="35.04851630">
        <ele>618.00000</ele>
        <time>2010-01-01T02:17:02Z</time>
      </trkpt>
      <trkpt lat="31.77310410" lon="35.04844790">
        <ele>619.00000</ele>
        <time>2010-01-01T02:17:05Z</time>
      </trkpt>
      <trkpt lat="31.77301830" lon="35.04839300">
        <ele>620.00000</ele>
        <time>2010-01-01T02:17:09Z</time>
      </trkpt>
      <trkpt lat="31.77292330" lon="35.04834070">
        <ele>622.00000</ele>
        <time>2010-01-01T02:17:14Z</time>
      </trkpt>
      <trkpt lat="31.77283630" lon="35.04828610">
        <ele>624.00000</ele>
        <time>2010-01-01T02:17:18Z</time>
      </trkpt>
      <trkpt lat="31.77274880" lon="35.04824170">
        <ele>626.00000</ele>
        <time>2010-01-01T02:17:21Z</time>
      </trkpt>
      <trkpt lat="31.77267250" lon="35.04818120">
        <ele>628.00000</ele>
        <time>2010-01-01T02:17:25Z</time>
      </trkpt>
      <trkpt lat="31.77263320" lon="35.04807420">
        <ele>628.00000</ele>
        <time>2010-01-01T02:17:29Z</time>
      </trkpt>
      <trkpt lat="31.77259460" lon="35.04796040">
        <ele>629.00000</ele>
        <time>2010-01-01T02:17:33Z</time>
      </trkpt>
      <trkpt lat="31.77258390" lon="35.04785120">
        <ele>629.00000</ele>
        <time>2010-01-01T02:17:37Z</time>
      </trkpt>
      <trkpt lat="31.77257350" lon="35.04773360">
        <ele>629.00000</ele>
        <time>2010-01-01T02:17:41Z</time>
      </trkpt>
      <trkpt lat="31.77256110" lon="35.04762950">
        <ele>629.00000</ele>
        <time>2010-01-01T02:17:45Z</time>
      </trkpt>
      <trkpt lat="31.77255370" lon="35.04750390">
        <ele>630.00000</ele>
        <time>2010-01-01T02:17:49Z</time>
      </trkpt>
      <trkpt lat="31.77253410" lon="35.04738110">
        <ele>631.00000</ele>
        <time>2010-01-01T02:17:53Z</time>
      </trkpt>
      <trkpt lat="31.77252290" lon="35.04726210">
        <ele>631.00000</ele>
        <time>2010-01-01T02:17:57Z</time>
      </trkpt>
      <trkpt lat="31.77251580" lon="35.04714880">
        <ele>631.00000</ele>
        <time>2010-01-01T02:18:01Z</time>
      </trkpt>
      <trkpt lat="31.77251970" lon="35.04703170">
        <ele>631.00000</ele>
        <time>2010-01-01T02:18:05Z</time>
      </trkpt>
      <trkpt lat="31.77249950" lon="35.04690700">
        <ele>631.00000</ele>
        <time>2010-01-01T02:18:09Z</time>
      </trkpt>
      <trkpt lat="31.77248310" lon="35.04679950">
        <ele>631.00000</ele>
        <time>2010-01-01T02:18:13Z</time>
      </trkpt>
      <trkpt lat="31.77245270" lon="35.04669390">
        <ele>631.00000</ele>
        <time>2010-01-01T02:18:17Z</time>
      </trkpt>
      <trkpt lat="31.77239990" lon="35.04659170">
        <ele>632.00000</ele>
        <time>2010-01-01T02:18:21Z</time>
      </trkpt>
      <trkpt lat="31.77233470" lon="35.04651010">
        <ele>633.00000</ele>
        <time>2010-01-01T02:18:25Z</time>
      </trkpt>
      <trkpt lat="31.77225790" lon="35.04644350">
        <ele>635.00000</ele>
        <time>2010-01-01T02:18:29Z</time>
      </trkpt>
      <trkpt lat="31.77217980" lon="35.04638390">
        <ele>636.00000</ele>
        <time>2010-01-01T02:18:32Z</time>
      </trkpt>
      <trkpt lat="31.77207460" lon="35.04632480">
        <ele>636.00000</ele>
        <time>2010-01-01T02:18:37Z</time>
      </trkpt>
      <trkpt lat="31.77197970" lon="35.04625670">
        <ele>636.00000</ele>
        <time>2010-01-01T02:18:41Z</time>
      </trkpt>
      <trkpt lat="31.77195240" lon="35.04613550">
        <ele>636.00000</ele>
        <time>2010-01-01T02:18:46Z</time>
      </trkpt>
      <trkpt lat="31.77196830" lon="35.04602850">
        <ele>637.00000</ele>
        <time>2010-01-01T02:18:49Z</time>
      </trkpt>
      <trkpt lat="31.77198930" lon="35.04591020">
        <ele>638.00000</ele>
        <time>2010-01-01T02:18:53Z</time>
      </trkpt>
      <trkpt lat="31.77201880" lon="35.04579520">
        <ele>638.00000</ele>
        <time>2010-01-01T02:18:58Z</time>
      </trkpt>
      <trkpt lat="31.77204100" lon="35.04568520">
        <ele>638.00000</ele>
        <time>2010-01-01T02:19:01Z</time>
      </trkpt>
      <trkpt lat="31.77207570" lon="35.04557090">
        <ele>638.00000</ele>
        <time>2010-01-01T02:19:05Z</time>
      </trkpt>
      <trkpt lat="31.77210420" lon="35.04546240">
        <ele>638.00000</ele>
        <time>2010-01-01T02:19:09Z</time>
      </trkpt>
      <trkpt lat="31.77212670" lon="35.04533320">
        <ele>638.00000</ele>
        <time>2010-01-01T02:19:14Z</time>
      </trkpt>
      <trkpt lat="31.77215320" lon="35.04520270">
        <ele>639.00000</ele>
        <time>2010-01-01T02:19:18Z</time>
      </trkpt>
      <trkpt lat="31.77218490" lon="35.04509450">
        <ele>640.00000</ele>
        <time>2010-01-01T02:19:22Z</time>
      </trkpt>
      <trkpt lat="31.77221110" lon="35.04496900">
        <ele>640.00000</ele>
        <time>2010-01-01T02:19:27Z</time>
      </trkpt>
      <trkpt lat="31.77224690" lon="35.04484020">
        <ele>641.00000</ele>
        <time>2010-01-01T02:19:31Z</time>
      </trkpt>
      <trkpt lat="31.77228910" lon="35.04471180">
        <ele>641.00000</ele>
        <time>2010-01-01T02:19:36Z</time>
      </trkpt>
      <trkpt lat="31.77232380" lon="35.04458130">
        <ele>640.00000</ele>
        <time>2010-01-01T02:19:41Z</time>
      </trkpt>
      <trkpt lat="31.77235610" lon="35.04447070">
        <ele>640.00000</ele>
        <time>2010-01-01T02:19:45Z</time>
      </trkpt>
      <trkpt lat="31.77239500" lon="35.04434560">
        <ele>641.00000</ele>
        <time>2010-01-01T02:19:49Z</time>
      </trkpt>
      <trkpt lat="31.77243190" lon="35.04422370">
        <ele>641.00000</ele>
        <time>2010-01-01T02:19:54Z</time>
      </trkpt>
      <trkpt lat="31.77244140" lon="35.04412050">
        <ele>640.00000</ele>
        <time>2010-01-01T02:19:57Z</time>
      </trkpt>
      <trkpt lat="31.77245860" lon="35.04425660">
        <ele>641.00000</ele>
        <time>2010-01-01T02:20:02Z</time>
      </trkpt>
      <trkpt lat="31.77240940" lon="35.04436410">
        <ele>641.00000</ele>
        <time>2010-01-01T02:20:06Z</time>
      </trkpt>
      <trkpt lat="31.77236350" lon="35.04447690">
        <ele>640.00000</ele>
        <time>2010-01-01T02:20:10Z</time>
      </trkpt>
      <trkpt lat="31.77232520" lon="35.04459330">
        <ele>640.00000</ele>
        <time>2010-01-01T02:20:14Z</time>
      </trkpt>
      <trkpt lat="31.77229440" lon="35.04470990">
        <ele>641.00000</ele>
        <time>2010-01-01T02:20:19Z</time>
      </trkpt>
      <trkpt lat="31.77226180" lon="35.04481700">
        <ele>641.00000</ele>
        <time>2010-01-01T02:20:22Z</time>
      </trkpt>
      <trkpt lat="31.77222350" lon="35.04492540">
        <ele>641.00000</ele>
        <time>2010-01-01T02:20:26Z</time>
      </trkpt>
      <trkpt lat="31.77218630" lon="35.04502950">
        <ele>640.00000</ele>
        <time>2010-01-01T02:20:30Z</time>
      </trkpt>
      <trkpt lat="31.77216270" lon="35.04514650">
        <ele>639.00000</ele>
        <time>2010-01-01T02:20:34Z</time>
      </trkpt>
      <trkpt lat="31.77213860" lon="35.04525850">
        <ele>638.00000</ele>
        <time>2010-01-01T02:20:38Z</time>
      </trkpt>
      <trkpt lat="31.77211220" lon="35.04537300">
        <ele>638.00000</ele>
        <time>2010-01-01T02:20:42Z</time>
      </trkpt>
      <trkpt lat="31.77208110" lon="35.04550920">
        <ele>638.00000</ele>
        <time>2010-01-01T02:20:47Z</time>
      </trkpt>
      <trkpt lat="31.77205240" lon="35.04562240">
        <ele>638.00000</ele>
        <time>2010-01-01T02:20:51Z</time>
      </trkpt>
      <trkpt lat="31.77201970" lon="35.04576200">
        <ele>638.00000</ele>
        <time>2010-01-01T02:20:56Z</time>
      </trkpt>
      <trkpt lat="31.77198760" lon="35.04592920">
        <ele>638.00000</ele>
        <time>2010-01-01T02:21:02Z</time>
      </trkpt>
      <trkpt lat="31.77195390" lon="35.04611400">
        <ele>636.00000</ele>
        <time>2010-01-01T02:21:08Z</time>
      </trkpt>
      <trkpt lat="31.77192180" lon="35.04630390">
        <ele>636.00000</ele>
        <time>2010-01-01T02:21:15Z</time>
      </trkpt>
      <trkpt lat="31.77189360" lon="35.04646460">
        <ele>636.00000</ele>
        <time>2010-01-01T02:21:21Z</time>
      </trkpt>
      <trkpt lat="31.77183840" lon="35.04657950">
        <ele>636.00000</ele>
        <time>2010-01-01T02:21:25Z</time>
      </trkpt>
      <trkpt lat="31.77172770" lon="35.04658150">
        <ele>635.00000</ele>
        <time>2010-01-01T02:21:29Z</time>
      </trkpt>
      <trkpt lat="31.77161580" lon="35.04658880">
        <ele>634.00000</ele>
        <time>2010-01-01T02:21:34Z</time>
      </trkpt>
      <trkpt lat="31.77152790" lon="35.04662090">
        <ele>633.00000</ele>
        <time>2010-01-01T02:21:38Z</time>
      </trkpt>
      <trkpt lat="31.77143160" lon="35.04666860">
        <ele>631.00000</ele>
        <time>2010-01-01T02:21:42Z</time>
      </trkpt>
      <trkpt lat="31.77133200" lon="35.04672450">
        <ele>630.00000</ele>
        <time>2010-01-01T02:21:46Z</time>
      </trkpt>
      <trkpt lat="31.77123770" lon="35.04678510">
        <ele>629.00000</ele>
        <time>2010-01-01T02:21:51Z</time>
      </trkpt>
      <trkpt lat="31.77115400" lon="35.04683810">
        <ele>629.00000</ele>
        <time>2010-01-01T02:21:54Z</time>
      </trkpt>
      <trkpt lat="31.77104150" lon="35.04690840">
        <ele>628.00000</ele>
        <time>2010-01-01T02:21:59Z</time>
      </trkpt>
      <trkpt lat="31.77093790" lon="35.04696710">
        <ele>627.00000</ele>
        <time>2010-01-01T02:22:04Z</time>
      </trkpt>
      <trkpt lat="31.77083790" lon="35.04702450">
        <ele>626.00000</ele>
        <time>2010-01-01T02:22:09Z</time>
      </trkpt>
      <trkpt lat="31.77072680" lon="35.04710870">
        <ele>625.00000</ele>
        <time>2010-01-01T02:22:14Z</time>
      </trkpt>
      <trkpt lat="31.77064840" lon="35.04717260">
        <ele>624.00000</ele>
        <time>2010-01-01T02:22:18Z</time>
      </trkpt>
      <trkpt lat="31.77055640" lon="35.04727780">
        <ele>623.00000</ele>
        <time>2010-01-01T02:22:23Z</time>
      </trkpt>
      <trkpt lat="31.77047530" lon="35.04738040">
        <ele>622.00000</ele>
        <time>2010-01-01T02:22:28Z</time>
      </trkpt>
      <trkpt lat="31.77040370" lon="35.04749820">
        <ele>622.00000</ele>
        <time>2010-01-01T02:22:32Z</time>
      </trkpt>
      <trkpt lat="31.77034300" lon="35.04762010">
        <ele>621.00000</ele>
        <time>2010-01-01T02:22:37Z</time>
      </trkpt>
      <trkpt lat="31.77029570" lon="35.04772790">
        <ele>621.00000</ele>
        <time>2010-01-01T02:22:41Z</time>
      </trkpt>
      <trkpt lat="31.77024620" lon="35.04784310">
        <ele>620.00000</ele>
        <time>2010-01-01T02:22:46Z</time>
      </trkpt>
      <trkpt lat="31.77021030" lon="35.04796410">
        <ele>620.00000</ele>
        <time>2010-01-01T02:22:50Z</time>
      </trkpt>
      <trkpt lat="31.77018530" lon="35.04807300">
        <ele>621.00000</ele>
        <time>2010-01-01T02:22:54Z</time>
      </trkpt>
      <trkpt lat="31.77014310" lon="35.04817780">
        <ele>621.00000</ele>
        <time>2010-01-01T02:22:58Z</time>
      </trkpt>
      <trkpt lat="31.77005910" lon="35.04827150">
        <ele>621.00000</ele>
        <time>2010-01-01T02:23:03Z</time>
      </trkpt>
      <trkpt lat="31.76995020" lon="35.04832770">
        <ele>620.00000</ele>
        <time>2010-01-01T02:23:07Z</time>
      </trkpt>
      <trkpt lat="31.76986780" lon="35.04829840">
        <ele>618.00000</ele>
        <time>2010-01-01T02:23:11Z</time>
      </trkpt>
      <trkpt lat="31.76982230" lon="35.04819860">
        <ele>615.00000</ele>
        <time>2010-01-01T02:23:15Z</time>
      </trkpt>
      <trkpt lat="31.76983680" lon="35.04807370">
        <ele>614.00000</ele>
        <time>2010-01-01T02:23:19Z</time>
      </trkpt>
      <trkpt lat="31.76988980" lon="35.04794640">
        <ele>613.00000</ele>
        <time>2010-01-01T02:23:24Z</time>
      </trkpt>
      <trkpt lat="31.76993190" lon="35.04784010">
        <ele>612.00000</ele>
        <time>2010-01-01T02:23:28Z</time>
      </trkpt>
      <trkpt lat="31.76995130" lon="35.04772840">
        <ele>611.00000</ele>
        <time>2010-01-01T02:23:32Z</time>
      </trkpt>
      <trkpt lat="31.76996520" lon="35.04761700">
        <ele>610.00000</ele>
        <time>2010-01-01T02:23:35Z</time>
      </trkpt>
      <trkpt lat="31.76997840" lon="35.04745850">
        <ele>609.00000</ele>
        <time>2010-01-01T02:23:41Z</time>
      </trkpt>
      <trkpt lat="31.76999260" lon="35.04733780">
        <ele>607.00000</ele>
        <time>2010-01-01T02:23:45Z</time>
      </trkpt>
      <trkpt lat="31.77001100" lon="35.04720590">
        <ele>606.00000</ele>
        <time>2010-01-01T02:23:50Z</time>
      </trkpt>
      <trkpt lat="31.77002830" lon="35.04708420">
        <ele>606.00000</ele>
        <time>2010-01-01T02:23:54Z</time>
      </trkpt>
      <trkpt lat="31.77004140" lon="35.04696690">
        <ele>606.00000</ele>
        <time>2010-01-01T02:23:58Z</time>
      </trkpt>
      <trkpt lat="31.77006540" lon="35.04685210">
        <ele>606.00000</ele>
        <time>2010-01-01T02:24:02Z</time>
      </trkpt>
      <trkpt lat="31.77008430" lon="35.04674020">
        <ele>604.00000</ele>
        <time>2010-01-01T02:24:06Z</time>
      </trkpt>
      <trkpt lat="31.77010440" lon="35.04663190">
        <ele>603.00000</ele>
        <time>2010-01-01T02:24:09Z</time>
      </trkpt>
      <trkpt lat="31.77013900" lon="35.04651250">
        <ele>602.00000</ele>
        <time>2010-01-01T02:24:14Z</time>
      </trkpt>
      <trkpt lat="31.77017370" lon="35.04638350">
        <ele>600.00000</ele>
        <time>2010-01-01T02:24:18Z</time>
      </trkpt>
      <trkpt lat="31.77020890" lon="35.04626430">
        <ele>599.00000</ele>
        <time>2010-01-01T02:24:23Z</time>
      </trkpt>
      <trkpt lat="31.77025800" lon="35.04614970">
        <ele>599.00000</ele>
        <time>2010-01-01T02:24:27Z</time>
      </trkpt>
      <trkpt lat="31.77030770" lon="35.04604750">
        <ele>598.00000</ele>
        <time>2010-01-01T02:24:31Z</time>
      </trkpt>
      <trkpt lat="31.77036000" lon="35.04590390">
        <ele>598.00000</ele>
        <time>2010-01-01T02:24:36Z</time>
      </trkpt>
      <trkpt lat="31.77038360" lon="35.04577470">
        <ele>598.00000</ele>
        <time>2010-01-01T02:24:41Z</time>
      </trkpt>
      <trkpt lat="31.77038600" lon="35.04565950">
        <ele>596.00000</ele>
        <time>2010-01-01T02:24:45Z</time>
      </trkpt>
      <trkpt lat="31.77038440" lon="35.04554610">
        <ele>595.00000</ele>
        <time>2010-01-01T02:24:49Z</time>
      </trkpt>
      <trkpt lat="31.77038430" lon="35.04542840">
        <ele>594.00000</ele>
        <time>2010-01-01T02:24:53Z</time>
      </trkpt>
      <trkpt lat="31.77038330" lon="35.04531250">
        <ele>593.00000</ele>
        <time>2010-01-01T02:24:57Z</time>
      </trkpt>
      <trkpt lat="31.77038990" lon="35.04520240">
        <ele>591.00000</ele>
        <time>2010-01-01T02:25:00Z</time>
      </trkpt>
      <trkpt lat="31.77039430" lon="35.04508060">
        <ele>589.00000</ele>
        <time>2010-01-01T02:25:04Z</time>
      </trkpt>
      <trkpt lat="31.77040090" lon="35.04496510">
        <ele>588.00000</ele>
        <time>2010-01-01T02:25:08Z</time>
      </trkpt>
      <trkpt lat="31.77040610" lon="35.04484990">
        <ele>587.00000</ele>
        <time>2010-01-01T02:25:12Z</time>
      </trkpt>
      <trkpt lat="31.77040400" lon="35.04472300">
        <ele>586.00000</ele>
        <time>2010-01-01T02:25:17Z</time>
      </trkpt>
      <trkpt lat="31.77039760" lon="35.04459000">
        <ele>585.00000</ele>
        <time>2010-01-01T02:25:21Z</time>
      </trkpt>
      <trkpt lat="31.77039240" lon="35.04444270">
        <ele>584.00000</ele>
        <time>2010-01-01T02:25:26Z</time>
      </trkpt>
      <trkpt lat="31.77039170" lon="35.04431040">
        <ele>584.00000</ele>
        <time>2010-01-01T02:25:31Z</time>
      </trkpt>
      <trkpt lat="31.77039350" lon="35.04419100">
        <ele>583.00000</ele>
        <time>2010-01-01T02:25:35Z</time>
      </trkpt>
      <trkpt lat="31.77039650" lon="35.04407650">
        <ele>584.00000</ele>
        <time>2010-01-01T02:25:39Z</time>
      </trkpt>
      <trkpt lat="31.77038410" lon="35.04395360">
        <ele>584.00000</ele>
        <time>2010-01-01T02:25:43Z</time>
      </trkpt>
      <trkpt lat="31.77035940" lon="35.04383790">
        <ele>583.00000</ele>
        <time>2010-01-01T02:25:47Z</time>
      </trkpt>
      <trkpt lat="31.77034080" lon="35.04372320">
        <ele>582.00000</ele>
        <time>2010-01-01T02:25:51Z</time>
      </trkpt>
      <trkpt lat="31.77030610" lon="35.04357920">
        <ele>580.00000</ele>
        <time>2010-01-01T02:25:56Z</time>
      </trkpt>
      <trkpt lat="31.77026870" lon="35.04344470">
        <ele>578.00000</ele>
        <time>2010-01-01T02:26:01Z</time>
      </trkpt>
      <trkpt lat="31.77022420" lon="35.04328930">
        <ele>576.00000</ele>
        <time>2010-01-01T02:26:06Z</time>
      </trkpt>
      <trkpt lat="31.77019370" lon="35.04318190">
        <ele>575.00000</ele>
        <time>2010-01-01T02:26:10Z</time>
      </trkpt>
      <trkpt lat="31.77016420" lon="35.04306970">
        <ele>574.00000</ele>
        <time>2010-01-01T02:26:14Z</time>
      </trkpt>
      <trkpt lat="31.77014090" lon="35.04296990">
        <ele>573.00000</ele>
        <time>2010-01-01T02:26:18Z</time>
      </trkpt>
      <trkpt lat="31.77010500" lon="35.04282740">
        <ele>571.00000</ele>
        <time>2010-01-01T02:26:23Z</time>
      </trkpt>
      <trkpt lat="31.77007480" lon="35.04272420">
        <ele>570.00000</ele>
        <time>2010-01-01T02:26:27Z</time>
      </trkpt>
      <trkpt lat="31.77004490" lon="35.04261680">
        <ele>570.00000</ele>
        <time>2010-01-01T02:26:30Z</time>
      </trkpt>
      <trkpt lat="31.77000500" lon="35.04250660">
        <ele>569.00000</ele>
        <time>2010-01-01T02:26:34Z</time>
      </trkpt>
      <trkpt lat="31.76996170" lon="35.04237730">
        <ele>568.00000</ele>
        <time>2010-01-01T02:26:39Z</time>
      </trkpt>
      <trkpt lat="31.76992850" lon="35.04226650">
        <ele>567.00000</ele>
        <time>2010-01-01T02:26:43Z</time>
      </trkpt>
      <trkpt lat="31.76990570" lon="35.04216160">
        <ele>565.00000</ele>
        <time>2010-01-01T02:26:47Z</time>
      </trkpt>
      <trkpt lat="31.76989640" lon="35.04205190">
        <ele>564.00000</ele>
        <time>2010-01-01T02:26:51Z</time>
      </trkpt>
      <trkpt lat="31.76988030" lon="35.04193770">
        <ele>563.00000</ele>
        <time>2010-01-01T02:26:55Z</time>
      </trkpt>
      <trkpt lat="31.76985520" lon="35.04180700">
        <ele>561.00000</ele>
        <time>2010-01-01T02:26:59Z</time>
      </trkpt>
      <trkpt lat="31.76982750" lon="35.04169060">
        <ele>559.00000</ele>
        <time>2010-01-01T02:27:03Z</time>
      </trkpt>
      <trkpt lat="31.76980060" lon="35.04158030">
        <ele>556.00000</ele>
        <time>2010-01-01T02:27:07Z</time>
      </trkpt>
      <trkpt lat="31.76979210" lon="35.04145890">
        <ele>554.00000</ele>
        <time>2010-01-01T02:27:11Z</time>
      </trkpt>
      <trkpt lat="31.76981770" lon="35.04134580">
        <ele>553.00000</ele>
        <time>2010-01-01T02:27:15Z</time>
      </trkpt>
      <trkpt lat="31.76986110" lon="35.04125070">
        <ele>554.00000</ele>
        <time>2010-01-01T02:27:19Z</time>
      </trkpt>
      <trkpt lat="31.76991930" lon="35.04114190">
        <ele>554.00000</ele>
        <time>2010-01-01T02:27:23Z</time>
      </trkpt>
      <trkpt lat="31.76996690" lon="35.04103020">
        <ele>553.00000</ele>
        <time>2010-01-01T02:27:28Z</time>
      </trkpt>
      <trkpt lat="31.77000860" lon="35.04092850">
        <ele>552.00000</ele>
        <time>2010-01-01T02:27:31Z</time>
      </trkpt>
      <trkpt lat="31.77008350" lon="35.04079330">
        <ele>552.00000</ele>
        <time>2010-01-01T02:27:37Z</time>
      </trkpt>
      <trkpt lat="31.77012790" lon="35.04064610">
        <ele>551.00000</ele>
        <time>2010-01-01T02:27:42Z</time>
      </trkpt>
      <trkpt lat="31.77014610" lon="35.04048970">
        <ele>549.00000</ele>
        <time>2010-01-01T02:27:48Z</time>
      </trkpt>
      <trkpt lat="31.77014250" lon="35.04038060">
        <ele>549.00000</ele>
        <time>2010-01-01T02:27:51Z</time>
      </trkpt>
      <trkpt lat="31.77011570" lon="35.04022350">
        <ele>547.00000</ele>
        <time>2010-01-01T02:27:57Z</time>
      </trkpt>
      <trkpt lat="31.77009080" lon="35.04011820">
        <ele>546.00000</ele>
        <time>2010-01-01T02:28:01Z</time>
      </trkpt>
      <trkpt lat="31.77006140" lon="35.04001100">
        <ele>545.00000</ele>
        <time>2010-01-01T02:28:04Z</time>
      </trkpt>
      <trkpt lat="31.77002760" lon="35.03990500">
        <ele>545.00000</ele>
        <time>2010-01-01T02:28:08Z</time>
      </trkpt>
      <trkpt lat="31.76999570" lon="35.03979610">
        <ele>544.00000</ele>
        <time>2010-01-01T02:28:12Z</time>
      </trkpt>
      <trkpt lat="31.76995780" lon="35.03968470">
        <ele>543.00000</ele>
        <time>2010-01-01T02:28:16Z</time>
      </trkpt>
      <trkpt lat="31.76991530" lon="35.03956870">
        <ele>542.00000</ele>
        <time>2010-01-01T02:28:21Z</time>
      </trkpt>
      <trkpt lat="31.76987160" lon="35.03942770">
        <ele>540.00000</ele>
        <time>2010-01-01T02:28:26Z</time>
      </trkpt>
      <trkpt lat="31.76983300" lon="35.03928500">
        <ele>538.00000</ele>
        <time>2010-01-01T02:28:31Z</time>
      </trkpt>
      <trkpt lat="31.76979470" lon="35.03915480">
        <ele>537.00000</ele>
        <time>2010-01-01T02:28:35Z</time>
      </trkpt>
      <trkpt lat="31.76977210" lon="35.03903410">
        <ele>537.00000</ele>
        <time>2010-01-01T02:28:40Z</time>
      </trkpt>
      <trkpt lat="31.76975100" lon="35.03892580">
        <ele>536.00000</ele>
        <time>2010-01-01T02:28:43Z</time>
      </trkpt>
      <trkpt lat="31.76971620" lon="35.03877820">
        <ele>534.00000</ele>
        <time>2010-01-01T02:28:49Z</time>
      </trkpt>
      <trkpt lat="31.76969650" lon="35.03862660">
        <ele>533.00000</ele>
        <time>2010-01-01T02:28:54Z</time>
      </trkpt>
      <trkpt lat="31.76966990" lon="35.03850690">
        <ele>531.00000</ele>
        <time>2010-01-01T02:28:58Z</time>
      </trkpt>
      <trkpt lat="31.76963760" lon="35.03840380">
        <ele>529.00000</ele>
        <time>2010-01-01T02:29:02Z</time>
      </trkpt>
      <trkpt lat="31.76960610" lon="35.03829930">
        <ele>528.00000</ele>
        <time>2010-01-01T02:29:06Z</time>
      </trkpt>
      <trkpt lat="31.76956810" lon="35.03816290">
        <ele>526.00000</ele>
        <time>2010-01-01T02:29:10Z</time>
      </trkpt>
      <trkpt lat="31.76953660" lon="35.03803700">
        <ele>524.00000</ele>
        <time>2010-01-01T02:29:15Z</time>
      </trkpt>
      <trkpt lat="31.76953330" lon="35.03790020">
        <ele>523.00000</ele>
        <time>2010-01-01T02:29:20Z</time>
      </trkpt>
      <trkpt lat="31.76955080" lon="35.03779300">
        <ele>522.00000</ele>
        <time>2010-01-01T02:29:23Z</time>
      </trkpt>
      <trkpt lat="31.76957720" lon="35.03768490">
        <ele>521.00000</ele>
        <time>2010-01-01T02:29:27Z</time>
      </trkpt>
      <trkpt lat="31.76961250" lon="35.03756080">
        <ele>519.00000</ele>
        <time>2010-01-01T02:29:32Z</time>
      </trkpt>
      <trkpt lat="31.76965790" lon="35.03745100">
        <ele>518.00000</ele>
        <time>2010-01-01T02:29:36Z</time>
      </trkpt>
      <trkpt lat="31.76973580" lon="35.03735740">
        <ele>519.00000</ele>
        <time>2010-01-01T02:29:40Z</time>
      </trkpt>
      <trkpt lat="31.76983080" lon="35.03729400">
        <ele>520.00000</ele>
        <time>2010-01-01T02:29:45Z</time>
      </trkpt>
      <trkpt lat="31.76992990" lon="35.03723350">
        <ele>521.00000</ele>
        <time>2010-01-01T02:29:49Z</time>
      </trkpt>
      <trkpt lat="31.77003100" lon="35.03715430">
        <ele>522.00000</ele>
        <time>2010-01-01T02:29:54Z</time>
      </trkpt>
      <trkpt lat="31.77010700" lon="35.03706670">
        <ele>522.00000</ele>
        <time>2010-01-01T02:29:58Z</time>
      </trkpt>
      <trkpt lat="31.77016540" lon="35.03695960">
        <ele>522.00000</ele>
        <time>2010-01-01T02:30:02Z</time>
      </trkpt>
      <trkpt lat="31.77020790" lon="35.03684920">
        <ele>521.00000</ele>
        <time>2010-01-01T02:30:07Z</time>
      </trkpt>
      <trkpt lat="31.77023690" lon="35.03672890">
        <ele>519.00000</ele>
        <time>2010-01-01T02:30:11Z</time>
      </trkpt>
      <trkpt lat="31.77023460" lon="35.03662250">
        <ele>517.00000</ele>
        <time>2010-01-01T02:30:14Z</time>
      </trkpt>
      <trkpt lat="31.77021950" lon="35.03651290">
        <ele>515.00000</ele>
        <time>2010-01-01T02:30:18Z</time>
      </trkpt>
      <trkpt lat="31.77020840" lon="35.03639980">
        <ele>513.00000</ele>
        <time>2010-01-01T02:30:22Z</time>
      </trkpt>
      <trkpt lat="31.77020460" lon="35.03628120">
        <ele>512.00000</ele>
        <time>2010-01-01T02:30:26Z</time>
      </trkpt>
      <trkpt lat="31.77020010" lon="35.03615750">
        <ele>512.00000</ele>
        <time>2010-01-01T02:30:30Z</time>
      </trkpt>
      <trkpt lat="31.77019530" lon="35.03603730">
        <ele>511.00000</ele>
        <time>2010-01-01T02:30:34Z</time>
      </trkpt>
      <trkpt lat="31.77019280" lon="35.03589690">
        <ele>510.00000</ele>
        <time>2010-01-01T02:30:39Z</time>
      </trkpt>
      <trkpt lat="31.77019390" lon="35.03576420">
        <ele>508.00000</ele>
        <time>2010-01-01T02:30:44Z</time>
      </trkpt>
      <trkpt lat="31.77020580" lon="35.03563400">
        <ele>507.00000</ele>
        <time>2010-01-01T02:30:48Z</time>
      </trkpt>
      <trkpt lat="31.77022010" lon="35.03551860">
        <ele>506.00000</ele>
        <time>2010-01-01T02:30:52Z</time>
      </trkpt>
      <trkpt lat="31.77025540" lon="35.03537300">
        <ele>505.00000</ele>
        <time>2010-01-01T02:30:57Z</time>
      </trkpt>
      <trkpt lat="31.77031080" lon="35.03523040">
        <ele>504.00000</ele>
        <time>2010-01-01T02:31:03Z</time>
      </trkpt>
      <trkpt lat="31.77034770" lon="35.03512490">
        <ele>504.00000</ele>
        <time>2010-01-01T02:31:07Z</time>
      </trkpt>
      <trkpt lat="31.77038800" lon="35.03502560">
        <ele>503.00000</ele>
        <time>2010-01-01T02:31:10Z</time>
      </trkpt>
      <trkpt lat="31.77042440" lon="35.03492370">
        <ele>502.00000</ele>
        <time>2010-01-01T02:31:14Z</time>
      </trkpt>
      <trkpt lat="31.77044600" lon="35.03480110">
        <ele>502.00000</ele>
        <time>2010-01-01T02:31:18Z</time>
      </trkpt>
      <trkpt lat="31.77046170" lon="35.03467350">
        <ele>501.00000</ele>
        <time>2010-01-01T02:31:23Z</time>
      </trkpt>
      <trkpt lat="31.77046420" lon="35.03454290">
        <ele>500.00000</ele>
        <time>2010-01-01T02:31:27Z</time>
      </trkpt>
      <trkpt lat="31.77045240" lon="35.03442370">
        <ele>499.00000</ele>
        <time>2010-01-01T02:31:31Z</time>
      </trkpt>
      <trkpt lat="31.77043200" lon="35.03431430">
        <ele>498.00000</ele>
        <time>2010-01-01T02:31:35Z</time>
      </trkpt>
      <trkpt lat="31.77041330" lon="35.03420210">
        <ele>496.00000</ele>
        <time>2010-01-01T02:31:39Z</time>
      </trkpt>
      <trkpt lat="31.77038890" lon="35.03408410">
        <ele>495.00000</ele>
        <time>2010-01-01T02:31:43Z</time>
      </trkpt>
      <trkpt lat="31.77036470" lon="35.03396950">
        <ele>494.00000</ele>
        <time>2010-01-01T02:31:47Z</time>
      </trkpt>
      <trkpt lat="31.77033310" lon="35.03385150">
        <ele>493.00000</ele>
        <time>2010-01-01T02:31:51Z</time>
      </trkpt>
      <trkpt lat="31.77029290" lon="35.03373930">
        <ele>491.00000</ele>
        <time>2010-01-01T02:31:55Z</time>
      </trkpt>
      <trkpt lat="31.77025330" lon="35.03360760">
        <ele>490.00000</ele>
        <time>2010-01-01T02:32:00Z</time>
      </trkpt>
      <trkpt lat="31.77022540" lon="35.03347240">
        <ele>489.00000</ele>
        <time>2010-01-01T02:32:05Z</time>
      </trkpt>
      <trkpt lat="31.77019900" lon="35.03335370">
        <ele>488.00000</ele>
        <time>2010-01-01T02:32:09Z</time>
      </trkpt>
      <trkpt lat="31.77016520" lon="35.03325480">
        <ele>487.00000</ele>
        <time>2010-01-01T02:32:13Z</time>
      </trkpt>
      <trkpt lat="31.77012070" lon="35.03310540">
        <ele>485.00000</ele>
        <time>2010-01-01T02:32:18Z</time>
      </trkpt>
      <trkpt lat="31.77009310" lon="35.03299300">
        <ele>483.00000</ele>
        <time>2010-01-01T02:32:22Z</time>
      </trkpt>
      <trkpt lat="31.77007590" lon="35.03287290">
        <ele>482.00000</ele>
        <time>2010-01-01T02:32:26Z</time>
      </trkpt>
      <trkpt lat="31.77006480" lon="35.03273260">
        <ele>480.00000</ele>
        <time>2010-01-01T02:32:31Z</time>
      </trkpt>
      <trkpt lat="31.77006890" lon="35.03262370">
        <ele>479.00000</ele>
        <time>2010-01-01T02:32:35Z</time>
      </trkpt>
      <trkpt lat="31.77006900" lon="35.03252930">
        <ele>478.00000</ele>
        <time>2010-01-01T02:32:38Z</time>
      </trkpt>
      <trkpt lat="31.77012880" lon="35.03244470">
        <ele>479.00000</ele>
        <time>2010-01-01T02:32:42Z</time>
      </trkpt>
      <trkpt lat="31.77021610" lon="35.03234310">
        <ele>480.00000</ele>
        <time>2010-01-01T02:32:47Z</time>
      </trkpt>
      <trkpt lat="31.77032990" lon="35.03225300">
        <ele>481.00000</ele>
        <time>2010-01-01T02:32:52Z</time>
      </trkpt>
      <trkpt lat="31.77041700" lon="35.03218600">
        <ele>481.00000</ele>
        <time>2010-01-01T02:32:56Z</time>
      </trkpt>
      <trkpt lat="31.77049750" lon="35.03211890">
        <ele>480.00000</ele>
        <time>2010-01-01T02:33:00Z</time>
      </trkpt>
      <trkpt lat="31.77057550" lon="35.03204280">
        <ele>479.00000</ele>
        <time>2010-01-01T02:33:04Z</time>
      </trkpt>
      <trkpt lat="31.77066360" lon="35.03197370">
        <ele>478.00000</ele>
        <time>2010-01-01T02:33:09Z</time>
      </trkpt>
      <trkpt lat="31.77076030" lon="35.03191410">
        <ele>477.00000</ele>
        <time>2010-01-01T02:33:13Z</time>
      </trkpt>
      <trkpt lat="31.77084920" lon="35.03185990">
        <ele>477.00000</ele>
        <time>2010-01-01T02:33:17Z</time>
      </trkpt>
      <trkpt lat="31.77095570" lon="35.03180970">
        <ele>475.00000</ele>
        <time>2010-01-01T02:33:21Z</time>
      </trkpt>
      <trkpt lat="31.77106500" lon="35.03173430">
        <ele>474.00000</ele>
        <time>2010-01-01T02:33:27Z</time>
      </trkpt>
      <trkpt lat="31.77114110" lon="35.03164210">
        <ele>472.00000</ele>
        <time>2010-01-01T02:33:31Z</time>
      </trkpt>
      <trkpt lat="31.77121060" lon="35.03153760">
        <ele>471.00000</ele>
        <time>2010-01-01T02:33:35Z</time>
      </trkpt>
      <trkpt lat="31.77127600" lon="35.03142210">
        <ele>469.00000</ele>
        <time>2010-01-01T02:33:40Z</time>
      </trkpt>
      <trkpt lat="31.77132800" lon="35.03129260">
        <ele>468.00000</ele>
        <time>2010-01-01T02:33:45Z</time>
      </trkpt>
      <trkpt lat="31.77137790" lon="35.03115870">
        <ele>467.00000</ele>
        <time>2010-01-01T02:33:50Z</time>
      </trkpt>
      <trkpt lat="31.77142990" lon="35.03102920">
        <ele>465.00000</ele>
        <time>2010-01-01T02:33:55Z</time>
      </trkpt>
      <trkpt lat="31.77148450" lon="35.03091420">
        <ele>463.00000</ele>
        <time>2010-01-01T02:33:59Z</time>
      </trkpt>
      <trkpt lat="31.77152660" lon="35.03081800">
        <ele>462.00000</ele>
        <time>2010-01-01T02:34:03Z</time>
      </trkpt>
      <trkpt lat="31.77155540" lon="35.03070190">
        <ele>462.00000</ele>
        <time>2010-01-01T02:34:07Z</time>
      </trkpt>
      <trkpt lat="31.77152770" lon="35.03059400">
        <ele>461.00000</ele>
        <time>2010-01-01T02:34:11Z</time>
      </trkpt>
      <trkpt lat="31.77147840" lon="35.03047580">
        <ele>461.00000</ele>
        <time>2010-01-01T02:34:15Z</time>
      </trkpt>
      <trkpt lat="31.77147170" lon="35.03033960">
        <ele>461.00000</ele>
        <time>2010-01-01T02:34:20Z</time>
      </trkpt>
      <trkpt lat="31.77149960" lon="35.03021080">
        <ele>460.00000</ele>
        <time>2010-01-01T02:34:25Z</time>
      </trkpt>
      <trkpt lat="31.77151730" lon="35.03008150">
        <ele>460.00000</ele>
        <time>2010-01-01T02:34:29Z</time>
      </trkpt>
      <trkpt lat="31.77148900" lon="35.02997620">
        <ele>459.00000</ele>
        <time>2010-01-01T02:34:33Z</time>
      </trkpt>
      <trkpt lat="31.77142110" lon="35.02988920">
        <ele>459.00000</ele>
        <time>2010-01-01T02:34:37Z</time>
      </trkpt>
      <trkpt lat="31.77130640" lon="35.02982650">
        <ele>459.00000</ele>
        <time>2010-01-01T02:34:42Z</time>
      </trkpt>
      <trkpt lat="31.77122720" lon="35.02976880">
        <ele>459.00000</ele>
        <time>2010-01-01T02:34:46Z</time>
      </trkpt>
      <trkpt lat="31.77118440" lon="35.02964060">
        <ele>459.00000</ele>
        <time>2010-01-01T02:34:50Z</time>
      </trkpt>
      <trkpt lat="31.77118660" lon="35.02953100">
        <ele>458.00000</ele>
        <time>2010-01-01T02:34:54Z</time>
      </trkpt>
      <trkpt lat="31.77119900" lon="35.02941690">
        <ele>458.00000</ele>
        <time>2010-01-01T02:34:58Z</time>
      </trkpt>
      <trkpt lat="31.77120360" lon="35.02928970">
        <ele>458.00000</ele>
        <time>2010-01-01T02:35:02Z</time>
      </trkpt>
      <trkpt lat="31.77118830" lon="35.02920310">
        <ele>457.00000</ele>
        <time>2010-01-01T02:35:05Z</time>
      </trkpt>
      <trkpt lat="31.77121060" lon="35.02910550">
        <ele>457.00000</ele>
        <time>2010-01-01T02:35:09Z</time>
      </trkpt>
      <trkpt lat="31.77117890" lon="35.02898840">
        <ele>458.00000</ele>
        <time>2010-01-01T02:35:13Z</time>
      </trkpt>
      <trkpt lat="31.77112870" lon="35.02886980">
        <ele>458.00000</ele>
        <time>2010-01-01T02:35:17Z</time>
      </trkpt>
      <trkpt lat="31.77105340" lon="35.02877240">
        <ele>458.00000</ele>
        <time>2010-01-01T02:35:22Z</time>
      </trkpt>
      <trkpt lat="31.77104110" lon="35.02865640">
        <ele>458.00000</ele>
        <time>2010-01-01T02:35:26Z</time>
      </trkpt>
      <trkpt lat="31.77109690" lon="35.02856910">
        <ele>459.00000</ele>
        <time>2010-01-01T02:35:30Z</time>
      </trkpt>
      <trkpt lat="31.77115720" lon="35.02848200">
        <ele>459.00000</ele>
        <time>2010-01-01T02:35:33Z</time>
      </trkpt>
      <trkpt lat="31.77122830" lon="35.02836720">
        <ele>460.00000</ele>
        <time>2010-01-01T02:35:38Z</time>
      </trkpt>
      <trkpt lat="31.77127130" lon="35.02826780">
        <ele>461.00000</ele>
        <time>2010-01-01T02:35:42Z</time>
      </trkpt>
      <trkpt lat="31.77131160" lon="35.02813710">
        <ele>461.00000</ele>
        <time>2010-01-01T02:35:47Z</time>
      </trkpt>
      <trkpt lat="31.77134080" lon="35.02802850">
        <ele>461.00000</ele>
        <time>2010-01-01T02:35:51Z</time>
      </trkpt>
      <trkpt lat="31.77139040" lon="35.02792440">
        <ele>461.00000</ele>
        <time>2010-01-01T02:35:55Z</time>
      </trkpt>
      <trkpt lat="31.77143910" lon="35.02782580">
        <ele>461.00000</ele>
        <time>2010-01-01T02:35:59Z</time>
      </trkpt>
      <trkpt lat="31.77148340" lon="35.02770890">
        <ele>461.00000</ele>
        <time>2010-01-01T02:36:03Z</time>
      </trkpt>
      <trkpt lat="31.77152320" lon="35.02759270">
        <ele>461.00000</ele>
        <time>2010-01-01T02:36:07Z</time>
      </trkpt>
      <trkpt lat="31.77154320" lon="35.02746590">
        <ele>461.00000</ele>
        <time>2010-01-01T02:36:12Z</time>
      </trkpt>
      <trkpt lat="31.77147120" lon="35.02738030">
        <ele>459.00000</ele>
        <time>2010-01-01T02:36:16Z</time>
      </trkpt>
      <trkpt lat="31.77138670" lon="35.02731170">
        <ele>456.00000</ele>
        <time>2010-01-01T02:36:20Z</time>
      </trkpt>
      <trkpt lat="31.77129120" lon="35.02727690">
        <ele>454.00000</ele>
        <time>2010-01-01T02:36:24Z</time>
      </trkpt>
      <trkpt lat="31.77117170" lon="35.02725270">
        <ele>452.00000</ele>
        <time>2010-01-01T02:36:29Z</time>
      </trkpt>
      <trkpt lat="31.77107480" lon="35.02723620">
        <ele>450.00000</ele>
        <time>2010-01-01T02:36:33Z</time>
      </trkpt>
      <trkpt lat="31.77106060" lon="35.02712140">
        <ele>449.00000</ele>
        <time>2010-01-01T02:36:37Z</time>
      </trkpt>
      <trkpt lat="31.77107540" lon="35.02699480">
        <ele>447.00000</ele>
        <time>2010-01-01T02:36:41Z</time>
      </trkpt>
      <trkpt lat="31.77109380" lon="35.02683860">
        <ele>446.00000</ele>
        <time>2010-01-01T02:36:46Z</time>
      </trkpt>
      <trkpt lat="31.77111350" lon="35.02669690">
        <ele>446.00000</ele>
        <time>2010-01-01T02:36:51Z</time>
      </trkpt>
      <trkpt lat="31.77112740" lon="35.02655260">
        <ele>444.00000</ele>
        <time>2010-01-01T02:36:56Z</time>
      </trkpt>
      <trkpt lat="31.77113410" lon="35.02639940">
        <ele>442.00000</ele>
        <time>2010-01-01T02:37:01Z</time>
      </trkpt>
      <trkpt lat="31.77112440" lon="35.02628330">
        <ele>440.00000</ele>
        <time>2010-01-01T02:37:05Z</time>
      </trkpt>
      <trkpt lat="31.77110860" lon="35.02614210">
        <ele>438.00000</ele>
        <time>2010-01-01T02:37:10Z</time>
      </trkpt>
      <trkpt lat="31.77113590" lon="35.02602430">
        <ele>437.00000</ele>
        <time>2010-01-01T02:37:14Z</time>
      </trkpt>
      <trkpt lat="31.77121470" lon="35.02596160">
        <ele>436.00000</ele>
        <time>2010-01-01T02:37:18Z</time>
      </trkpt>
      <trkpt lat="31.77132070" lon="35.02590190">
        <ele>436.00000</ele>
        <time>2010-01-01T02:37:23Z</time>
      </trkpt>
      <trkpt lat="31.77142140" lon="35.02584720">
        <ele>436.00000</ele>
        <time>2010-01-01T02:37:27Z</time>
      </trkpt>
      <trkpt lat="31.77152690" lon="35.02578250">
        <ele>437.00000</ele>
        <time>2010-01-01T02:37:32Z</time>
      </trkpt>
      <trkpt lat="31.77161150" lon="35.02571870">
        <ele>437.00000</ele>
        <time>2010-01-01T02:37:36Z</time>
      </trkpt>
      <trkpt lat="31.77168590" lon="35.02564560">
        <ele>436.00000</ele>
        <time>2010-01-01T02:37:40Z</time>
      </trkpt>
      <trkpt lat="31.77175130" lon="35.02555660">
        <ele>435.00000</ele>
        <time>2010-01-01T02:37:44Z</time>
      </trkpt>
      <trkpt lat="31.77182430" lon="35.02547120">
        <ele>434.00000</ele>
        <time>2010-01-01T02:37:48Z</time>
      </trkpt>
      <trkpt lat="31.77190250" lon="35.02539370">
        <ele>434.00000</ele>
        <time>2010-01-01T02:37:52Z</time>
      </trkpt>
      <trkpt lat="31.77198090" lon="35.02531520">
        <ele>433.00000</ele>
        <time>2010-01-01T02:37:56Z</time>
      </trkpt>
      <trkpt lat="31.77205840" lon="35.02523000">
        <ele>432.00000</ele>
        <time>2010-01-01T02:38:01Z</time>
      </trkpt>
      <trkpt lat="31.77212430" lon="35.02513350">
        <ele>431.00000</ele>
        <time>2010-01-01T02:38:05Z</time>
      </trkpt>
      <trkpt lat="31.77219920" lon="35.02505520">
        <ele>431.00000</ele>
        <time>2010-01-01T02:38:09Z</time>
      </trkpt>
      <trkpt lat="31.77228430" lon="35.02499450">
        <ele>431.00000</ele>
        <time>2010-01-01T02:38:13Z</time>
      </trkpt>
      <trkpt lat="31.77237200" lon="35.02493110">
        <ele>431.00000</ele>
        <time>2010-01-01T02:38:17Z</time>
      </trkpt>
      <trkpt lat="31.77244450" lon="35.02486550">
        <ele>430.00000</ele>
        <time>2010-01-01T02:38:21Z</time>
      </trkpt>
      <trkpt lat="31.77252110" lon="35.02473300">
        <ele>429.00000</ele>
        <time>2010-01-01T02:38:26Z</time>
      </trkpt>
      <trkpt lat="31.77258200" lon="35.02463510">
        <ele>427.00000</ele>
        <time>2010-01-01T02:38:30Z</time>
      </trkpt>
      <trkpt lat="31.77265210" lon="35.02453740">
        <ele>426.00000</ele>
        <time>2010-01-01T02:38:34Z</time>
      </trkpt>
      <trkpt lat="31.77273120" lon="35.02444940">
        <ele>426.00000</ele>
        <time>2010-01-01T02:38:39Z</time>
      </trkpt>
      <trkpt lat="31.77280960" lon="35.02437470">
        <ele>426.00000</ele>
        <time>2010-01-01T02:38:43Z</time>
      </trkpt>
      <trkpt lat="31.77290080" lon="35.02429720">
        <ele>425.00000</ele>
        <time>2010-01-01T02:38:47Z</time>
      </trkpt>
      <trkpt lat="31.77292480" lon="35.02419520">
        <ele>424.00000</ele>
        <time>2010-01-01T02:38:51Z</time>
      </trkpt>
      <trkpt lat="31.77281170" lon="35.02417400">
        <ele>424.00000</ele>
        <time>2010-01-01T02:38:56Z</time>
      </trkpt>
      <trkpt lat="31.77269710" lon="35.02415390">
        <ele>424.00000</ele>
        <time>2010-01-01T02:39:00Z</time>
      </trkpt>
      <trkpt lat="31.77257760" lon="35.02413760">
        <ele>423.00000</ele>
        <time>2010-01-01T02:39:05Z</time>
      </trkpt>
      <trkpt lat="31.77248270" lon="35.02414330">
        <ele>422.00000</ele>
        <time>2010-01-01T02:39:09Z</time>
      </trkpt>
      <trkpt lat="31.77236150" lon="35.02416490">
        <ele>421.00000</ele>
        <time>2010-01-01T02:39:14Z</time>
      </trkpt>
      <trkpt lat="31.77226110" lon="35.02418360">
        <ele>419.00000</ele>
        <time>2010-01-01T02:39:18Z</time>
      </trkpt>
      <trkpt lat="31.77215630" lon="35.02422110">
        <ele>418.00000</ele>
        <time>2010-01-01T02:39:22Z</time>
      </trkpt>
      <trkpt lat="31.77203260" lon="35.02426710">
        <ele>416.00000</ele>
        <time>2010-01-01T02:39:27Z</time>
      </trkpt>
      <trkpt lat="31.77194360" lon="35.02430180">
        <ele>415.00000</ele>
        <time>2010-01-01T02:39:31Z</time>
      </trkpt>
      <trkpt lat="31.77185240" lon="35.02434010">
        <ele>415.00000</ele>
        <time>2010-01-01T02:39:35Z</time>
      </trkpt>
      <trkpt lat="31.77176230" lon="35.02435990">
        <ele>414.00000</ele>
        <time>2010-01-01T02:39:39Z</time>
      </trkpt>
      <trkpt lat="31.77163760" lon="35.02437240">
        <ele>413.00000</ele>
        <time>2010-01-01T02:39:44Z</time>
      </trkpt>
      <trkpt lat="31.77154880" lon="35.02436710">
        <ele>413.00000</ele>
        <time>2010-01-01T02:39:47Z</time>
      </trkpt>
      <trkpt lat="31.77142530" lon="35.02437150">
        <ele>412.00000</ele>
        <time>2010-01-01T02:39:52Z</time>
      </trkpt>
      <trkpt lat="31.77129340" lon="35.02438520">
        <ele>411.00000</ele>
        <time>2010-01-01T02:39:57Z</time>
      </trkpt>
      <trkpt lat="31.77119110" lon="35.02439080">
        <ele>410.00000</ele>
        <time>2010-01-01T02:40:02Z</time>
      </trkpt>
      <trkpt lat="31.77108920" lon="35.02439780">
        <ele>410.00000</ele>
        <time>2010-01-01T02:40:06Z</time>
      </trkpt>
      <trkpt lat="31.77099320" lon="35.02440600">
        <ele>410.00000</ele>
        <time>2010-01-01T02:40:10Z</time>
      </trkpt>
      <trkpt lat="31.77088000" lon="35.02440850">
        <ele>409.00000</ele>
        <time>2010-01-01T02:40:14Z</time>
      </trkpt>
      <trkpt lat="31.77077660" lon="35.02442870">
        <ele>409.00000</ele>
        <time>2010-01-01T02:40:18Z</time>
      </trkpt>
      <trkpt lat="31.77068390" lon="35.02449860">
        <ele>409.00000</ele>
        <time>2010-01-01T02:40:23Z</time>
      </trkpt>
      <trkpt lat="31.77059370" lon="35.02459020">
        <ele>409.00000</ele>
        <time>2010-01-01T02:40:27Z</time>
      </trkpt>
      <trkpt lat="31.77049540" lon="35.02466360">
        <ele>408.00000</ele>
        <time>2010-01-01T02:40:32Z</time>
      </trkpt>
      <trkpt lat="31.77039070" lon="35.02472300">
        <ele>406.00000</ele>
        <time>2010-01-01T02:40:37Z</time>
      </trkpt>
      <trkpt lat="31.77027910" lon="35.02476160">
        <ele>405.00000</ele>
        <time>2010-01-01T02:40:41Z</time>
      </trkpt>
      <trkpt lat="31.77017650" lon="35.02477800">
        <ele>402.00000</ele>
        <time>2010-01-01T02:40:46Z</time>
      </trkpt>
      <trkpt lat="31.77008500" lon="35.02471990">
        <ele>400.00000</ele>
        <time>2010-01-01T02:40:50Z</time>
      </trkpt>
      <trkpt lat="31.77002620" lon="35.02463240">
        <ele>399.00000</ele>
        <time>2010-01-01T02:40:54Z</time>
      </trkpt>
      <trkpt lat="31.76996900" lon="35.02452430">
        <ele>397.00000</ele>
        <time>2010-01-01T02:40:58Z</time>
      </trkpt>
      <trkpt lat="31.76990390" lon="35.02442310">
        <ele>395.00000</ele>
        <time>2010-01-01T02:41:02Z</time>
      </trkpt>
      <trkpt lat="31.76985600" lon="35.02432390">
        <ele>393.00000</ele>
        <time>2010-01-01T02:41:06Z</time>
      </trkpt>
      <trkpt lat="31.76982330" lon="35.02420510">
        <ele>392.00000</ele>
        <time>2010-01-01T02:41:10Z</time>
      </trkpt>
      <trkpt lat="31.76978300" lon="35.02406690">
        <ele>391.00000</ele>
        <time>2010-01-01T02:41:15Z</time>
      </trkpt>
      <trkpt lat="31.76973420" lon="35.02392760">
        <ele>390.00000</ele>
        <time>2010-01-01T02:41:20Z</time>
      </trkpt>
      <trkpt lat="31.76968640" lon="35.02378610">
        <ele>388.00000</ele>
        <time>2010-01-01T02:41:26Z</time>
      </trkpt>
      <trkpt lat="31.76963000" lon="35.02366220">
        <ele>387.00000</ele>
        <time>2010-01-01T02:41:30Z</time>
      </trkpt>
      <trkpt lat="31.76956140" lon="35.02353000">
        <ele>385.00000</ele>
        <time>2010-01-01T02:41:36Z</time>
      </trkpt>
      <trkpt lat="31.76950720" lon="35.02342830">
        <ele>384.00000</ele>
        <time>2010-01-01T02:41:40Z</time>
      </trkpt>
      <trkpt lat="31.76942400" lon="35.02330330">
        <ele>382.00000</ele>
        <time>2010-01-01T02:41:45Z</time>
      </trkpt>
      <trkpt lat="31.76933650" lon="35.02319530">
        <ele>381.00000</ele>
        <time>2010-01-01T02:41:50Z</time>
      </trkpt>
      <trkpt lat="31.76924520" lon="35.02308180">
        <ele>380.00000</ele>
        <time>2010-01-01T02:41:56Z</time>
      </trkpt>
      <trkpt lat="31.76916400" lon="35.02298930">
        <ele>378.00000</ele>
        <time>2010-01-01T02:42:00Z</time>
      </trkpt>
      <trkpt lat="31.76908830" lon="35.02291780">
        <ele>376.00000</ele>
        <time>2010-01-01T02:42:04Z</time>
      </trkpt>
      <trkpt lat="31.76899170" lon="35.02282900">
        <ele>374.00000</ele>
        <time>2010-01-01T02:42:09Z</time>
      </trkpt>
      <trkpt lat="31.76888990" lon="35.02271760">
        <ele>371.00000</ele>
        <time>2010-01-01T02:42:14Z</time>
      </trkpt>
      <trkpt lat="31.76882170" lon="35.02263030">
        <ele>369.00000</ele>
        <time>2010-01-01T02:42:18Z</time>
      </trkpt>
      <trkpt lat="31.76876420" lon="35.02254280">
        <ele>368.00000</ele>
        <time>2010-01-01T02:42:22Z</time>
      </trkpt>
      <trkpt lat="31.76871650" lon="35.02245400">
        <ele>367.00000</ele>
        <time>2010-01-01T02:42:26Z</time>
      </trkpt>
      <trkpt lat="31.76865630" lon="35.02232820">
        <ele>364.00000</ele>
        <time>2010-01-01T02:42:31Z</time>
      </trkpt>
      <trkpt lat="31.76860280" lon="35.02221860">
        <ele>362.00000</ele>
        <time>2010-01-01T02:42:35Z</time>
      </trkpt>
      <trkpt lat="31.76857330" lon="35.02207970">
        <ele>359.00000</ele>
        <time>2010-01-01T02:42:40Z</time>
      </trkpt>
      <trkpt lat="31.76856520" lon="35.02196940">
        <ele>356.00000</ele>
        <time>2010-01-01T02:42:44Z</time>
      </trkpt>
      <trkpt lat="31.76857300" lon="35.02186080">
        <ele>356.00000</ele>
        <time>2010-01-01T02:42:47Z</time>
      </trkpt>
      <trkpt lat="31.76859860" lon="35.02173650">
        <ele>356.00000</ele>
        <time>2010-01-01T02:42:52Z</time>
      </trkpt>
      <trkpt lat="31.76861500" lon="35.02162120">
        <ele>355.00000</ele>
        <time>2010-01-01T02:42:56Z</time>
      </trkpt>
      <trkpt lat="31.76863450" lon="35.02148110">
        <ele>354.00000</ele>
        <time>2010-01-01T02:43:00Z</time>
      </trkpt>
      <trkpt lat="31.76865110" lon="35.02133220">
        <ele>352.00000</ele>
        <time>2010-01-01T02:43:06Z</time>
      </trkpt>
      <trkpt lat="31.76866510" lon="35.02119500">
        <ele>350.00000</ele>
        <time>2010-01-01T02:43:10Z</time>
      </trkpt>
      <trkpt lat="31.76868540" lon="35.02104770">
        <ele>348.00000</ele>
        <time>2010-01-01T02:43:15Z</time>
      </trkpt>
      <trkpt lat="31.76870420" lon="35.02087270">
        <ele>348.00000</ele>
        <time>2010-01-01T02:43:21Z</time>
      </trkpt>
      <trkpt lat="31.76871170" lon="35.02075300">
        <ele>347.00000</ele>
        <time>2010-01-01T02:43:25Z</time>
      </trkpt>
      <trkpt lat="31.76872520" lon="35.02063310">
        <ele>347.00000</ele>
        <time>2010-01-01T02:43:30Z</time>
      </trkpt>
      <trkpt lat="31.76873080" lon="35.02051830">
        <ele>346.00000</ele>
        <time>2010-01-01T02:43:33Z</time>
      </trkpt>
      <trkpt lat="31.76874140" lon="35.02040920">
        <ele>345.00000</ele>
        <time>2010-01-01T02:43:37Z</time>
      </trkpt>
      <trkpt lat="31.76876740" lon="35.02030260">
        <ele>344.00000</ele>
        <time>2010-01-01T02:43:41Z</time>
      </trkpt>
      <trkpt lat="31.76880980" lon="35.02020530">
        <ele>343.00000</ele>
        <time>2010-01-01T02:43:45Z</time>
      </trkpt>
      <trkpt lat="31.76887370" lon="35.02011740">
        <ele>343.00000</ele>
        <time>2010-01-01T02:43:49Z</time>
      </trkpt>
      <trkpt lat="31.76895530" lon="35.02004320">
        <ele>343.00000</ele>
        <time>2010-01-01T02:43:53Z</time>
      </trkpt>
      <trkpt lat="31.76905310" lon="35.01996790">
        <ele>344.00000</ele>
        <time>2010-01-01T02:43:57Z</time>
      </trkpt>
      <trkpt lat="31.76916480" lon="35.01988550">
        <ele>345.00000</ele>
        <time>2010-01-01T02:44:03Z</time>
      </trkpt>
      <trkpt lat="31.76927570" lon="35.01978110">
        <ele>345.00000</ele>
        <time>2010-01-01T02:44:08Z</time>
      </trkpt>
      <trkpt lat="31.76937660" lon="35.01965950">
        <ele>345.00000</ele>
        <time>2010-01-01T02:44:14Z</time>
      </trkpt>
      <trkpt lat="31.76946930" lon="35.01952850">
        <ele>344.00000</ele>
        <time>2010-01-01T02:44:20Z</time>
      </trkpt>
      <trkpt lat="31.76955450" lon="35.01939990">
        <ele>343.00000</ele>
        <time>2010-01-01T02:44:26Z</time>
      </trkpt>
      <trkpt lat="31.76965000" lon="35.01927620">
        <ele>341.00000</ele>
        <time>2010-01-01T02:44:31Z</time>
      </trkpt>
      <trkpt lat="31.76973580" lon="35.01914690">
        <ele>339.00000</ele>
        <time>2010-01-01T02:44:37Z</time>
      </trkpt>
      <trkpt lat="31.76977720" lon="35.01902740">
        <ele>338.00000</ele>
        <time>2010-01-01T02:44:41Z</time>
      </trkpt>
      <trkpt lat="31.76976890" lon="35.01892030">
        <ele>336.00000</ele>
        <time>2010-01-01T02:44:45Z</time>
      </trkpt>
      <trkpt lat="31.76973840" lon="35.01881570">
        <ele>334.00000</ele>
        <time>2010-01-01T02:44:49Z</time>
      </trkpt>
      <trkpt lat="31.76969750" lon="35.01871520">
        <ele>332.00000</ele>
        <time>2010-01-01T02:44:52Z</time>
      </trkpt>
      <trkpt lat="31.76966340" lon="35.01861260">
        <ele>330.00000</ele>
        <time>2010-01-01T02:44:56Z</time>
      </trkpt>
      <trkpt lat="31.76963050" lon="35.01846370">
        <ele>327.00000</ele>
        <time>2010-01-01T02:45:01Z</time>
      </trkpt>
      <trkpt lat="31.76961220" lon="35.01831990">
        <ele>325.00000</ele>
        <time>2010-01-01T02:45:06Z</time>
      </trkpt>
      <trkpt lat="31.76964570" lon="35.01817590">
        <ele>322.00000</ele>
        <time>2010-01-01T02:45:11Z</time>
      </trkpt>
      <trkpt lat="31.76971980" lon="35.01806840">
        <ele>321.00000</ele>
        <time>2010-01-01T02:45:16Z</time>
      </trkpt>
      <trkpt lat="31.76980250" lon="35.01797720">
        <ele>321.00000</ele>
        <time>2010-01-01T02:45:21Z</time>
      </trkpt>
      <trkpt lat="31.76988350" lon="35.01788090">
        <ele>320.00000</ele>
        <time>2010-01-01T02:45:25Z</time>
      </trkpt>
      <trkpt lat="31.76994900" lon="35.01776860">
        <ele>320.00000</ele>
        <time>2010-01-01T02:45:30Z</time>
      </trkpt>
      <trkpt lat="31.76996000" lon="35.01766270">
        <ele>319.00000</ele>
        <time>2010-01-01T02:45:34Z</time>
      </trkpt>
      <trkpt lat="31.76986840" lon="35.01758610">
        <ele>317.00000</ele>
        <time>2010-01-01T02:45:38Z</time>
      </trkpt>
      <trkpt lat="31.76979740" lon="35.01747200">
        <ele>314.00000</ele>
        <time>2010-01-01T02:45:43Z</time>
      </trkpt>
      <trkpt lat="31.76978090" lon="35.01734060">
        <ele>312.00000</ele>
        <time>2010-01-01T02:45:47Z</time>
      </trkpt>
      <trkpt lat="31.76978310" lon="35.01719590">
        <ele>309.00000</ele>
        <time>2010-01-01T02:45:52Z</time>
      </trkpt>
      <trkpt lat="31.76981110" lon="35.01705650">
        <ele>308.00000</ele>
        <time>2010-01-01T02:45:57Z</time>
      </trkpt>
      <trkpt lat="31.76981250" lon="35.01694440">
        <ele>306.00000</ele>
        <time>2010-01-01T02:46:01Z</time>
      </trkpt>
      <trkpt lat="31.76978240" lon="35.01684360">
        <ele>305.00000</ele>
        <time>2010-01-01T02:46:05Z</time>
      </trkpt>
      <trkpt lat="31.76974560" lon="35.01672870">
        <ele>303.00000</ele>
        <time>2010-01-01T02:46:09Z</time>
      </trkpt>
      <trkpt lat="31.76973140" lon="35.01661340">
        <ele>301.00000</ele>
        <time>2010-01-01T02:46:13Z</time>
      </trkpt>
      <trkpt lat="31.76972660" lon="35.01648360">
        <ele>300.00000</ele>
        <time>2010-01-01T02:46:17Z</time>
      </trkpt>
      <trkpt lat="31.76977080" lon="35.01635690">
        <ele>299.00000</ele>
        <time>2010-01-01T02:46:22Z</time>
      </trkpt>
      <trkpt lat="31.76985080" lon="35.01623020">
        <ele>300.00000</ele>
        <time>2010-01-01T02:46:27Z</time>
      </trkpt>
      <trkpt lat="31.76989700" lon="35.01613260">
        <ele>300.00000</ele>
        <time>2010-01-01T02:46:31Z</time>
      </trkpt>
      <trkpt lat="31.76996770" lon="35.01601150">
        <ele>300.00000</ele>
        <time>2010-01-01T02:46:36Z</time>
      </trkpt>
      <trkpt lat="31.77005910" lon="35.01596980">
        <ele>300.00000</ele>
        <time>2010-01-01T02:46:40Z</time>
      </trkpt>
      <trkpt lat="31.77014100" lon="35.01602010">
        <ele>302.00000</ele>
        <time>2010-01-01T02:46:44Z</time>
      </trkpt>
      <trkpt lat="31.77020930" lon="35.01611980">
        <ele>303.00000</ele>
        <time>2010-01-01T02:46:48Z</time>
      </trkpt>
      <trkpt lat="31.77026950" lon="35.01620650">
        <ele>304.00000</ele>
        <time>2010-01-01T02:46:52Z</time>
      </trkpt>
      <trkpt lat="31.77034410" lon="35.01629500">
        <ele>304.00000</ele>
        <time>2010-01-01T02:46:56Z</time>
      </trkpt>
      <trkpt lat="31.77040350" lon="35.01640240">
        <ele>304.00000</ele>
        <time>2010-01-01T02:47:00Z</time>
      </trkpt>
      <trkpt lat="31.77043560" lon="35.01654090">
        <ele>305.00000</ele>
        <time>2010-01-01T02:47:05Z</time>
      </trkpt>
      <trkpt lat="31.77046430" lon="35.01666210">
        <ele>305.00000</ele>
        <time>2010-01-01T02:47:10Z</time>
      </trkpt>
      <trkpt lat="31.77051860" lon="35.01682040">
        <ele>307.00000</ele>
        <time>2010-01-01T02:47:15Z</time>
      </trkpt>
      <trkpt lat="31.77059500" lon="35.01692500">
        <ele>307.00000</ele>
        <time>2010-01-01T02:47:20Z</time>
      </trkpt>
      <trkpt lat="31.77068900" lon="35.01696830">
        <ele>306.00000</ele>
        <time>2010-01-01T02:47:24Z</time>
      </trkpt>
      <trkpt lat="31.77077610" lon="35.01692690">
        <ele>303.00000</ele>
        <time>2010-01-01T02:47:28Z</time>
      </trkpt>
      <trkpt lat="31.77083250" lon="35.01681310">
        <ele>299.00000</ele>
        <time>2010-01-01T02:47:32Z</time>
      </trkpt>
      <trkpt lat="31.77086190" lon="35.01666120">
        <ele>296.00000</ele>
        <time>2010-01-01T02:47:38Z</time>
      </trkpt>
      <trkpt lat="31.77090310" lon="35.01648770">
        <ele>295.00000</ele>
        <time>2010-01-01T02:47:44Z</time>
      </trkpt>
      <trkpt lat="31.77097190" lon="35.01631290">
        <ele>295.00000</ele>
        <time>2010-01-01T02:47:50Z</time>
      </trkpt>
      <trkpt lat="31.77106400" lon="35.01614180">
        <ele>294.00000</ele>
        <time>2010-01-01T02:47:57Z</time>
      </trkpt>
      <trkpt lat="31.77117440" lon="35.01597390">
        <ele>294.00000</ele>
        <time>2010-01-01T02:48:05Z</time>
      </trkpt>
      <trkpt lat="31.77123600" lon="35.01589310">
        <ele>293.00000</ele>
        <time>2010-01-01T02:48:08Z</time>
      </trkpt>
      <trkpt lat="31.77130420" lon="35.01581560">
        <ele>293.00000</ele>
        <time>2010-01-01T02:48:12Z</time>
      </trkpt>
      <trkpt lat="31.77137700" lon="35.01574230">
        <ele>292.00000</ele>
        <time>2010-01-01T02:48:16Z</time>
      </trkpt>
      <trkpt lat="31.77145090" lon="35.01566810">
        <ele>291.00000</ele>
        <time>2010-01-01T02:48:20Z</time>
      </trkpt>
      <trkpt lat="31.77152300" lon="35.01558870">
        <ele>289.00000</ele>
        <time>2010-01-01T02:48:24Z</time>
      </trkpt>
      <trkpt lat="31.77159270" lon="35.01550250">
        <ele>288.00000</ele>
        <time>2010-01-01T02:48:28Z</time>
      </trkpt>
      <trkpt lat="31.77165940" lon="35.01540930">
        <ele>286.00000</ele>
        <time>2010-01-01T02:48:32Z</time>
      </trkpt>
      <trkpt lat="31.77172310" lon="35.01530930">
        <ele>285.00000</ele>
        <time>2010-01-01T02:48:36Z</time>
      </trkpt>
      <trkpt lat="31.77178610" lon="35.01520590">
        <ele>285.00000</ele>
        <time>2010-01-01T02:48:40Z</time>
      </trkpt>
      <trkpt lat="31.77185060" lon="35.01510160">
        <ele>284.00000</ele>
        <time>2010-01-01T02:48:45Z</time>
      </trkpt>
      <trkpt lat="31.77191670" lon="35.01499480">
        <ele>282.00000</ele>
        <time>2010-01-01T02:48:49Z</time>
      </trkpt>
      <trkpt lat="31.77198240" lon="35.01488690">
        <ele>283.00000</ele>
        <time>2010-01-01T02:48:54Z</time>
      </trkpt>
      <trkpt lat="31.77204710" lon="35.01477880">
        <ele>283.00000</ele>
        <time>2010-01-01T02:48:58Z</time>
      </trkpt>
      <trkpt lat="31.77210930" lon="35.01466990">
        <ele>283.00000</ele>
        <time>2010-01-01T02:49:03Z</time>
      </trkpt>
      <trkpt lat="31.77216980" lon="35.01456090">
        <ele>282.00000</ele>
        <time>2010-01-01T02:49:07Z</time>
      </trkpt>
      <trkpt lat="31.77222940" lon="35.01445280">
        <ele>281.00000</ele>
        <time>2010-01-01T02:49:12Z</time>
      </trkpt>
      <trkpt lat="31.77228990" lon="35.01434650">
        <ele>281.00000</ele>
        <time>2010-01-01T02:49:16Z</time>
      </trkpt>
      <trkpt lat="31.77235120" lon="35.01424050">
        <ele>280.00000</ele>
        <time>2010-01-01T02:49:20Z</time>
      </trkpt>
      <trkpt lat="31.77241240" lon="35.01413500">
        <ele>279.00000</ele>
        <time>2010-01-01T02:49:25Z</time>
      </trkpt>
      <trkpt lat="31.77247460" lon="35.01402820">
        <ele>278.00000</ele>
        <time>2010-01-01T02:49:29Z</time>
      </trkpt>
      <trkpt lat="31.77253570" lon="35.01392060">
        <ele>278.00000</ele>
        <time>2010-01-01T02:49:34Z</time>
      </trkpt>
      <trkpt lat="31.77259730" lon="35.01381310">
        <ele>278.00000</ele>
        <time>2010-01-01T02:49:38Z</time>
      </trkpt>
      <trkpt lat="31.77266350" lon="35.01370970">
        <ele>278.00000</ele>
        <time>2010-01-01T02:49:42Z</time>
      </trkpt>
      <trkpt lat="31.77273430" lon="35.01361150">
        <ele>277.00000</ele>
        <time>2010-01-01T02:49:47Z</time>
      </trkpt>
      <trkpt lat="31.77281070" lon="35.01352100">
        <ele>275.00000</ele>
        <time>2010-01-01T02:49:51Z</time>
      </trkpt>
      <trkpt lat="31.77289440" lon="35.01344000">
        <ele>274.00000</ele>
        <time>2010-01-01T02:49:55Z</time>
      </trkpt>
      <trkpt lat="31.77298560" lon="35.01337080">
        <ele>273.00000</ele>
        <time>2010-01-01T02:50:00Z</time>
      </trkpt>
      <trkpt lat="31.77308270" lon="35.01331540">
        <ele>272.00000</ele>
        <time>2010-01-01T02:50:04Z</time>
      </trkpt>
      <trkpt lat="31.77318330" lon="35.01327260">
        <ele>271.00000</ele>
        <time>2010-01-01T02:50:08Z</time>
      </trkpt>
      <trkpt lat="31.77328610" lon="35.01324070">
        <ele>270.00000</ele>
        <time>2010-01-01T02:50:13Z</time>
      </trkpt>
      <trkpt lat="31.77338780" lon="35.01322070">
        <ele>270.00000</ele>
        <time>2010-01-01T02:50:17Z</time>
      </trkpt>
      <trkpt lat="31.77348850" lon="35.01321500">
        <ele>269.00000</ele>
        <time>2010-01-01T02:50:21Z</time>
      </trkpt>
      <trkpt lat="31.77358690" lon="35.01322140">
        <ele>269.00000</ele>
        <time>2010-01-01T02:50:25Z</time>
      </trkpt>
      <trkpt lat="31.77368100" lon="35.01323750">
        <ele>269.00000</ele>
        <time>2010-01-01T02:50:29Z</time>
      </trkpt>
      <trkpt lat="31.77376910" lon="35.01326470">
        <ele>269.00000</ele>
        <time>2010-01-01T02:50:32Z</time>
      </trkpt>
      <trkpt lat="31.77392160" lon="35.01334450">
        <ele>270.00000</ele>
        <time>2010-01-01T02:50:39Z</time>
      </trkpt>
      <trkpt lat="31.77405030" lon="35.01342060">
        <ele>271.00000</ele>
        <time>2010-01-01T02:50:45Z</time>
      </trkpt>
      <trkpt lat="31.77416790" lon="35.01347500">
        <ele>271.00000</ele>
        <time>2010-01-01T02:50:50Z</time>
      </trkpt>
      <trkpt lat="31.77427390" lon="35.01349070">
        <ele>272.00000</ele>
        <time>2010-01-01T02:50:54Z</time>
      </trkpt>
      <trkpt lat="31.77438450" lon="35.01347100">
        <ele>272.00000</ele>
        <time>2010-01-01T02:50:58Z</time>
      </trkpt>
      <trkpt lat="31.77446050" lon="35.01341350">
        <ele>272.00000</ele>
        <time>2010-01-01T02:51:02Z</time>
      </trkpt>
      <trkpt lat="31.77453390" lon="35.01334440">
        <ele>272.00000</ele>
        <time>2010-01-01T02:51:06Z</time>
      </trkpt>
      <trkpt lat="31.77461410" lon="35.01326810">
        <ele>273.00000</ele>
        <time>2010-01-01T02:51:10Z</time>
      </trkpt>
      <trkpt lat="31.77472690" lon="35.01327450">
        <ele>275.00000</ele>
        <time>2010-01-01T02:51:14Z</time>
      </trkpt>
      <trkpt lat="31.77482100" lon="35.01334240">
        <ele>276.00000</ele>
        <time>2010-01-01T02:51:19Z</time>
      </trkpt>
      <trkpt lat="31.77484910" lon="35.01344650">
        <ele>278.00000</ele>
        <time>2010-01-01T02:51:23Z</time>
      </trkpt>
      <trkpt lat="31.77486930" lon="35.01357160">
        <ele>279.00000</ele>
        <time>2010-01-01T02:51:27Z</time>
      </trkpt>
      <trkpt lat="31.77488350" lon="35.01368790">
        <ele>280.00000</ele>
        <time>2010-01-01T02:51:31Z</time>
      </trkpt>
      <trkpt lat="31.77489930" lon="35.01379710">
        <ele>281.00000</ele>
        <time>2010-01-01T02:51:35Z</time>
      </trkpt>
      <trkpt lat="31.77491740" lon="35.01391160">
        <ele>282.00000</ele>
        <time>2010-01-01T02:51:39Z</time>
      </trkpt>
      <trkpt lat="31.77493270" lon="35.01402510">
        <ele>283.00000</ele>
        <time>2010-01-01T02:51:43Z</time>
      </trkpt>
      <trkpt lat="31.77498480" lon="35.01412600">
        <ele>284.00000</ele>
        <time>2010-01-01T02:51:47Z</time>
      </trkpt>
      <trkpt lat="31.77504430" lon="35.01422970">
        <ele>285.00000</ele>
        <time>2010-01-01T02:51:51Z</time>
      </trkpt>
      <trkpt lat="31.77507500" lon="35.01434210">
        <ele>286.00000</ele>
        <time>2010-01-01T02:51:55Z</time>
      </trkpt>
      <trkpt lat="31.77511430" lon="35.01444270">
        <ele>287.00000</ele>
        <time>2010-01-01T02:51:59Z</time>
      </trkpt>
      <trkpt lat="31.77519820" lon="35.01446100">
        <ele>288.00000</ele>
        <time>2010-01-01T02:52:02Z</time>
      </trkpt>
      <trkpt lat="31.77527350" lon="35.01439980">
        <ele>288.00000</ele>
        <time>2010-01-01T02:52:06Z</time>
      </trkpt>
      <trkpt lat="31.77528760" lon="35.01428720">
        <ele>287.00000</ele>
        <time>2010-01-01T02:52:10Z</time>
      </trkpt>
      <trkpt lat="31.77527830" lon="35.01412460">
        <ele>285.00000</ele>
        <time>2010-01-01T02:52:15Z</time>
      </trkpt>
      <trkpt lat="31.77528990" lon="35.01400540">
        <ele>284.00000</ele>
        <time>2010-01-01T02:52:19Z</time>
      </trkpt>
      <trkpt lat="31.77533750" lon="35.01391690">
        <ele>283.00000</ele>
        <time>2010-01-01T02:52:23Z</time>
      </trkpt>
      <trkpt lat="31.77546770" lon="35.01392310">
        <ele>282.00000</ele>
        <time>2010-01-01T02:52:28Z</time>
      </trkpt>
      <trkpt lat="31.77554320" lon="35.01398790">
        <ele>283.00000</ele>
        <time>2010-01-01T02:52:32Z</time>
      </trkpt>
      <trkpt lat="31.77561320" lon="35.01405720">
        <ele>283.00000</ele>
        <time>2010-01-01T02:52:35Z</time>
      </trkpt>
      <trkpt lat="31.77571060" lon="35.01415120">
        <ele>283.00000</ele>
        <time>2010-01-01T02:52:40Z</time>
      </trkpt>
      <trkpt lat="31.77580770" lon="35.01423810">
        <ele>284.00000</ele>
        <time>2010-01-01T02:52:45Z</time>
      </trkpt>
      <trkpt lat="31.77591260" lon="35.01431300">
        <ele>284.00000</ele>
        <time>2010-01-01T02:52:50Z</time>
      </trkpt>
      <trkpt lat="31.77603480" lon="35.01438100">
        <ele>284.00000</ele>
        <time>2010-01-01T02:52:56Z</time>
      </trkpt>
      <trkpt lat="31.77612130" lon="35.01442010">
        <ele>284.00000</ele>
        <time>2010-01-01T02:52:59Z</time>
      </trkpt>
      <trkpt lat="31.77624610" lon="35.01448260">
        <ele>284.00000</ele>
        <time>2010-01-01T02:53:05Z</time>
      </trkpt>
      <trkpt lat="31.77638100" lon="35.01454800">
        <ele>284.00000</ele>
        <time>2010-01-01T02:53:11Z</time>
      </trkpt>
      <trkpt lat="31.77648770" lon="35.01458270">
        <ele>283.00000</ele>
        <time>2010-01-01T02:53:15Z</time>
      </trkpt>
      <trkpt lat="31.77660770" lon="35.01463220">
        <ele>282.00000</ele>
        <time>2010-01-01T02:53:20Z</time>
      </trkpt>
      <trkpt lat="31.77673420" lon="35.01471290">
        <ele>281.00000</ele>
        <time>2010-01-01T02:53:26Z</time>
      </trkpt>
      <trkpt lat="31.77683720" lon="35.01483260">
        <ele>281.00000</ele>
        <time>2010-01-01T02:53:32Z</time>
      </trkpt>
      <trkpt lat="31.77691700" lon="35.01501090">
        <ele>282.00000</ele>
        <time>2010-01-01T02:53:39Z</time>
      </trkpt>
      <trkpt lat="31.77697670" lon="35.01520230">
        <ele>283.00000</ele>
        <time>2010-01-01T02:53:45Z</time>
      </trkpt>
      <trkpt lat="31.77704230" lon="35.01539050">
        <ele>283.00000</ele>
        <time>2010-01-01T02:53:52Z</time>
      </trkpt>
      <trkpt lat="31.77711170" lon="35.01557590">
        <ele>284.00000</ele>
        <time>2010-01-01T02:53:59Z</time>
      </trkpt>
      <trkpt lat="31.77715490" lon="35.01566600">
        <ele>284.00000</ele>
        <time>2010-01-01T02:54:03Z</time>
      </trkpt>
      <trkpt lat="31.77725890" lon="35.01582780">
        <ele>282.00000</ele>
        <time>2010-01-01T02:54:10Z</time>
      </trkpt>
      <trkpt lat="31.77738300" lon="35.01595110">
        <ele>280.00000</ele>
        <time>2010-01-01T02:54:16Z</time>
      </trkpt>
      <trkpt lat="31.77752890" lon="35.01603610">
        <ele>276.00000</ele>
        <time>2010-01-01T02:54:23Z</time>
      </trkpt>
      <trkpt lat="31.77769580" lon="35.01606460">
        <ele>271.00000</ele>
        <time>2010-01-01T02:54:29Z</time>
      </trkpt>
      <trkpt lat="31.77779490" lon="35.01605080">
        <ele>268.00000</ele>
        <time>2010-01-01T02:54:33Z</time>
      </trkpt>
      <trkpt lat="31.77795490" lon="35.01598670">
        <ele>267.00000</ele>
        <time>2010-01-01T02:54:40Z</time>
      </trkpt>
      <trkpt lat="31.77803410" lon="35.01596000">
        <ele>266.00000</ele>
        <time>2010-01-01T02:54:44Z</time>
      </trkpt>
      <trkpt lat="31.77820940" lon="35.01595940">
        <ele>266.00000</ele>
        <time>2010-01-01T02:54:51Z</time>
      </trkpt>
      <trkpt lat="31.77836430" lon="35.01603450">
        <ele>266.00000</ele>
        <time>2010-01-01T02:54:57Z</time>
      </trkpt>
      <trkpt lat="31.77852170" lon="35.01613080">
        <ele>268.00000</ele>
        <time>2010-01-01T02:55:04Z</time>
      </trkpt>
      <trkpt lat="31.77866420" lon="35.01619490">
        <ele>269.00000</ele>
        <time>2010-01-01T02:55:10Z</time>
      </trkpt>
      <trkpt lat="31.77878020" lon="35.01620820">
        <ele>270.00000</ele>
        <time>2010-01-01T02:55:15Z</time>
      </trkpt>
      <trkpt lat="31.77887930" lon="35.01619880">
        <ele>271.00000</ele>
        <time>2010-01-01T02:55:19Z</time>
      </trkpt>
      <trkpt lat="31.77900210" lon="35.01616950">
        <ele>272.00000</ele>
        <time>2010-01-01T02:55:24Z</time>
      </trkpt>
      <trkpt lat="31.77909210" lon="35.01615500">
        <ele>273.00000</ele>
        <time>2010-01-01T02:55:28Z</time>
      </trkpt>
      <trkpt lat="31.77916700" lon="35.01606870">
        <ele>273.00000</ele>
        <time>2010-01-01T02:55:32Z</time>
      </trkpt>
      <trkpt lat="31.77921310" lon="35.01592040">
        <ele>273.00000</ele>
        <time>2010-01-01T02:55:37Z</time>
      </trkpt>
      <trkpt lat="31.77924470" lon="35.01578860">
        <ele>273.00000</ele>
        <time>2010-01-01T02:55:42Z</time>
      </trkpt>
      <trkpt lat="31.77926600" lon="35.01564290">
        <ele>274.00000</ele>
        <time>2010-01-01T02:55:47Z</time>
      </trkpt>
      <trkpt lat="31.77928860" lon="35.01549160">
        <ele>273.00000</ele>
        <time>2010-01-01T02:55:52Z</time>
      </trkpt>
      <trkpt lat="31.77932090" lon="35.01533410">
        <ele>272.00000</ele>
        <time>2010-01-01T02:55:58Z</time>
      </trkpt>
      <trkpt lat="31.77934120" lon="35.01522370">
        <ele>271.00000</ele>
        <time>2010-01-01T02:56:02Z</time>
      </trkpt>
      <trkpt lat="31.77935860" lon="35.01510920">
        <ele>270.00000</ele>
        <time>2010-01-01T02:56:06Z</time>
      </trkpt>
      <trkpt lat="31.77937580" lon="35.01499040">
        <ele>269.00000</ele>
        <time>2010-01-01T02:56:10Z</time>
      </trkpt>
      <trkpt lat="31.77939600" lon="35.01487180">
        <ele>268.00000</ele>
        <time>2010-01-01T02:56:14Z</time>
      </trkpt>
      <trkpt lat="31.77942160" lon="35.01475360">
        <ele>267.00000</ele>
        <time>2010-01-01T02:56:18Z</time>
      </trkpt>
      <trkpt lat="31.77945160" lon="35.01463600">
        <ele>266.00000</ele>
        <time>2010-01-01T02:56:22Z</time>
      </trkpt>
      <trkpt lat="31.77949410" lon="35.01452110">
        <ele>265.00000</ele>
        <time>2010-01-01T02:56:26Z</time>
      </trkpt>
      <trkpt lat="31.77955460" lon="35.01441990">
        <ele>265.00000</ele>
        <time>2010-01-01T02:56:31Z</time>
      </trkpt>
      <trkpt lat="31.77960940" lon="35.01432750">
        <ele>265.00000</ele>
        <time>2010-01-01T02:56:34Z</time>
      </trkpt>
      <trkpt lat="31.77968210" lon="35.01426340">
        <ele>265.00000</ele>
        <time>2010-01-01T02:56:38Z</time>
      </trkpt>
      <trkpt lat="31.77977360" lon="35.01423140">
        <ele>265.00000</ele>
        <time>2010-01-01T02:56:42Z</time>
      </trkpt>
      <trkpt lat="31.77986660" lon="35.01423490">
        <ele>265.00000</ele>
        <time>2010-01-01T02:56:46Z</time>
      </trkpt>
      <trkpt lat="31.78000630" lon="35.01427860">
        <ele>266.00000</ele>
        <time>2010-01-01T02:56:51Z</time>
      </trkpt>
      <trkpt lat="31.78009570" lon="35.01431520">
        <ele>267.00000</ele>
        <time>2010-01-01T02:56:55Z</time>
      </trkpt>
      <trkpt lat="31.78022050" lon="35.01437130">
        <ele>269.00000</ele>
        <time>2010-01-01T02:57:01Z</time>
      </trkpt>
      <trkpt lat="31.78033000" lon="35.01441210">
        <ele>271.00000</ele>
        <time>2010-01-01T02:57:05Z</time>
      </trkpt>
      <trkpt lat="31.78043820" lon="35.01446080">
        <ele>272.00000</ele>
        <time>2010-01-01T02:57:10Z</time>
      </trkpt>
      <trkpt lat="31.78054420" lon="35.01450700">
        <ele>273.00000</ele>
        <time>2010-01-01T02:57:14Z</time>
      </trkpt>
      <trkpt lat="31.78064160" lon="35.01454140">
        <ele>274.00000</ele>
        <time>2010-01-01T02:57:18Z</time>
      </trkpt>
      <trkpt lat="31.78073320" lon="35.01457280">
        <ele>274.00000</ele>
        <time>2010-01-01T02:57:22Z</time>
      </trkpt>
      <trkpt lat="31.78082730" lon="35.01459540">
        <ele>275.00000</ele>
        <time>2010-01-01T02:57:26Z</time>
      </trkpt>
      <trkpt lat="31.78095400" lon="35.01461620">
        <ele>274.00000</ele>
        <time>2010-01-01T02:57:31Z</time>
      </trkpt>
      <trkpt lat="31.78105120" lon="35.01463110">
        <ele>274.00000</ele>
        <time>2010-01-01T02:57:35Z</time>
      </trkpt>
      <trkpt lat="31.78114630" lon="35.01464520">
        <ele>274.00000</ele>
        <time>2010-01-01T02:57:39Z</time>
      </trkpt>
      <trkpt lat="31.78124660" lon="35.01464200">
        <ele>274.00000</ele>
        <time>2010-01-01T02:57:43Z</time>
      </trkpt>
      <trkpt lat="31.78135060" lon="35.01463250">
        <ele>274.00000</ele>
        <time>2010-01-01T02:57:47Z</time>
      </trkpt>
      <trkpt lat="31.78144770" lon="35.01462240">
        <ele>275.00000</ele>
        <time>2010-01-01T02:57:51Z</time>
      </trkpt>
      <trkpt lat="31.78154410" lon="35.01462130">
        <ele>276.00000</ele>
        <time>2010-01-01T02:57:55Z</time>
      </trkpt>
      <trkpt lat="31.78164870" lon="35.01462050">
        <ele>277.00000</ele>
        <time>2010-01-01T02:57:59Z</time>
      </trkpt>
      <trkpt lat="31.78174320" lon="35.01462480">
        <ele>277.00000</ele>
        <time>2010-01-01T02:58:03Z</time>
      </trkpt>
      <trkpt lat="31.78184700" lon="35.01461500">
        <ele>278.00000</ele>
        <time>2010-01-01T02:58:07Z</time>
      </trkpt>
      <trkpt lat="31.78195880" lon="35.01461190">
        <ele>278.00000</ele>
        <time>2010-01-01T02:58:11Z</time>
      </trkpt>
      <trkpt lat="31.78206970" lon="35.01460780">
        <ele>278.00000</ele>
        <time>2010-01-01T02:58:16Z</time>
      </trkpt>
      <trkpt lat="31.78218310" lon="35.01459910">
        <ele>279.00000</ele>
        <time>2010-01-01T02:58:20Z</time>
      </trkpt>
      <trkpt lat="31.78230130" lon="35.01459820">
        <ele>279.00000</ele>
        <time>2010-01-01T02:58:25Z</time>
      </trkpt>
      <trkpt lat="31.78240120" lon="35.01459970">
        <ele>279.00000</ele>
        <time>2010-01-01T02:58:29Z</time>
      </trkpt>
      <trkpt lat="31.78250900" lon="35.01460650">
        <ele>279.00000</ele>
        <time>2010-01-01T02:58:34Z</time>
      </trkpt>
      <trkpt lat="31.78260760" lon="35.01460960">
        <ele>279.00000</ele>
        <time>2010-01-01T02:58:37Z</time>
      </trkpt>
      <trkpt lat="31.78271870" lon="35.01462700">
        <ele>280.00000</ele>
        <time>2010-01-01T02:58:42Z</time>
      </trkpt>
      <trkpt lat="31.78282490" lon="35.01463590">
        <ele>280.00000</ele>
        <time>2010-01-01T02:58:46Z</time>
      </trkpt>
      <trkpt lat="31.78295070" lon="35.01464470">
        <ele>280.00000</ele>
        <time>2010-01-01T02:58:51Z</time>
      </trkpt>
      <trkpt lat="31.78305210" lon="35.01464220">
        <ele>279.00000</ele>
        <time>2010-01-01T02:58:55Z</time>
      </trkpt>
      <trkpt lat="31.78316190" lon="35.01463130">
        <ele>279.00000</ele>
        <time>2010-01-01T02:59:00Z</time>
      </trkpt>
      <trkpt lat="31.78327710" lon="35.01462560">
        <ele>280.00000</ele>
        <time>2010-01-01T02:59:04Z</time>
      </trkpt>
      <trkpt lat="31.78338400" lon="35.01462570">
        <ele>280.00000</ele>
        <time>2010-01-01T02:59:09Z</time>
      </trkpt>
      <trkpt lat="31.78348920" lon="35.01461070">
        <ele>281.00000</ele>
        <time>2010-01-01T02:59:13Z</time>
      </trkpt>
      <trkpt lat="31.78359270" lon="35.01460380">
        <ele>282.00000</ele>
        <time>2010-01-01T02:59:17Z</time>
      </trkpt>
      <trkpt lat="31.78368300" lon="35.01459440">
        <ele>283.00000</ele>
        <time>2010-01-01T02:59:21Z</time>
      </trkpt>
      <trkpt lat="31.78377640" lon="35.01458710">
        <ele>284.00000</ele>
        <time>2010-01-01T02:59:24Z</time>
      </trkpt>
      <trkpt lat="31.78387590" lon="35.01458260">
        <ele>286.00000</ele>
        <time>2010-01-01T02:59:28Z</time>
      </trkpt>
      <trkpt lat="31.78398700" lon="35.01458870">
        <ele>288.00000</ele>
        <time>2010-01-01T02:59:33Z</time>
      </trkpt>
      <trkpt lat="31.78409350" lon="35.01458570">
        <ele>290.00000</ele>
        <time>2010-01-01T02:59:37Z</time>
      </trkpt>
      <trkpt lat="31.78419330" lon="35.01458420">
        <ele>292.00000</ele>
        <time>2010-01-01T02:59:41Z</time>
      </trkpt>
      <trkpt lat="31.78430120" lon="35.01457660">
        <ele>294.00000</ele>
        <time>2010-01-01T02:59:45Z</time>
      </trkpt>
      <trkpt lat="31.78440470" lon="35.01456980">
        <ele>295.00000</ele>
        <time>2010-01-01T02:59:50Z</time>
      </trkpt>
      <trkpt lat="31.78451210" lon="35.01455530">
        <ele>296.00000</ele>
        <time>2010-01-01T02:59:54Z</time>
      </trkpt>
      <trkpt lat="31.78461930" lon="35.01453130">
        <ele>296.00000</ele>
        <time>2010-01-01T02:59:58Z</time>
      </trkpt>
      <trkpt lat="31.78472030" lon="35.01450810">
        <ele>296.00000</ele>
        <time>2010-01-01T03:00:02Z</time>
      </trkpt>
      <trkpt lat="31.78482700" lon="35.01448060">
        <ele>296.00000</ele>
        <time>2010-01-01T03:00:07Z</time>
      </trkpt>
      <trkpt lat="31.78492270" lon="35.01445390">
        <ele>296.00000</ele>
        <time>2010-01-01T03:00:11Z</time>
      </trkpt>
      <trkpt lat="31.78501400" lon="35.01442280">
        <ele>295.00000</ele>
        <time>2010-01-01T03:00:15Z</time>
      </trkpt>
      <trkpt lat="31.78512080" lon="35.01441150">
        <ele>296.00000</ele>
        <time>2010-01-01T03:00:19Z</time>
      </trkpt>
      <trkpt lat="31.78521860" lon="35.01439880">
        <ele>297.00000</ele>
        <time>2010-01-01T03:00:23Z</time>
      </trkpt>
      <trkpt lat="31.78533190" lon="35.01440150">
        <ele>298.00000</ele>
        <time>2010-01-01T03:00:27Z</time>
      </trkpt>
      <trkpt lat="31.78543360" lon="35.01440070">
        <ele>299.00000</ele>
        <time>2010-01-01T03:00:31Z</time>
      </trkpt>
      <trkpt lat="31.78556730" lon="35.01439140">
        <ele>299.00000</ele>
        <time>2010-01-01T03:00:37Z</time>
      </trkpt>
      <trkpt lat="31.78567310" lon="35.01437810">
        <ele>298.00000</ele>
        <time>2010-01-01T03:00:41Z</time>
      </trkpt>
      <trkpt lat="31.78579150" lon="35.01435940">
        <ele>298.00000</ele>
        <time>2010-01-01T03:00:46Z</time>
      </trkpt>
      <trkpt lat="31.78590970" lon="35.01433740">
        <ele>297.00000</ele>
        <time>2010-01-01T03:00:51Z</time>
      </trkpt>
      <trkpt lat="31.78603000" lon="35.01432010">
        <ele>296.00000</ele>
        <time>2010-01-01T03:00:55Z</time>
      </trkpt>
      <trkpt lat="31.78614500" lon="35.01429440">
        <ele>295.00000</ele>
        <time>2010-01-01T03:01:00Z</time>
      </trkpt>
      <trkpt lat="31.78625130" lon="35.01426890">
        <ele>295.00000</ele>
        <time>2010-01-01T03:01:04Z</time>
      </trkpt>
      <trkpt lat="31.78634760" lon="35.01424630">
        <ele>295.00000</ele>
        <time>2010-01-01T03:01:08Z</time>
      </trkpt>
      <trkpt lat="31.78644690" lon="35.01421870">
        <ele>296.00000</ele>
        <time>2010-01-01T03:01:12Z</time>
      </trkpt>
      <trkpt lat="31.78654420" lon="35.01420030">
        <ele>296.00000</ele>
        <time>2010-01-01T03:01:16Z</time>
      </trkpt>
      <trkpt lat="31.78664280" lon="35.01417480">
        <ele>296.00000</ele>
        <time>2010-01-01T03:01:20Z</time>
      </trkpt>
      <trkpt lat="31.78673760" lon="35.01415600">
        <ele>297.00000</ele>
        <time>2010-01-01T03:01:24Z</time>
      </trkpt>
      <trkpt lat="31.78683790" lon="35.01413210">
        <ele>298.00000</ele>
        <time>2010-01-01T03:01:28Z</time>
      </trkpt>
      <trkpt lat="31.78693650" lon="35.01411810">
        <ele>299.00000</ele>
        <time>2010-01-01T03:01:32Z</time>
      </trkpt>
      <trkpt lat="31.78704170" lon="35.01411960">
        <ele>300.00000</ele>
        <time>2010-01-01T03:01:37Z</time>
      </trkpt>
      <trkpt lat="31.78713430" lon="35.01411970">
        <ele>300.00000</ele>
        <time>2010-01-01T03:01:40Z</time>
      </trkpt>
      <trkpt lat="31.78723630" lon="35.01412280">
        <ele>301.00000</ele>
        <time>2010-01-01T03:01:44Z</time>
      </trkpt>
      <trkpt lat="31.78734480" lon="35.01413340">
        <ele>302.00000</ele>
        <time>2010-01-01T03:01:49Z</time>
      </trkpt>
      <trkpt lat="31.78743690" lon="35.01412610">
        <ele>303.00000</ele>
        <time>2010-01-01T03:01:52Z</time>
      </trkpt>
      <trkpt lat="31.78754700" lon="35.01412100">
        <ele>303.00000</ele>
        <time>2010-01-01T03:01:57Z</time>
      </trkpt>
      <trkpt lat="31.78764700" lon="35.01410590">
        <ele>304.00000</ele>
        <time>2010-01-01T03:02:01Z</time>
      </trkpt>
      <trkpt lat="31.78774260" lon="35.01410580">
        <ele>305.00000</ele>
        <time>2010-01-01T03:02:05Z</time>
      </trkpt>
      <trkpt lat="31.78784590" lon="35.01409880">
        <ele>307.00000</ele>
        <time>2010-01-01T03:02:09Z</time>
      </trkpt>
      <trkpt lat="31.78795960" lon="35.01409870">
        <ele>308.00000</ele>
        <time>2010-01-01T03:02:13Z</time>
      </trkpt>
      <trkpt lat="31.78805790" lon="35.01409880">
        <ele>310.00000</ele>
        <time>2010-01-01T03:02:17Z</time>
      </trkpt>
      <trkpt lat="31.78815060" lon="35.01410720">
        <ele>311.00000</ele>
        <time>2010-01-01T03:02:21Z</time>
      </trkpt>
      <trkpt lat="31.78824390" lon="35.01411470">
        <ele>312.00000</ele>
        <time>2010-01-01T03:02:25Z</time>
      </trkpt>
      <trkpt lat="31.78834580" lon="35.01411010">
        <ele>313.00000</ele>
        <time>2010-01-01T03:02:29Z</time>
      </trkpt>
      <trkpt lat="31.78848410" lon="35.01410540">
        <ele>312.00000</ele>
        <time>2010-01-01T03:02:34Z</time>
      </trkpt>
      <trkpt lat="31.78859830" lon="35.01411090">
        <ele>311.00000</ele>
        <time>2010-01-01T03:02:39Z</time>
      </trkpt>
      <trkpt lat="31.78873810" lon="35.01412780">
        <ele>311.00000</ele>
        <time>2010-01-01T03:02:45Z</time>
      </trkpt>
      <trkpt lat="31.78887420" lon="35.01415120">
        <ele>311.00000</ele>
        <time>2010-01-01T03:02:50Z</time>
      </trkpt>
      <trkpt lat="31.78899150" lon="35.01418040">
        <ele>313.00000</ele>
        <time>2010-01-01T03:02:55Z</time>
      </trkpt>
      <trkpt lat="31.78908560" lon="35.01419900">
        <ele>314.00000</ele>
        <time>2010-01-01T03:02:59Z</time>
      </trkpt>
      <trkpt lat="31.78918870" lon="35.01420950">
        <ele>315.00000</ele>
        <time>2010-01-01T03:03:03Z</time>
      </trkpt>
      <trkpt lat="31.78928450" lon="35.01419790">
        <ele>316.00000</ele>
        <time>2010-01-01T03:03:07Z</time>
      </trkpt>
      <trkpt lat="31.78937080" lon="35.01420860">
        <ele>317.00000</ele>
        <time>2010-01-01T03:03:10Z</time>
      </trkpt>
      <trkpt lat="31.78946330" lon="35.01422430">
        <ele>318.00000</ele>
        <time>2010-01-01T03:03:14Z</time>
      </trkpt>
      <trkpt lat="31.78955410" lon="35.01424890">
        <ele>319.00000</ele>
        <time>2010-01-01T03:03:18Z</time>
      </trkpt>
      <trkpt lat="31.78964090" lon="35.01428410">
        <ele>320.00000</ele>
        <time>2010-01-01T03:03:21Z</time>
      </trkpt>
      <trkpt lat="31.78973310" lon="35.01431420">
        <ele>321.00000</ele>
        <time>2010-01-01T03:03:25Z</time>
      </trkpt>
      <trkpt lat="31.78981750" lon="35.01437190">
        <ele>322.00000</ele>
        <time>2010-01-01T03:03:29Z</time>
      </trkpt>
      <trkpt lat="31.78991340" lon="35.01438410">
        <ele>322.00000</ele>
        <time>2010-01-01T03:03:33Z</time>
      </trkpt>
      <trkpt lat="31.79001660" lon="35.01439330">
        <ele>322.00000</ele>
        <time>2010-01-01T03:03:37Z</time>
      </trkpt>
      <trkpt lat="31.79011280" lon="35.01440370">
        <ele>323.00000</ele>
        <time>2010-01-01T03:03:41Z</time>
      </trkpt>
      <trkpt lat="31.79020730" lon="35.01440430">
        <ele>323.00000</ele>
        <time>2010-01-01T03:03:45Z</time>
      </trkpt>
      <trkpt lat="31.79032780" lon="35.01439340">
        <ele>322.00000</ele>
        <time>2010-01-01T03:03:50Z</time>
      </trkpt>
      <trkpt lat="31.79045620" lon="35.01437640">
        <ele>321.00000</ele>
        <time>2010-01-01T03:03:55Z</time>
      </trkpt>
      <trkpt lat="31.79056140" lon="35.01438490">
        <ele>320.00000</ele>
        <time>2010-01-01T03:03:59Z</time>
      </trkpt>
      <trkpt lat="31.79068000" lon="35.01440890">
        <ele>320.00000</ele>
        <time>2010-01-01T03:04:04Z</time>
      </trkpt>
      <trkpt lat="31.79079820" lon="35.01444080">
        <ele>319.00000</ele>
        <time>2010-01-01T03:04:09Z</time>
      </trkpt>
      <trkpt lat="31.79092630" lon="35.01447700">
        <ele>318.00000</ele>
        <time>2010-01-01T03:04:14Z</time>
      </trkpt>
      <trkpt lat="31.79105900" lon="35.01452040">
        <ele>318.00000</ele>
        <time>2010-01-01T03:04:19Z</time>
      </trkpt>
      <trkpt lat="31.79117330" lon="35.01457550">
        <ele>319.00000</ele>
        <time>2010-01-01T03:04:24Z</time>
      </trkpt>
      <trkpt lat="31.79127420" lon="35.01463930">
        <ele>319.00000</ele>
        <time>2010-01-01T03:04:29Z</time>
      </trkpt>
      <trkpt lat="31.79135660" lon="35.01470490">
        <ele>320.00000</ele>
        <time>2010-01-01T03:04:33Z</time>
      </trkpt>
      <trkpt lat="31.79146270" lon="35.01476420">
        <ele>323.00000</ele>
        <time>2010-01-01T03:04:38Z</time>
      </trkpt>
      <trkpt lat="31.79155490" lon="35.01477020">
        <ele>324.00000</ele>
        <time>2010-01-01T03:04:41Z</time>
      </trkpt>
      <trkpt lat="31.79164870" lon="35.01477250">
        <ele>325.00000</ele>
        <time>2010-01-01T03:04:45Z</time>
      </trkpt>
      <trkpt lat="31.79173720" lon="35.01480230">
        <ele>327.00000</ele>
        <time>2010-01-01T03:04:49Z</time>
      </trkpt>
      <trkpt lat="31.79182380" lon="35.01483630">
        <ele>329.00000</ele>
        <time>2010-01-01T03:04:52Z</time>
      </trkpt>
      <trkpt lat="31.79191310" lon="35.01486640">
        <ele>331.00000</ele>
        <time>2010-01-01T03:04:56Z</time>
      </trkpt>
      <trkpt lat="31.79200350" lon="35.01489120">
        <ele>332.00000</ele>
        <time>2010-01-01T03:05:00Z</time>
      </trkpt>
      <trkpt lat="31.79209420" lon="35.01492090">
        <ele>334.00000</ele>
        <time>2010-01-01T03:05:04Z</time>
      </trkpt>
      <trkpt lat="31.79218220" lon="35.01498400">
        <ele>337.00000</ele>
        <time>2010-01-01T03:05:08Z</time>
      </trkpt>
      <trkpt lat="31.79226940" lon="35.01504340">
        <ele>339.00000</ele>
        <time>2010-01-01T03:05:12Z</time>
      </trkpt>
      <trkpt lat="31.79232970" lon="35.01511950">
        <ele>341.00000</ele>
        <time>2010-01-01T03:05:15Z</time>
      </trkpt>
      <trkpt lat="31.79241800" lon="35.01516810">
        <ele>343.00000</ele>
        <time>2010-01-01T03:05:19Z</time>
      </trkpt>
      <trkpt lat="31.79249780" lon="35.01522230">
        <ele>345.00000</ele>
        <time>2010-01-01T03:05:23Z</time>
      </trkpt>
      <trkpt lat="31.79258530" lon="35.01527400">
        <ele>346.00000</ele>
        <time>2010-01-01T03:05:27Z</time>
      </trkpt>
      <trkpt lat="31.79266200" lon="35.01533040">
        <ele>347.00000</ele>
        <time>2010-01-01T03:05:30Z</time>
      </trkpt>
      <trkpt lat="31.79275000" lon="35.01537610">
        <ele>348.00000</ele>
        <time>2010-01-01T03:05:34Z</time>
      </trkpt>
      <trkpt lat="31.79284020" lon="35.01539150">
        <ele>348.00000</ele>
        <time>2010-01-01T03:05:38Z</time>
      </trkpt>
      <trkpt lat="31.79291820" lon="35.01534520">
        <ele>347.00000</ele>
        <time>2010-01-01T03:05:41Z</time>
      </trkpt>
      <trkpt lat="31.79302580" lon="35.01530510">
        <ele>348.00000</ele>
        <time>2010-01-01T03:05:46Z</time>
      </trkpt>
      <trkpt lat="31.79312040" lon="35.01528380">
        <ele>347.00000</ele>
        <time>2010-01-01T03:05:50Z</time>
      </trkpt>
      <trkpt lat="31.79322760" lon="35.01527900">
        <ele>346.00000</ele>
        <time>2010-01-01T03:05:54Z</time>
      </trkpt>
      <trkpt lat="31.79333450" lon="35.01529630">
        <ele>345.00000</ele>
        <time>2010-01-01T03:05:58Z</time>
      </trkpt>
      <trkpt lat="31.79346090" lon="35.01533050">
        <ele>344.00000</ele>
        <time>2010-01-01T03:06:04Z</time>
      </trkpt>
      <trkpt lat="31.79358370" lon="35.01534110">
        <ele>343.00000</ele>
        <time>2010-01-01T03:06:09Z</time>
      </trkpt>
      <trkpt lat="31.79370100" lon="35.01532640">
        <ele>342.00000</ele>
        <time>2010-01-01T03:06:13Z</time>
      </trkpt>
      <trkpt lat="31.79381060" lon="35.01532250">
        <ele>341.00000</ele>
        <time>2010-01-01T03:06:18Z</time>
      </trkpt>
      <trkpt lat="31.79392760" lon="35.01533830">
        <ele>340.00000</ele>
        <time>2010-01-01T03:06:22Z</time>
      </trkpt>
      <trkpt lat="31.79406910" lon="35.01534860">
        <ele>339.00000</ele>
        <time>2010-01-01T03:06:28Z</time>
      </trkpt>
      <trkpt lat="31.79418010" lon="35.01536540">
        <ele>338.00000</ele>
        <time>2010-01-01T03:06:33Z</time>
      </trkpt>
      <trkpt lat="31.79432110" lon="35.01539010">
        <ele>336.00000</ele>
        <time>2010-01-01T03:06:38Z</time>
      </trkpt>
      <trkpt lat="31.79448860" lon="35.01541880">
        <ele>334.00000</ele>
        <time>2010-01-01T03:06:45Z</time>
      </trkpt>
      <trkpt lat="31.79465690" lon="35.01544810">
        <ele>333.00000</ele>
        <time>2010-01-01T03:06:52Z</time>
      </trkpt>
      <trkpt lat="31.79482560" lon="35.01551350">
        <ele>333.00000</ele>
        <time>2010-01-01T03:06:59Z</time>
      </trkpt>
      <trkpt lat="31.79498470" lon="35.01560700">
        <ele>332.00000</ele>
        <time>2010-01-01T03:07:06Z</time>
      </trkpt>
      <trkpt lat="31.79512910" lon="35.01566240">
        <ele>332.00000</ele>
        <time>2010-01-01T03:07:12Z</time>
      </trkpt>
      <trkpt lat="31.79527290" lon="35.01566140">
        <ele>331.00000</ele>
        <time>2010-01-01T03:07:18Z</time>
      </trkpt>
      <trkpt lat="31.79542120" lon="35.01563440">
        <ele>332.00000</ele>
        <time>2010-01-01T03:07:24Z</time>
      </trkpt>
      <trkpt lat="31.79558750" lon="35.01560350">
        <ele>333.00000</ele>
        <time>2010-01-01T03:07:31Z</time>
      </trkpt>
      <trkpt lat="31.79576170" lon="35.01558650">
        <ele>334.00000</ele>
        <time>2010-01-01T03:07:38Z</time>
      </trkpt>
      <trkpt lat="31.79593110" lon="35.01558590">
        <ele>333.00000</ele>
        <time>2010-01-01T03:07:44Z</time>
      </trkpt>
      <trkpt lat="31.79608820" lon="35.01558980">
        <ele>331.00000</ele>
        <time>2010-01-01T03:07:51Z</time>
      </trkpt>
      <trkpt lat="31.79622990" lon="35.01559230">
        <ele>331.00000</ele>
        <time>2010-01-01T03:07:56Z</time>
      </trkpt>
      <trkpt lat="31.79635320" lon="35.01560000">
        <ele>331.00000</ele>
        <time>2010-01-01T03:08:01Z</time>
      </trkpt>
      <trkpt lat="31.79646850" lon="35.01560660">
        <ele>331.00000</ele>
        <time>2010-01-01T03:08:06Z</time>
      </trkpt>
      <trkpt lat="31.79658740" lon="35.01561370">
        <ele>331.00000</ele>
        <time>2010-01-01T03:08:11Z</time>
      </trkpt>
      <trkpt lat="31.79672320" lon="35.01562360">
        <ele>331.00000</ele>
        <time>2010-01-01T03:08:16Z</time>
      </trkpt>
      <trkpt lat="31.79688370" lon="35.01563350">
        <ele>331.00000</ele>
        <time>2010-01-01T03:08:23Z</time>
      </trkpt>
      <trkpt lat="31.79705820" lon="35.01564240">
        <ele>332.00000</ele>
        <time>2010-01-01T03:08:30Z</time>
      </trkpt>
      <trkpt lat="31.79721560" lon="35.01562410">
        <ele>332.00000</ele>
        <time>2010-01-01T03:08:36Z</time>
      </trkpt>
      <trkpt lat="31.79732950" lon="35.01556430">
        <ele>331.00000</ele>
        <time>2010-01-01T03:08:41Z</time>
      </trkpt>
      <trkpt lat="31.79739560" lon="35.01544850">
        <ele>329.00000</ele>
        <time>2010-01-01T03:08:46Z</time>
      </trkpt>
      <trkpt lat="31.79742340" lon="35.01533750">
        <ele>326.00000</ele>
        <time>2010-01-01T03:08:50Z</time>
      </trkpt>
      <trkpt lat="31.79740410" lon="35.01522550">
        <ele>324.00000</ele>
        <time>2010-01-01T03:08:53Z</time>
      </trkpt>
      <trkpt lat="31.79739010" lon="35.01510210">
        <ele>323.00000</ele>
        <time>2010-01-01T03:08:58Z</time>
      </trkpt>
      <trkpt lat="31.79743880" lon="35.01499140">
        <ele>322.00000</ele>
        <time>2010-01-01T03:09:02Z</time>
      </trkpt>
      <trkpt lat="31.79753740" lon="35.01492660">
        <ele>321.00000</ele>
        <time>2010-01-01T03:09:06Z</time>
      </trkpt>
      <trkpt lat="31.79763340" lon="35.01489720">
        <ele>320.00000</ele>
        <time>2010-01-01T03:09:10Z</time>
      </trkpt>
      <trkpt lat="31.79774270" lon="35.01487570">
        <ele>320.00000</ele>
        <time>2010-01-01T03:09:15Z</time>
      </trkpt>
      <trkpt lat="31.79785850" lon="35.01485290">
        <ele>319.00000</ele>
        <time>2010-01-01T03:09:20Z</time>
      </trkpt>
      <trkpt lat="31.79798200" lon="35.01483040">
        <ele>318.00000</ele>
        <time>2010-01-01T03:09:25Z</time>
      </trkpt>
      <trkpt lat="31.79811800" lon="35.01480110">
        <ele>317.00000</ele>
        <time>2010-01-01T03:09:30Z</time>
      </trkpt>
      <trkpt lat="31.79825360" lon="35.01477650">
        <ele>317.00000</ele>
        <time>2010-01-01T03:09:36Z</time>
      </trkpt>
      <trkpt lat="31.79838880" lon="35.01475040">
        <ele>317.00000</ele>
        <time>2010-01-01T03:09:41Z</time>
      </trkpt>
      <trkpt lat="31.79853020" lon="35.01472070">
        <ele>316.00000</ele>
        <time>2010-01-01T03:09:47Z</time>
      </trkpt>
      <trkpt lat="31.79867220" lon="35.01468890">
        <ele>316.00000</ele>
        <time>2010-01-01T03:09:53Z</time>
      </trkpt>
      <trkpt lat="31.79881330" lon="35.01465600">
        <ele>315.00000</ele>
        <time>2010-01-01T03:09:58Z</time>
      </trkpt>
      <trkpt lat="31.79895520" lon="35.01462700">
        <ele>314.00000</ele>
        <time>2010-01-01T03:10:04Z</time>
      </trkpt>
      <trkpt lat="31.79909900" lon="35.01460250">
        <ele>314.00000</ele>
        <time>2010-01-01T03:10:10Z</time>
      </trkpt>
      <trkpt lat="31.79924480" lon="35.01457780">
        <ele>313.00000</ele>
        <time>2010-01-01T03:10:16Z</time>
      </trkpt>
      <trkpt lat="31.79939360" lon="35.01455870">
        <ele>313.00000</ele>
        <time>2010-01-01T03:10:22Z</time>
      </trkpt>
      <trkpt lat="31.79954470" lon="35.01454340">
        <ele>311.00000</ele>
        <time>2010-01-01T03:10:28Z</time>
      </trkpt>
      <trkpt lat="31.79969660" lon="35.01453310">
        <ele>310.00000</ele>
        <time>2010-01-01T03:10:34Z</time>
      </trkpt>
      <trkpt lat="31.79984760" lon="35.01452750">
        <ele>308.00000</ele>
        <time>2010-01-01T03:10:40Z</time>
      </trkpt>
      <trkpt lat="31.79999700" lon="35.01453300">
        <ele>307.00000</ele>
        <time>2010-01-01T03:10:46Z</time>
      </trkpt>
      <trkpt lat="31.80014450" lon="35.01454230">
        <ele>306.00000</ele>
        <time>2010-01-01T03:10:52Z</time>
      </trkpt>
      <trkpt lat="31.80028810" lon="35.01456270">
        <ele>305.00000</ele>
        <time>2010-01-01T03:10:58Z</time>
      </trkpt>
      <trkpt lat="31.80042730" lon="35.01459650">
        <ele>304.00000</ele>
        <time>2010-01-01T03:11:03Z</time>
      </trkpt>
      <trkpt lat="31.80056320" lon="35.01463570">
        <ele>304.00000</ele>
        <time>2010-01-01T03:11:09Z</time>
      </trkpt>
      <trkpt lat="31.80069780" lon="35.01468000">
        <ele>305.00000</ele>
        <time>2010-01-01T03:11:15Z</time>
      </trkpt>
      <trkpt lat="31.80083200" lon="35.01472960">
        <ele>307.00000</ele>
        <time>2010-01-01T03:11:20Z</time>
      </trkpt>
      <trkpt lat="31.80096280" lon="35.01478530">
        <ele>307.00000</ele>
        <time>2010-01-01T03:11:26Z</time>
      </trkpt>
      <trkpt lat="31.80108940" lon="35.01484490">
        <ele>307.00000</ele>
        <time>2010-01-01T03:11:31Z</time>
      </trkpt>
      <trkpt lat="31.80120910" lon="35.01490890">
        <ele>307.00000</ele>
        <time>2010-01-01T03:11:37Z</time>
      </trkpt>
      <trkpt lat="31.80132000" lon="35.01498270">
        <ele>308.00000</ele>
        <time>2010-01-01T03:11:42Z</time>
      </trkpt>
      <trkpt lat="31.80142380" lon="35.01505590">
        <ele>308.00000</ele>
        <time>2010-01-01T03:11:47Z</time>
      </trkpt>
      <trkpt lat="31.80152280" lon="35.01512430">
        <ele>309.00000</ele>
        <time>2010-01-01T03:11:51Z</time>
      </trkpt>
      <trkpt lat="31.80161510" lon="35.01519340">
        <ele>309.00000</ele>
        <time>2010-01-01T03:11:55Z</time>
      </trkpt>
      <trkpt lat="31.80169930" lon="35.01525850">
        <ele>309.00000</ele>
        <time>2010-01-01T03:12:00Z</time>
      </trkpt>
      <trkpt lat="31.80177790" lon="35.01532550">
        <ele>310.00000</ele>
        <time>2010-01-01T03:12:03Z</time>
      </trkpt>
      <trkpt lat="31.80188920" lon="35.01541120">
        <ele>310.00000</ele>
        <time>2010-01-01T03:12:09Z</time>
      </trkpt>
      <trkpt lat="31.80199870" lon="35.01548410">
        <ele>310.00000</ele>
        <time>2010-01-01T03:12:14Z</time>
      </trkpt>
      <trkpt lat="31.80209800" lon="35.01556260">
        <ele>310.00000</ele>
        <time>2010-01-01T03:12:19Z</time>
      </trkpt>
      <trkpt lat="31.80218330" lon="35.01563040">
        <ele>311.00000</ele>
        <time>2010-01-01T03:12:23Z</time>
      </trkpt>
      <trkpt lat="31.80226680" lon="35.01568470">
        <ele>311.00000</ele>
        <time>2010-01-01T03:12:26Z</time>
      </trkpt>
      <trkpt lat="31.80234150" lon="35.01574100">
        <ele>311.00000</ele>
        <time>2010-01-01T03:12:30Z</time>
      </trkpt>
      <trkpt lat="31.80243790" lon="35.01581510">
        <ele>311.00000</ele>
        <time>2010-01-01T03:12:35Z</time>
      </trkpt>
      <trkpt lat="31.80251730" lon="35.01590010">
        <ele>311.00000</ele>
        <time>2010-01-01T03:12:39Z</time>
      </trkpt>
      <trkpt lat="31.80258390" lon="35.01598270">
        <ele>311.00000</ele>
        <time>2010-01-01T03:12:43Z</time>
      </trkpt>
      <trkpt lat="31.80261560" lon="35.01610130">
        <ele>312.00000</ele>
        <time>2010-01-01T03:12:47Z</time>
      </trkpt>
      <trkpt lat="31.80262890" lon="35.01620570">
        <ele>314.00000</ele>
        <time>2010-01-01T03:12:51Z</time>
      </trkpt>
      <trkpt lat="31.80267820" lon="35.01631700">
        <ele>315.00000</ele>
        <time>2010-01-01T03:12:55Z</time>
      </trkpt>
      <trkpt lat="31.80274330" lon="35.01638880">
        <ele>315.00000</ele>
        <time>2010-01-01T03:12:58Z</time>
      </trkpt>
      <trkpt lat="31.80281650" lon="35.01646680">
        <ele>315.00000</ele>
        <time>2010-01-01T03:13:02Z</time>
      </trkpt>
      <trkpt lat="31.80289090" lon="35.01654990">
        <ele>316.00000</ele>
        <time>2010-01-01T03:13:07Z</time>
      </trkpt>
      <trkpt lat="31.80296000" lon="35.01662550">
        <ele>316.00000</ele>
        <time>2010-01-01T03:13:10Z</time>
      </trkpt>
      <trkpt lat="31.80304540" lon="35.01669770">
        <ele>316.00000</ele>
        <time>2010-01-01T03:13:15Z</time>
      </trkpt>
      <trkpt lat="31.80311400" lon="35.01675080">
        <ele>317.00000</ele>
        <time>2010-01-01T03:13:18Z</time>
      </trkpt>
      <trkpt lat="31.80321340" lon="35.01672980">
        <ele>316.00000</ele>
        <time>2010-01-01T03:13:22Z</time>
      </trkpt>
      <trkpt lat="31.80330430" lon="35.01669560">
        <ele>315.00000</ele>
        <time>2010-01-01T03:13:26Z</time>
      </trkpt>
      <trkpt lat="31.80339490" lon="35.01666360">
        <ele>315.00000</ele>
        <time>2010-01-01T03:13:29Z</time>
      </trkpt>
      <trkpt lat="31.80349080" lon="35.01669500">
        <ele>317.00000</ele>
        <time>2010-01-01T03:13:33Z</time>
      </trkpt>
      <trkpt lat="31.80356960" lon="35.01677240">
        <ele>319.00000</ele>
        <time>2010-01-01T03:13:38Z</time>
      </trkpt>
      <trkpt lat="31.80365340" lon="35.01683510">
        <ele>321.00000</ele>
        <time>2010-01-01T03:13:42Z</time>
      </trkpt>
      <trkpt lat="31.80374090" lon="35.01689730">
        <ele>324.00000</ele>
        <time>2010-01-01T03:13:46Z</time>
      </trkpt>
      <trkpt lat="31.80382410" lon="35.01697630">
        <ele>326.00000</ele>
        <time>2010-01-01T03:13:50Z</time>
      </trkpt>
      <trkpt lat="31.80389810" lon="35.01705620">
        <ele>328.00000</ele>
        <time>2010-01-01T03:13:54Z</time>
      </trkpt>
      <trkpt lat="31.80397210" lon="35.01714410">
        <ele>330.00000</ele>
        <time>2010-01-01T03:13:58Z</time>
      </trkpt>
      <trkpt lat="31.80405200" lon="35.01720920">
        <ele>330.00000</ele>
        <time>2010-01-01T03:14:02Z</time>
      </trkpt>
      <trkpt lat="31.80414400" lon="35.01726110">
        <ele>330.00000</ele>
        <time>2010-01-01T03:14:06Z</time>
      </trkpt>
      <trkpt lat="31.80422620" lon="35.01730830">
        <ele>331.00000</ele>
        <time>2010-01-01T03:14:10Z</time>
      </trkpt>
      <trkpt lat="31.80431040" lon="35.01735550">
        <ele>332.00000</ele>
        <time>2010-01-01T03:14:14Z</time>
      </trkpt>
      <trkpt lat="31.80439850" lon="35.01739940">
        <ele>332.00000</ele>
        <time>2010-01-01T03:14:17Z</time>
      </trkpt>
      <trkpt lat="31.80448760" lon="35.01744720">
        <ele>333.00000</ele>
        <time>2010-01-01T03:14:21Z</time>
      </trkpt>
      <trkpt lat="31.80458320" lon="35.01748600">
        <ele>333.00000</ele>
        <time>2010-01-01T03:14:25Z</time>
      </trkpt>
      <trkpt lat="31.80467400" lon="35.01751550">
        <ele>333.00000</ele>
        <time>2010-01-01T03:14:29Z</time>
      </trkpt>
      <trkpt lat="31.80476970" lon="35.01754390">
        <ele>333.00000</ele>
        <time>2010-01-01T03:14:33Z</time>
      </trkpt>
      <trkpt lat="31.80489660" lon="35.01758700">
        <ele>332.00000</ele>
        <time>2010-01-01T03:14:38Z</time>
      </trkpt>
      <trkpt lat="31.80499520" lon="35.01762030">
        <ele>331.00000</ele>
        <time>2010-01-01T03:14:42Z</time>
      </trkpt>
      <trkpt lat="31.80510600" lon="35.01765810">
        <ele>330.00000</ele>
        <time>2010-01-01T03:14:47Z</time>
      </trkpt>
      <trkpt lat="31.80523260" lon="35.01769680">
        <ele>328.00000</ele>
        <time>2010-01-01T03:14:52Z</time>
      </trkpt>
      <trkpt lat="31.80536980" lon="35.01773760">
        <ele>327.00000</ele>
        <time>2010-01-01T03:14:58Z</time>
      </trkpt>
      <trkpt lat="31.80551550" lon="35.01778210">
        <ele>325.00000</ele>
        <time>2010-01-01T03:15:04Z</time>
      </trkpt>
      <trkpt lat="31.80567130" lon="35.01783960">
        <ele>323.00000</ele>
        <time>2010-01-01T03:15:11Z</time>
      </trkpt>
      <trkpt lat="31.80582950" lon="35.01792050">
        <ele>321.00000</ele>
        <time>2010-01-01T03:15:17Z</time>
      </trkpt>
      <trkpt lat="31.80598000" lon="35.01800620">
        <ele>321.00000</ele>
        <time>2010-01-01T03:15:24Z</time>
      </trkpt>
      <trkpt lat="31.80609910" lon="35.01805010">
        <ele>321.00000</ele>
        <time>2010-01-01T03:15:29Z</time>
      </trkpt>
      <trkpt lat="31.80620380" lon="35.01803280">
        <ele>320.00000</ele>
        <time>2010-01-01T03:15:33Z</time>
      </trkpt>
      <trkpt lat="31.80633190" lon="35.01800120">
        <ele>319.00000</ele>
        <time>2010-01-01T03:15:39Z</time>
      </trkpt>
      <trkpt lat="31.80646290" lon="35.01802360">
        <ele>319.00000</ele>
        <time>2010-01-01T03:15:44Z</time>
      </trkpt>
      <trkpt lat="31.80658160" lon="35.01807910">
        <ele>318.00000</ele>
        <time>2010-01-01T03:15:49Z</time>
      </trkpt>
      <trkpt lat="31.80669060" lon="35.01813240">
        <ele>318.00000</ele>
        <time>2010-01-01T03:15:54Z</time>
      </trkpt>
      <trkpt lat="31.80679940" lon="35.01818000">
        <ele>318.00000</ele>
        <time>2010-01-01T03:15:58Z</time>
      </trkpt>
      <trkpt lat="31.80690630" lon="35.01823020">
        <ele>317.00000</ele>
        <time>2010-01-01T03:16:03Z</time>
      </trkpt>
      <trkpt lat="31.80701640" lon="35.01828390">
        <ele>316.00000</ele>
        <time>2010-01-01T03:16:08Z</time>
      </trkpt>
      <trkpt lat="31.80713610" lon="35.01834090">
        <ele>315.00000</ele>
        <time>2010-01-01T03:16:13Z</time>
      </trkpt>
      <trkpt lat="31.80725240" lon="35.01839580">
        <ele>315.00000</ele>
        <time>2010-01-01T03:16:18Z</time>
      </trkpt>
      <trkpt lat="31.80736720" lon="35.01845820">
        <ele>317.00000</ele>
        <time>2010-01-01T03:16:23Z</time>
      </trkpt>
      <trkpt lat="31.80746530" lon="35.01854570">
        <ele>318.00000</ele>
        <time>2010-01-01T03:16:28Z</time>
      </trkpt>
      <trkpt lat="31.80752050" lon="35.01864480">
        <ele>320.00000</ele>
        <time>2010-01-01T03:16:32Z</time>
      </trkpt>
      <trkpt lat="31.80753860" lon="35.01876560">
        <ele>322.00000</ele>
        <time>2010-01-01T03:16:36Z</time>
      </trkpt>
      <trkpt lat="31.80756980" lon="35.01886960">
        <ele>324.00000</ele>
        <time>2010-01-01T03:16:40Z</time>
      </trkpt>
      <trkpt lat="31.80764890" lon="35.01897890">
        <ele>325.00000</ele>
        <time>2010-01-01T03:16:45Z</time>
      </trkpt>
      <trkpt lat="31.80774040" lon="35.01905440">
        <ele>325.00000</ele>
        <time>2010-01-01T03:16:49Z</time>
      </trkpt>
      <trkpt lat="31.80785100" lon="35.01911790">
        <ele>325.00000</ele>
        <time>2010-01-01T03:16:54Z</time>
      </trkpt>
      <trkpt lat="31.80793590" lon="35.01916040">
        <ele>325.00000</ele>
        <time>2010-01-01T03:16:58Z</time>
      </trkpt>
      <trkpt lat="31.80801830" lon="35.01921920">
        <ele>324.00000</ele>
        <time>2010-01-01T03:17:02Z</time>
      </trkpt>
      <trkpt lat="31.80808360" lon="35.01929570">
        <ele>324.00000</ele>
        <time>2010-01-01T03:17:05Z</time>
      </trkpt>
      <trkpt lat="31.80814550" lon="35.01939560">
        <ele>324.00000</ele>
        <time>2010-01-01T03:17:10Z</time>
      </trkpt>
      <trkpt lat="31.80822110" lon="35.01947880">
        <ele>324.00000</ele>
        <time>2010-01-01T03:17:14Z</time>
      </trkpt>
      <trkpt lat="31.80830040" lon="35.01954080">
        <ele>323.00000</ele>
        <time>2010-01-01T03:17:18Z</time>
      </trkpt>
      <trkpt lat="31.80841350" lon="35.01961630">
        <ele>323.00000</ele>
        <time>2010-01-01T03:17:23Z</time>
      </trkpt>
      <trkpt lat="31.80849580" lon="35.01966190">
        <ele>324.00000</ele>
        <time>2010-01-01T03:17:26Z</time>
      </trkpt>
      <trkpt lat="31.80859490" lon="35.01970920">
        <ele>323.00000</ele>
        <time>2010-01-01T03:17:31Z</time>
      </trkpt>
      <trkpt lat="31.80871260" lon="35.01975720">
        <ele>322.00000</ele>
        <time>2010-01-01T03:17:36Z</time>
      </trkpt>
      <trkpt lat="31.80884370" lon="35.01980410">
        <ele>321.00000</ele>
        <time>2010-01-01T03:17:41Z</time>
      </trkpt>
      <trkpt lat="31.80897770" lon="35.01987210">
        <ele>320.00000</ele>
        <time>2010-01-01T03:17:47Z</time>
      </trkpt>
      <trkpt lat="31.80912630" lon="35.01996430">
        <ele>317.00000</ele>
        <time>2010-01-01T03:17:54Z</time>
      </trkpt>
      <trkpt lat="31.80927800" lon="35.02007390">
        <ele>316.00000</ele>
        <time>2010-01-01T03:18:01Z</time>
      </trkpt>
      <trkpt lat="31.80939250" lon="35.02016030">
        <ele>315.00000</ele>
        <time>2010-01-01T03:18:06Z</time>
      </trkpt>
      <trkpt lat="31.80949620" lon="35.02021550">
        <ele>314.00000</ele>
        <time>2010-01-01T03:18:11Z</time>
      </trkpt>
      <trkpt lat="31.80958010" lon="35.02024530">
        <ele>313.00000</ele>
        <time>2010-01-01T03:18:14Z</time>
      </trkpt>
      <trkpt lat="31.80960690" lon="35.02024430">
        <ele>313.00000</ele>
        <time>2010-01-01T03:18:15Z</time>
      </trkpt>
      <trkpt lat="31.80966500" lon="35.02040570">
        <ele>313.00000</ele>
        <time>2010-01-01T03:18:21Z</time>
      </trkpt>
    </trkseg>
  </trk>
</gpx>

